<?xml version="1.0" encoding="UTF-8"?>
<gpx version="1.1" creator="https://www.youtrack.es" xsi:schemaLocation="http://www.topografix.com/GPX/1/1 http://www.topografix.com/GPX/1/1/gpx.xsd http://www.garmin.com/xmlschemas/GpxExtensions/v3 http://www.garmin.com/xmlschemas/GpxExtensionsv3.xsd http://www.garmin.com/xmlschemas/TrackPointExtension/v1 http://www.garmin.com/xmlschemas/TrackPointExtensionv1.xsd" xmlns:gpxtpx="http://www.garmin.com/xmlschemas/TrackPointExtension/v1" xmlns:gpxx="http://www.garmin.com/xmlschemas/GpxExtensions/v3" xmlns:xsi="http://www.w3.org/2001/XMLSchema-instance">
  <metadata>
    <link href="https://www.youtrack.es">
      <text>YouTrack.es</text>
    </link>
    <time>2026-05-08T16:46:13Z</time>
  </metadata>
  <trk>
    <src>https://www.youtrack.es</src>
    <link href="https://www.youtrack.es/ruta/19875-pico-brazato--2-731-m-">
      <text>YouTrack.es</text>
    </link>
    <trkseg>
      <trkpt lat="" lon=""/>
      <trkpt lat="42.7591610" lon="-0.2344050">
        <ele>1634.0</ele>
        <time>2021-02-27T08:42:11Z</time>
      </trkpt>
      <trkpt lat="42.7591760" lon="-0.2343990">
        <ele>1633.8</ele>
        <time>2021-02-27T08:42:12Z</time>
      </trkpt>
      <trkpt lat="42.7592150" lon="-0.2344220">
        <ele>1634.0</ele>
        <time>2021-02-27T08:42:17Z</time>
      </trkpt>
      <trkpt lat="42.7592470" lon="-0.2344240">
        <ele>1634.2</ele>
        <time>2021-02-27T08:42:20Z</time>
      </trkpt>
      <trkpt lat="42.7592730" lon="-0.2344190">
        <ele>1634.2</ele>
        <time>2021-02-27T08:42:22Z</time>
      </trkpt>
      <trkpt lat="42.7593010" lon="-0.2344030">
        <ele>1634.0</ele>
        <time>2021-02-27T08:42:24Z</time>
      </trkpt>
      <trkpt lat="42.7593210" lon="-0.2343940">
        <ele>1634.2</ele>
        <time>2021-02-27T08:42:26Z</time>
      </trkpt>
      <trkpt lat="42.7593540" lon="-0.2343750">
        <ele>1634.6</ele>
        <time>2021-02-27T08:42:29Z</time>
      </trkpt>
      <trkpt lat="42.7593760" lon="-0.2343500">
        <ele>1635.4</ele>
        <time>2021-02-27T08:42:31Z</time>
      </trkpt>
      <trkpt lat="42.7594000" lon="-0.2343200">
        <ele>1635.6</ele>
        <time>2021-02-27T08:42:33Z</time>
      </trkpt>
      <trkpt lat="42.7594230" lon="-0.2342880">
        <ele>1635.4</ele>
        <time>2021-02-27T08:42:35Z</time>
      </trkpt>
      <trkpt lat="42.7594270" lon="-0.2342700">
        <ele>1635.4</ele>
        <time>2021-02-27T08:42:36Z</time>
      </trkpt>
      <trkpt lat="42.7594740" lon="-0.2342290">
        <ele>1635.2</ele>
        <time>2021-02-27T08:42:40Z</time>
      </trkpt>
      <trkpt lat="42.7595110" lon="-0.2341830">
        <ele>1635.8</ele>
        <time>2021-02-27T08:42:44Z</time>
      </trkpt>
      <trkpt lat="42.7595440" lon="-0.2341530">
        <ele>1636.0</ele>
        <time>2021-02-27T08:42:47Z</time>
      </trkpt>
      <trkpt lat="42.7595540" lon="-0.2341440">
        <ele>1636.0</ele>
        <time>2021-02-27T08:42:48Z</time>
      </trkpt>
      <trkpt lat="42.7595780" lon="-0.2341130">
        <ele>1636.2</ele>
        <time>2021-02-27T08:42:51Z</time>
      </trkpt>
      <trkpt lat="42.7595830" lon="-0.2341020">
        <ele>1636.4</ele>
        <time>2021-02-27T08:42:52Z</time>
      </trkpt>
      <trkpt lat="42.7595900" lon="-0.2340970">
        <ele>1636.6</ele>
        <time>2021-02-27T08:42:53Z</time>
      </trkpt>
      <trkpt lat="42.7595990" lon="-0.2340930">
        <ele>1636.8</ele>
        <time>2021-02-27T08:42:54Z</time>
      </trkpt>
      <trkpt lat="42.7596680" lon="-0.2340180">
        <ele>1637.6</ele>
        <time>2021-02-27T08:43:01Z</time>
      </trkpt>
      <trkpt lat="42.7596820" lon="-0.2339840">
        <ele>1637.6</ele>
        <time>2021-02-27T08:43:03Z</time>
      </trkpt>
      <trkpt lat="42.7597100" lon="-0.2339210">
        <ele>1637.2</ele>
        <time>2021-02-27T08:43:07Z</time>
      </trkpt>
      <trkpt lat="42.7597280" lon="-0.2338870">
        <ele>1637.0</ele>
        <time>2021-02-27T08:43:09Z</time>
      </trkpt>
      <trkpt lat="42.7597470" lon="-0.2338380">
        <ele>1637.4</ele>
        <time>2021-02-27T08:43:12Z</time>
      </trkpt>
      <trkpt lat="42.7597770" lon="-0.2337680">
        <ele>1638.8</ele>
        <time>2021-02-27T08:43:17Z</time>
      </trkpt>
      <trkpt lat="42.7597830" lon="-0.2337550">
        <ele>1638.8</ele>
        <time>2021-02-27T08:43:18Z</time>
      </trkpt>
      <trkpt lat="42.7597880" lon="-0.2337380">
        <ele>1638.8</ele>
        <time>2021-02-27T08:43:19Z</time>
      </trkpt>
      <trkpt lat="42.7598100" lon="-0.2336480">
        <ele>1638.6</ele>
        <time>2021-02-27T08:43:25Z</time>
      </trkpt>
      <trkpt lat="42.7598160" lon="-0.2336380">
        <ele>1638.4</ele>
        <time>2021-02-27T08:43:31Z</time>
      </trkpt>
      <trkpt lat="42.7598110" lon="-0.2336390">
        <ele>1638.4</ele>
        <time>2021-02-27T08:43:33Z</time>
      </trkpt>
      <trkpt lat="42.7598130" lon="-0.2336380">
        <ele>1638.2</ele>
        <time>2021-02-27T08:43:34Z</time>
      </trkpt>
      <trkpt lat="42.7598240" lon="-0.2336460">
        <ele>1638.2</ele>
        <time>2021-02-27T08:43:36Z</time>
      </trkpt>
      <trkpt lat="42.7598230" lon="-0.2336060">
        <ele>1638.2</ele>
        <time>2021-02-27T08:43:39Z</time>
      </trkpt>
      <trkpt lat="42.7598310" lon="-0.2336000">
        <ele>1638.6</ele>
        <time>2021-02-27T08:43:46Z</time>
      </trkpt>
      <trkpt lat="42.7598310" lon="-0.2336000">
        <ele>1638.6</ele>
        <time>2021-02-27T08:43:49Z</time>
      </trkpt>
      <trkpt lat="42.7598280" lon="-0.2336000">
        <ele>1638.6</ele>
        <time>2021-02-27T08:43:50Z</time>
      </trkpt>
      <trkpt lat="42.7598250" lon="-0.2336000">
        <ele>1638.8</ele>
        <time>2021-02-27T08:43:52Z</time>
      </trkpt>
      <trkpt lat="42.7598240" lon="-0.2336000">
        <ele>1639.0</ele>
        <time>2021-02-27T08:43:53Z</time>
      </trkpt>
      <trkpt lat="42.7598210" lon="-0.2335830">
        <ele>1639.4</ele>
        <time>2021-02-27T08:43:58Z</time>
      </trkpt>
      <trkpt lat="42.7598170" lon="-0.2335670">
        <ele>1639.4</ele>
        <time>2021-02-27T08:44:00Z</time>
      </trkpt>
      <trkpt lat="42.7598210" lon="-0.2335520">
        <ele>1639.8</ele>
        <time>2021-02-27T08:44:06Z</time>
      </trkpt>
      <trkpt lat="42.7598560" lon="-0.2334970">
        <ele>1639.4</ele>
        <time>2021-02-27T08:44:16Z</time>
      </trkpt>
      <trkpt lat="42.7598970" lon="-0.2334140">
        <ele>1639.2</ele>
        <time>2021-02-27T08:44:22Z</time>
      </trkpt>
      <trkpt lat="42.7599160" lon="-0.2333930">
        <ele>1639.4</ele>
        <time>2021-02-27T08:44:24Z</time>
      </trkpt>
      <trkpt lat="42.7599330" lon="-0.2333710">
        <ele>1639.6</ele>
        <time>2021-02-27T08:44:26Z</time>
      </trkpt>
      <trkpt lat="42.7599530" lon="-0.2333360">
        <ele>1640.0</ele>
        <time>2021-02-27T08:44:29Z</time>
      </trkpt>
      <trkpt lat="42.7599780" lon="-0.2333230">
        <ele>1640.2</ele>
        <time>2021-02-27T08:44:31Z</time>
      </trkpt>
      <trkpt lat="42.7599870" lon="-0.2333270">
        <ele>1640.2</ele>
        <time>2021-02-27T08:44:32Z</time>
      </trkpt>
      <trkpt lat="42.7599880" lon="-0.2333280">
        <ele>1640.4</ele>
        <time>2021-02-27T08:44:33Z</time>
      </trkpt>
      <trkpt lat="42.7600070" lon="-0.2333280">
        <ele>1640.6</ele>
        <time>2021-02-27T08:44:36Z</time>
      </trkpt>
      <trkpt lat="42.7600110" lon="-0.2333180">
        <ele>1640.8</ele>
        <time>2021-02-27T08:44:37Z</time>
      </trkpt>
      <trkpt lat="42.7600150" lon="-0.2333070">
        <ele>1640.8</ele>
        <time>2021-02-27T08:44:38Z</time>
      </trkpt>
      <trkpt lat="42.7600030" lon="-0.2332800">
        <ele>1640.4</ele>
        <time>2021-02-27T08:44:41Z</time>
      </trkpt>
      <trkpt lat="42.7600070" lon="-0.2332660">
        <ele>1640.6</ele>
        <time>2021-02-27T08:44:42Z</time>
      </trkpt>
      <trkpt lat="42.7600510" lon="-0.2332010">
        <ele>1640.4</ele>
        <time>2021-02-27T08:44:47Z</time>
      </trkpt>
      <trkpt lat="42.7600480" lon="-0.2331750">
        <ele>1641.4</ele>
        <time>2021-02-27T08:44:49Z</time>
      </trkpt>
      <trkpt lat="42.7600450" lon="-0.2331580">
        <ele>1640.2</ele>
        <time>2021-02-27T08:44:51Z</time>
      </trkpt>
      <trkpt lat="42.7600430" lon="-0.2331370">
        <ele>1640.0</ele>
        <time>2021-02-27T08:44:53Z</time>
      </trkpt>
      <trkpt lat="42.7600570" lon="-0.2331120">
        <ele>1640.2</ele>
        <time>2021-02-27T08:44:55Z</time>
      </trkpt>
      <trkpt lat="42.7600700" lon="-0.2330910">
        <ele>1640.4</ele>
        <time>2021-02-27T08:44:57Z</time>
      </trkpt>
      <trkpt lat="42.7600690" lon="-0.2330790">
        <ele>1640.4</ele>
        <time>2021-02-27T08:44:58Z</time>
      </trkpt>
      <trkpt lat="42.7600620" lon="-0.2330510">
        <ele>1640.8</ele>
        <time>2021-02-27T08:45:00Z</time>
      </trkpt>
      <trkpt lat="42.7600610" lon="-0.2330330">
        <ele>1641.0</ele>
        <time>2021-02-27T08:45:03Z</time>
      </trkpt>
      <trkpt lat="42.7600240" lon="-0.2330040">
        <ele>1641.0</ele>
        <time>2021-02-27T08:45:08Z</time>
      </trkpt>
      <trkpt lat="42.7600160" lon="-0.2330030">
        <ele>1641.2</ele>
        <time>2021-02-27T08:45:11Z</time>
      </trkpt>
      <trkpt lat="42.7600150" lon="-0.2329910">
        <ele>1641.4</ele>
        <time>2021-02-27T08:45:16Z</time>
      </trkpt>
      <trkpt lat="42.7599700" lon="-0.2329320">
        <ele>1641.6</ele>
        <time>2021-02-27T08:45:22Z</time>
      </trkpt>
      <trkpt lat="42.7599610" lon="-0.2329220">
        <ele>1641.6</ele>
        <time>2021-02-27T08:45:23Z</time>
      </trkpt>
      <trkpt lat="42.7599340" lon="-0.2328900">
        <ele>1641.8</ele>
        <time>2021-02-27T08:45:27Z</time>
      </trkpt>
      <trkpt lat="42.7599100" lon="-0.2328630">
        <ele>1642.2</ele>
        <time>2021-02-27T08:45:30Z</time>
      </trkpt>
      <trkpt lat="42.7599040" lon="-0.2328530">
        <ele>1642.4</ele>
        <time>2021-02-27T08:45:32Z</time>
      </trkpt>
      <trkpt lat="42.7598840" lon="-0.2328390">
        <ele>1643.0</ele>
        <time>2021-02-27T08:45:34Z</time>
      </trkpt>
      <trkpt lat="42.7598680" lon="-0.2328180">
        <ele>1644.0</ele>
        <time>2021-02-27T08:45:38Z</time>
      </trkpt>
      <trkpt lat="42.7598670" lon="-0.2328140">
        <ele>1644.2</ele>
        <time>2021-02-27T08:45:39Z</time>
      </trkpt>
      <trkpt lat="42.7598640" lon="-0.2328090">
        <ele>1644.4</ele>
        <time>2021-02-27T08:45:40Z</time>
      </trkpt>
      <trkpt lat="42.7598480" lon="-0.2328000">
        <ele>1645.2</ele>
        <time>2021-02-27T08:45:43Z</time>
      </trkpt>
      <trkpt lat="42.7598310" lon="-0.2328190">
        <ele>1645.4</ele>
        <time>2021-02-27T08:45:47Z</time>
      </trkpt>
      <trkpt lat="42.7598180" lon="-0.2328300">
        <ele>1645.6</ele>
        <time>2021-02-27T08:45:51Z</time>
      </trkpt>
      <trkpt lat="42.7598250" lon="-0.2328300">
        <ele>1645.6</ele>
        <time>2021-02-27T08:45:52Z</time>
      </trkpt>
      <trkpt lat="42.7598700" lon="-0.2328030">
        <ele>1645.2</ele>
        <time>2021-02-27T08:45:58Z</time>
      </trkpt>
      <trkpt lat="42.7598850" lon="-0.2327430">
        <ele>1645.0</ele>
        <time>2021-02-27T08:46:04Z</time>
      </trkpt>
      <trkpt lat="42.7598510" lon="-0.2327900">
        <ele>1644.8</ele>
        <time>2021-02-27T08:46:08Z</time>
      </trkpt>
      <trkpt lat="42.7598270" lon="-0.2328100">
        <ele>1645.0</ele>
        <time>2021-02-27T08:46:10Z</time>
      </trkpt>
      <trkpt lat="42.7598060" lon="-0.2328330">
        <ele>1645.0</ele>
        <time>2021-02-27T08:46:12Z</time>
      </trkpt>
      <trkpt lat="42.7597710" lon="-0.2328750">
        <ele>1645.2</ele>
        <time>2021-02-27T08:46:16Z</time>
      </trkpt>
      <trkpt lat="42.7597510" lon="-0.2329130">
        <ele>1645.4</ele>
        <time>2021-02-27T08:46:19Z</time>
      </trkpt>
      <trkpt lat="42.7597340" lon="-0.2329370">
        <ele>1645.4</ele>
        <time>2021-02-27T08:46:21Z</time>
      </trkpt>
      <trkpt lat="42.7597040" lon="-0.2329360">
        <ele>1644.8</ele>
        <time>2021-02-27T08:46:25Z</time>
      </trkpt>
      <trkpt lat="42.7597060" lon="-0.2329410">
        <ele>1644.8</ele>
        <time>2021-02-27T08:46:26Z</time>
      </trkpt>
      <trkpt lat="42.7597060" lon="-0.2329390">
        <ele>1644.8</ele>
        <time>2021-02-27T08:46:28Z</time>
      </trkpt>
      <trkpt lat="42.7596980" lon="-0.2329170">
        <ele>1645.2</ele>
        <time>2021-02-27T08:46:31Z</time>
      </trkpt>
      <trkpt lat="42.7596630" lon="-0.2328620">
        <ele>1646.0</ele>
        <time>2021-02-27T08:46:36Z</time>
      </trkpt>
      <trkpt lat="42.7596540" lon="-0.2328480">
        <ele>1646.4</ele>
        <time>2021-02-27T08:46:38Z</time>
      </trkpt>
      <trkpt lat="42.7596230" lon="-0.2328330">
        <ele>1647.2</ele>
        <time>2021-02-27T08:46:45Z</time>
      </trkpt>
      <trkpt lat="42.7596220" lon="-0.2328310">
        <ele>1647.6</ele>
        <time>2021-02-27T08:46:46Z</time>
      </trkpt>
      <trkpt lat="42.7596100" lon="-0.2328290">
        <ele>1648.8</ele>
        <time>2021-02-27T08:46:52Z</time>
      </trkpt>
      <trkpt lat="42.7596370" lon="-0.2328300">
        <ele>1649.4</ele>
        <time>2021-02-27T08:46:56Z</time>
      </trkpt>
      <trkpt lat="42.7596460" lon="-0.2328060">
        <ele>1649.8</ele>
        <time>2021-02-27T08:46:59Z</time>
      </trkpt>
      <trkpt lat="42.7596550" lon="-0.2327790">
        <ele>1650.0</ele>
        <time>2021-02-27T08:47:02Z</time>
      </trkpt>
      <trkpt lat="42.7596940" lon="-0.2327400">
        <ele>1650.2</ele>
        <time>2021-02-27T08:47:06Z</time>
      </trkpt>
      <trkpt lat="42.7597320" lon="-0.2327190">
        <ele>1650.0</ele>
        <time>2021-02-27T08:47:10Z</time>
      </trkpt>
      <trkpt lat="42.7597370" lon="-0.2327200">
        <ele>1650.0</ele>
        <time>2021-02-27T08:47:11Z</time>
      </trkpt>
      <trkpt lat="42.7597610" lon="-0.2327090">
        <ele>1650.2</ele>
        <time>2021-02-27T08:47:15Z</time>
      </trkpt>
      <trkpt lat="42.7597720" lon="-0.2326890">
        <ele>1650.4</ele>
        <time>2021-02-27T08:47:17Z</time>
      </trkpt>
      <trkpt lat="42.7597770" lon="-0.2326740">
        <ele>1650.4</ele>
        <time>2021-02-27T08:47:19Z</time>
      </trkpt>
      <trkpt lat="42.7597860" lon="-0.2326680">
        <ele>1650.4</ele>
        <time>2021-02-27T08:47:20Z</time>
      </trkpt>
      <trkpt lat="42.7598060" lon="-0.2326600">
        <ele>1650.6</ele>
        <time>2021-02-27T08:47:22Z</time>
      </trkpt>
      <trkpt lat="42.7598180" lon="-0.2326540">
        <ele>1650.8</ele>
        <time>2021-02-27T08:47:23Z</time>
      </trkpt>
      <trkpt lat="42.7598300" lon="-0.2326470">
        <ele>1650.8</ele>
        <time>2021-02-27T08:47:24Z</time>
      </trkpt>
      <trkpt lat="42.7598780" lon="-0.2326140">
        <ele>1651.6</ele>
        <time>2021-02-27T08:47:30Z</time>
      </trkpt>
      <trkpt lat="42.7598870" lon="-0.2326080">
        <ele>1651.8</ele>
        <time>2021-02-27T08:47:31Z</time>
      </trkpt>
      <trkpt lat="42.7599330" lon="-0.2325750">
        <ele>1652.2</ele>
        <time>2021-02-27T08:47:34Z</time>
      </trkpt>
      <trkpt lat="42.7599600" lon="-0.2325560">
        <ele>1652.6</ele>
        <time>2021-02-27T08:47:37Z</time>
      </trkpt>
      <trkpt lat="42.7599820" lon="-0.2325490">
        <ele>1652.6</ele>
        <time>2021-02-27T08:47:39Z</time>
      </trkpt>
      <trkpt lat="42.7599980" lon="-0.2325490">
        <ele>1653.0</ele>
        <time>2021-02-27T08:47:41Z</time>
      </trkpt>
      <trkpt lat="42.7600440" lon="-0.2325330">
        <ele>1653.4</ele>
        <time>2021-02-27T08:47:46Z</time>
      </trkpt>
      <trkpt lat="42.7600520" lon="-0.2325290">
        <ele>1653.4</ele>
        <time>2021-02-27T08:47:47Z</time>
      </trkpt>
      <trkpt lat="42.7601010" lon="-0.2325190">
        <ele>1654.0</ele>
        <time>2021-02-27T08:47:52Z</time>
      </trkpt>
      <trkpt lat="42.7601320" lon="-0.2325320">
        <ele>1654.4</ele>
        <time>2021-02-27T08:47:54Z</time>
      </trkpt>
      <trkpt lat="42.7601620" lon="-0.2325370">
        <ele>1655.0</ele>
        <time>2021-02-27T08:47:57Z</time>
      </trkpt>
      <trkpt lat="42.7601660" lon="-0.2325400">
        <ele>1655.2</ele>
        <time>2021-02-27T08:47:58Z</time>
      </trkpt>
      <trkpt lat="42.7601910" lon="-0.2325430">
        <ele>1655.4</ele>
        <time>2021-02-27T08:48:00Z</time>
      </trkpt>
      <trkpt lat="42.7602390" lon="-0.2325470">
        <ele>1656.0</ele>
        <time>2021-02-27T08:48:05Z</time>
      </trkpt>
      <trkpt lat="42.7602690" lon="-0.2325570">
        <ele>1656.2</ele>
        <time>2021-02-27T08:48:07Z</time>
      </trkpt>
      <trkpt lat="42.7602910" lon="-0.2325540">
        <ele>1656.4</ele>
        <time>2021-02-27T08:48:09Z</time>
      </trkpt>
      <trkpt lat="42.7603520" lon="-0.2325350">
        <ele>1657.2</ele>
        <time>2021-02-27T08:48:16Z</time>
      </trkpt>
      <trkpt lat="42.7603760" lon="-0.2325190">
        <ele>1658.0</ele>
        <time>2021-02-27T08:48:20Z</time>
      </trkpt>
      <trkpt lat="42.7603840" lon="-0.2325180">
        <ele>1658.0</ele>
        <time>2021-02-27T08:48:21Z</time>
      </trkpt>
      <trkpt lat="42.7603980" lon="-0.2325090">
        <ele>1658.4</ele>
        <time>2021-02-27T08:48:23Z</time>
      </trkpt>
      <trkpt lat="42.7604100" lon="-0.2324860">
        <ele>1658.8</ele>
        <time>2021-02-27T08:48:25Z</time>
      </trkpt>
      <trkpt lat="42.7604180" lon="-0.2324700">
        <ele>1659.0</ele>
        <time>2021-02-27T08:48:26Z</time>
      </trkpt>
      <trkpt lat="42.7604380" lon="-0.2324240">
        <ele>1659.6</ele>
        <time>2021-02-27T08:48:30Z</time>
      </trkpt>
      <trkpt lat="42.7604400" lon="-0.2323990">
        <ele>1659.8</ele>
        <time>2021-02-27T08:48:32Z</time>
      </trkpt>
      <trkpt lat="42.7604480" lon="-0.2323580">
        <ele>1660.2</ele>
        <time>2021-02-27T08:48:34Z</time>
      </trkpt>
      <trkpt lat="42.7604470" lon="-0.2323370">
        <ele>1660.6</ele>
        <time>2021-02-27T08:48:36Z</time>
      </trkpt>
      <trkpt lat="42.7604510" lon="-0.2323150">
        <ele>1661.0</ele>
        <time>2021-02-27T08:48:38Z</time>
      </trkpt>
      <trkpt lat="42.7604880" lon="-0.2322150">
        <ele>1660.8</ele>
        <time>2021-02-27T08:48:46Z</time>
      </trkpt>
      <trkpt lat="42.7605000" lon="-0.2321890">
        <ele>1660.8</ele>
        <time>2021-02-27T08:48:48Z</time>
      </trkpt>
      <trkpt lat="42.7605080" lon="-0.2321370">
        <ele>1661.6</ele>
        <time>2021-02-27T08:48:52Z</time>
      </trkpt>
      <trkpt lat="42.7605110" lon="-0.2321290">
        <ele>1661.6</ele>
        <time>2021-02-27T08:48:53Z</time>
      </trkpt>
      <trkpt lat="42.7605250" lon="-0.2321080">
        <ele>1661.8</ele>
        <time>2021-02-27T08:48:55Z</time>
      </trkpt>
      <trkpt lat="42.7605490" lon="-0.2320890">
        <ele>1662.0</ele>
        <time>2021-02-27T08:48:58Z</time>
      </trkpt>
      <trkpt lat="42.7605810" lon="-0.2320700">
        <ele>1662.4</ele>
        <time>2021-02-27T08:49:00Z</time>
      </trkpt>
      <trkpt lat="42.7606010" lon="-0.2320640">
        <ele>1663.0</ele>
        <time>2021-02-27T08:49:02Z</time>
      </trkpt>
      <trkpt lat="42.7606230" lon="-0.2320510">
        <ele>1663.4</ele>
        <time>2021-02-27T08:49:04Z</time>
      </trkpt>
      <trkpt lat="42.7606430" lon="-0.2320360">
        <ele>1664.0</ele>
        <time>2021-02-27T08:49:07Z</time>
      </trkpt>
      <trkpt lat="42.7606510" lon="-0.2320360">
        <ele>1664.2</ele>
        <time>2021-02-27T08:49:08Z</time>
      </trkpt>
      <trkpt lat="42.7606630" lon="-0.2320310">
        <ele>1664.4</ele>
        <time>2021-02-27T08:49:10Z</time>
      </trkpt>
      <trkpt lat="42.7606910" lon="-0.2320130">
        <ele>1664.6</ele>
        <time>2021-02-27T08:49:14Z</time>
      </trkpt>
      <trkpt lat="42.7607000" lon="-0.2320030">
        <ele>1664.6</ele>
        <time>2021-02-27T08:49:15Z</time>
      </trkpt>
      <trkpt lat="42.7607140" lon="-0.2319650">
        <ele>1664.8</ele>
        <time>2021-02-27T08:49:18Z</time>
      </trkpt>
      <trkpt lat="42.7606950" lon="-0.2319430">
        <ele>1664.8</ele>
        <time>2021-02-27T08:49:20Z</time>
      </trkpt>
      <trkpt lat="42.7606850" lon="-0.2319430">
        <ele>1665.2</ele>
        <time>2021-02-27T08:49:21Z</time>
      </trkpt>
      <trkpt lat="42.7606420" lon="-0.2319450">
        <ele>1666.2</ele>
        <time>2021-02-27T08:49:25Z</time>
      </trkpt>
      <trkpt lat="42.7606340" lon="-0.2319440">
        <ele>1666.4</ele>
        <time>2021-02-27T08:49:26Z</time>
      </trkpt>
      <trkpt lat="42.7606210" lon="-0.2319380">
        <ele>1667.0</ele>
        <time>2021-02-27T08:49:28Z</time>
      </trkpt>
      <trkpt lat="42.7605990" lon="-0.2319420">
        <ele>1667.2</ele>
        <time>2021-02-27T08:49:30Z</time>
      </trkpt>
      <trkpt lat="42.7605930" lon="-0.2319420">
        <ele>1667.4</ele>
        <time>2021-02-27T08:49:31Z</time>
      </trkpt>
      <trkpt lat="42.7605200" lon="-0.2319150">
        <ele>1667.4</ele>
        <time>2021-02-27T08:49:37Z</time>
      </trkpt>
      <trkpt lat="42.7605070" lon="-0.2319140">
        <ele>1667.2</ele>
        <time>2021-02-27T08:49:38Z</time>
      </trkpt>
      <trkpt lat="42.7604640" lon="-0.2318980">
        <ele>1667.4</ele>
        <time>2021-02-27T08:49:41Z</time>
      </trkpt>
      <trkpt lat="42.7604070" lon="-0.2318880">
        <ele>1667.6</ele>
        <time>2021-02-27T08:49:45Z</time>
      </trkpt>
      <trkpt lat="42.7603970" lon="-0.2318880">
        <ele>1667.6</ele>
        <time>2021-02-27T08:49:46Z</time>
      </trkpt>
      <trkpt lat="42.7603820" lon="-0.2318920">
        <ele>1667.8</ele>
        <time>2021-02-27T08:49:48Z</time>
      </trkpt>
      <trkpt lat="42.7603320" lon="-0.2318920">
        <ele>1668.0</ele>
        <time>2021-02-27T08:49:51Z</time>
      </trkpt>
      <trkpt lat="42.7603090" lon="-0.2318920">
        <ele>1668.2</ele>
        <time>2021-02-27T08:49:53Z</time>
      </trkpt>
      <trkpt lat="42.7603020" lon="-0.2318990">
        <ele>1668.4</ele>
        <time>2021-02-27T08:49:54Z</time>
      </trkpt>
      <trkpt lat="42.7602930" lon="-0.2319070">
        <ele>1668.4</ele>
        <time>2021-02-27T08:49:55Z</time>
      </trkpt>
      <trkpt lat="42.7602860" lon="-0.2319170">
        <ele>1668.6</ele>
        <time>2021-02-27T08:49:56Z</time>
      </trkpt>
      <trkpt lat="42.7602380" lon="-0.2319360">
        <ele>1669.0</ele>
        <time>2021-02-27T08:50:00Z</time>
      </trkpt>
      <trkpt lat="42.7602130" lon="-0.2319420">
        <ele>1669.2</ele>
        <time>2021-02-27T08:50:02Z</time>
      </trkpt>
      <trkpt lat="42.7601890" lon="-0.2319560">
        <ele>1669.4</ele>
        <time>2021-02-27T08:50:04Z</time>
      </trkpt>
      <trkpt lat="42.7601800" lon="-0.2319620">
        <ele>1669.6</ele>
        <time>2021-02-27T08:50:05Z</time>
      </trkpt>
      <trkpt lat="42.7601390" lon="-0.2319720">
        <ele>1669.8</ele>
        <time>2021-02-27T08:50:08Z</time>
      </trkpt>
      <trkpt lat="42.7601280" lon="-0.2319690">
        <ele>1669.8</ele>
        <time>2021-02-27T08:50:09Z</time>
      </trkpt>
      <trkpt lat="42.7600970" lon="-0.2319500">
        <ele>1670.0</ele>
        <time>2021-02-27T08:50:11Z</time>
      </trkpt>
      <trkpt lat="42.7600560" lon="-0.2319420">
        <ele>1670.4</ele>
        <time>2021-02-27T08:50:14Z</time>
      </trkpt>
      <trkpt lat="42.7600480" lon="-0.2319490">
        <ele>1670.8</ele>
        <time>2021-02-27T08:50:16Z</time>
      </trkpt>
      <trkpt lat="42.7600300" lon="-0.2319470">
        <ele>1670.6</ele>
        <time>2021-02-27T08:50:18Z</time>
      </trkpt>
      <trkpt lat="42.7600230" lon="-0.2319500">
        <ele>1670.8</ele>
        <time>2021-02-27T08:50:19Z</time>
      </trkpt>
      <trkpt lat="42.7600060" lon="-0.2319570">
        <ele>1671.4</ele>
        <time>2021-02-27T08:50:23Z</time>
      </trkpt>
      <trkpt lat="42.7600110" lon="-0.2319580">
        <ele>1671.4</ele>
        <time>2021-02-27T08:50:25Z</time>
      </trkpt>
      <trkpt lat="42.7600670" lon="-0.2319580">
        <ele>1672.4</ele>
        <time>2021-02-27T08:50:31Z</time>
      </trkpt>
      <trkpt lat="42.7600850" lon="-0.2319580">
        <ele>1672.6</ele>
        <time>2021-02-27T08:50:33Z</time>
      </trkpt>
      <trkpt lat="42.7601100" lon="-0.2319570">
        <ele>1673.2</ele>
        <time>2021-02-27T08:50:37Z</time>
      </trkpt>
      <trkpt lat="42.7601350" lon="-0.2319590">
        <ele>1673.4</ele>
        <time>2021-02-27T08:50:40Z</time>
      </trkpt>
      <trkpt lat="42.7601530" lon="-0.2319630">
        <ele>1673.6</ele>
        <time>2021-02-27T08:50:42Z</time>
      </trkpt>
      <trkpt lat="42.7601700" lon="-0.2319460">
        <ele>1674.0</ele>
        <time>2021-02-27T08:50:45Z</time>
      </trkpt>
      <trkpt lat="42.7601860" lon="-0.2319380">
        <ele>1674.2</ele>
        <time>2021-02-27T08:50:47Z</time>
      </trkpt>
      <trkpt lat="42.7602050" lon="-0.2319200">
        <ele>1674.4</ele>
        <time>2021-02-27T08:50:49Z</time>
      </trkpt>
      <trkpt lat="42.7602200" lon="-0.2319220">
        <ele>1674.6</ele>
        <time>2021-02-27T08:50:52Z</time>
      </trkpt>
      <trkpt lat="42.7602240" lon="-0.2318950">
        <ele>1675.0</ele>
        <time>2021-02-27T08:50:54Z</time>
      </trkpt>
      <trkpt lat="42.7602410" lon="-0.2318700">
        <ele>1675.4</ele>
        <time>2021-02-27T08:50:57Z</time>
      </trkpt>
      <trkpt lat="42.7602550" lon="-0.2318520">
        <ele>1675.8</ele>
        <time>2021-02-27T08:51:00Z</time>
      </trkpt>
      <trkpt lat="42.7602610" lon="-0.2318460">
        <ele>1675.8</ele>
        <time>2021-02-27T08:51:01Z</time>
      </trkpt>
      <trkpt lat="42.7602710" lon="-0.2318340">
        <ele>1676.2</ele>
        <time>2021-02-27T08:51:03Z</time>
      </trkpt>
      <trkpt lat="42.7602800" lon="-0.2318240">
        <ele>1676.2</ele>
        <time>2021-02-27T08:51:04Z</time>
      </trkpt>
      <trkpt lat="42.7602910" lon="-0.2318160">
        <ele>1676.4</ele>
        <time>2021-02-27T08:51:05Z</time>
      </trkpt>
      <trkpt lat="42.7603110" lon="-0.2318100">
        <ele>1676.6</ele>
        <time>2021-02-27T08:51:07Z</time>
      </trkpt>
      <trkpt lat="42.7603280" lon="-0.2317910">
        <ele>1676.6</ele>
        <time>2021-02-27T08:51:09Z</time>
      </trkpt>
      <trkpt lat="42.7603500" lon="-0.2317800">
        <ele>1676.8</ele>
        <time>2021-02-27T08:51:11Z</time>
      </trkpt>
      <trkpt lat="42.7603590" lon="-0.2317760">
        <ele>1676.8</ele>
        <time>2021-02-27T08:51:12Z</time>
      </trkpt>
      <trkpt lat="42.7603800" lon="-0.2317750">
        <ele>1677.0</ele>
        <time>2021-02-27T08:51:14Z</time>
      </trkpt>
      <trkpt lat="42.7604040" lon="-0.2317820">
        <ele>1677.4</ele>
        <time>2021-02-27T08:51:17Z</time>
      </trkpt>
      <trkpt lat="42.7604330" lon="-0.2317580">
        <ele>1677.8</ele>
        <time>2021-02-27T08:51:22Z</time>
      </trkpt>
      <trkpt lat="42.7604510" lon="-0.2317400">
        <ele>1678.2</ele>
        <time>2021-02-27T08:51:24Z</time>
      </trkpt>
      <trkpt lat="42.7604840" lon="-0.2317340">
        <ele>1678.8</ele>
        <time>2021-02-27T08:51:28Z</time>
      </trkpt>
      <trkpt lat="42.7605010" lon="-0.2317290">
        <ele>1678.8</ele>
        <time>2021-02-27T08:51:30Z</time>
      </trkpt>
      <trkpt lat="42.7605110" lon="-0.2317240">
        <ele>1679.0</ele>
        <time>2021-02-27T08:51:31Z</time>
      </trkpt>
      <trkpt lat="42.7605230" lon="-0.2317130">
        <ele>1679.0</ele>
        <time>2021-02-27T08:51:32Z</time>
      </trkpt>
      <trkpt lat="42.7605290" lon="-0.2316980">
        <ele>1679.0</ele>
        <time>2021-02-27T08:51:33Z</time>
      </trkpt>
      <trkpt lat="42.7605490" lon="-0.2316620">
        <ele>1679.4</ele>
        <time>2021-02-27T08:51:35Z</time>
      </trkpt>
      <trkpt lat="42.7605780" lon="-0.2316390">
        <ele>1678.8</ele>
        <time>2021-02-27T08:51:37Z</time>
      </trkpt>
      <trkpt lat="42.7606090" lon="-0.2316460">
        <ele>1678.6</ele>
        <time>2021-02-27T08:51:40Z</time>
      </trkpt>
      <trkpt lat="42.7606210" lon="-0.2316280">
        <ele>1678.8</ele>
        <time>2021-02-27T08:51:42Z</time>
      </trkpt>
      <trkpt lat="42.7606390" lon="-0.2316090">
        <ele>1679.0</ele>
        <time>2021-02-27T08:51:44Z</time>
      </trkpt>
      <trkpt lat="42.7606560" lon="-0.2315960">
        <ele>1679.2</ele>
        <time>2021-02-27T08:51:46Z</time>
      </trkpt>
      <trkpt lat="42.7607030" lon="-0.2315840">
        <ele>1680.0</ele>
        <time>2021-02-27T08:51:51Z</time>
      </trkpt>
      <trkpt lat="42.7607140" lon="-0.2315880">
        <ele>1680.2</ele>
        <time>2021-02-27T08:51:52Z</time>
      </trkpt>
      <trkpt lat="42.7607720" lon="-0.2315550">
        <ele>1680.4</ele>
        <time>2021-02-27T08:51:57Z</time>
      </trkpt>
      <trkpt lat="42.7608110" lon="-0.2315570">
        <ele>1680.8</ele>
        <time>2021-02-27T08:52:00Z</time>
      </trkpt>
      <trkpt lat="42.7608270" lon="-0.2315480">
        <ele>1681.0</ele>
        <time>2021-02-27T08:52:01Z</time>
      </trkpt>
      <trkpt lat="42.7608420" lon="-0.2314960">
        <ele>1681.4</ele>
        <time>2021-02-27T08:52:03Z</time>
      </trkpt>
      <trkpt lat="42.7608570" lon="-0.2314560">
        <ele>1681.8</ele>
        <time>2021-02-27T08:52:05Z</time>
      </trkpt>
      <trkpt lat="42.7608590" lon="-0.2314390">
        <ele>1682.0</ele>
        <time>2021-02-27T08:52:06Z</time>
      </trkpt>
      <trkpt lat="42.7608440" lon="-0.2314050">
        <ele>1682.6</ele>
        <time>2021-02-27T08:52:08Z</time>
      </trkpt>
      <trkpt lat="42.7608230" lon="-0.2313850">
        <ele>1683.0</ele>
        <time>2021-02-27T08:52:10Z</time>
      </trkpt>
      <trkpt lat="42.7608130" lon="-0.2313800">
        <ele>1683.0</ele>
        <time>2021-02-27T08:52:11Z</time>
      </trkpt>
      <trkpt lat="42.7608050" lon="-0.2313760">
        <ele>1683.2</ele>
        <time>2021-02-27T08:52:12Z</time>
      </trkpt>
      <trkpt lat="42.7607430" lon="-0.2313450">
        <ele>1683.6</ele>
        <time>2021-02-27T08:52:20Z</time>
      </trkpt>
      <trkpt lat="42.7606760" lon="-0.2312920">
        <ele>1684.4</ele>
        <time>2021-02-27T08:52:25Z</time>
      </trkpt>
      <trkpt lat="42.7606280" lon="-0.2312770">
        <ele>1685.2</ele>
        <time>2021-02-27T08:52:29Z</time>
      </trkpt>
      <trkpt lat="42.7606100" lon="-0.2312710">
        <ele>1685.4</ele>
        <time>2021-02-27T08:52:30Z</time>
      </trkpt>
      <trkpt lat="42.7605590" lon="-0.2312760">
        <ele>1685.8</ele>
        <time>2021-02-27T08:52:33Z</time>
      </trkpt>
      <trkpt lat="42.7605200" lon="-0.2313030">
        <ele>1686.0</ele>
        <time>2021-02-27T08:52:36Z</time>
      </trkpt>
      <trkpt lat="42.7604980" lon="-0.2313120">
        <ele>1686.2</ele>
        <time>2021-02-27T08:52:39Z</time>
      </trkpt>
      <trkpt lat="42.7604890" lon="-0.2313080">
        <ele>1686.4</ele>
        <time>2021-02-27T08:52:44Z</time>
      </trkpt>
      <trkpt lat="42.7604950" lon="-0.2312990">
        <ele>1686.6</ele>
        <time>2021-02-27T08:52:45Z</time>
      </trkpt>
      <trkpt lat="42.7604990" lon="-0.2312920">
        <ele>1686.6</ele>
        <time>2021-02-27T08:52:46Z</time>
      </trkpt>
      <trkpt lat="42.7605100" lon="-0.2312650">
        <ele>1687.2</ele>
        <time>2021-02-27T08:52:49Z</time>
      </trkpt>
      <trkpt lat="42.7605190" lon="-0.2312620">
        <ele>1687.4</ele>
        <time>2021-02-27T08:52:50Z</time>
      </trkpt>
      <trkpt lat="42.7605300" lon="-0.2312610">
        <ele>1687.6</ele>
        <time>2021-02-27T08:52:51Z</time>
      </trkpt>
      <trkpt lat="42.7605400" lon="-0.2312610">
        <ele>1687.8</ele>
        <time>2021-02-27T08:52:52Z</time>
      </trkpt>
      <trkpt lat="42.7605630" lon="-0.2312560">
        <ele>1688.2</ele>
        <time>2021-02-27T08:52:55Z</time>
      </trkpt>
      <trkpt lat="42.7605650" lon="-0.2312570">
        <ele>1688.4</ele>
        <time>2021-02-27T08:52:56Z</time>
      </trkpt>
      <trkpt lat="42.7605800" lon="-0.2312460">
        <ele>1688.6</ele>
        <time>2021-02-27T08:52:58Z</time>
      </trkpt>
      <trkpt lat="42.7606030" lon="-0.2312260">
        <ele>1688.8</ele>
        <time>2021-02-27T08:53:00Z</time>
      </trkpt>
      <trkpt lat="42.7606310" lon="-0.2312280">
        <ele>1689.2</ele>
        <time>2021-02-27T08:53:02Z</time>
      </trkpt>
      <trkpt lat="42.7606960" lon="-0.2312130">
        <ele>1689.4</ele>
        <time>2021-02-27T08:53:08Z</time>
      </trkpt>
      <trkpt lat="42.7607010" lon="-0.2312230">
        <ele>1689.6</ele>
        <time>2021-02-27T08:53:10Z</time>
      </trkpt>
      <trkpt lat="42.7607350" lon="-0.2312190">
        <ele>1690.2</ele>
        <time>2021-02-27T08:53:15Z</time>
      </trkpt>
      <trkpt lat="42.7607720" lon="-0.2312500">
        <ele>1690.8</ele>
        <time>2021-02-27T08:53:21Z</time>
      </trkpt>
      <trkpt lat="42.7607810" lon="-0.2312490">
        <ele>1691.0</ele>
        <time>2021-02-27T08:53:22Z</time>
      </trkpt>
      <trkpt lat="42.7608030" lon="-0.2312490">
        <ele>1691.4</ele>
        <time>2021-02-27T08:53:25Z</time>
      </trkpt>
      <trkpt lat="42.7608060" lon="-0.2312580">
        <ele>1691.4</ele>
        <time>2021-02-27T08:53:26Z</time>
      </trkpt>
      <trkpt lat="42.7608240" lon="-0.2312870">
        <ele>1691.6</ele>
        <time>2021-02-27T08:53:29Z</time>
      </trkpt>
      <trkpt lat="42.7608340" lon="-0.2312860">
        <ele>1691.8</ele>
        <time>2021-02-27T08:53:30Z</time>
      </trkpt>
      <trkpt lat="42.7608550" lon="-0.2312780">
        <ele>1692.0</ele>
        <time>2021-02-27T08:53:32Z</time>
      </trkpt>
      <trkpt lat="42.7608660" lon="-0.2312600">
        <ele>1692.4</ele>
        <time>2021-02-27T08:53:34Z</time>
      </trkpt>
      <trkpt lat="42.7608740" lon="-0.2312420">
        <ele>1692.4</ele>
        <time>2021-02-27T08:53:35Z</time>
      </trkpt>
      <trkpt lat="42.7608830" lon="-0.2311920">
        <ele>1692.8</ele>
        <time>2021-02-27T08:53:38Z</time>
      </trkpt>
      <trkpt lat="42.7608490" lon="-0.2311340">
        <ele>1693.6</ele>
        <time>2021-02-27T08:53:43Z</time>
      </trkpt>
      <trkpt lat="42.7608330" lon="-0.2311160">
        <ele>1694.0</ele>
        <time>2021-02-27T08:53:45Z</time>
      </trkpt>
      <trkpt lat="42.7608250" lon="-0.2311070">
        <ele>1694.0</ele>
        <time>2021-02-27T08:53:46Z</time>
      </trkpt>
      <trkpt lat="42.7608150" lon="-0.2310980">
        <ele>1694.2</ele>
        <time>2021-02-27T08:53:47Z</time>
      </trkpt>
      <trkpt lat="42.7607760" lon="-0.2310790">
        <ele>1694.8</ele>
        <time>2021-02-27T08:53:51Z</time>
      </trkpt>
      <trkpt lat="42.7607660" lon="-0.2310680">
        <ele>1694.8</ele>
        <time>2021-02-27T08:53:52Z</time>
      </trkpt>
      <trkpt lat="42.7607540" lon="-0.2310580">
        <ele>1695.0</ele>
        <time>2021-02-27T08:53:53Z</time>
      </trkpt>
      <trkpt lat="42.7607080" lon="-0.2310320">
        <ele>1695.2</ele>
        <time>2021-02-27T08:53:57Z</time>
      </trkpt>
      <trkpt lat="42.7606990" lon="-0.2310260">
        <ele>1695.2</ele>
        <time>2021-02-27T08:53:58Z</time>
      </trkpt>
      <trkpt lat="42.7606830" lon="-0.2310130">
        <ele>1695.4</ele>
        <time>2021-02-27T08:54:00Z</time>
      </trkpt>
      <trkpt lat="42.7606650" lon="-0.2310160">
        <ele>1695.8</ele>
        <time>2021-02-27T08:54:03Z</time>
      </trkpt>
      <trkpt lat="42.7606550" lon="-0.2310170">
        <ele>1696.0</ele>
        <time>2021-02-27T08:54:04Z</time>
      </trkpt>
      <trkpt lat="42.7606440" lon="-0.2310190">
        <ele>1696.0</ele>
        <time>2021-02-27T08:54:05Z</time>
      </trkpt>
      <trkpt lat="42.7606300" lon="-0.2310210">
        <ele>1696.2</ele>
        <time>2021-02-27T08:54:06Z</time>
      </trkpt>
      <trkpt lat="42.7605530" lon="-0.2310470">
        <ele>1696.8</ele>
        <time>2021-02-27T08:54:12Z</time>
      </trkpt>
      <trkpt lat="42.7605230" lon="-0.2310750">
        <ele>1697.0</ele>
        <time>2021-02-27T08:54:15Z</time>
      </trkpt>
      <trkpt lat="42.7605020" lon="-0.2310910">
        <ele>1697.4</ele>
        <time>2021-02-27T08:54:17Z</time>
      </trkpt>
      <trkpt lat="42.7604880" lon="-0.2310920">
        <ele>1698.0</ele>
        <time>2021-02-27T08:54:19Z</time>
      </trkpt>
      <trkpt lat="42.7604720" lon="-0.2310830">
        <ele>1698.2</ele>
        <time>2021-02-27T08:54:20Z</time>
      </trkpt>
      <trkpt lat="42.7604520" lon="-0.2310960">
        <ele>1698.8</ele>
        <time>2021-02-27T08:54:23Z</time>
      </trkpt>
      <trkpt lat="42.7604360" lon="-0.2311000">
        <ele>1698.8</ele>
        <time>2021-02-27T08:54:25Z</time>
      </trkpt>
      <trkpt lat="42.7604320" lon="-0.2310920">
        <ele>1698.8</ele>
        <time>2021-02-27T08:54:27Z</time>
      </trkpt>
      <trkpt lat="42.7604250" lon="-0.2310710">
        <ele>1698.8</ele>
        <time>2021-02-27T08:54:29Z</time>
      </trkpt>
      <trkpt lat="42.7604290" lon="-0.2310640">
        <ele>1698.8</ele>
        <time>2021-02-27T08:54:30Z</time>
      </trkpt>
      <trkpt lat="42.7604340" lon="-0.2310540">
        <ele>1699.0</ele>
        <time>2021-02-27T08:54:31Z</time>
      </trkpt>
      <trkpt lat="42.7604420" lon="-0.2310480">
        <ele>1699.2</ele>
        <time>2021-02-27T08:54:32Z</time>
      </trkpt>
      <trkpt lat="42.7604620" lon="-0.2310280">
        <ele>1699.0</ele>
        <time>2021-02-27T08:54:35Z</time>
      </trkpt>
      <trkpt lat="42.7604690" lon="-0.2310240">
        <ele>1698.8</ele>
        <time>2021-02-27T08:54:36Z</time>
      </trkpt>
      <trkpt lat="42.7604750" lon="-0.2310220">
        <ele>1699.0</ele>
        <time>2021-02-27T08:54:38Z</time>
      </trkpt>
      <trkpt lat="42.7604760" lon="-0.2310190">
        <ele>1698.8</ele>
        <time>2021-02-27T08:54:41Z</time>
      </trkpt>
      <trkpt lat="42.7604860" lon="-0.2309910">
        <ele>1698.8</ele>
        <time>2021-02-27T08:54:45Z</time>
      </trkpt>
      <trkpt lat="42.7604790" lon="-0.2309810">
        <ele>1698.8</ele>
        <time>2021-02-27T08:54:46Z</time>
      </trkpt>
      <trkpt lat="42.7604790" lon="-0.2309810">
        <ele>1698.8</ele>
        <time>2021-02-27T08:54:48Z</time>
      </trkpt>
      <trkpt lat="42.7604790" lon="-0.2309810">
        <ele>1699.0</ele>
        <time>2021-02-27T08:54:51Z</time>
      </trkpt>
      <trkpt lat="42.7604790" lon="-0.2310020">
        <ele>1699.4</ele>
        <time>2021-02-27T08:55:05Z</time>
      </trkpt>
      <trkpt lat="42.7604880" lon="-0.2310080">
        <ele>1699.4</ele>
        <time>2021-02-27T08:55:13Z</time>
      </trkpt>
      <trkpt lat="42.7605030" lon="-0.2310100">
        <ele>1699.6</ele>
        <time>2021-02-27T08:55:16Z</time>
      </trkpt>
      <trkpt lat="42.7605700" lon="-0.2308810">
        <ele>1698.4</ele>
        <time>2021-02-27T08:56:43Z</time>
      </trkpt>
      <trkpt lat="42.7605700" lon="-0.2308840">
        <ele>1698.8</ele>
        <time>2021-02-27T08:56:49Z</time>
      </trkpt>
      <trkpt lat="42.7606570" lon="-0.2308590">
        <ele>1699.8</ele>
        <time>2021-02-27T08:57:02Z</time>
      </trkpt>
      <trkpt lat="42.7606730" lon="-0.2308460">
        <ele>1699.8</ele>
        <time>2021-02-27T08:57:03Z</time>
      </trkpt>
      <trkpt lat="42.7606880" lon="-0.2308370">
        <ele>1700.0</ele>
        <time>2021-02-27T08:57:04Z</time>
      </trkpt>
      <trkpt lat="42.7607130" lon="-0.2308270">
        <ele>1700.2</ele>
        <time>2021-02-27T08:57:06Z</time>
      </trkpt>
      <trkpt lat="42.7607300" lon="-0.2308370">
        <ele>1700.4</ele>
        <time>2021-02-27T08:57:08Z</time>
      </trkpt>
      <trkpt lat="42.7607480" lon="-0.2308520">
        <ele>1700.6</ele>
        <time>2021-02-27T08:57:10Z</time>
      </trkpt>
      <trkpt lat="42.7607740" lon="-0.2308530">
        <ele>1701.0</ele>
        <time>2021-02-27T08:57:13Z</time>
      </trkpt>
      <trkpt lat="42.7607780" lon="-0.2308670">
        <ele>1701.0</ele>
        <time>2021-02-27T08:57:15Z</time>
      </trkpt>
      <trkpt lat="42.7607900" lon="-0.2308680">
        <ele>1701.0</ele>
        <time>2021-02-27T08:57:17Z</time>
      </trkpt>
      <trkpt lat="42.7608160" lon="-0.2308700">
        <ele>1701.2</ele>
        <time>2021-02-27T08:57:21Z</time>
      </trkpt>
      <trkpt lat="42.7608320" lon="-0.2308890">
        <ele>1701.4</ele>
        <time>2021-02-27T08:57:23Z</time>
      </trkpt>
      <trkpt lat="42.7608670" lon="-0.2309100">
        <ele>1702.6</ele>
        <time>2021-02-27T08:57:27Z</time>
      </trkpt>
      <trkpt lat="42.7608900" lon="-0.2309220">
        <ele>1702.8</ele>
        <time>2021-02-27T08:57:29Z</time>
      </trkpt>
      <trkpt lat="42.7609030" lon="-0.2309240">
        <ele>1703.0</ele>
        <time>2021-02-27T08:57:30Z</time>
      </trkpt>
      <trkpt lat="42.7609120" lon="-0.2309230">
        <ele>1703.2</ele>
        <time>2021-02-27T08:57:31Z</time>
      </trkpt>
      <trkpt lat="42.7609420" lon="-0.2309190">
        <ele>1703.6</ele>
        <time>2021-02-27T08:57:34Z</time>
      </trkpt>
      <trkpt lat="42.7609580" lon="-0.2309170">
        <ele>1703.8</ele>
        <time>2021-02-27T08:57:36Z</time>
      </trkpt>
      <trkpt lat="42.7609670" lon="-0.2309090">
        <ele>1703.6</ele>
        <time>2021-02-27T08:57:37Z</time>
      </trkpt>
      <trkpt lat="42.7609950" lon="-0.2308910">
        <ele>1703.8</ele>
        <time>2021-02-27T08:57:39Z</time>
      </trkpt>
      <trkpt lat="42.7610460" lon="-0.2308670">
        <ele>1704.2</ele>
        <time>2021-02-27T08:57:42Z</time>
      </trkpt>
      <trkpt lat="42.7610620" lon="-0.2308570">
        <ele>1704.4</ele>
        <time>2021-02-27T08:57:43Z</time>
      </trkpt>
      <trkpt lat="42.7610860" lon="-0.2308410">
        <ele>1704.6</ele>
        <time>2021-02-27T08:57:45Z</time>
      </trkpt>
      <trkpt lat="42.7610950" lon="-0.2308300">
        <ele>1704.6</ele>
        <time>2021-02-27T08:57:46Z</time>
      </trkpt>
      <trkpt lat="42.7611440" lon="-0.2307930">
        <ele>1705.8</ele>
        <time>2021-02-27T08:57:51Z</time>
      </trkpt>
      <trkpt lat="42.7611450" lon="-0.2307800">
        <ele>1705.8</ele>
        <time>2021-02-27T08:57:52Z</time>
      </trkpt>
      <trkpt lat="42.7611810" lon="-0.2307380">
        <ele>1706.2</ele>
        <time>2021-02-27T08:57:56Z</time>
      </trkpt>
      <trkpt lat="42.7611760" lon="-0.2307150">
        <ele>1706.4</ele>
        <time>2021-02-27T08:57:58Z</time>
      </trkpt>
      <trkpt lat="42.7611820" lon="-0.2306870">
        <ele>1706.8</ele>
        <time>2021-02-27T08:58:01Z</time>
      </trkpt>
      <trkpt lat="42.7611860" lon="-0.2306580">
        <ele>1707.2</ele>
        <time>2021-02-27T08:58:03Z</time>
      </trkpt>
      <trkpt lat="42.7611910" lon="-0.2305780">
        <ele>1707.6</ele>
        <time>2021-02-27T08:58:08Z</time>
      </trkpt>
      <trkpt lat="42.7611780" lon="-0.2305610">
        <ele>1708.0</ele>
        <time>2021-02-27T08:58:10Z</time>
      </trkpt>
      <trkpt lat="42.7611330" lon="-0.2305460">
        <ele>1708.8</ele>
        <time>2021-02-27T08:58:13Z</time>
      </trkpt>
      <trkpt lat="42.7611050" lon="-0.2305560">
        <ele>1709.4</ele>
        <time>2021-02-27T08:58:15Z</time>
      </trkpt>
      <trkpt lat="42.7610800" lon="-0.2305760">
        <ele>1710.0</ele>
        <time>2021-02-27T08:58:19Z</time>
      </trkpt>
      <trkpt lat="42.7610560" lon="-0.2305860">
        <ele>1710.4</ele>
        <time>2021-02-27T08:58:22Z</time>
      </trkpt>
      <trkpt lat="42.7610210" lon="-0.2306000">
        <ele>1711.2</ele>
        <time>2021-02-27T08:58:27Z</time>
      </trkpt>
      <trkpt lat="42.7610060" lon="-0.2306010">
        <ele>1711.2</ele>
        <time>2021-02-27T08:58:28Z</time>
      </trkpt>
      <trkpt lat="42.7609920" lon="-0.2305990">
        <ele>1711.4</ele>
        <time>2021-02-27T08:58:29Z</time>
      </trkpt>
      <trkpt lat="42.7609830" lon="-0.2305740">
        <ele>1712.0</ele>
        <time>2021-02-27T08:58:35Z</time>
      </trkpt>
      <trkpt lat="42.7609850" lon="-0.2305680">
        <ele>1712.2</ele>
        <time>2021-02-27T08:58:36Z</time>
      </trkpt>
      <trkpt lat="42.7609990" lon="-0.2305420">
        <ele>1712.6</ele>
        <time>2021-02-27T08:58:39Z</time>
      </trkpt>
      <trkpt lat="42.7610080" lon="-0.2305270">
        <ele>1713.0</ele>
        <time>2021-02-27T08:58:41Z</time>
      </trkpt>
      <trkpt lat="42.7609990" lon="-0.2305170">
        <ele>1713.6</ele>
        <time>2021-02-27T08:58:43Z</time>
      </trkpt>
      <trkpt lat="42.7609930" lon="-0.2305190">
        <ele>1713.8</ele>
        <time>2021-02-27T08:58:44Z</time>
      </trkpt>
      <trkpt lat="42.7609860" lon="-0.2305150">
        <ele>1714.0</ele>
        <time>2021-02-27T08:58:45Z</time>
      </trkpt>
      <trkpt lat="42.7609790" lon="-0.2305110">
        <ele>1714.4</ele>
        <time>2021-02-27T08:58:47Z</time>
      </trkpt>
      <trkpt lat="42.7609760" lon="-0.2305140">
        <ele>1714.4</ele>
        <time>2021-02-27T08:58:49Z</time>
      </trkpt>
      <trkpt lat="42.7609530" lon="-0.2305280">
        <ele>1714.6</ele>
        <time>2021-02-27T08:58:52Z</time>
      </trkpt>
      <trkpt lat="42.7609480" lon="-0.2305310">
        <ele>1714.6</ele>
        <time>2021-02-27T08:58:53Z</time>
      </trkpt>
      <trkpt lat="42.7609330" lon="-0.2305340">
        <ele>1714.6</ele>
        <time>2021-02-27T08:58:55Z</time>
      </trkpt>
      <trkpt lat="42.7609360" lon="-0.2305380">
        <ele>1714.2</ele>
        <time>2021-02-27T08:59:01Z</time>
      </trkpt>
      <trkpt lat="42.7609530" lon="-0.2305380">
        <ele>1713.0</ele>
        <time>2021-02-27T08:59:10Z</time>
      </trkpt>
      <trkpt lat="42.7609710" lon="-0.2305900">
        <ele>1712.4</ele>
        <time>2021-02-27T08:59:15Z</time>
      </trkpt>
      <trkpt lat="42.7609730" lon="-0.2306090">
        <ele>1712.2</ele>
        <time>2021-02-27T08:59:16Z</time>
      </trkpt>
      <trkpt lat="42.7609950" lon="-0.2306430">
        <ele>1712.0</ele>
        <time>2021-02-27T08:59:19Z</time>
      </trkpt>
      <trkpt lat="42.7610040" lon="-0.2306590">
        <ele>1712.0</ele>
        <time>2021-02-27T08:59:20Z</time>
      </trkpt>
      <trkpt lat="42.7610370" lon="-0.2306460">
        <ele>1711.6</ele>
        <time>2021-02-27T08:59:25Z</time>
      </trkpt>
      <trkpt lat="42.7610430" lon="-0.2306290">
        <ele>1711.8</ele>
        <time>2021-02-27T08:59:27Z</time>
      </trkpt>
      <trkpt lat="42.7610430" lon="-0.2306280">
        <ele>1711.8</ele>
        <time>2021-02-27T08:59:28Z</time>
      </trkpt>
      <trkpt lat="42.7610370" lon="-0.2306300">
        <ele>1711.8</ele>
        <time>2021-02-27T08:59:29Z</time>
      </trkpt>
      <trkpt lat="42.7610380" lon="-0.2306300">
        <ele>1711.8</ele>
        <time>2021-02-27T08:59:30Z</time>
      </trkpt>
      <trkpt lat="42.7610530" lon="-0.2306380">
        <ele>1709.0</ele>
        <time>2021-02-27T08:59:32Z</time>
      </trkpt>
      <trkpt lat="42.7610700" lon="-0.2306510">
        <ele>1709.4</ele>
        <time>2021-02-27T08:59:40Z</time>
      </trkpt>
      <trkpt lat="42.7610700" lon="-0.2306510">
        <ele>1709.4</ele>
        <time>2021-02-27T08:59:44Z</time>
      </trkpt>
      <trkpt lat="42.7610700" lon="-0.2306510">
        <ele>1709.8</ele>
        <time>2021-02-27T08:59:49Z</time>
      </trkpt>
      <trkpt lat="42.7610770" lon="-0.2306460">
        <ele>1709.8</ele>
        <time>2021-02-27T08:59:55Z</time>
      </trkpt>
      <trkpt lat="42.7611300" lon="-0.2305910">
        <ele>1708.4</ele>
        <time>2021-02-27T09:00:02Z</time>
      </trkpt>
      <trkpt lat="42.7611740" lon="-0.2305550">
        <ele>1707.8</ele>
        <time>2021-02-27T09:00:05Z</time>
      </trkpt>
      <trkpt lat="42.7612110" lon="-0.2305180">
        <ele>1707.4</ele>
        <time>2021-02-27T09:00:08Z</time>
      </trkpt>
      <trkpt lat="42.7612230" lon="-0.2305140">
        <ele>1707.4</ele>
        <time>2021-02-27T09:00:09Z</time>
      </trkpt>
      <trkpt lat="42.7612370" lon="-0.2305180">
        <ele>1707.4</ele>
        <time>2021-02-27T09:00:10Z</time>
      </trkpt>
      <trkpt lat="42.7612550" lon="-0.2305510">
        <ele>1707.0</ele>
        <time>2021-02-27T09:00:13Z</time>
      </trkpt>
      <trkpt lat="42.7612510" lon="-0.2305640">
        <ele>1706.8</ele>
        <time>2021-02-27T09:00:14Z</time>
      </trkpt>
      <trkpt lat="42.7612540" lon="-0.2306290">
        <ele>1705.8</ele>
        <time>2021-02-27T09:00:20Z</time>
      </trkpt>
      <trkpt lat="42.7612510" lon="-0.2306380">
        <ele>1705.6</ele>
        <time>2021-02-27T09:00:21Z</time>
      </trkpt>
      <trkpt lat="42.7612410" lon="-0.2306710">
        <ele>1705.2</ele>
        <time>2021-02-27T09:00:24Z</time>
      </trkpt>
      <trkpt lat="42.7612330" lon="-0.2306820">
        <ele>1705.2</ele>
        <time>2021-02-27T09:00:28Z</time>
      </trkpt>
      <trkpt lat="42.7612340" lon="-0.2306820">
        <ele>1705.2</ele>
        <time>2021-02-27T09:00:29Z</time>
      </trkpt>
      <trkpt lat="42.7612180" lon="-0.2307150">
        <ele>1704.6</ele>
        <time>2021-02-27T09:00:37Z</time>
      </trkpt>
      <trkpt lat="42.7612180" lon="-0.2307140">
        <ele>1704.6</ele>
        <time>2021-02-27T09:00:42Z</time>
      </trkpt>
      <trkpt lat="42.7612180" lon="-0.2307140">
        <ele>1704.6</ele>
        <time>2021-02-27T09:00:43Z</time>
      </trkpt>
      <trkpt lat="42.7611970" lon="-0.2307650">
        <ele>1704.0</ele>
        <time>2021-02-27T09:00:48Z</time>
      </trkpt>
      <trkpt lat="42.7611730" lon="-0.2308040">
        <ele>1703.4</ele>
        <time>2021-02-27T09:00:51Z</time>
      </trkpt>
      <trkpt lat="42.7611610" lon="-0.2308160">
        <ele>1703.2</ele>
        <time>2021-02-27T09:00:52Z</time>
      </trkpt>
      <trkpt lat="42.7611310" lon="-0.2308480">
        <ele>1703.2</ele>
        <time>2021-02-27T09:00:55Z</time>
      </trkpt>
      <trkpt lat="42.7611080" lon="-0.2308600">
        <ele>1703.0</ele>
        <time>2021-02-27T09:00:57Z</time>
      </trkpt>
      <trkpt lat="42.7610770" lon="-0.2308710">
        <ele>1702.6</ele>
        <time>2021-02-27T09:01:00Z</time>
      </trkpt>
      <trkpt lat="42.7610600" lon="-0.2308760">
        <ele>1702.4</ele>
        <time>2021-02-27T09:01:02Z</time>
      </trkpt>
      <trkpt lat="42.7610400" lon="-0.2308720">
        <ele>1702.2</ele>
        <time>2021-02-27T09:01:04Z</time>
      </trkpt>
      <trkpt lat="42.7610270" lon="-0.2308720">
        <ele>1702.0</ele>
        <time>2021-02-27T09:01:05Z</time>
      </trkpt>
      <trkpt lat="42.7609970" lon="-0.2308610">
        <ele>1701.2</ele>
        <time>2021-02-27T09:01:08Z</time>
      </trkpt>
      <trkpt lat="42.7609540" lon="-0.2308530">
        <ele>1700.6</ele>
        <time>2021-02-27T09:01:12Z</time>
      </trkpt>
      <trkpt lat="42.7609470" lon="-0.2308500">
        <ele>1700.4</ele>
        <time>2021-02-27T09:01:13Z</time>
      </trkpt>
      <trkpt lat="42.7609280" lon="-0.2308460">
        <ele>1700.2</ele>
        <time>2021-02-27T09:01:16Z</time>
      </trkpt>
      <trkpt lat="42.7609180" lon="-0.2308470">
        <ele>1700.0</ele>
        <time>2021-02-27T09:01:17Z</time>
      </trkpt>
      <trkpt lat="42.7608950" lon="-0.2308530">
        <ele>1699.8</ele>
        <time>2021-02-27T09:01:19Z</time>
      </trkpt>
      <trkpt lat="42.7608840" lon="-0.2308510">
        <ele>1699.6</ele>
        <time>2021-02-27T09:01:20Z</time>
      </trkpt>
      <trkpt lat="42.7608500" lon="-0.2308210">
        <ele>1699.0</ele>
        <time>2021-02-27T09:01:24Z</time>
      </trkpt>
      <trkpt lat="42.7608460" lon="-0.2308120">
        <ele>1698.8</ele>
        <time>2021-02-27T09:01:26Z</time>
      </trkpt>
      <trkpt lat="42.7608250" lon="-0.2307950">
        <ele>1698.6</ele>
        <time>2021-02-27T09:01:28Z</time>
      </trkpt>
      <trkpt lat="42.7607880" lon="-0.2308000">
        <ele>1698.4</ele>
        <time>2021-02-27T09:01:30Z</time>
      </trkpt>
      <trkpt lat="42.7607710" lon="-0.2308030">
        <ele>1698.4</ele>
        <time>2021-02-27T09:01:31Z</time>
      </trkpt>
      <trkpt lat="42.7607420" lon="-0.2308130">
        <ele>1698.0</ele>
        <time>2021-02-27T09:01:34Z</time>
      </trkpt>
      <trkpt lat="42.7607370" lon="-0.2308270">
        <ele>1697.6</ele>
        <time>2021-02-27T09:01:36Z</time>
      </trkpt>
      <trkpt lat="42.7607360" lon="-0.2308350">
        <ele>1697.2</ele>
        <time>2021-02-27T09:01:37Z</time>
      </trkpt>
      <trkpt lat="42.7607340" lon="-0.2308460">
        <ele>1696.8</ele>
        <time>2021-02-27T09:01:38Z</time>
      </trkpt>
      <trkpt lat="42.7607220" lon="-0.2308620">
        <ele>1696.4</ele>
        <time>2021-02-27T09:01:40Z</time>
      </trkpt>
      <trkpt lat="42.7607130" lon="-0.2308870">
        <ele>1695.8</ele>
        <time>2021-02-27T09:01:42Z</time>
      </trkpt>
      <trkpt lat="42.7607130" lon="-0.2309010">
        <ele>1695.4</ele>
        <time>2021-02-27T09:01:43Z</time>
      </trkpt>
      <trkpt lat="42.7607180" lon="-0.2309170">
        <ele>1695.0</ele>
        <time>2021-02-27T09:01:44Z</time>
      </trkpt>
      <trkpt lat="42.7607210" lon="-0.2309230">
        <ele>1694.6</ele>
        <time>2021-02-27T09:01:45Z</time>
      </trkpt>
      <trkpt lat="42.7607210" lon="-0.2309320">
        <ele>1694.2</ele>
        <time>2021-02-27T09:01:46Z</time>
      </trkpt>
      <trkpt lat="42.7607250" lon="-0.2309590">
        <ele>1693.4</ele>
        <time>2021-02-27T09:01:48Z</time>
      </trkpt>
      <trkpt lat="42.7607570" lon="-0.2309940">
        <ele>1692.2</ele>
        <time>2021-02-27T09:01:51Z</time>
      </trkpt>
      <trkpt lat="42.7607790" lon="-0.2310070">
        <ele>1691.6</ele>
        <time>2021-02-27T09:01:53Z</time>
      </trkpt>
      <trkpt lat="42.7607980" lon="-0.2310210">
        <ele>1691.4</ele>
        <time>2021-02-27T09:01:55Z</time>
      </trkpt>
      <trkpt lat="42.7608200" lon="-0.2310290">
        <ele>1691.0</ele>
        <time>2021-02-27T09:01:57Z</time>
      </trkpt>
      <trkpt lat="42.7608570" lon="-0.2310280">
        <ele>1690.6</ele>
        <time>2021-02-27T09:01:59Z</time>
      </trkpt>
      <trkpt lat="42.7609430" lon="-0.2310620">
        <ele>1689.8</ele>
        <time>2021-02-27T09:02:06Z</time>
      </trkpt>
      <trkpt lat="42.7609480" lon="-0.2310730">
        <ele>1689.8</ele>
        <time>2021-02-27T09:02:07Z</time>
      </trkpt>
      <trkpt lat="42.7609550" lon="-0.2310870">
        <ele>1689.6</ele>
        <time>2021-02-27T09:02:08Z</time>
      </trkpt>
      <trkpt lat="42.7609560" lon="-0.2311020">
        <ele>1689.4</ele>
        <time>2021-02-27T09:02:09Z</time>
      </trkpt>
      <trkpt lat="42.7609550" lon="-0.2311340">
        <ele>1689.2</ele>
        <time>2021-02-27T09:02:11Z</time>
      </trkpt>
      <trkpt lat="42.7609580" lon="-0.2311570">
        <ele>1689.0</ele>
        <time>2021-02-27T09:02:13Z</time>
      </trkpt>
      <trkpt lat="42.7609640" lon="-0.2311640">
        <ele>1688.8</ele>
        <time>2021-02-27T09:02:14Z</time>
      </trkpt>
      <trkpt lat="42.7610100" lon="-0.2311910">
        <ele>1688.6</ele>
        <time>2021-02-27T09:02:20Z</time>
      </trkpt>
      <trkpt lat="42.7610130" lon="-0.2312080">
        <ele>1688.8</ele>
        <time>2021-02-27T09:02:22Z</time>
      </trkpt>
      <trkpt lat="42.7610180" lon="-0.2312470">
        <ele>1688.4</ele>
        <time>2021-02-27T09:02:26Z</time>
      </trkpt>
      <trkpt lat="42.7610220" lon="-0.2312590">
        <ele>1688.4</ele>
        <time>2021-02-27T09:02:27Z</time>
      </trkpt>
      <trkpt lat="42.7610290" lon="-0.2312690">
        <ele>1688.2</ele>
        <time>2021-02-27T09:02:28Z</time>
      </trkpt>
      <trkpt lat="42.7610360" lon="-0.2312860">
        <ele>1687.6</ele>
        <time>2021-02-27T09:02:30Z</time>
      </trkpt>
      <trkpt lat="42.7610490" lon="-0.2313240">
        <ele>1686.4</ele>
        <time>2021-02-27T09:02:33Z</time>
      </trkpt>
      <trkpt lat="42.7610580" lon="-0.2313330">
        <ele>1686.0</ele>
        <time>2021-02-27T09:02:34Z</time>
      </trkpt>
      <trkpt lat="42.7610640" lon="-0.2313440">
        <ele>1685.8</ele>
        <time>2021-02-27T09:02:35Z</time>
      </trkpt>
      <trkpt lat="42.7610660" lon="-0.2313510">
        <ele>1685.2</ele>
        <time>2021-02-27T09:02:36Z</time>
      </trkpt>
      <trkpt lat="42.7610700" lon="-0.2313720">
        <ele>1684.0</ele>
        <time>2021-02-27T09:02:39Z</time>
      </trkpt>
      <trkpt lat="42.7610730" lon="-0.2313840">
        <ele>1683.8</ele>
        <time>2021-02-27T09:02:41Z</time>
      </trkpt>
      <trkpt lat="42.7610750" lon="-0.2313870">
        <ele>1683.6</ele>
        <time>2021-02-27T09:02:43Z</time>
      </trkpt>
      <trkpt lat="42.7610770" lon="-0.2314170">
        <ele>1683.0</ele>
        <time>2021-02-27T09:02:46Z</time>
      </trkpt>
      <trkpt lat="42.7610780" lon="-0.2314310">
        <ele>1682.8</ele>
        <time>2021-02-27T09:02:47Z</time>
      </trkpt>
      <trkpt lat="42.7610760" lon="-0.2314470">
        <ele>1682.6</ele>
        <time>2021-02-27T09:02:48Z</time>
      </trkpt>
      <trkpt lat="42.7611020" lon="-0.2314710">
        <ele>1681.8</ele>
        <time>2021-02-27T09:02:52Z</time>
      </trkpt>
      <trkpt lat="42.7611150" lon="-0.2314350">
        <ele>1681.2</ele>
        <time>2021-02-27T09:02:55Z</time>
      </trkpt>
      <trkpt lat="42.7611290" lon="-0.2314120">
        <ele>1681.0</ele>
        <time>2021-02-27T09:02:57Z</time>
      </trkpt>
      <trkpt lat="42.7611470" lon="-0.2313790">
        <ele>1681.0</ele>
        <time>2021-02-27T09:02:59Z</time>
      </trkpt>
      <trkpt lat="42.7611520" lon="-0.2313660">
        <ele>1681.6</ele>
        <time>2021-02-27T09:03:00Z</time>
      </trkpt>
      <trkpt lat="42.7611730" lon="-0.2313270">
        <ele>1681.6</ele>
        <time>2021-02-27T09:03:03Z</time>
      </trkpt>
      <trkpt lat="42.7611800" lon="-0.2313130">
        <ele>1681.6</ele>
        <time>2021-02-27T09:03:04Z</time>
      </trkpt>
      <trkpt lat="42.7612200" lon="-0.2312570">
        <ele>1681.6</ele>
        <time>2021-02-27T09:03:09Z</time>
      </trkpt>
      <trkpt lat="42.7612770" lon="-0.2311650">
        <ele>1682.4</ele>
        <time>2021-02-27T09:03:15Z</time>
      </trkpt>
      <trkpt lat="42.7613020" lon="-0.2311170">
        <ele>1682.8</ele>
        <time>2021-02-27T09:03:20Z</time>
      </trkpt>
      <trkpt lat="42.7613140" lon="-0.2310970">
        <ele>1682.8</ele>
        <time>2021-02-27T09:03:22Z</time>
      </trkpt>
      <trkpt lat="42.7613310" lon="-0.2310660">
        <ele>1683.0</ele>
        <time>2021-02-27T09:03:25Z</time>
      </trkpt>
      <trkpt lat="42.7613450" lon="-0.2310500">
        <ele>1683.2</ele>
        <time>2021-02-27T09:03:27Z</time>
      </trkpt>
      <trkpt lat="42.7613500" lon="-0.2310410">
        <ele>1683.2</ele>
        <time>2021-02-27T09:03:28Z</time>
      </trkpt>
      <trkpt lat="42.7613590" lon="-0.2310300">
        <ele>1690.0</ele>
        <time>2021-02-27T09:03:29Z</time>
      </trkpt>
      <trkpt lat="42.7614060" lon="-0.2309590">
        <ele>1690.0</ele>
        <time>2021-02-27T09:03:35Z</time>
      </trkpt>
      <trkpt lat="42.7614270" lon="-0.2309310">
        <ele>1690.0</ele>
        <time>2021-02-27T09:03:38Z</time>
      </trkpt>
      <trkpt lat="42.7614350" lon="-0.2309220">
        <ele>1690.0</ele>
        <time>2021-02-27T09:03:39Z</time>
      </trkpt>
      <trkpt lat="42.7614500" lon="-0.2308820">
        <ele>1690.6</ele>
        <time>2021-02-27T09:03:43Z</time>
      </trkpt>
      <trkpt lat="42.7614500" lon="-0.2308720">
        <ele>1690.8</ele>
        <time>2021-02-27T09:03:44Z</time>
      </trkpt>
      <trkpt lat="42.7614640" lon="-0.2308560">
        <ele>1691.0</ele>
        <time>2021-02-27T09:03:46Z</time>
      </trkpt>
      <trkpt lat="42.7614730" lon="-0.2308510">
        <ele>1691.0</ele>
        <time>2021-02-27T09:03:47Z</time>
      </trkpt>
      <trkpt lat="42.7614790" lon="-0.2308480">
        <ele>1691.2</ele>
        <time>2021-02-27T09:03:48Z</time>
      </trkpt>
      <trkpt lat="42.7614800" lon="-0.2308450">
        <ele>1691.6</ele>
        <time>2021-02-27T09:03:49Z</time>
      </trkpt>
      <trkpt lat="42.7614820" lon="-0.2308450">
        <ele>1691.8</ele>
        <time>2021-02-27T09:03:50Z</time>
      </trkpt>
      <trkpt lat="42.7614840" lon="-0.2308450">
        <ele>1692.0</ele>
        <time>2021-02-27T09:03:51Z</time>
      </trkpt>
      <trkpt lat="42.7615050" lon="-0.2308540">
        <ele>1692.4</ele>
        <time>2021-02-27T09:03:54Z</time>
      </trkpt>
      <trkpt lat="42.7615210" lon="-0.2308220">
        <ele>1693.0</ele>
        <time>2021-02-27T09:03:57Z</time>
      </trkpt>
      <trkpt lat="42.7615410" lon="-0.2307820">
        <ele>1693.0</ele>
        <time>2021-02-27T09:04:00Z</time>
      </trkpt>
      <trkpt lat="42.7615450" lon="-0.2307700">
        <ele>1693.0</ele>
        <time>2021-02-27T09:04:01Z</time>
      </trkpt>
      <trkpt lat="42.7615620" lon="-0.2307500">
        <ele>1693.0</ele>
        <time>2021-02-27T09:04:03Z</time>
      </trkpt>
      <trkpt lat="42.7615690" lon="-0.2307240">
        <ele>1693.4</ele>
        <time>2021-02-27T09:04:05Z</time>
      </trkpt>
      <trkpt lat="42.7615750" lon="-0.2307100">
        <ele>1692.0</ele>
        <time>2021-02-27T09:04:06Z</time>
      </trkpt>
      <trkpt lat="42.7615990" lon="-0.2306740">
        <ele>1692.0</ele>
        <time>2021-02-27T09:04:08Z</time>
      </trkpt>
      <trkpt lat="42.7616160" lon="-0.2306390">
        <ele>1692.2</ele>
        <time>2021-02-27T09:04:10Z</time>
      </trkpt>
      <trkpt lat="42.7616330" lon="-0.2306100">
        <ele>1692.2</ele>
        <time>2021-02-27T09:04:12Z</time>
      </trkpt>
      <trkpt lat="42.7616730" lon="-0.2305670">
        <ele>1692.4</ele>
        <time>2021-02-27T09:04:15Z</time>
      </trkpt>
      <trkpt lat="42.7616870" lon="-0.2305340">
        <ele>1692.6</ele>
        <time>2021-02-27T09:04:17Z</time>
      </trkpt>
      <trkpt lat="42.7616850" lon="-0.2305150">
        <ele>1692.6</ele>
        <time>2021-02-27T09:04:18Z</time>
      </trkpt>
      <trkpt lat="42.7617110" lon="-0.2304840">
        <ele>1692.8</ele>
        <time>2021-02-27T09:04:20Z</time>
      </trkpt>
      <trkpt lat="42.7617630" lon="-0.2304650">
        <ele>1693.0</ele>
        <time>2021-02-27T09:04:23Z</time>
      </trkpt>
      <trkpt lat="42.7617770" lon="-0.2304350">
        <ele>1693.2</ele>
        <time>2021-02-27T09:04:26Z</time>
      </trkpt>
      <trkpt lat="42.7617960" lon="-0.2304170">
        <ele>1693.6</ele>
        <time>2021-02-27T09:04:29Z</time>
      </trkpt>
      <trkpt lat="42.7618260" lon="-0.2303840">
        <ele>1694.2</ele>
        <time>2021-02-27T09:04:33Z</time>
      </trkpt>
      <trkpt lat="42.7618380" lon="-0.2303580">
        <ele>1694.8</ele>
        <time>2021-02-27T09:04:36Z</time>
      </trkpt>
      <trkpt lat="42.7618590" lon="-0.2303310">
        <ele>1695.2</ele>
        <time>2021-02-27T09:04:39Z</time>
      </trkpt>
      <trkpt lat="42.7618650" lon="-0.2303120">
        <ele>1695.4</ele>
        <time>2021-02-27T09:04:41Z</time>
      </trkpt>
      <trkpt lat="42.7618870" lon="-0.2302570">
        <ele>1696.2</ele>
        <time>2021-02-27T09:04:46Z</time>
      </trkpt>
      <trkpt lat="42.7619040" lon="-0.2302430">
        <ele>1696.6</ele>
        <time>2021-02-27T09:04:49Z</time>
      </trkpt>
      <trkpt lat="42.7619310" lon="-0.2302030">
        <ele>1697.2</ele>
        <time>2021-02-27T09:04:53Z</time>
      </trkpt>
      <trkpt lat="42.7619350" lon="-0.2301900">
        <ele>1697.4</ele>
        <time>2021-02-27T09:04:54Z</time>
      </trkpt>
      <trkpt lat="42.7619740" lon="-0.2301530">
        <ele>1698.0</ele>
        <time>2021-02-27T09:04:58Z</time>
      </trkpt>
      <trkpt lat="42.7619950" lon="-0.2301370">
        <ele>1698.2</ele>
        <time>2021-02-27T09:05:00Z</time>
      </trkpt>
      <trkpt lat="42.7620000" lon="-0.2301200">
        <ele>1698.4</ele>
        <time>2021-02-27T09:05:01Z</time>
      </trkpt>
      <trkpt lat="42.7620110" lon="-0.2301060">
        <ele>1698.6</ele>
        <time>2021-02-27T09:05:03Z</time>
      </trkpt>
      <trkpt lat="42.7620470" lon="-0.2300840">
        <ele>1699.4</ele>
        <time>2021-02-27T09:05:08Z</time>
      </trkpt>
      <trkpt lat="42.7620800" lon="-0.2300640">
        <ele>1699.8</ele>
        <time>2021-02-27T09:05:12Z</time>
      </trkpt>
      <trkpt lat="42.7620850" lon="-0.2300590">
        <ele>1700.0</ele>
        <time>2021-02-27T09:05:13Z</time>
      </trkpt>
      <trkpt lat="42.7620850" lon="-0.2300530">
        <ele>1700.2</ele>
        <time>2021-02-27T09:05:14Z</time>
      </trkpt>
      <trkpt lat="42.7620910" lon="-0.2300480">
        <ele>1700.2</ele>
        <time>2021-02-27T09:05:15Z</time>
      </trkpt>
      <trkpt lat="42.7620970" lon="-0.2300440">
        <ele>1700.4</ele>
        <time>2021-02-27T09:05:16Z</time>
      </trkpt>
      <trkpt lat="42.7621090" lon="-0.2300300">
        <ele>1701.0</ele>
        <time>2021-02-27T09:05:19Z</time>
      </trkpt>
      <trkpt lat="42.7621360" lon="-0.2300190">
        <ele>1701.6</ele>
        <time>2021-02-27T09:05:23Z</time>
      </trkpt>
      <trkpt lat="42.7621440" lon="-0.2300080">
        <ele>1702.0</ele>
        <time>2021-02-27T09:05:25Z</time>
      </trkpt>
      <trkpt lat="42.7621770" lon="-0.2299870">
        <ele>1702.2</ele>
        <time>2021-02-27T09:05:28Z</time>
      </trkpt>
      <trkpt lat="42.7621860" lon="-0.2299800">
        <ele>1702.4</ele>
        <time>2021-02-27T09:05:29Z</time>
      </trkpt>
      <trkpt lat="42.7622070" lon="-0.2299670">
        <ele>1702.8</ele>
        <time>2021-02-27T09:05:31Z</time>
      </trkpt>
      <trkpt lat="42.7622370" lon="-0.2299310">
        <ele>1703.6</ele>
        <time>2021-02-27T09:05:36Z</time>
      </trkpt>
      <trkpt lat="42.7622410" lon="-0.2299160">
        <ele>1703.8</ele>
        <time>2021-02-27T09:05:37Z</time>
      </trkpt>
      <trkpt lat="42.7622720" lon="-0.2298550">
        <ele>1705.0</ele>
        <time>2021-02-27T09:05:43Z</time>
      </trkpt>
      <trkpt lat="42.7622810" lon="-0.2298380">
        <ele>1705.2</ele>
        <time>2021-02-27T09:05:45Z</time>
      </trkpt>
      <trkpt lat="42.7623050" lon="-0.2298140">
        <ele>1705.4</ele>
        <time>2021-02-27T09:05:48Z</time>
      </trkpt>
      <trkpt lat="42.7623110" lon="-0.2298060">
        <ele>1705.6</ele>
        <time>2021-02-27T09:05:49Z</time>
      </trkpt>
      <trkpt lat="42.7623190" lon="-0.2297830">
        <ele>1706.0</ele>
        <time>2021-02-27T09:05:51Z</time>
      </trkpt>
      <trkpt lat="42.7623200" lon="-0.2297680">
        <ele>1706.2</ele>
        <time>2021-02-27T09:05:52Z</time>
      </trkpt>
      <trkpt lat="42.7623240" lon="-0.2297310">
        <ele>1706.8</ele>
        <time>2021-02-27T09:05:56Z</time>
      </trkpt>
      <trkpt lat="42.7623250" lon="-0.2297210">
        <ele>1707.0</ele>
        <time>2021-02-27T09:05:57Z</time>
      </trkpt>
      <trkpt lat="42.7623190" lon="-0.2297010">
        <ele>1707.8</ele>
        <time>2021-02-27T09:06:01Z</time>
      </trkpt>
      <trkpt lat="42.7623060" lon="-0.2296950">
        <ele>1708.0</ele>
        <time>2021-02-27T09:06:03Z</time>
      </trkpt>
      <trkpt lat="42.7622820" lon="-0.2296900">
        <ele>1708.6</ele>
        <time>2021-02-27T09:06:06Z</time>
      </trkpt>
      <trkpt lat="42.7622800" lon="-0.2296970">
        <ele>1708.8</ele>
        <time>2021-02-27T09:06:07Z</time>
      </trkpt>
      <trkpt lat="42.7622770" lon="-0.2297200">
        <ele>1708.8</ele>
        <time>2021-02-27T09:06:09Z</time>
      </trkpt>
      <trkpt lat="42.7622490" lon="-0.2297360">
        <ele>1709.2</ele>
        <time>2021-02-27T09:06:12Z</time>
      </trkpt>
      <trkpt lat="42.7622310" lon="-0.2297400">
        <ele>1709.4</ele>
        <time>2021-02-27T09:06:14Z</time>
      </trkpt>
      <trkpt lat="42.7622120" lon="-0.2297320">
        <ele>1710.2</ele>
        <time>2021-02-27T09:06:17Z</time>
      </trkpt>
      <trkpt lat="42.7622060" lon="-0.2297340">
        <ele>1710.6</ele>
        <time>2021-02-27T09:06:19Z</time>
      </trkpt>
      <trkpt lat="42.7621940" lon="-0.2297310">
        <ele>1711.0</ele>
        <time>2021-02-27T09:06:21Z</time>
      </trkpt>
      <trkpt lat="42.7621870" lon="-0.2297200">
        <ele>1711.0</ele>
        <time>2021-02-27T09:06:22Z</time>
      </trkpt>
      <trkpt lat="42.7621740" lon="-0.2296980">
        <ele>1711.2</ele>
        <time>2021-02-27T09:06:24Z</time>
      </trkpt>
      <trkpt lat="42.7621640" lon="-0.2296880">
        <ele>1711.8</ele>
        <time>2021-02-27T09:06:26Z</time>
      </trkpt>
      <trkpt lat="42.7621420" lon="-0.2296750">
        <ele>1712.0</ele>
        <time>2021-02-27T09:06:28Z</time>
      </trkpt>
      <trkpt lat="42.7621400" lon="-0.2296740">
        <ele>1712.4</ele>
        <time>2021-02-27T09:06:30Z</time>
      </trkpt>
      <trkpt lat="42.7621570" lon="-0.2296880">
        <ele>1713.4</ele>
        <time>2021-02-27T09:06:34Z</time>
      </trkpt>
      <trkpt lat="42.7621920" lon="-0.2296460">
        <ele>1714.4</ele>
        <time>2021-02-27T09:06:42Z</time>
      </trkpt>
      <trkpt lat="42.7622020" lon="-0.2296430">
        <ele>1714.8</ele>
        <time>2021-02-27T09:06:43Z</time>
      </trkpt>
      <trkpt lat="42.7622320" lon="-0.2296020">
        <ele>1715.4</ele>
        <time>2021-02-27T09:06:47Z</time>
      </trkpt>
      <trkpt lat="42.7622490" lon="-0.2295840">
        <ele>1715.8</ele>
        <time>2021-02-27T09:06:49Z</time>
      </trkpt>
      <trkpt lat="42.7622680" lon="-0.2295430">
        <ele>1717.0</ele>
        <time>2021-02-27T09:06:54Z</time>
      </trkpt>
      <trkpt lat="42.7622740" lon="-0.2295350">
        <ele>1717.2</ele>
        <time>2021-02-27T09:06:55Z</time>
      </trkpt>
      <trkpt lat="42.7622430" lon="-0.2295110">
        <ele>1717.8</ele>
        <time>2021-02-27T09:07:01Z</time>
      </trkpt>
      <trkpt lat="42.7622170" lon="-0.2295230">
        <ele>1718.0</ele>
        <time>2021-02-27T09:07:04Z</time>
      </trkpt>
      <trkpt lat="42.7621670" lon="-0.2295220">
        <ele>1718.6</ele>
        <time>2021-02-27T09:07:08Z</time>
      </trkpt>
      <trkpt lat="42.7621570" lon="-0.2295230">
        <ele>1718.6</ele>
        <time>2021-02-27T09:07:09Z</time>
      </trkpt>
      <trkpt lat="42.7621400" lon="-0.2295230">
        <ele>1719.0</ele>
        <time>2021-02-27T09:07:11Z</time>
      </trkpt>
      <trkpt lat="42.7621140" lon="-0.2295240">
        <ele>1719.2</ele>
        <time>2021-02-27T09:07:13Z</time>
      </trkpt>
      <trkpt lat="42.7620940" lon="-0.2295440">
        <ele>1719.4</ele>
        <time>2021-02-27T09:07:15Z</time>
      </trkpt>
      <trkpt lat="42.7620800" lon="-0.2295580">
        <ele>1719.8</ele>
        <time>2021-02-27T09:07:17Z</time>
      </trkpt>
      <trkpt lat="42.7620330" lon="-0.2295600">
        <ele>1720.0</ele>
        <time>2021-02-27T09:07:21Z</time>
      </trkpt>
      <trkpt lat="42.7620200" lon="-0.2295420">
        <ele>1720.2</ele>
        <time>2021-02-27T09:07:23Z</time>
      </trkpt>
      <trkpt lat="42.7619370" lon="-0.2294980">
        <ele>1721.0</ele>
        <time>2021-02-27T09:07:31Z</time>
      </trkpt>
      <trkpt lat="42.7619300" lon="-0.2294990">
        <ele>1721.2</ele>
        <time>2021-02-27T09:07:32Z</time>
      </trkpt>
      <trkpt lat="42.7619080" lon="-0.2294970">
        <ele>1721.6</ele>
        <time>2021-02-27T09:07:35Z</time>
      </trkpt>
      <trkpt lat="42.7618730" lon="-0.2294970">
        <ele>1722.0</ele>
        <time>2021-02-27T09:07:39Z</time>
      </trkpt>
      <trkpt lat="42.7618560" lon="-0.2294930">
        <ele>1722.4</ele>
        <time>2021-02-27T09:07:41Z</time>
      </trkpt>
      <trkpt lat="42.7618090" lon="-0.2294910">
        <ele>1723.4</ele>
        <time>2021-02-27T09:07:47Z</time>
      </trkpt>
      <trkpt lat="42.7617940" lon="-0.2294960">
        <ele>1724.2</ele>
        <time>2021-02-27T09:07:50Z</time>
      </trkpt>
      <trkpt lat="42.7617740" lon="-0.2294990">
        <ele>1724.6</ele>
        <time>2021-02-27T09:07:52Z</time>
      </trkpt>
      <trkpt lat="42.7617640" lon="-0.2294950">
        <ele>1724.8</ele>
        <time>2021-02-27T09:07:53Z</time>
      </trkpt>
      <trkpt lat="42.7617550" lon="-0.2294930">
        <ele>1724.8</ele>
        <time>2021-02-27T09:07:54Z</time>
      </trkpt>
      <trkpt lat="42.7617460" lon="-0.2294920">
        <ele>1725.0</ele>
        <time>2021-02-27T09:07:55Z</time>
      </trkpt>
      <trkpt lat="42.7617290" lon="-0.2294990">
        <ele>1725.0</ele>
        <time>2021-02-27T09:07:57Z</time>
      </trkpt>
      <trkpt lat="42.7617120" lon="-0.2295150">
        <ele>1725.8</ele>
        <time>2021-02-27T09:08:00Z</time>
      </trkpt>
      <trkpt lat="42.7617080" lon="-0.2295170">
        <ele>1726.0</ele>
        <time>2021-02-27T09:08:01Z</time>
      </trkpt>
      <trkpt lat="42.7616780" lon="-0.2295260">
        <ele>1727.0</ele>
        <time>2021-02-27T09:08:06Z</time>
      </trkpt>
      <trkpt lat="42.7616630" lon="-0.2295310">
        <ele>1727.4</ele>
        <time>2021-02-27T09:08:08Z</time>
      </trkpt>
      <trkpt lat="42.7616420" lon="-0.2295440">
        <ele>1727.8</ele>
        <time>2021-02-27T09:08:11Z</time>
      </trkpt>
      <trkpt lat="42.7616330" lon="-0.2295490">
        <ele>1728.0</ele>
        <time>2021-02-27T09:08:12Z</time>
      </trkpt>
      <trkpt lat="42.7616250" lon="-0.2295550">
        <ele>1728.0</ele>
        <time>2021-02-27T09:08:13Z</time>
      </trkpt>
      <trkpt lat="42.7616160" lon="-0.2295570">
        <ele>1728.2</ele>
        <time>2021-02-27T09:08:14Z</time>
      </trkpt>
      <trkpt lat="42.7615980" lon="-0.2295580">
        <ele>1728.4</ele>
        <time>2021-02-27T09:08:16Z</time>
      </trkpt>
      <trkpt lat="42.7615720" lon="-0.2295540">
        <ele>1728.6</ele>
        <time>2021-02-27T09:08:18Z</time>
      </trkpt>
      <trkpt lat="42.7615480" lon="-0.2295490">
        <ele>1728.8</ele>
        <time>2021-02-27T09:08:20Z</time>
      </trkpt>
      <trkpt lat="42.7614760" lon="-0.2295550">
        <ele>1729.0</ele>
        <time>2021-02-27T09:08:25Z</time>
      </trkpt>
      <trkpt lat="42.7614700" lon="-0.2295540">
        <ele>1729.2</ele>
        <time>2021-02-27T09:08:26Z</time>
      </trkpt>
      <trkpt lat="42.7614320" lon="-0.2295790">
        <ele>1729.8</ele>
        <time>2021-02-27T09:08:31Z</time>
      </trkpt>
      <trkpt lat="42.7614300" lon="-0.2295850">
        <ele>1730.0</ele>
        <time>2021-02-27T09:08:32Z</time>
      </trkpt>
      <trkpt lat="42.7614070" lon="-0.2295960">
        <ele>1730.2</ele>
        <time>2021-02-27T09:08:35Z</time>
      </trkpt>
      <trkpt lat="42.7613930" lon="-0.2296120">
        <ele>1730.4</ele>
        <time>2021-02-27T09:08:37Z</time>
      </trkpt>
      <trkpt lat="42.7613860" lon="-0.2296190">
        <ele>1730.6</ele>
        <time>2021-02-27T09:08:38Z</time>
      </trkpt>
      <trkpt lat="42.7613540" lon="-0.2296410">
        <ele>1730.8</ele>
        <time>2021-02-27T09:08:41Z</time>
      </trkpt>
      <trkpt lat="42.7613450" lon="-0.2296500">
        <ele>1730.8</ele>
        <time>2021-02-27T09:08:42Z</time>
      </trkpt>
      <trkpt lat="42.7613320" lon="-0.2296640">
        <ele>1730.8</ele>
        <time>2021-02-27T09:08:44Z</time>
      </trkpt>
      <trkpt lat="42.7613280" lon="-0.2296690">
        <ele>1731.0</ele>
        <time>2021-02-27T09:08:45Z</time>
      </trkpt>
      <trkpt lat="42.7613090" lon="-0.2296740">
        <ele>1731.2</ele>
        <time>2021-02-27T09:08:47Z</time>
      </trkpt>
      <trkpt lat="42.7612930" lon="-0.2296770">
        <ele>1731.2</ele>
        <time>2021-02-27T09:08:49Z</time>
      </trkpt>
      <trkpt lat="42.7612820" lon="-0.2296750">
        <ele>1731.4</ele>
        <time>2021-02-27T09:08:50Z</time>
      </trkpt>
      <trkpt lat="42.7612400" lon="-0.2296800">
        <ele>1731.8</ele>
        <time>2021-02-27T09:08:54Z</time>
      </trkpt>
      <trkpt lat="42.7612220" lon="-0.2296810">
        <ele>1732.4</ele>
        <time>2021-02-27T09:08:57Z</time>
      </trkpt>
      <trkpt lat="42.7612150" lon="-0.2296840">
        <ele>1732.6</ele>
        <time>2021-02-27T09:08:58Z</time>
      </trkpt>
      <trkpt lat="42.7611740" lon="-0.2296850">
        <ele>1733.6</ele>
        <time>2021-02-27T09:09:03Z</time>
      </trkpt>
      <trkpt lat="42.7611410" lon="-0.2296890">
        <ele>1734.8</ele>
        <time>2021-02-27T09:09:08Z</time>
      </trkpt>
      <trkpt lat="42.7611370" lon="-0.2296880">
        <ele>1735.0</ele>
        <time>2021-02-27T09:09:09Z</time>
      </trkpt>
      <trkpt lat="42.7611310" lon="-0.2296870">
        <ele>1735.4</ele>
        <time>2021-02-27T09:09:10Z</time>
      </trkpt>
      <trkpt lat="42.7611380" lon="-0.2297010">
        <ele>1736.0</ele>
        <time>2021-02-27T09:09:13Z</time>
      </trkpt>
      <trkpt lat="42.7611460" lon="-0.2296880">
        <ele>1736.2</ele>
        <time>2021-02-27T09:09:14Z</time>
      </trkpt>
      <trkpt lat="42.7611530" lon="-0.2296770">
        <ele>1736.4</ele>
        <time>2021-02-27T09:09:15Z</time>
      </trkpt>
      <trkpt lat="42.7611760" lon="-0.2296430">
        <ele>1737.2</ele>
        <time>2021-02-27T09:09:18Z</time>
      </trkpt>
      <trkpt lat="42.7611810" lon="-0.2296400">
        <ele>1737.2</ele>
        <time>2021-02-27T09:09:19Z</time>
      </trkpt>
      <trkpt lat="42.7611840" lon="-0.2296250">
        <ele>1737.4</ele>
        <time>2021-02-27T09:09:21Z</time>
      </trkpt>
      <trkpt lat="42.7612110" lon="-0.2295870">
        <ele>1737.4</ele>
        <time>2021-02-27T09:09:25Z</time>
      </trkpt>
      <trkpt lat="42.7612150" lon="-0.2295290">
        <ele>1738.2</ele>
        <time>2021-02-27T09:09:31Z</time>
      </trkpt>
      <trkpt lat="42.7612170" lon="-0.2295100">
        <ele>1738.4</ele>
        <time>2021-02-27T09:09:33Z</time>
      </trkpt>
      <trkpt lat="42.7612370" lon="-0.2294610">
        <ele>1739.2</ele>
        <time>2021-02-27T09:09:39Z</time>
      </trkpt>
      <trkpt lat="42.7612410" lon="-0.2294500">
        <ele>1739.4</ele>
        <time>2021-02-27T09:09:40Z</time>
      </trkpt>
      <trkpt lat="42.7612740" lon="-0.2293880">
        <ele>1740.2</ele>
        <time>2021-02-27T09:09:47Z</time>
      </trkpt>
      <trkpt lat="42.7612760" lon="-0.2293800">
        <ele>1740.2</ele>
        <time>2021-02-27T09:09:48Z</time>
      </trkpt>
      <trkpt lat="42.7612750" lon="-0.2293720">
        <ele>1740.4</ele>
        <time>2021-02-27T09:09:49Z</time>
      </trkpt>
      <trkpt lat="42.7612800" lon="-0.2293680">
        <ele>1740.6</ele>
        <time>2021-02-27T09:09:51Z</time>
      </trkpt>
      <trkpt lat="42.7612850" lon="-0.2293630">
        <ele>1740.8</ele>
        <time>2021-02-27T09:09:52Z</time>
      </trkpt>
      <trkpt lat="42.7613000" lon="-0.2293500">
        <ele>1741.4</ele>
        <time>2021-02-27T09:09:55Z</time>
      </trkpt>
      <trkpt lat="42.7613080" lon="-0.2293440">
        <ele>1741.8</ele>
        <time>2021-02-27T09:09:56Z</time>
      </trkpt>
      <trkpt lat="42.7613230" lon="-0.2293040">
        <ele>1742.2</ele>
        <time>2021-02-27T09:10:00Z</time>
      </trkpt>
      <trkpt lat="42.7613230" lon="-0.2292930">
        <ele>1742.6</ele>
        <time>2021-02-27T09:10:02Z</time>
      </trkpt>
      <trkpt lat="42.7613350" lon="-0.2292580">
        <ele>1743.2</ele>
        <time>2021-02-27T09:10:05Z</time>
      </trkpt>
      <trkpt lat="42.7613400" lon="-0.2292460">
        <ele>1743.6</ele>
        <time>2021-02-27T09:10:07Z</time>
      </trkpt>
      <trkpt lat="42.7613510" lon="-0.2292300">
        <ele>1744.2</ele>
        <time>2021-02-27T09:10:09Z</time>
      </trkpt>
      <trkpt lat="42.7613610" lon="-0.2292170">
        <ele>1744.6</ele>
        <time>2021-02-27T09:10:11Z</time>
      </trkpt>
      <trkpt lat="42.7613620" lon="-0.2292130">
        <ele>1744.8</ele>
        <time>2021-02-27T09:10:12Z</time>
      </trkpt>
      <trkpt lat="42.7613620" lon="-0.2292050">
        <ele>1745.0</ele>
        <time>2021-02-27T09:10:13Z</time>
      </trkpt>
      <trkpt lat="42.7613800" lon="-0.2291720">
        <ele>1745.8</ele>
        <time>2021-02-27T09:10:17Z</time>
      </trkpt>
      <trkpt lat="42.7613890" lon="-0.2291530">
        <ele>1746.4</ele>
        <time>2021-02-27T09:10:19Z</time>
      </trkpt>
      <trkpt lat="42.7613910" lon="-0.2291490">
        <ele>1747.0</ele>
        <time>2021-02-27T09:10:21Z</time>
      </trkpt>
      <trkpt lat="42.7614200" lon="-0.2291010">
        <ele>1748.0</ele>
        <time>2021-02-27T09:10:28Z</time>
      </trkpt>
      <trkpt lat="42.7614190" lon="-0.2290890">
        <ele>1748.0</ele>
        <time>2021-02-27T09:10:29Z</time>
      </trkpt>
      <trkpt lat="42.7614730" lon="-0.2290020">
        <ele>1748.8</ele>
        <time>2021-02-27T09:10:37Z</time>
      </trkpt>
      <trkpt lat="42.7614840" lon="-0.2289930">
        <ele>1748.8</ele>
        <time>2021-02-27T09:10:38Z</time>
      </trkpt>
      <trkpt lat="42.7614940" lon="-0.2289740">
        <ele>1748.8</ele>
        <time>2021-02-27T09:10:40Z</time>
      </trkpt>
      <trkpt lat="42.7614970" lon="-0.2289670">
        <ele>1748.8</ele>
        <time>2021-02-27T09:10:41Z</time>
      </trkpt>
      <trkpt lat="42.7615130" lon="-0.2289540">
        <ele>1748.8</ele>
        <time>2021-02-27T09:10:43Z</time>
      </trkpt>
      <trkpt lat="42.7615380" lon="-0.2289240">
        <ele>1748.8</ele>
        <time>2021-02-27T09:10:46Z</time>
      </trkpt>
      <trkpt lat="42.7615450" lon="-0.2289040">
        <ele>1749.0</ele>
        <time>2021-02-27T09:10:48Z</time>
      </trkpt>
      <trkpt lat="42.7615520" lon="-0.2289010">
        <ele>1749.6</ele>
        <time>2021-02-27T09:10:50Z</time>
      </trkpt>
      <trkpt lat="42.7615730" lon="-0.2288700">
        <ele>1750.0</ele>
        <time>2021-02-27T09:10:54Z</time>
      </trkpt>
      <trkpt lat="42.7615850" lon="-0.2288450">
        <ele>1750.0</ele>
        <time>2021-02-27T09:10:56Z</time>
      </trkpt>
      <trkpt lat="42.7615990" lon="-0.2288290">
        <ele>1750.4</ele>
        <time>2021-02-27T09:10:58Z</time>
      </trkpt>
      <trkpt lat="42.7616300" lon="-0.2288020">
        <ele>1751.2</ele>
        <time>2021-02-27T09:11:02Z</time>
      </trkpt>
      <trkpt lat="42.7616330" lon="-0.2287930">
        <ele>1751.4</ele>
        <time>2021-02-27T09:11:03Z</time>
      </trkpt>
      <trkpt lat="42.7616590" lon="-0.2287660">
        <ele>1752.4</ele>
        <time>2021-02-27T09:11:06Z</time>
      </trkpt>
      <trkpt lat="42.7616720" lon="-0.2287500">
        <ele>1753.0</ele>
        <time>2021-02-27T09:11:08Z</time>
      </trkpt>
      <trkpt lat="42.7616790" lon="-0.2287400">
        <ele>1753.2</ele>
        <time>2021-02-27T09:11:10Z</time>
      </trkpt>
      <trkpt lat="42.7616920" lon="-0.2287140">
        <ele>1753.6</ele>
        <time>2021-02-27T09:11:13Z</time>
      </trkpt>
      <trkpt lat="42.7617080" lon="-0.2286910">
        <ele>1754.0</ele>
        <time>2021-02-27T09:11:16Z</time>
      </trkpt>
      <trkpt lat="42.7617250" lon="-0.2286630">
        <ele>1754.6</ele>
        <time>2021-02-27T09:11:20Z</time>
      </trkpt>
      <trkpt lat="42.7617300" lon="-0.2286540">
        <ele>1755.0</ele>
        <time>2021-02-27T09:11:22Z</time>
      </trkpt>
      <trkpt lat="42.7617570" lon="-0.2286100">
        <ele>1755.6</ele>
        <time>2021-02-27T09:11:27Z</time>
      </trkpt>
      <trkpt lat="42.7617630" lon="-0.2285970">
        <ele>1755.8</ele>
        <time>2021-02-27T09:11:28Z</time>
      </trkpt>
      <trkpt lat="42.7617760" lon="-0.2285630">
        <ele>1756.6</ele>
        <time>2021-02-27T09:11:32Z</time>
      </trkpt>
      <trkpt lat="42.7617780" lon="-0.2285530">
        <ele>1757.0</ele>
        <time>2021-02-27T09:11:33Z</time>
      </trkpt>
      <trkpt lat="42.7617740" lon="-0.2285370">
        <ele>1757.4</ele>
        <time>2021-02-27T09:11:35Z</time>
      </trkpt>
      <trkpt lat="42.7617740" lon="-0.2285230">
        <ele>1758.0</ele>
        <time>2021-02-27T09:11:37Z</time>
      </trkpt>
      <trkpt lat="42.7617680" lon="-0.2285100">
        <ele>1758.4</ele>
        <time>2021-02-27T09:11:39Z</time>
      </trkpt>
      <trkpt lat="42.7617540" lon="-0.2284940">
        <ele>1758.6</ele>
        <time>2021-02-27T09:11:41Z</time>
      </trkpt>
      <trkpt lat="42.7617450" lon="-0.2284910">
        <ele>1759.0</ele>
        <time>2021-02-27T09:11:42Z</time>
      </trkpt>
      <trkpt lat="42.7617220" lon="-0.2284940">
        <ele>1760.0</ele>
        <time>2021-02-27T09:11:46Z</time>
      </trkpt>
      <trkpt lat="42.7617180" lon="-0.2284940">
        <ele>1760.0</ele>
        <time>2021-02-27T09:11:47Z</time>
      </trkpt>
      <trkpt lat="42.7617030" lon="-0.2284940">
        <ele>1760.4</ele>
        <time>2021-02-27T09:11:49Z</time>
      </trkpt>
      <trkpt lat="42.7616760" lon="-0.2285010">
        <ele>1760.8</ele>
        <time>2021-02-27T09:11:53Z</time>
      </trkpt>
      <trkpt lat="42.7616760" lon="-0.2285080">
        <ele>1760.8</ele>
        <time>2021-02-27T09:11:55Z</time>
      </trkpt>
      <trkpt lat="42.7616720" lon="-0.2285100">
        <ele>1761.2</ele>
        <time>2021-02-27T09:11:57Z</time>
      </trkpt>
      <trkpt lat="42.7616540" lon="-0.2285140">
        <ele>1761.8</ele>
        <time>2021-02-27T09:12:00Z</time>
      </trkpt>
      <trkpt lat="42.7616300" lon="-0.2285350">
        <ele>1762.2</ele>
        <time>2021-02-27T09:12:03Z</time>
      </trkpt>
      <trkpt lat="42.7616220" lon="-0.2285380">
        <ele>1762.4</ele>
        <time>2021-02-27T09:12:05Z</time>
      </trkpt>
      <trkpt lat="42.7615990" lon="-0.2285310">
        <ele>1762.8</ele>
        <time>2021-02-27T09:12:09Z</time>
      </trkpt>
      <trkpt lat="42.7615960" lon="-0.2285320">
        <ele>1762.8</ele>
        <time>2021-02-27T09:12:10Z</time>
      </trkpt>
      <trkpt lat="42.7616480" lon="-0.2285670">
        <ele>1762.6</ele>
        <time>2021-02-27T09:22:26Z</time>
      </trkpt>
      <trkpt lat="42.7616480" lon="-0.2285670">
        <ele>1762.6</ele>
        <time>2021-02-27T09:22:27Z</time>
      </trkpt>
      <trkpt lat="42.7616480" lon="-0.2285670">
        <ele>1762.6</ele>
        <time>2021-02-27T09:22:29Z</time>
      </trkpt>
      <trkpt lat="42.7616480" lon="-0.2285670">
        <ele>1762.6</ele>
        <time>2021-02-27T09:22:31Z</time>
      </trkpt>
      <trkpt lat="42.7616480" lon="-0.2285660">
        <ele>1762.6</ele>
        <time>2021-02-27T09:22:40Z</time>
      </trkpt>
      <trkpt lat="42.7616470" lon="-0.2285660">
        <ele>1763.4</ele>
        <time>2021-02-27T09:22:46Z</time>
      </trkpt>
      <trkpt lat="42.7616470" lon="-0.2285660">
        <ele>1764.6</ele>
        <time>2021-02-27T09:22:54Z</time>
      </trkpt>
      <trkpt lat="42.7615970" lon="-0.2285650">
        <ele>1765.6</ele>
        <time>2021-02-27T09:22:59Z</time>
      </trkpt>
      <trkpt lat="42.7615560" lon="-0.2285570">
        <ele>1765.8</ele>
        <time>2021-02-27T09:23:01Z</time>
      </trkpt>
      <trkpt lat="42.7615240" lon="-0.2285500">
        <ele>1766.2</ele>
        <time>2021-02-27T09:23:03Z</time>
      </trkpt>
      <trkpt lat="42.7614870" lon="-0.2285400">
        <ele>1766.8</ele>
        <time>2021-02-27T09:23:05Z</time>
      </trkpt>
      <trkpt lat="42.7614710" lon="-0.2285350">
        <ele>1767.2</ele>
        <time>2021-02-27T09:23:06Z</time>
      </trkpt>
      <trkpt lat="42.7614660" lon="-0.2285320">
        <ele>1767.4</ele>
        <time>2021-02-27T09:23:07Z</time>
      </trkpt>
      <trkpt lat="42.7614570" lon="-0.2285230">
        <ele>1767.8</ele>
        <time>2021-02-27T09:23:09Z</time>
      </trkpt>
      <trkpt lat="42.7614650" lon="-0.2285060">
        <ele>1768.6</ele>
        <time>2021-02-27T09:23:12Z</time>
      </trkpt>
      <trkpt lat="42.7614750" lon="-0.2284940">
        <ele>1769.0</ele>
        <time>2021-02-27T09:23:13Z</time>
      </trkpt>
      <trkpt lat="42.7614850" lon="-0.2284870">
        <ele>1769.2</ele>
        <time>2021-02-27T09:23:14Z</time>
      </trkpt>
      <trkpt lat="42.7614990" lon="-0.2284560">
        <ele>1769.8</ele>
        <time>2021-02-27T09:23:18Z</time>
      </trkpt>
      <trkpt lat="42.7615010" lon="-0.2284440">
        <ele>1770.0</ele>
        <time>2021-02-27T09:23:20Z</time>
      </trkpt>
      <trkpt lat="42.7615100" lon="-0.2284110">
        <ele>1770.4</ele>
        <time>2021-02-27T09:23:24Z</time>
      </trkpt>
      <trkpt lat="42.7615180" lon="-0.2284010">
        <ele>1770.6</ele>
        <time>2021-02-27T09:23:25Z</time>
      </trkpt>
      <trkpt lat="42.7615340" lon="-0.2283710">
        <ele>1770.6</ele>
        <time>2021-02-27T09:23:28Z</time>
      </trkpt>
      <trkpt lat="42.7615470" lon="-0.2283420">
        <ele>1770.8</ele>
        <time>2021-02-27T09:23:31Z</time>
      </trkpt>
      <trkpt lat="42.7615480" lon="-0.2283340">
        <ele>1770.8</ele>
        <time>2021-02-27T09:23:32Z</time>
      </trkpt>
      <trkpt lat="42.7615500" lon="-0.2283240">
        <ele>1771.0</ele>
        <time>2021-02-27T09:23:33Z</time>
      </trkpt>
      <trkpt lat="42.7615530" lon="-0.2283170">
        <ele>1771.2</ele>
        <time>2021-02-27T09:23:34Z</time>
      </trkpt>
      <trkpt lat="42.7615610" lon="-0.2283070">
        <ele>1771.4</ele>
        <time>2021-02-27T09:23:35Z</time>
      </trkpt>
      <trkpt lat="42.7615680" lon="-0.2282960">
        <ele>1771.6</ele>
        <time>2021-02-27T09:23:37Z</time>
      </trkpt>
      <trkpt lat="42.7615700" lon="-0.2282880">
        <ele>1771.8</ele>
        <time>2021-02-27T09:23:38Z</time>
      </trkpt>
      <trkpt lat="42.7615810" lon="-0.2282780">
        <ele>1772.2</ele>
        <time>2021-02-27T09:23:40Z</time>
      </trkpt>
      <trkpt lat="42.7616070" lon="-0.2282500">
        <ele>1772.6</ele>
        <time>2021-02-27T09:23:46Z</time>
      </trkpt>
      <trkpt lat="42.7616110" lon="-0.2282320">
        <ele>1773.0</ele>
        <time>2021-02-27T09:23:49Z</time>
      </trkpt>
      <trkpt lat="42.7616240" lon="-0.2282230">
        <ele>1773.2</ele>
        <time>2021-02-27T09:23:51Z</time>
      </trkpt>
      <trkpt lat="42.7616250" lon="-0.2282010">
        <ele>1773.6</ele>
        <time>2021-02-27T09:23:53Z</time>
      </trkpt>
      <trkpt lat="42.7616250" lon="-0.2281880">
        <ele>1773.8</ele>
        <time>2021-02-27T09:23:54Z</time>
      </trkpt>
      <trkpt lat="42.7616280" lon="-0.2281780">
        <ele>1774.0</ele>
        <time>2021-02-27T09:23:55Z</time>
      </trkpt>
      <trkpt lat="42.7616330" lon="-0.2281710">
        <ele>1774.2</ele>
        <time>2021-02-27T09:23:56Z</time>
      </trkpt>
      <trkpt lat="42.7616610" lon="-0.2281510">
        <ele>1775.4</ele>
        <time>2021-02-27T09:24:00Z</time>
      </trkpt>
      <trkpt lat="42.7616650" lon="-0.2281420">
        <ele>1775.6</ele>
        <time>2021-02-27T09:24:01Z</time>
      </trkpt>
      <trkpt lat="42.7616800" lon="-0.2281360">
        <ele>1776.0</ele>
        <time>2021-02-27T09:24:06Z</time>
      </trkpt>
      <trkpt lat="42.7616800" lon="-0.2281300">
        <ele>1776.4</ele>
        <time>2021-02-27T09:24:08Z</time>
      </trkpt>
      <trkpt lat="42.7616820" lon="-0.2281270">
        <ele>1776.4</ele>
        <time>2021-02-27T09:24:09Z</time>
      </trkpt>
      <trkpt lat="42.7617020" lon="-0.2280980">
        <ele>1776.8</ele>
        <time>2021-02-27T09:24:12Z</time>
      </trkpt>
      <trkpt lat="42.7617330" lon="-0.2280470">
        <ele>1777.6</ele>
        <time>2021-02-27T09:24:17Z</time>
      </trkpt>
      <trkpt lat="42.7617430" lon="-0.2280190">
        <ele>1778.0</ele>
        <time>2021-02-27T09:24:19Z</time>
      </trkpt>
      <trkpt lat="42.7617500" lon="-0.2279800">
        <ele>1778.8</ele>
        <time>2021-02-27T09:24:25Z</time>
      </trkpt>
      <trkpt lat="42.7617710" lon="-0.2279480">
        <ele>1779.8</ele>
        <time>2021-02-27T09:24:30Z</time>
      </trkpt>
      <trkpt lat="42.7617770" lon="-0.2279390">
        <ele>1779.8</ele>
        <time>2021-02-27T09:24:31Z</time>
      </trkpt>
      <trkpt lat="42.7617930" lon="-0.2279090">
        <ele>1781.0</ele>
        <time>2021-02-27T09:24:37Z</time>
      </trkpt>
      <trkpt lat="42.7618360" lon="-0.2278770">
        <ele>1782.0</ele>
        <time>2021-02-27T09:24:43Z</time>
      </trkpt>
      <trkpt lat="42.7618420" lon="-0.2278700">
        <ele>1782.2</ele>
        <time>2021-02-27T09:24:44Z</time>
      </trkpt>
      <trkpt lat="42.7618730" lon="-0.2278450">
        <ele>1783.2</ele>
        <time>2021-02-27T09:24:49Z</time>
      </trkpt>
      <trkpt lat="42.7618800" lon="-0.2278430">
        <ele>1783.2</ele>
        <time>2021-02-27T09:24:50Z</time>
      </trkpt>
      <trkpt lat="42.7618870" lon="-0.2278330">
        <ele>1783.8</ele>
        <time>2021-02-27T09:24:53Z</time>
      </trkpt>
      <trkpt lat="42.7618930" lon="-0.2278300">
        <ele>1784.0</ele>
        <time>2021-02-27T09:24:54Z</time>
      </trkpt>
      <trkpt lat="42.7618940" lon="-0.2278250">
        <ele>1784.2</ele>
        <time>2021-02-27T09:24:55Z</time>
      </trkpt>
      <trkpt lat="42.7619040" lon="-0.2278120">
        <ele>1784.4</ele>
        <time>2021-02-27T09:24:57Z</time>
      </trkpt>
      <trkpt lat="42.7619520" lon="-0.2277440">
        <ele>1785.0</ele>
        <time>2021-02-27T09:25:03Z</time>
      </trkpt>
      <trkpt lat="42.7619620" lon="-0.2277410">
        <ele>1785.2</ele>
        <time>2021-02-27T09:25:04Z</time>
      </trkpt>
      <trkpt lat="42.7619920" lon="-0.2277250">
        <ele>1786.2</ele>
        <time>2021-02-27T09:25:09Z</time>
      </trkpt>
      <trkpt lat="42.7619970" lon="-0.2277220">
        <ele>1786.4</ele>
        <time>2021-02-27T09:25:10Z</time>
      </trkpt>
      <trkpt lat="42.7620260" lon="-0.2276830">
        <ele>1787.2</ele>
        <time>2021-02-27T09:25:16Z</time>
      </trkpt>
      <trkpt lat="42.7620360" lon="-0.2276740">
        <ele>1787.6</ele>
        <time>2021-02-27T09:25:17Z</time>
      </trkpt>
      <trkpt lat="42.7620670" lon="-0.2276430">
        <ele>1788.6</ele>
        <time>2021-02-27T09:25:23Z</time>
      </trkpt>
      <trkpt lat="42.7620700" lon="-0.2276390">
        <ele>1788.8</ele>
        <time>2021-02-27T09:25:24Z</time>
      </trkpt>
      <trkpt lat="42.7620820" lon="-0.2276020">
        <ele>1789.4</ele>
        <time>2021-02-27T09:25:29Z</time>
      </trkpt>
      <trkpt lat="42.7620830" lon="-0.2275930">
        <ele>1789.6</ele>
        <time>2021-02-27T09:25:30Z</time>
      </trkpt>
      <trkpt lat="42.7620860" lon="-0.2275870">
        <ele>1789.8</ele>
        <time>2021-02-27T09:25:31Z</time>
      </trkpt>
      <trkpt lat="42.7620900" lon="-0.2275720">
        <ele>1790.2</ele>
        <time>2021-02-27T09:25:33Z</time>
      </trkpt>
      <trkpt lat="42.7620870" lon="-0.2275650">
        <ele>1790.4</ele>
        <time>2021-02-27T09:25:34Z</time>
      </trkpt>
      <trkpt lat="42.7620750" lon="-0.2275580">
        <ele>1790.8</ele>
        <time>2021-02-27T09:25:36Z</time>
      </trkpt>
      <trkpt lat="42.7620670" lon="-0.2275590">
        <ele>1791.0</ele>
        <time>2021-02-27T09:25:37Z</time>
      </trkpt>
      <trkpt lat="42.7620280" lon="-0.2275550">
        <ele>1792.0</ele>
        <time>2021-02-27T09:25:43Z</time>
      </trkpt>
      <trkpt lat="42.7619690" lon="-0.2275630">
        <ele>1792.4</ele>
        <time>2021-02-27T09:25:52Z</time>
      </trkpt>
      <trkpt lat="42.7619240" lon="-0.2275660">
        <ele>1793.0</ele>
        <time>2021-02-27T09:25:59Z</time>
      </trkpt>
      <trkpt lat="42.7619060" lon="-0.2275700">
        <ele>1793.0</ele>
        <time>2021-02-27T09:26:01Z</time>
      </trkpt>
      <trkpt lat="42.7618640" lon="-0.2275720">
        <ele>1793.8</ele>
        <time>2021-02-27T09:26:08Z</time>
      </trkpt>
      <trkpt lat="42.7618490" lon="-0.2275740">
        <ele>1794.2</ele>
        <time>2021-02-27T09:26:10Z</time>
      </trkpt>
      <trkpt lat="42.7618110" lon="-0.2275850">
        <ele>1795.0</ele>
        <time>2021-02-27T09:26:16Z</time>
      </trkpt>
      <trkpt lat="42.7617820" lon="-0.2275960">
        <ele>1795.2</ele>
        <time>2021-02-27T09:26:20Z</time>
      </trkpt>
      <trkpt lat="42.7617580" lon="-0.2275920">
        <ele>1796.0</ele>
        <time>2021-02-27T09:26:23Z</time>
      </trkpt>
      <trkpt lat="42.7617520" lon="-0.2275930">
        <ele>1796.4</ele>
        <time>2021-02-27T09:26:24Z</time>
      </trkpt>
      <trkpt lat="42.7617120" lon="-0.2276040">
        <ele>1797.4</ele>
        <time>2021-02-27T09:26:30Z</time>
      </trkpt>
      <trkpt lat="42.7617020" lon="-0.2276050">
        <ele>1797.4</ele>
        <time>2021-02-27T09:26:31Z</time>
      </trkpt>
      <trkpt lat="42.7616930" lon="-0.2276050">
        <ele>1797.6</ele>
        <time>2021-02-27T09:26:32Z</time>
      </trkpt>
      <trkpt lat="42.7616450" lon="-0.2276080">
        <ele>1798.2</ele>
        <time>2021-02-27T09:26:38Z</time>
      </trkpt>
      <trkpt lat="42.7616310" lon="-0.2276060">
        <ele>1798.4</ele>
        <time>2021-02-27T09:26:40Z</time>
      </trkpt>
      <trkpt lat="42.7616230" lon="-0.2276050">
        <ele>1798.6</ele>
        <time>2021-02-27T09:26:41Z</time>
      </trkpt>
      <trkpt lat="42.7615680" lon="-0.2276190">
        <ele>1799.4</ele>
        <time>2021-02-27T09:26:48Z</time>
      </trkpt>
      <trkpt lat="42.7615620" lon="-0.2276200">
        <ele>1799.6</ele>
        <time>2021-02-27T09:26:49Z</time>
      </trkpt>
      <trkpt lat="42.7615550" lon="-0.2276220">
        <ele>1799.6</ele>
        <time>2021-02-27T09:26:50Z</time>
      </trkpt>
      <trkpt lat="42.7614980" lon="-0.2276250">
        <ele>1800.0</ele>
        <time>2021-02-27T09:26:57Z</time>
      </trkpt>
      <trkpt lat="42.7614900" lon="-0.2276280">
        <ele>1800.2</ele>
        <time>2021-02-27T09:26:58Z</time>
      </trkpt>
      <trkpt lat="42.7614700" lon="-0.2276340">
        <ele>1800.6</ele>
        <time>2021-02-27T09:27:01Z</time>
      </trkpt>
      <trkpt lat="42.7614200" lon="-0.2276360">
        <ele>1801.2</ele>
        <time>2021-02-27T09:27:06Z</time>
      </trkpt>
      <trkpt lat="42.7613950" lon="-0.2276270">
        <ele>1801.8</ele>
        <time>2021-02-27T09:27:10Z</time>
      </trkpt>
      <trkpt lat="42.7613710" lon="-0.2276250">
        <ele>1802.4</ele>
        <time>2021-02-27T09:27:14Z</time>
      </trkpt>
      <trkpt lat="42.7613610" lon="-0.2276310">
        <ele>1802.6</ele>
        <time>2021-02-27T09:27:16Z</time>
      </trkpt>
      <trkpt lat="42.7613590" lon="-0.2276410">
        <ele>1802.6</ele>
        <time>2021-02-27T09:27:17Z</time>
      </trkpt>
      <trkpt lat="42.7613550" lon="-0.2276450">
        <ele>1802.6</ele>
        <time>2021-02-27T09:27:18Z</time>
      </trkpt>
      <trkpt lat="42.7613430" lon="-0.2276560">
        <ele>1802.8</ele>
        <time>2021-02-27T09:27:20Z</time>
      </trkpt>
      <trkpt lat="42.7613230" lon="-0.2276750">
        <ele>1802.8</ele>
        <time>2021-02-27T09:27:22Z</time>
      </trkpt>
      <trkpt lat="42.7613020" lon="-0.2276800">
        <ele>1803.0</ele>
        <time>2021-02-27T09:27:25Z</time>
      </trkpt>
      <trkpt lat="42.7612930" lon="-0.2276850">
        <ele>1803.0</ele>
        <time>2021-02-27T09:27:26Z</time>
      </trkpt>
      <trkpt lat="42.7612770" lon="-0.2276920">
        <ele>1803.0</ele>
        <time>2021-02-27T09:27:28Z</time>
      </trkpt>
      <trkpt lat="42.7612410" lon="-0.2277150">
        <ele>1803.2</ele>
        <time>2021-02-27T09:27:34Z</time>
      </trkpt>
      <trkpt lat="42.7612380" lon="-0.2277190">
        <ele>1803.4</ele>
        <time>2021-02-27T09:27:35Z</time>
      </trkpt>
      <trkpt lat="42.7612010" lon="-0.2277650">
        <ele>1803.8</ele>
        <time>2021-02-27T09:27:42Z</time>
      </trkpt>
      <trkpt lat="42.7611940" lon="-0.2277700">
        <ele>1803.8</ele>
        <time>2021-02-27T09:27:43Z</time>
      </trkpt>
      <trkpt lat="42.7611840" lon="-0.2277850">
        <ele>1804.2</ele>
        <time>2021-02-27T09:27:45Z</time>
      </trkpt>
      <trkpt lat="42.7611580" lon="-0.2277960">
        <ele>1804.8</ele>
        <time>2021-02-27T09:27:49Z</time>
      </trkpt>
      <trkpt lat="42.7610960" lon="-0.2278150">
        <ele>1806.0</ele>
        <time>2021-02-27T09:27:56Z</time>
      </trkpt>
      <trkpt lat="42.7610890" lon="-0.2278170">
        <ele>1806.2</ele>
        <time>2021-02-27T09:27:57Z</time>
      </trkpt>
      <trkpt lat="42.7610790" lon="-0.2278210">
        <ele>1806.2</ele>
        <time>2021-02-27T09:27:58Z</time>
      </trkpt>
      <trkpt lat="42.7610690" lon="-0.2278260">
        <ele>1806.4</ele>
        <time>2021-02-27T09:27:59Z</time>
      </trkpt>
      <trkpt lat="42.7610440" lon="-0.2278430">
        <ele>1806.6</ele>
        <time>2021-02-27T09:28:03Z</time>
      </trkpt>
      <trkpt lat="42.7610370" lon="-0.2278450">
        <ele>1806.8</ele>
        <time>2021-02-27T09:28:04Z</time>
      </trkpt>
      <trkpt lat="42.7610260" lon="-0.2278450">
        <ele>1807.0</ele>
        <time>2021-02-27T09:28:05Z</time>
      </trkpt>
      <trkpt lat="42.7610060" lon="-0.2278490">
        <ele>1807.6</ele>
        <time>2021-02-27T09:28:08Z</time>
      </trkpt>
      <trkpt lat="42.7609920" lon="-0.2278510">
        <ele>1807.8</ele>
        <time>2021-02-27T09:28:10Z</time>
      </trkpt>
      <trkpt lat="42.7609810" lon="-0.2278530">
        <ele>1808.2</ele>
        <time>2021-02-27T09:28:12Z</time>
      </trkpt>
      <trkpt lat="42.7609480" lon="-0.2278530">
        <ele>1809.4</ele>
        <time>2021-02-27T09:28:17Z</time>
      </trkpt>
      <trkpt lat="42.7609290" lon="-0.2278500">
        <ele>1809.8</ele>
        <time>2021-02-27T09:28:20Z</time>
      </trkpt>
      <trkpt lat="42.7609250" lon="-0.2278530">
        <ele>1809.8</ele>
        <time>2021-02-27T09:28:21Z</time>
      </trkpt>
      <trkpt lat="42.7608880" lon="-0.2278670">
        <ele>1810.4</ele>
        <time>2021-02-27T09:28:26Z</time>
      </trkpt>
      <trkpt lat="42.7608790" lon="-0.2278690">
        <ele>1810.6</ele>
        <time>2021-02-27T09:28:27Z</time>
      </trkpt>
      <trkpt lat="42.7608550" lon="-0.2278800">
        <ele>1811.2</ele>
        <time>2021-02-27T09:28:31Z</time>
      </trkpt>
      <trkpt lat="42.7608420" lon="-0.2278800">
        <ele>1811.6</ele>
        <time>2021-02-27T09:28:33Z</time>
      </trkpt>
      <trkpt lat="42.7608300" lon="-0.2278830">
        <ele>1811.8</ele>
        <time>2021-02-27T09:28:35Z</time>
      </trkpt>
      <trkpt lat="42.7608180" lon="-0.2278780">
        <ele>1812.4</ele>
        <time>2021-02-27T09:28:39Z</time>
      </trkpt>
      <trkpt lat="42.7608080" lon="-0.2278650">
        <ele>1812.6</ele>
        <time>2021-02-27T09:28:41Z</time>
      </trkpt>
      <trkpt lat="42.7607970" lon="-0.2278400">
        <ele>1813.6</ele>
        <time>2021-02-27T09:28:47Z</time>
      </trkpt>
      <trkpt lat="42.7607990" lon="-0.2278310">
        <ele>1813.6</ele>
        <time>2021-02-27T09:28:48Z</time>
      </trkpt>
      <trkpt lat="42.7608090" lon="-0.2278180">
        <ele>1814.2</ele>
        <time>2021-02-27T09:28:50Z</time>
      </trkpt>
      <trkpt lat="42.7608350" lon="-0.2277950">
        <ele>1814.8</ele>
        <time>2021-02-27T09:28:54Z</time>
      </trkpt>
      <trkpt lat="42.7608550" lon="-0.2277730">
        <ele>1815.2</ele>
        <time>2021-02-27T09:29:00Z</time>
      </trkpt>
      <trkpt lat="42.7608910" lon="-0.2277480">
        <ele>1815.8</ele>
        <time>2021-02-27T09:29:06Z</time>
      </trkpt>
      <trkpt lat="42.7608980" lon="-0.2277390">
        <ele>1815.8</ele>
        <time>2021-02-27T09:29:08Z</time>
      </trkpt>
      <trkpt lat="42.7609150" lon="-0.2276750">
        <ele>1816.2</ele>
        <time>2021-02-27T09:29:13Z</time>
      </trkpt>
      <trkpt lat="42.7609240" lon="-0.2276470">
        <ele>1816.2</ele>
        <time>2021-02-27T09:29:15Z</time>
      </trkpt>
      <trkpt lat="42.7609350" lon="-0.2276220">
        <ele>1817.0</ele>
        <time>2021-02-27T09:29:18Z</time>
      </trkpt>
      <trkpt lat="42.7609620" lon="-0.2275880">
        <ele>1817.8</ele>
        <time>2021-02-27T09:29:22Z</time>
      </trkpt>
      <trkpt lat="42.7609710" lon="-0.2275830">
        <ele>1817.8</ele>
        <time>2021-02-27T09:29:23Z</time>
      </trkpt>
      <trkpt lat="42.7609910" lon="-0.2275510">
        <ele>1818.2</ele>
        <time>2021-02-27T09:29:26Z</time>
      </trkpt>
      <trkpt lat="42.7610160" lon="-0.2275130">
        <ele>1818.4</ele>
        <time>2021-02-27T09:29:29Z</time>
      </trkpt>
      <trkpt lat="42.7610340" lon="-0.2274840">
        <ele>1818.8</ele>
        <time>2021-02-27T09:29:32Z</time>
      </trkpt>
      <trkpt lat="42.7610330" lon="-0.2274760">
        <ele>1819.0</ele>
        <time>2021-02-27T09:29:33Z</time>
      </trkpt>
      <trkpt lat="42.7610190" lon="-0.2274710">
        <ele>1819.8</ele>
        <time>2021-02-27T09:30:19Z</time>
      </trkpt>
      <trkpt lat="42.7610200" lon="-0.2274710">
        <ele>1819.8</ele>
        <time>2021-02-27T09:30:20Z</time>
      </trkpt>
      <trkpt lat="42.7610480" lon="-0.2274240">
        <ele>1820.0</ele>
        <time>2021-02-27T09:30:25Z</time>
      </trkpt>
      <trkpt lat="42.7611000" lon="-0.2273950">
        <ele>1820.4</ele>
        <time>2021-02-27T09:30:29Z</time>
      </trkpt>
      <trkpt lat="42.7611200" lon="-0.2273760">
        <ele>1820.8</ele>
        <time>2021-02-27T09:30:31Z</time>
      </trkpt>
      <trkpt lat="42.7611280" lon="-0.2273660">
        <ele>1821.0</ele>
        <time>2021-02-27T09:30:32Z</time>
      </trkpt>
      <trkpt lat="42.7611610" lon="-0.2273390">
        <ele>1821.8</ele>
        <time>2021-02-27T09:30:37Z</time>
      </trkpt>
      <trkpt lat="42.7611640" lon="-0.2273380">
        <ele>1822.2</ele>
        <time>2021-02-27T09:30:39Z</time>
      </trkpt>
      <trkpt lat="42.7611710" lon="-0.2273390">
        <ele>1822.6</ele>
        <time>2021-02-27T09:30:40Z</time>
      </trkpt>
      <trkpt lat="42.7611890" lon="-0.2273350">
        <ele>1823.0</ele>
        <time>2021-02-27T09:30:42Z</time>
      </trkpt>
      <trkpt lat="42.7611960" lon="-0.2273340">
        <ele>1823.0</ele>
        <time>2021-02-27T09:30:43Z</time>
      </trkpt>
      <trkpt lat="42.7612140" lon="-0.2273260">
        <ele>1823.4</ele>
        <time>2021-02-27T09:30:45Z</time>
      </trkpt>
      <trkpt lat="42.7612360" lon="-0.2273100">
        <ele>1824.0</ele>
        <time>2021-02-27T09:30:48Z</time>
      </trkpt>
      <trkpt lat="42.7612520" lon="-0.2272900">
        <ele>1824.6</ele>
        <time>2021-02-27T09:30:52Z</time>
      </trkpt>
      <trkpt lat="42.7612590" lon="-0.2272840">
        <ele>1825.0</ele>
        <time>2021-02-27T09:30:54Z</time>
      </trkpt>
      <trkpt lat="42.7612640" lon="-0.2272820">
        <ele>1825.2</ele>
        <time>2021-02-27T09:30:55Z</time>
      </trkpt>
      <trkpt lat="42.7612730" lon="-0.2272550">
        <ele>1825.6</ele>
        <time>2021-02-27T09:30:58Z</time>
      </trkpt>
      <trkpt lat="42.7612950" lon="-0.2272320">
        <ele>1826.2</ele>
        <time>2021-02-27T09:31:01Z</time>
      </trkpt>
      <trkpt lat="42.7613210" lon="-0.2272080">
        <ele>1826.6</ele>
        <time>2021-02-27T09:31:04Z</time>
      </trkpt>
      <trkpt lat="42.7613390" lon="-0.2271880">
        <ele>1827.4</ele>
        <time>2021-02-27T09:31:08Z</time>
      </trkpt>
      <trkpt lat="42.7613470" lon="-0.2271630">
        <ele>1828.0</ele>
        <time>2021-02-27T09:31:12Z</time>
      </trkpt>
      <trkpt lat="42.7613600" lon="-0.2271520">
        <ele>1828.4</ele>
        <time>2021-02-27T09:31:15Z</time>
      </trkpt>
      <trkpt lat="42.7614130" lon="-0.2271460">
        <ele>1828.6</ele>
        <time>2021-02-27T09:31:20Z</time>
      </trkpt>
      <trkpt lat="42.7614200" lon="-0.2271430">
        <ele>1829.0</ele>
        <time>2021-02-27T09:31:23Z</time>
      </trkpt>
      <trkpt lat="42.7614290" lon="-0.2271370">
        <ele>1829.4</ele>
        <time>2021-02-27T09:31:25Z</time>
      </trkpt>
      <trkpt lat="42.7614630" lon="-0.2271350">
        <ele>1830.0</ele>
        <time>2021-02-27T09:31:31Z</time>
      </trkpt>
      <trkpt lat="42.7614750" lon="-0.2271310">
        <ele>1830.2</ele>
        <time>2021-02-27T09:31:32Z</time>
      </trkpt>
      <trkpt lat="42.7614930" lon="-0.2271160">
        <ele>1830.6</ele>
        <time>2021-02-27T09:31:35Z</time>
      </trkpt>
      <trkpt lat="42.7615260" lon="-0.2270820">
        <ele>1831.6</ele>
        <time>2021-02-27T09:31:41Z</time>
      </trkpt>
      <trkpt lat="42.7615560" lon="-0.2270820">
        <ele>1832.2</ele>
        <time>2021-02-27T09:31:48Z</time>
      </trkpt>
      <trkpt lat="42.7615650" lon="-0.2270750">
        <ele>1832.4</ele>
        <time>2021-02-27T09:31:50Z</time>
      </trkpt>
      <trkpt lat="42.7615740" lon="-0.2270600">
        <ele>1832.8</ele>
        <time>2021-02-27T09:31:52Z</time>
      </trkpt>
      <trkpt lat="42.7615760" lon="-0.2270490">
        <ele>1833.0</ele>
        <time>2021-02-27T09:31:53Z</time>
      </trkpt>
      <trkpt lat="42.7615770" lon="-0.2270430">
        <ele>1833.2</ele>
        <time>2021-02-27T09:31:54Z</time>
      </trkpt>
      <trkpt lat="42.7615890" lon="-0.2270300">
        <ele>1833.8</ele>
        <time>2021-02-27T09:31:56Z</time>
      </trkpt>
      <trkpt lat="42.7616090" lon="-0.2270230">
        <ele>1834.2</ele>
        <time>2021-02-27T09:31:58Z</time>
      </trkpt>
      <trkpt lat="42.7616350" lon="-0.2269890">
        <ele>1834.8</ele>
        <time>2021-02-27T09:32:03Z</time>
      </trkpt>
      <trkpt lat="42.7616400" lon="-0.2269830">
        <ele>1834.8</ele>
        <time>2021-02-27T09:32:04Z</time>
      </trkpt>
      <trkpt lat="42.7616670" lon="-0.2269660">
        <ele>1835.0</ele>
        <time>2021-02-27T09:32:07Z</time>
      </trkpt>
      <trkpt lat="42.7616840" lon="-0.2269400">
        <ele>1835.6</ele>
        <time>2021-02-27T09:32:10Z</time>
      </trkpt>
      <trkpt lat="42.7616890" lon="-0.2269210">
        <ele>1835.8</ele>
        <time>2021-02-27T09:32:12Z</time>
      </trkpt>
      <trkpt lat="42.7617250" lon="-0.2268670">
        <ele>1836.2</ele>
        <time>2021-02-27T09:32:17Z</time>
      </trkpt>
      <trkpt lat="42.7617400" lon="-0.2268580">
        <ele>1836.4</ele>
        <time>2021-02-27T09:32:19Z</time>
      </trkpt>
      <trkpt lat="42.7617600" lon="-0.2268440">
        <ele>1836.8</ele>
        <time>2021-02-27T09:32:22Z</time>
      </trkpt>
      <trkpt lat="42.7617560" lon="-0.2268290">
        <ele>1837.4</ele>
        <time>2021-02-27T09:32:24Z</time>
      </trkpt>
      <trkpt lat="42.7617560" lon="-0.2268020">
        <ele>1838.0</ele>
        <time>2021-02-27T09:32:27Z</time>
      </trkpt>
      <trkpt lat="42.7617690" lon="-0.2267910">
        <ele>1838.2</ele>
        <time>2021-02-27T09:32:29Z</time>
      </trkpt>
      <trkpt lat="42.7617780" lon="-0.2267840">
        <ele>1838.4</ele>
        <time>2021-02-27T09:32:30Z</time>
      </trkpt>
      <trkpt lat="42.7617970" lon="-0.2267580">
        <ele>1839.2</ele>
        <time>2021-02-27T09:32:34Z</time>
      </trkpt>
      <trkpt lat="42.7618210" lon="-0.2267460">
        <ele>1839.6</ele>
        <time>2021-02-27T09:32:37Z</time>
      </trkpt>
      <trkpt lat="42.7618480" lon="-0.2267120">
        <ele>1840.2</ele>
        <time>2021-02-27T09:32:42Z</time>
      </trkpt>
      <trkpt lat="42.7618620" lon="-0.2267020">
        <ele>1840.6</ele>
        <time>2021-02-27T09:32:44Z</time>
      </trkpt>
      <trkpt lat="42.7618900" lon="-0.2266820">
        <ele>1841.4</ele>
        <time>2021-02-27T09:32:47Z</time>
      </trkpt>
      <trkpt lat="42.7618920" lon="-0.2266590">
        <ele>1842.0</ele>
        <time>2021-02-27T09:32:50Z</time>
      </trkpt>
      <trkpt lat="42.7618880" lon="-0.2266360">
        <ele>1842.6</ele>
        <time>2021-02-27T09:32:52Z</time>
      </trkpt>
      <trkpt lat="42.7618560" lon="-0.2266270">
        <ele>1843.2</ele>
        <time>2021-02-27T09:32:56Z</time>
      </trkpt>
      <trkpt lat="42.7618470" lon="-0.2266320">
        <ele>1843.6</ele>
        <time>2021-02-27T09:32:58Z</time>
      </trkpt>
      <trkpt lat="42.7618250" lon="-0.2266430">
        <ele>1843.8</ele>
        <time>2021-02-27T09:33:00Z</time>
      </trkpt>
      <trkpt lat="42.7618100" lon="-0.2266440">
        <ele>1843.8</ele>
        <time>2021-02-27T09:33:02Z</time>
      </trkpt>
      <trkpt lat="42.7618080" lon="-0.2266450">
        <ele>1844.0</ele>
        <time>2021-02-27T09:33:03Z</time>
      </trkpt>
      <trkpt lat="42.7617630" lon="-0.2266500">
        <ele>1844.4</ele>
        <time>2021-02-27T09:33:08Z</time>
      </trkpt>
      <trkpt lat="42.7617560" lon="-0.2266520">
        <ele>1844.6</ele>
        <time>2021-02-27T09:33:09Z</time>
      </trkpt>
      <trkpt lat="42.7617480" lon="-0.2266530">
        <ele>1844.6</ele>
        <time>2021-02-27T09:33:10Z</time>
      </trkpt>
      <trkpt lat="42.7617170" lon="-0.2266440">
        <ele>1845.0</ele>
        <time>2021-02-27T09:33:12Z</time>
      </trkpt>
      <trkpt lat="42.7616850" lon="-0.2266440">
        <ele>1845.4</ele>
        <time>2021-02-27T09:33:15Z</time>
      </trkpt>
      <trkpt lat="42.7616750" lon="-0.2266590">
        <ele>1845.8</ele>
        <time>2021-02-27T09:33:17Z</time>
      </trkpt>
      <trkpt lat="42.7616700" lon="-0.2266650">
        <ele>1845.8</ele>
        <time>2021-02-27T09:33:18Z</time>
      </trkpt>
      <trkpt lat="42.7616500" lon="-0.2266690">
        <ele>1846.0</ele>
        <time>2021-02-27T09:33:21Z</time>
      </trkpt>
      <trkpt lat="42.7616120" lon="-0.2266700">
        <ele>1846.6</ele>
        <time>2021-02-27T09:33:26Z</time>
      </trkpt>
      <trkpt lat="42.7615990" lon="-0.2266840">
        <ele>1846.6</ele>
        <time>2021-02-27T09:33:28Z</time>
      </trkpt>
      <trkpt lat="42.7615730" lon="-0.2266950">
        <ele>1846.6</ele>
        <time>2021-02-27T09:33:31Z</time>
      </trkpt>
      <trkpt lat="42.7615590" lon="-0.2267020">
        <ele>1846.8</ele>
        <time>2021-02-27T09:33:33Z</time>
      </trkpt>
      <trkpt lat="42.7615010" lon="-0.2267250">
        <ele>1847.8</ele>
        <time>2021-02-27T09:33:40Z</time>
      </trkpt>
      <trkpt lat="42.7614920" lon="-0.2267270">
        <ele>1847.8</ele>
        <time>2021-02-27T09:33:41Z</time>
      </trkpt>
      <trkpt lat="42.7614230" lon="-0.2267420">
        <ele>1848.2</ele>
        <time>2021-02-27T09:33:49Z</time>
      </trkpt>
      <trkpt lat="42.7613750" lon="-0.2267510">
        <ele>1848.8</ele>
        <time>2021-02-27T09:33:55Z</time>
      </trkpt>
      <trkpt lat="42.7613470" lon="-0.2267520">
        <ele>1848.8</ele>
        <time>2021-02-27T09:33:58Z</time>
      </trkpt>
      <trkpt lat="42.7613380" lon="-0.2267520">
        <ele>1849.0</ele>
        <time>2021-02-27T09:33:59Z</time>
      </trkpt>
      <trkpt lat="42.7613020" lon="-0.2267580">
        <ele>1849.4</ele>
        <time>2021-02-27T09:34:04Z</time>
      </trkpt>
      <trkpt lat="42.7612910" lon="-0.2267580">
        <ele>1849.4</ele>
        <time>2021-02-27T09:34:05Z</time>
      </trkpt>
      <trkpt lat="42.7612780" lon="-0.2267570">
        <ele>1849.6</ele>
        <time>2021-02-27T09:34:06Z</time>
      </trkpt>
      <trkpt lat="42.7612670" lon="-0.2267490">
        <ele>1850.0</ele>
        <time>2021-02-27T09:34:09Z</time>
      </trkpt>
      <trkpt lat="42.7612680" lon="-0.2267460">
        <ele>1850.4</ele>
        <time>2021-02-27T09:34:12Z</time>
      </trkpt>
      <trkpt lat="42.7612750" lon="-0.2267480">
        <ele>1850.6</ele>
        <time>2021-02-27T09:34:13Z</time>
      </trkpt>
      <trkpt lat="42.7612820" lon="-0.2267430">
        <ele>1851.0</ele>
        <time>2021-02-27T09:34:14Z</time>
      </trkpt>
      <trkpt lat="42.7613000" lon="-0.2267360">
        <ele>1851.6</ele>
        <time>2021-02-27T09:34:17Z</time>
      </trkpt>
      <trkpt lat="42.7613150" lon="-0.2267280">
        <ele>1851.8</ele>
        <time>2021-02-27T09:34:19Z</time>
      </trkpt>
      <trkpt lat="42.7613510" lon="-0.2267110">
        <ele>1852.2</ele>
        <time>2021-02-27T09:34:25Z</time>
      </trkpt>
      <trkpt lat="42.7613610" lon="-0.2267020">
        <ele>1852.6</ele>
        <time>2021-02-27T09:34:27Z</time>
      </trkpt>
      <trkpt lat="42.7613640" lon="-0.2266970">
        <ele>1852.6</ele>
        <time>2021-02-27T09:34:28Z</time>
      </trkpt>
      <trkpt lat="42.7613850" lon="-0.2266620">
        <ele>1853.2</ele>
        <time>2021-02-27T09:34:32Z</time>
      </trkpt>
      <trkpt lat="42.7614050" lon="-0.2266410">
        <ele>1853.4</ele>
        <time>2021-02-27T09:34:34Z</time>
      </trkpt>
      <trkpt lat="42.7614100" lon="-0.2266330">
        <ele>1853.4</ele>
        <time>2021-02-27T09:34:35Z</time>
      </trkpt>
      <trkpt lat="42.7614200" lon="-0.2266210">
        <ele>1853.6</ele>
        <time>2021-02-27T09:34:37Z</time>
      </trkpt>
      <trkpt lat="42.7614310" lon="-0.2266140">
        <ele>1853.8</ele>
        <time>2021-02-27T09:34:39Z</time>
      </trkpt>
      <trkpt lat="42.7614370" lon="-0.2266050">
        <ele>1853.8</ele>
        <time>2021-02-27T09:34:41Z</time>
      </trkpt>
      <trkpt lat="42.7614550" lon="-0.2265900">
        <ele>1854.2</ele>
        <time>2021-02-27T09:34:44Z</time>
      </trkpt>
      <trkpt lat="42.7614670" lon="-0.2265750">
        <ele>1854.6</ele>
        <time>2021-02-27T09:34:46Z</time>
      </trkpt>
      <trkpt lat="42.7614760" lon="-0.2265650">
        <ele>1854.8</ele>
        <time>2021-02-27T09:34:48Z</time>
      </trkpt>
      <trkpt lat="42.7614990" lon="-0.2265310">
        <ele>1855.4</ele>
        <time>2021-02-27T09:34:53Z</time>
      </trkpt>
      <trkpt lat="42.7615160" lon="-0.2265110">
        <ele>1855.8</ele>
        <time>2021-02-27T09:34:56Z</time>
      </trkpt>
      <trkpt lat="42.7615230" lon="-0.2265060">
        <ele>1855.8</ele>
        <time>2021-02-27T09:34:57Z</time>
      </trkpt>
      <trkpt lat="42.7615330" lon="-0.2264980">
        <ele>1856.2</ele>
        <time>2021-02-27T09:34:59Z</time>
      </trkpt>
      <trkpt lat="42.7615450" lon="-0.2264910">
        <ele>1856.4</ele>
        <time>2021-02-27T09:35:01Z</time>
      </trkpt>
      <trkpt lat="42.7615480" lon="-0.2264900">
        <ele>1856.6</ele>
        <time>2021-02-27T09:35:02Z</time>
      </trkpt>
      <trkpt lat="42.7615590" lon="-0.2264800">
        <ele>1857.0</ele>
        <time>2021-02-27T09:35:04Z</time>
      </trkpt>
      <trkpt lat="42.7615850" lon="-0.2264710">
        <ele>1857.4</ele>
        <time>2021-02-27T09:35:07Z</time>
      </trkpt>
      <trkpt lat="42.7616030" lon="-0.2264630">
        <ele>1857.6</ele>
        <time>2021-02-27T09:35:09Z</time>
      </trkpt>
      <trkpt lat="42.7616260" lon="-0.2264450">
        <ele>1858.0</ele>
        <time>2021-02-27T09:35:12Z</time>
      </trkpt>
      <trkpt lat="42.7616380" lon="-0.2264330">
        <ele>1858.2</ele>
        <time>2021-02-27T09:35:14Z</time>
      </trkpt>
      <trkpt lat="42.7616400" lon="-0.2264270">
        <ele>1858.2</ele>
        <time>2021-02-27T09:35:15Z</time>
      </trkpt>
      <trkpt lat="42.7616720" lon="-0.2263900">
        <ele>1858.6</ele>
        <time>2021-02-27T09:35:20Z</time>
      </trkpt>
      <trkpt lat="42.7616760" lon="-0.2263870">
        <ele>1858.8</ele>
        <time>2021-02-27T09:35:21Z</time>
      </trkpt>
      <trkpt lat="42.7616930" lon="-0.2263730">
        <ele>1859.4</ele>
        <time>2021-02-27T09:35:24Z</time>
      </trkpt>
      <trkpt lat="42.7616980" lon="-0.2263670">
        <ele>1859.8</ele>
        <time>2021-02-27T09:35:26Z</time>
      </trkpt>
      <trkpt lat="42.7617180" lon="-0.2263510">
        <ele>1860.0</ele>
        <time>2021-02-27T09:35:28Z</time>
      </trkpt>
      <trkpt lat="42.7617280" lon="-0.2263380">
        <ele>1860.4</ele>
        <time>2021-02-27T09:35:30Z</time>
      </trkpt>
      <trkpt lat="42.7617570" lon="-0.2262940">
        <ele>1860.8</ele>
        <time>2021-02-27T09:35:35Z</time>
      </trkpt>
      <trkpt lat="42.7617740" lon="-0.2262700">
        <ele>1861.0</ele>
        <time>2021-02-27T09:35:37Z</time>
      </trkpt>
      <trkpt lat="42.7617850" lon="-0.2262430">
        <ele>1861.6</ele>
        <time>2021-02-27T09:35:42Z</time>
      </trkpt>
      <trkpt lat="42.7617870" lon="-0.2262340">
        <ele>1861.8</ele>
        <time>2021-02-27T09:35:44Z</time>
      </trkpt>
      <trkpt lat="42.7617880" lon="-0.2262260">
        <ele>1862.0</ele>
        <time>2021-02-27T09:35:45Z</time>
      </trkpt>
      <trkpt lat="42.7617910" lon="-0.2262070">
        <ele>1862.2</ele>
        <time>2021-02-27T09:35:47Z</time>
      </trkpt>
      <trkpt lat="42.7618160" lon="-0.2261680">
        <ele>1863.0</ele>
        <time>2021-02-27T09:35:53Z</time>
      </trkpt>
      <trkpt lat="42.7618230" lon="-0.2261590">
        <ele>1863.2</ele>
        <time>2021-02-27T09:35:54Z</time>
      </trkpt>
      <trkpt lat="42.7618550" lon="-0.2261080">
        <ele>1864.0</ele>
        <time>2021-02-27T09:36:01Z</time>
      </trkpt>
      <trkpt lat="42.7618600" lon="-0.2261040">
        <ele>1864.2</ele>
        <time>2021-02-27T09:36:02Z</time>
      </trkpt>
      <trkpt lat="42.7618940" lon="-0.2260600">
        <ele>1864.8</ele>
        <time>2021-02-27T09:36:08Z</time>
      </trkpt>
      <trkpt lat="42.7619040" lon="-0.2260040">
        <ele>1865.4</ele>
        <time>2021-02-27T09:36:14Z</time>
      </trkpt>
      <trkpt lat="42.7618940" lon="-0.2260020">
        <ele>1865.8</ele>
        <time>2021-02-27T09:36:17Z</time>
      </trkpt>
      <trkpt lat="42.7618850" lon="-0.2260060">
        <ele>1866.0</ele>
        <time>2021-02-27T09:36:18Z</time>
      </trkpt>
      <trkpt lat="42.7618710" lon="-0.2260160">
        <ele>1866.4</ele>
        <time>2021-02-27T09:36:20Z</time>
      </trkpt>
      <trkpt lat="42.7618200" lon="-0.2260410">
        <ele>1867.4</ele>
        <time>2021-02-27T09:36:27Z</time>
      </trkpt>
      <trkpt lat="42.7618070" lon="-0.2260560">
        <ele>1867.6</ele>
        <time>2021-02-27T09:36:29Z</time>
      </trkpt>
      <trkpt lat="42.7618010" lon="-0.2260600">
        <ele>1867.8</ele>
        <time>2021-02-27T09:36:31Z</time>
      </trkpt>
      <trkpt lat="42.7617940" lon="-0.2260500">
        <ele>1867.8</ele>
        <time>2021-02-27T09:36:32Z</time>
      </trkpt>
      <trkpt lat="42.7617950" lon="-0.2260490">
        <ele>1867.8</ele>
        <time>2021-02-27T09:36:34Z</time>
      </trkpt>
      <trkpt lat="42.7617810" lon="-0.2260500">
        <ele>1868.0</ele>
        <time>2021-02-27T09:36:38Z</time>
      </trkpt>
      <trkpt lat="42.7617500" lon="-0.2260620">
        <ele>1868.6</ele>
        <time>2021-02-27T09:36:42Z</time>
      </trkpt>
      <trkpt lat="42.7617410" lon="-0.2260690">
        <ele>1868.8</ele>
        <time>2021-02-27T09:36:44Z</time>
      </trkpt>
      <trkpt lat="42.7617160" lon="-0.2260850">
        <ele>1869.0</ele>
        <time>2021-02-27T09:36:47Z</time>
      </trkpt>
      <trkpt lat="42.7616640" lon="-0.2261150">
        <ele>1869.8</ele>
        <time>2021-02-27T09:36:55Z</time>
      </trkpt>
      <trkpt lat="42.7616240" lon="-0.2261350">
        <ele>1870.2</ele>
        <time>2021-02-27T09:37:01Z</time>
      </trkpt>
      <trkpt lat="42.7615790" lon="-0.2261550">
        <ele>1870.8</ele>
        <time>2021-02-27T09:37:08Z</time>
      </trkpt>
      <trkpt lat="42.7615670" lon="-0.2261560">
        <ele>1871.0</ele>
        <time>2021-02-27T09:37:09Z</time>
      </trkpt>
      <trkpt lat="42.7615410" lon="-0.2261620">
        <ele>1871.4</ele>
        <time>2021-02-27T09:37:13Z</time>
      </trkpt>
      <trkpt lat="42.7615140" lon="-0.2261730">
        <ele>1871.6</ele>
        <time>2021-02-27T09:37:17Z</time>
      </trkpt>
      <trkpt lat="42.7614880" lon="-0.2261780">
        <ele>1872.0</ele>
        <time>2021-02-27T09:37:20Z</time>
      </trkpt>
      <trkpt lat="42.7614290" lon="-0.2261920">
        <ele>1873.0</ele>
        <time>2021-02-27T09:37:27Z</time>
      </trkpt>
      <trkpt lat="42.7614200" lon="-0.2261920">
        <ele>1873.0</ele>
        <time>2021-02-27T09:37:28Z</time>
      </trkpt>
      <trkpt lat="42.7614320" lon="-0.2261950">
        <ele>1873.2</ele>
        <time>2021-02-27T09:37:31Z</time>
      </trkpt>
      <trkpt lat="42.7614350" lon="-0.2261890">
        <ele>1873.0</ele>
        <time>2021-02-27T09:37:33Z</time>
      </trkpt>
      <trkpt lat="42.7614330" lon="-0.2261860">
        <ele>1873.0</ele>
        <time>2021-02-27T09:37:34Z</time>
      </trkpt>
      <trkpt lat="42.7614280" lon="-0.2261610">
        <ele>1874.0</ele>
        <time>2021-02-27T09:37:41Z</time>
      </trkpt>
      <trkpt lat="42.7614310" lon="-0.2261560">
        <ele>1874.0</ele>
        <time>2021-02-27T09:37:42Z</time>
      </trkpt>
      <trkpt lat="42.7614350" lon="-0.2261540">
        <ele>1874.2</ele>
        <time>2021-02-27T09:37:44Z</time>
      </trkpt>
      <trkpt lat="42.7614450" lon="-0.2261360">
        <ele>1875.2</ele>
        <time>2021-02-27T09:37:48Z</time>
      </trkpt>
      <trkpt lat="42.7614490" lon="-0.2261350">
        <ele>1875.6</ele>
        <time>2021-02-27T09:37:50Z</time>
      </trkpt>
      <trkpt lat="42.7614590" lon="-0.2261200">
        <ele>1876.2</ele>
        <time>2021-02-27T09:37:53Z</time>
      </trkpt>
      <trkpt lat="42.7614850" lon="-0.2261110">
        <ele>1876.8</ele>
        <time>2021-02-27T09:37:59Z</time>
      </trkpt>
      <trkpt lat="42.7615030" lon="-0.2261000">
        <ele>1877.4</ele>
        <time>2021-02-27T09:38:02Z</time>
      </trkpt>
      <trkpt lat="42.7615470" lon="-0.2260650">
        <ele>1878.4</ele>
        <time>2021-02-27T09:38:07Z</time>
      </trkpt>
      <trkpt lat="42.7615530" lon="-0.2260540">
        <ele>1878.4</ele>
        <time>2021-02-27T09:38:08Z</time>
      </trkpt>
      <trkpt lat="42.7615870" lon="-0.2259970">
        <ele>1879.6</ele>
        <time>2021-02-27T09:38:15Z</time>
      </trkpt>
      <trkpt lat="42.7615920" lon="-0.2259920">
        <ele>1879.8</ele>
        <time>2021-02-27T09:38:16Z</time>
      </trkpt>
      <trkpt lat="42.7616140" lon="-0.2259660">
        <ele>1880.6</ele>
        <time>2021-02-27T09:38:20Z</time>
      </trkpt>
      <trkpt lat="42.7616270" lon="-0.2259460">
        <ele>1881.0</ele>
        <time>2021-02-27T09:38:23Z</time>
      </trkpt>
      <trkpt lat="42.7616670" lon="-0.2258920">
        <ele>1881.4</ele>
        <time>2021-02-27T09:38:30Z</time>
      </trkpt>
      <trkpt lat="42.7616760" lon="-0.2258840">
        <ele>1881.6</ele>
        <time>2021-02-27T09:38:31Z</time>
      </trkpt>
      <trkpt lat="42.7617120" lon="-0.2258390">
        <ele>1882.6</ele>
        <time>2021-02-27T09:38:37Z</time>
      </trkpt>
      <trkpt lat="42.7617160" lon="-0.2258310">
        <ele>1882.6</ele>
        <time>2021-02-27T09:38:38Z</time>
      </trkpt>
      <trkpt lat="42.7617210" lon="-0.2258210">
        <ele>1882.8</ele>
        <time>2021-02-27T09:38:40Z</time>
      </trkpt>
      <trkpt lat="42.7617200" lon="-0.2258100">
        <ele>1883.0</ele>
        <time>2021-02-27T09:38:42Z</time>
      </trkpt>
      <trkpt lat="42.7617190" lon="-0.2258030">
        <ele>1883.2</ele>
        <time>2021-02-27T09:38:43Z</time>
      </trkpt>
      <trkpt lat="42.7617130" lon="-0.2257820">
        <ele>1883.2</ele>
        <time>2021-02-27T09:38:45Z</time>
      </trkpt>
      <trkpt lat="42.7617330" lon="-0.2257650">
        <ele>1883.2</ele>
        <time>2021-02-27T09:38:47Z</time>
      </trkpt>
      <trkpt lat="42.7617480" lon="-0.2257490">
        <ele>1883.2</ele>
        <time>2021-02-27T09:38:49Z</time>
      </trkpt>
      <trkpt lat="42.7617540" lon="-0.2257400">
        <ele>1883.6</ele>
        <time>2021-02-27T09:38:51Z</time>
      </trkpt>
      <trkpt lat="42.7617590" lon="-0.2257320">
        <ele>1883.8</ele>
        <time>2021-02-27T09:38:52Z</time>
      </trkpt>
      <trkpt lat="42.7617840" lon="-0.2256890">
        <ele>1884.2</ele>
        <time>2021-02-27T09:38:57Z</time>
      </trkpt>
      <trkpt lat="42.7617930" lon="-0.2256660">
        <ele>1884.6</ele>
        <time>2021-02-27T09:39:00Z</time>
      </trkpt>
      <trkpt lat="42.7617970" lon="-0.2256420">
        <ele>1884.8</ele>
        <time>2021-02-27T09:39:02Z</time>
      </trkpt>
      <trkpt lat="42.7617810" lon="-0.2256370">
        <ele>1886.0</ele>
        <time>2021-02-27T09:39:06Z</time>
      </trkpt>
      <trkpt lat="42.7617480" lon="-0.2256700">
        <ele>1887.2</ele>
        <time>2021-02-27T09:39:12Z</time>
      </trkpt>
      <trkpt lat="42.7617170" lon="-0.2256920">
        <ele>1887.8</ele>
        <time>2021-02-27T09:39:16Z</time>
      </trkpt>
      <trkpt lat="42.7616890" lon="-0.2257130">
        <ele>1888.2</ele>
        <time>2021-02-27T09:39:20Z</time>
      </trkpt>
      <trkpt lat="42.7616550" lon="-0.2257380">
        <ele>1888.4</ele>
        <time>2021-02-27T09:39:25Z</time>
      </trkpt>
      <trkpt lat="42.7616340" lon="-0.2257550">
        <ele>1888.6</ele>
        <time>2021-02-27T09:39:28Z</time>
      </trkpt>
      <trkpt lat="42.7615950" lon="-0.2257700">
        <ele>1889.0</ele>
        <time>2021-02-27T09:39:34Z</time>
      </trkpt>
      <trkpt lat="42.7615810" lon="-0.2257750">
        <ele>1889.2</ele>
        <time>2021-02-27T09:39:36Z</time>
      </trkpt>
      <trkpt lat="42.7615750" lon="-0.2257780">
        <ele>1889.6</ele>
        <time>2021-02-27T09:39:41Z</time>
      </trkpt>
      <trkpt lat="42.7615370" lon="-0.2257820">
        <ele>1889.8</ele>
        <time>2021-02-27T09:39:44Z</time>
      </trkpt>
      <trkpt lat="42.7614940" lon="-0.2257960">
        <ele>1890.2</ele>
        <time>2021-02-27T09:39:49Z</time>
      </trkpt>
      <trkpt lat="42.7614870" lon="-0.2257990">
        <ele>1890.4</ele>
        <time>2021-02-27T09:39:50Z</time>
      </trkpt>
      <trkpt lat="42.7614600" lon="-0.2258070">
        <ele>1891.0</ele>
        <time>2021-02-27T09:39:54Z</time>
      </trkpt>
      <trkpt lat="42.7614490" lon="-0.2258080">
        <ele>1891.4</ele>
        <time>2021-02-27T09:39:55Z</time>
      </trkpt>
      <trkpt lat="42.7614200" lon="-0.2258190">
        <ele>1891.6</ele>
        <time>2021-02-27T09:40:00Z</time>
      </trkpt>
      <trkpt lat="42.7614120" lon="-0.2258260">
        <ele>1891.8</ele>
        <time>2021-02-27T09:40:02Z</time>
      </trkpt>
      <trkpt lat="42.7614090" lon="-0.2258070">
        <ele>1892.0</ele>
        <time>2021-02-27T09:40:08Z</time>
      </trkpt>
      <trkpt lat="42.7614300" lon="-0.2258090">
        <ele>1892.4</ele>
        <time>2021-02-27T09:40:11Z</time>
      </trkpt>
      <trkpt lat="42.7614420" lon="-0.2258090">
        <ele>1893.4</ele>
        <time>2021-02-27T09:40:15Z</time>
      </trkpt>
      <trkpt lat="42.7614450" lon="-0.2258050">
        <ele>1893.8</ele>
        <time>2021-02-27T09:40:16Z</time>
      </trkpt>
      <trkpt lat="42.7614620" lon="-0.2257880">
        <ele>1894.2</ele>
        <time>2021-02-27T09:40:19Z</time>
      </trkpt>
      <trkpt lat="42.7614650" lon="-0.2257790">
        <ele>1894.4</ele>
        <time>2021-02-27T09:40:20Z</time>
      </trkpt>
      <trkpt lat="42.7614670" lon="-0.2257710">
        <ele>1894.6</ele>
        <time>2021-02-27T09:40:21Z</time>
      </trkpt>
      <trkpt lat="42.7614670" lon="-0.2257640">
        <ele>1894.8</ele>
        <time>2021-02-27T09:40:22Z</time>
      </trkpt>
      <trkpt lat="42.7615040" lon="-0.2257200">
        <ele>1895.6</ele>
        <time>2021-02-27T09:40:29Z</time>
      </trkpt>
      <trkpt lat="42.7615080" lon="-0.2257150">
        <ele>1895.6</ele>
        <time>2021-02-27T09:40:30Z</time>
      </trkpt>
      <trkpt lat="42.7615240" lon="-0.2256990">
        <ele>1895.8</ele>
        <time>2021-02-27T09:40:33Z</time>
      </trkpt>
      <trkpt lat="42.7615350" lon="-0.2256940">
        <ele>1896.0</ele>
        <time>2021-02-27T09:40:34Z</time>
      </trkpt>
      <trkpt lat="42.7615600" lon="-0.2256810">
        <ele>1896.6</ele>
        <time>2021-02-27T09:40:37Z</time>
      </trkpt>
      <trkpt lat="42.7615660" lon="-0.2256610">
        <ele>1897.2</ele>
        <time>2021-02-27T09:40:40Z</time>
      </trkpt>
      <trkpt lat="42.7615700" lon="-0.2256380">
        <ele>1897.6</ele>
        <time>2021-02-27T09:40:43Z</time>
      </trkpt>
      <trkpt lat="42.7615870" lon="-0.2256220">
        <ele>1898.0</ele>
        <time>2021-02-27T09:40:46Z</time>
      </trkpt>
      <trkpt lat="42.7616030" lon="-0.2255930">
        <ele>1898.8</ele>
        <time>2021-02-27T09:40:50Z</time>
      </trkpt>
      <trkpt lat="42.7616120" lon="-0.2255670">
        <ele>1899.0</ele>
        <time>2021-02-27T09:40:53Z</time>
      </trkpt>
      <trkpt lat="42.7616420" lon="-0.2255240">
        <ele>1899.8</ele>
        <time>2021-02-27T09:40:58Z</time>
      </trkpt>
      <trkpt lat="42.7616350" lon="-0.2255110">
        <ele>1900.2</ele>
        <time>2021-02-27T09:41:00Z</time>
      </trkpt>
      <trkpt lat="42.7616220" lon="-0.2254930">
        <ele>1900.8</ele>
        <time>2021-02-27T09:41:02Z</time>
      </trkpt>
      <trkpt lat="42.7616040" lon="-0.2254830">
        <ele>1901.4</ele>
        <time>2021-02-27T09:41:04Z</time>
      </trkpt>
      <trkpt lat="42.7616000" lon="-0.2254890">
        <ele>1901.8</ele>
        <time>2021-02-27T09:41:05Z</time>
      </trkpt>
      <trkpt lat="42.7615970" lon="-0.2255000">
        <ele>1902.0</ele>
        <time>2021-02-27T09:41:06Z</time>
      </trkpt>
      <trkpt lat="42.7615830" lon="-0.2255100">
        <ele>1902.4</ele>
        <time>2021-02-27T09:41:11Z</time>
      </trkpt>
      <trkpt lat="42.7615760" lon="-0.2255110">
        <ele>1902.6</ele>
        <time>2021-02-27T09:41:12Z</time>
      </trkpt>
      <trkpt lat="42.7615460" lon="-0.2255320">
        <ele>1903.0</ele>
        <time>2021-02-27T09:41:17Z</time>
      </trkpt>
      <trkpt lat="42.7615400" lon="-0.2255350">
        <ele>1903.0</ele>
        <time>2021-02-27T09:41:18Z</time>
      </trkpt>
      <trkpt lat="42.7615310" lon="-0.2255410">
        <ele>1903.0</ele>
        <time>2021-02-27T09:41:20Z</time>
      </trkpt>
      <trkpt lat="42.7614810" lon="-0.2255730">
        <ele>1903.6</ele>
        <time>2021-02-27T09:41:28Z</time>
      </trkpt>
      <trkpt lat="42.7614520" lon="-0.2255810">
        <ele>1904.0</ele>
        <time>2021-02-27T09:41:32Z</time>
      </trkpt>
      <trkpt lat="42.7614250" lon="-0.2256060">
        <ele>1904.2</ele>
        <time>2021-02-27T09:41:36Z</time>
      </trkpt>
      <trkpt lat="42.7613840" lon="-0.2256120">
        <ele>1904.8</ele>
        <time>2021-02-27T09:41:42Z</time>
      </trkpt>
      <trkpt lat="42.7613610" lon="-0.2256110">
        <ele>1905.0</ele>
        <time>2021-02-27T09:41:44Z</time>
      </trkpt>
      <trkpt lat="42.7613420" lon="-0.2255960">
        <ele>1905.8</ele>
        <time>2021-02-27T09:41:48Z</time>
      </trkpt>
      <trkpt lat="42.7613530" lon="-0.2255840">
        <ele>1906.0</ele>
        <time>2021-02-27T09:41:50Z</time>
      </trkpt>
      <trkpt lat="42.7613660" lon="-0.2255810">
        <ele>1906.8</ele>
        <time>2021-02-27T09:41:53Z</time>
      </trkpt>
      <trkpt lat="42.7613780" lon="-0.2255740">
        <ele>1907.2</ele>
        <time>2021-02-27T09:41:55Z</time>
      </trkpt>
      <trkpt lat="42.7613920" lon="-0.2255640">
        <ele>1907.6</ele>
        <time>2021-02-27T09:41:57Z</time>
      </trkpt>
      <trkpt lat="42.7614090" lon="-0.2255450">
        <ele>1908.2</ele>
        <time>2021-02-27T09:42:02Z</time>
      </trkpt>
      <trkpt lat="42.7614150" lon="-0.2255430">
        <ele>1908.2</ele>
        <time>2021-02-27T09:42:03Z</time>
      </trkpt>
      <trkpt lat="42.7614200" lon="-0.2255360">
        <ele>1908.4</ele>
        <time>2021-02-27T09:42:04Z</time>
      </trkpt>
      <trkpt lat="42.7614540" lon="-0.2255040">
        <ele>1909.4</ele>
        <time>2021-02-27T09:42:10Z</time>
      </trkpt>
      <trkpt lat="42.7614700" lon="-0.2254890">
        <ele>1909.6</ele>
        <time>2021-02-27T09:42:12Z</time>
      </trkpt>
      <trkpt lat="42.7615090" lon="-0.2254460">
        <ele>1910.4</ele>
        <time>2021-02-27T09:42:19Z</time>
      </trkpt>
      <trkpt lat="42.7615150" lon="-0.2254360">
        <ele>1910.8</ele>
        <time>2021-02-27T09:42:21Z</time>
      </trkpt>
      <trkpt lat="42.7615220" lon="-0.2253920">
        <ele>1911.6</ele>
        <time>2021-02-27T09:42:27Z</time>
      </trkpt>
      <trkpt lat="42.7615030" lon="-0.2253890">
        <ele>1912.8</ele>
        <time>2021-02-27T09:42:30Z</time>
      </trkpt>
      <trkpt lat="42.7614990" lon="-0.2253920">
        <ele>1913.2</ele>
        <time>2021-02-27T09:42:32Z</time>
      </trkpt>
      <trkpt lat="42.7614910" lon="-0.2253920">
        <ele>1913.8</ele>
        <time>2021-02-27T09:42:38Z</time>
      </trkpt>
      <trkpt lat="42.7614830" lon="-0.2253930">
        <ele>1914.2</ele>
        <time>2021-02-27T09:42:40Z</time>
      </trkpt>
      <trkpt lat="42.7614610" lon="-0.2254010">
        <ele>1914.8</ele>
        <time>2021-02-27T09:42:45Z</time>
      </trkpt>
      <trkpt lat="42.7614450" lon="-0.2254060">
        <ele>1915.0</ele>
        <time>2021-02-27T09:42:48Z</time>
      </trkpt>
      <trkpt lat="42.7614260" lon="-0.2254010">
        <ele>1915.8</ele>
        <time>2021-02-27T09:42:52Z</time>
      </trkpt>
      <trkpt lat="42.7614140" lon="-0.2253960">
        <ele>1916.4</ele>
        <time>2021-02-27T09:42:54Z</time>
      </trkpt>
      <trkpt lat="42.7613800" lon="-0.2253980">
        <ele>1917.0</ele>
        <time>2021-02-27T09:42:58Z</time>
      </trkpt>
      <trkpt lat="42.7613730" lon="-0.2253990">
        <ele>1917.0</ele>
        <time>2021-02-27T09:42:59Z</time>
      </trkpt>
      <trkpt lat="42.7613640" lon="-0.2254010">
        <ele>1917.0</ele>
        <time>2021-02-27T09:43:00Z</time>
      </trkpt>
      <trkpt lat="42.7613440" lon="-0.2253780">
        <ele>1917.8</ele>
        <time>2021-02-27T09:43:06Z</time>
      </trkpt>
      <trkpt lat="42.7613540" lon="-0.2253750">
        <ele>1918.0</ele>
        <time>2021-02-27T09:43:08Z</time>
      </trkpt>
      <trkpt lat="42.7613720" lon="-0.2253590">
        <ele>1919.2</ele>
        <time>2021-02-27T09:43:13Z</time>
      </trkpt>
      <trkpt lat="42.7614130" lon="-0.2253310">
        <ele>1920.0</ele>
        <time>2021-02-27T09:43:20Z</time>
      </trkpt>
      <trkpt lat="42.7614110" lon="-0.2253210">
        <ele>1920.4</ele>
        <time>2021-02-27T09:43:27Z</time>
      </trkpt>
      <trkpt lat="42.7614230" lon="-0.2253070">
        <ele>1921.2</ele>
        <time>2021-02-27T09:43:30Z</time>
      </trkpt>
      <trkpt lat="42.7614280" lon="-0.2253020">
        <ele>1921.4</ele>
        <time>2021-02-27T09:43:31Z</time>
      </trkpt>
      <trkpt lat="42.7614440" lon="-0.2252760">
        <ele>1921.6</ele>
        <time>2021-02-27T09:43:34Z</time>
      </trkpt>
      <trkpt lat="42.7614460" lon="-0.2252220">
        <ele>1922.6</ele>
        <time>2021-02-27T09:43:41Z</time>
      </trkpt>
      <trkpt lat="42.7614390" lon="-0.2251950">
        <ele>1923.4</ele>
        <time>2021-02-27T09:43:44Z</time>
      </trkpt>
      <trkpt lat="42.7614340" lon="-0.2251930">
        <ele>1923.6</ele>
        <time>2021-02-27T09:43:45Z</time>
      </trkpt>
      <trkpt lat="42.7614160" lon="-0.2252090">
        <ele>1924.2</ele>
        <time>2021-02-27T09:43:48Z</time>
      </trkpt>
      <trkpt lat="42.7614080" lon="-0.2252180">
        <ele>1924.4</ele>
        <time>2021-02-27T09:43:50Z</time>
      </trkpt>
      <trkpt lat="42.7613870" lon="-0.2252320">
        <ele>1924.8</ele>
        <time>2021-02-27T09:43:53Z</time>
      </trkpt>
      <trkpt lat="42.7613570" lon="-0.2252440">
        <ele>1925.4</ele>
        <time>2021-02-27T09:43:58Z</time>
      </trkpt>
      <trkpt lat="42.7613490" lon="-0.2252460">
        <ele>1925.8</ele>
        <time>2021-02-27T09:44:00Z</time>
      </trkpt>
      <trkpt lat="42.7613180" lon="-0.2252500">
        <ele>1926.6</ele>
        <time>2021-02-27T09:44:06Z</time>
      </trkpt>
      <trkpt lat="42.7613190" lon="-0.2252480">
        <ele>1926.6</ele>
        <time>2021-02-27T09:44:07Z</time>
      </trkpt>
      <trkpt lat="42.7613200" lon="-0.2252440">
        <ele>1926.8</ele>
        <time>2021-02-27T09:44:08Z</time>
      </trkpt>
      <trkpt lat="42.7613420" lon="-0.2252230">
        <ele>1928.0</ele>
        <time>2021-02-27T09:44:13Z</time>
      </trkpt>
      <trkpt lat="42.7613460" lon="-0.2252200">
        <ele>1928.2</ele>
        <time>2021-02-27T09:44:14Z</time>
      </trkpt>
      <trkpt lat="42.7613720" lon="-0.2251840">
        <ele>1929.0</ele>
        <time>2021-02-27T09:44:22Z</time>
      </trkpt>
      <trkpt lat="42.7613880" lon="-0.2251720">
        <ele>1929.4</ele>
        <time>2021-02-27T09:44:25Z</time>
      </trkpt>
      <trkpt lat="42.7613830" lon="-0.2251670">
        <ele>1929.6</ele>
        <time>2021-02-27T09:44:29Z</time>
      </trkpt>
      <trkpt lat="42.7613860" lon="-0.2251630">
        <ele>1929.6</ele>
        <time>2021-02-27T09:44:30Z</time>
      </trkpt>
      <trkpt lat="42.7614000" lon="-0.2251190">
        <ele>1930.0</ele>
        <time>2021-02-27T09:44:35Z</time>
      </trkpt>
      <trkpt lat="42.7614290" lon="-0.2250810">
        <ele>1930.4</ele>
        <time>2021-02-27T09:44:41Z</time>
      </trkpt>
      <trkpt lat="42.7614390" lon="-0.2250340">
        <ele>1931.2</ele>
        <time>2021-02-27T09:44:47Z</time>
      </trkpt>
      <trkpt lat="42.7614410" lon="-0.2250230">
        <ele>1931.6</ele>
        <time>2021-02-27T09:44:49Z</time>
      </trkpt>
      <trkpt lat="42.7614320" lon="-0.2250280">
        <ele>1932.2</ele>
        <time>2021-02-27T09:44:51Z</time>
      </trkpt>
      <trkpt lat="42.7614240" lon="-0.2250290">
        <ele>1932.4</ele>
        <time>2021-02-27T09:44:52Z</time>
      </trkpt>
      <trkpt lat="42.7613870" lon="-0.2250550">
        <ele>1933.2</ele>
        <time>2021-02-27T09:44:59Z</time>
      </trkpt>
      <trkpt lat="42.7613810" lon="-0.2250560">
        <ele>1933.4</ele>
        <time>2021-02-27T09:45:00Z</time>
      </trkpt>
      <trkpt lat="42.7613430" lon="-0.2250920">
        <ele>1934.4</ele>
        <time>2021-02-27T09:45:07Z</time>
      </trkpt>
      <trkpt lat="42.7613280" lon="-0.2250920">
        <ele>1935.0</ele>
        <time>2021-02-27T09:45:14Z</time>
      </trkpt>
      <trkpt lat="42.7613140" lon="-0.2250980">
        <ele>1935.0</ele>
        <time>2021-02-27T09:45:20Z</time>
      </trkpt>
      <trkpt lat="42.7613070" lon="-0.2251010">
        <ele>1935.0</ele>
        <time>2021-02-27T09:45:21Z</time>
      </trkpt>
      <trkpt lat="42.7612700" lon="-0.2251100">
        <ele>1935.2</ele>
        <time>2021-02-27T09:45:26Z</time>
      </trkpt>
      <trkpt lat="42.7612580" lon="-0.2251110">
        <ele>1935.4</ele>
        <time>2021-02-27T09:45:28Z</time>
      </trkpt>
      <trkpt lat="42.7612500" lon="-0.2251140">
        <ele>1935.4</ele>
        <time>2021-02-27T09:45:29Z</time>
      </trkpt>
      <trkpt lat="42.7612120" lon="-0.2251260">
        <ele>1935.6</ele>
        <time>2021-02-27T09:45:34Z</time>
      </trkpt>
      <trkpt lat="42.7611880" lon="-0.2251210">
        <ele>1936.0</ele>
        <time>2021-02-27T09:45:37Z</time>
      </trkpt>
      <trkpt lat="42.7611520" lon="-0.2251200">
        <ele>1936.2</ele>
        <time>2021-02-27T09:45:41Z</time>
      </trkpt>
      <trkpt lat="42.7610870" lon="-0.2251290">
        <ele>1936.0</ele>
        <time>2021-02-27T09:45:47Z</time>
      </trkpt>
      <trkpt lat="42.7610690" lon="-0.2251330">
        <ele>1936.0</ele>
        <time>2021-02-27T09:45:49Z</time>
      </trkpt>
      <trkpt lat="42.7610540" lon="-0.2251360">
        <ele>1936.4</ele>
        <time>2021-02-27T09:45:51Z</time>
      </trkpt>
      <trkpt lat="42.7610480" lon="-0.2251380">
        <ele>1936.6</ele>
        <time>2021-02-27T09:45:52Z</time>
      </trkpt>
      <trkpt lat="42.7610080" lon="-0.2251470">
        <ele>1937.0</ele>
        <time>2021-02-27T09:45:56Z</time>
      </trkpt>
      <trkpt lat="42.7609900" lon="-0.2251580">
        <ele>1937.4</ele>
        <time>2021-02-27T09:45:59Z</time>
      </trkpt>
      <trkpt lat="42.7609740" lon="-0.2251630">
        <ele>1937.6</ele>
        <time>2021-02-27T09:46:01Z</time>
      </trkpt>
      <trkpt lat="42.7609700" lon="-0.2251620">
        <ele>1937.6</ele>
        <time>2021-02-27T09:46:02Z</time>
      </trkpt>
      <trkpt lat="42.7609530" lon="-0.2251590">
        <ele>1938.2</ele>
        <time>2021-02-27T09:46:05Z</time>
      </trkpt>
      <trkpt lat="42.7609340" lon="-0.2251670">
        <ele>1938.6</ele>
        <time>2021-02-27T09:46:08Z</time>
      </trkpt>
      <trkpt lat="42.7609240" lon="-0.2251700">
        <ele>1938.8</ele>
        <time>2021-02-27T09:46:09Z</time>
      </trkpt>
      <trkpt lat="42.7609040" lon="-0.2251750">
        <ele>1939.2</ele>
        <time>2021-02-27T09:46:12Z</time>
      </trkpt>
      <trkpt lat="42.7608740" lon="-0.2251750">
        <ele>1939.8</ele>
        <time>2021-02-27T09:46:18Z</time>
      </trkpt>
      <trkpt lat="42.7608720" lon="-0.2251680">
        <ele>1940.4</ele>
        <time>2021-02-27T09:46:23Z</time>
      </trkpt>
      <trkpt lat="42.7608640" lon="-0.2251670">
        <ele>1940.4</ele>
        <time>2021-02-27T09:46:27Z</time>
      </trkpt>
      <trkpt lat="42.7608650" lon="-0.2251680">
        <ele>1940.6</ele>
        <time>2021-02-27T09:46:41Z</time>
      </trkpt>
      <trkpt lat="42.7608660" lon="-0.2251680">
        <ele>1940.6</ele>
        <time>2021-02-27T09:46:44Z</time>
      </trkpt>
      <trkpt lat="42.7608660" lon="-0.2251680">
        <ele>1940.6</ele>
        <time>2021-02-27T09:46:46Z</time>
      </trkpt>
      <trkpt lat="42.7608660" lon="-0.2251680">
        <ele>1940.6</ele>
        <time>2021-02-27T09:46:49Z</time>
      </trkpt>
      <trkpt lat="42.7608650" lon="-0.2251680">
        <ele>1940.8</ele>
        <time>2021-02-27T09:46:51Z</time>
      </trkpt>
      <trkpt lat="42.7608640" lon="-0.2251680">
        <ele>1940.8</ele>
        <time>2021-02-27T09:46:53Z</time>
      </trkpt>
      <trkpt lat="42.7608640" lon="-0.2251690">
        <ele>1940.8</ele>
        <time>2021-02-27T09:46:55Z</time>
      </trkpt>
      <trkpt lat="42.7608480" lon="-0.2251720">
        <ele>1941.8</ele>
        <time>2021-02-27T09:47:02Z</time>
      </trkpt>
      <trkpt lat="42.7608520" lon="-0.2251680">
        <ele>1942.2</ele>
        <time>2021-02-27T09:47:07Z</time>
      </trkpt>
      <trkpt lat="42.7608600" lon="-0.2251550">
        <ele>1942.4</ele>
        <time>2021-02-27T09:47:08Z</time>
      </trkpt>
      <trkpt lat="42.7608740" lon="-0.2251260">
        <ele>1942.8</ele>
        <time>2021-02-27T09:47:10Z</time>
      </trkpt>
      <trkpt lat="42.7608810" lon="-0.2251150">
        <ele>1943.0</ele>
        <time>2021-02-27T09:47:11Z</time>
      </trkpt>
      <trkpt lat="42.7608870" lon="-0.2251030">
        <ele>1943.2</ele>
        <time>2021-02-27T09:47:12Z</time>
      </trkpt>
      <trkpt lat="42.7608830" lon="-0.2250770">
        <ele>1944.0</ele>
        <time>2021-02-27T09:47:16Z</time>
      </trkpt>
      <trkpt lat="42.7608780" lon="-0.2250800">
        <ele>1944.2</ele>
        <time>2021-02-27T09:47:17Z</time>
      </trkpt>
      <trkpt lat="42.7608600" lon="-0.2250860">
        <ele>1945.2</ele>
        <time>2021-02-27T09:47:21Z</time>
      </trkpt>
      <trkpt lat="42.7608160" lon="-0.2250970">
        <ele>1946.4</ele>
        <time>2021-02-27T09:47:27Z</time>
      </trkpt>
      <trkpt lat="42.7608010" lon="-0.2250960">
        <ele>1946.6</ele>
        <time>2021-02-27T09:47:33Z</time>
      </trkpt>
      <trkpt lat="42.7607490" lon="-0.2250940">
        <ele>1947.4</ele>
        <time>2021-02-27T09:47:42Z</time>
      </trkpt>
      <trkpt lat="42.7607450" lon="-0.2250950">
        <ele>1947.4</ele>
        <time>2021-02-27T09:47:43Z</time>
      </trkpt>
      <trkpt lat="42.7607090" lon="-0.2250960">
        <ele>1947.8</ele>
        <time>2021-02-27T09:47:47Z</time>
      </trkpt>
      <trkpt lat="42.7606880" lon="-0.2250930">
        <ele>1948.2</ele>
        <time>2021-02-27T09:47:51Z</time>
      </trkpt>
      <trkpt lat="42.7606910" lon="-0.2250900">
        <ele>1948.4</ele>
        <time>2021-02-27T09:47:52Z</time>
      </trkpt>
      <trkpt lat="42.7607140" lon="-0.2250700">
        <ele>1949.4</ele>
        <time>2021-02-27T09:47:56Z</time>
      </trkpt>
      <trkpt lat="42.7607210" lon="-0.2250650">
        <ele>1949.8</ele>
        <time>2021-02-27T09:47:57Z</time>
      </trkpt>
      <trkpt lat="42.7607330" lon="-0.2250400">
        <ele>1950.4</ele>
        <time>2021-02-27T09:48:00Z</time>
      </trkpt>
      <trkpt lat="42.7607390" lon="-0.2250280">
        <ele>1950.8</ele>
        <time>2021-02-27T09:48:02Z</time>
      </trkpt>
      <trkpt lat="42.7607440" lon="-0.2250210">
        <ele>1951.2</ele>
        <time>2021-02-27T09:48:03Z</time>
      </trkpt>
      <trkpt lat="42.7607520" lon="-0.2250070">
        <ele>1951.8</ele>
        <time>2021-02-27T09:48:05Z</time>
      </trkpt>
      <trkpt lat="42.7607590" lon="-0.2249870">
        <ele>1952.8</ele>
        <time>2021-02-27T09:48:08Z</time>
      </trkpt>
      <trkpt lat="42.7607590" lon="-0.2249750">
        <ele>1953.0</ele>
        <time>2021-02-27T09:48:09Z</time>
      </trkpt>
      <trkpt lat="42.7607610" lon="-0.2249680">
        <ele>1953.4</ele>
        <time>2021-02-27T09:48:10Z</time>
      </trkpt>
      <trkpt lat="42.7607580" lon="-0.2249590">
        <ele>1953.6</ele>
        <time>2021-02-27T09:48:11Z</time>
      </trkpt>
      <trkpt lat="42.7607580" lon="-0.2249540">
        <ele>1953.6</ele>
        <time>2021-02-27T09:48:12Z</time>
      </trkpt>
      <trkpt lat="42.7607530" lon="-0.2249370">
        <ele>1954.2</ele>
        <time>2021-02-27T09:48:15Z</time>
      </trkpt>
      <trkpt lat="42.7607510" lon="-0.2249270">
        <ele>1954.4</ele>
        <time>2021-02-27T09:48:17Z</time>
      </trkpt>
      <trkpt lat="42.7607510" lon="-0.2249080">
        <ele>1954.8</ele>
        <time>2021-02-27T09:48:21Z</time>
      </trkpt>
      <trkpt lat="42.7607470" lon="-0.2249050">
        <ele>1955.2</ele>
        <time>2021-02-27T09:48:25Z</time>
      </trkpt>
      <trkpt lat="42.7607510" lon="-0.2249030">
        <ele>1955.2</ele>
        <time>2021-02-27T09:48:28Z</time>
      </trkpt>
      <trkpt lat="42.7607510" lon="-0.2249000">
        <ele>1955.2</ele>
        <time>2021-02-27T09:48:32Z</time>
      </trkpt>
      <trkpt lat="42.7607510" lon="-0.2249000">
        <ele>1955.2</ele>
        <time>2021-02-27T09:48:35Z</time>
      </trkpt>
      <trkpt lat="42.7607510" lon="-0.2249000">
        <ele>1955.2</ele>
        <time>2021-02-27T09:48:38Z</time>
      </trkpt>
      <trkpt lat="42.7607500" lon="-0.2248980">
        <ele>1955.6</ele>
        <time>2021-02-27T09:48:56Z</time>
      </trkpt>
      <trkpt lat="42.7607490" lon="-0.2248940">
        <ele>1956.0</ele>
        <time>2021-02-27T09:49:01Z</time>
      </trkpt>
      <trkpt lat="42.7607470" lon="-0.2248910">
        <ele>1955.8</ele>
        <time>2021-02-27T09:49:03Z</time>
      </trkpt>
      <trkpt lat="42.7607430" lon="-0.2248800">
        <ele>1954.8</ele>
        <time>2021-02-27T09:49:12Z</time>
      </trkpt>
      <trkpt lat="42.7607410" lon="-0.2248790">
        <ele>1954.8</ele>
        <time>2021-02-27T09:49:14Z</time>
      </trkpt>
      <trkpt lat="42.7607390" lon="-0.2248790">
        <ele>1954.8</ele>
        <time>2021-02-27T09:49:16Z</time>
      </trkpt>
      <trkpt lat="42.7607140" lon="-0.2249000">
        <ele>1955.0</ele>
        <time>2021-02-27T09:49:44Z</time>
      </trkpt>
      <trkpt lat="42.7607110" lon="-0.2249000">
        <ele>1954.8</ele>
        <time>2021-02-27T09:49:46Z</time>
      </trkpt>
      <trkpt lat="42.7607100" lon="-0.2249030">
        <ele>1954.8</ele>
        <time>2021-02-27T09:49:54Z</time>
      </trkpt>
      <trkpt lat="42.7607100" lon="-0.2249030">
        <ele>1947.6</ele>
        <time>2021-02-27T09:50:00Z</time>
      </trkpt>
      <trkpt lat="42.7607110" lon="-0.2249040">
        <ele>1947.6</ele>
        <time>2021-02-27T09:50:04Z</time>
      </trkpt>
      <trkpt lat="42.7607230" lon="-0.2249030">
        <ele>1947.8</ele>
        <time>2021-02-27T09:50:13Z</time>
      </trkpt>
      <trkpt lat="42.7607360" lon="-0.2248700">
        <ele>1947.6</ele>
        <time>2021-02-27T09:51:39Z</time>
      </trkpt>
      <trkpt lat="42.7607360" lon="-0.2248700">
        <ele>1947.6</ele>
        <time>2021-02-27T09:51:40Z</time>
      </trkpt>
      <trkpt lat="42.7607360" lon="-0.2248700">
        <ele>1948.0</ele>
        <time>2021-02-27T09:51:43Z</time>
      </trkpt>
      <trkpt lat="42.7607360" lon="-0.2248700">
        <ele>1947.6</ele>
        <time>2021-02-27T09:51:46Z</time>
      </trkpt>
      <trkpt lat="42.7607240" lon="-0.2247990">
        <ele>1948.0</ele>
        <time>2021-02-27T09:51:55Z</time>
      </trkpt>
      <trkpt lat="42.7607100" lon="-0.2247260">
        <ele>1948.8</ele>
        <time>2021-02-27T09:52:00Z</time>
      </trkpt>
      <trkpt lat="42.7607030" lon="-0.2247120">
        <ele>1949.0</ele>
        <time>2021-02-27T09:52:02Z</time>
      </trkpt>
      <trkpt lat="42.7607060" lon="-0.2246550">
        <ele>1949.8</ele>
        <time>2021-02-27T09:52:08Z</time>
      </trkpt>
      <trkpt lat="42.7606990" lon="-0.2246410">
        <ele>1950.4</ele>
        <time>2021-02-27T09:52:10Z</time>
      </trkpt>
      <trkpt lat="42.7607030" lon="-0.2246300">
        <ele>1950.8</ele>
        <time>2021-02-27T09:52:12Z</time>
      </trkpt>
      <trkpt lat="42.7607100" lon="-0.2246280">
        <ele>1951.0</ele>
        <time>2021-02-27T09:52:13Z</time>
      </trkpt>
      <trkpt lat="42.7607140" lon="-0.2246230">
        <ele>1951.2</ele>
        <time>2021-02-27T09:52:14Z</time>
      </trkpt>
      <trkpt lat="42.7607150" lon="-0.2246010">
        <ele>1951.8</ele>
        <time>2021-02-27T09:52:16Z</time>
      </trkpt>
      <trkpt lat="42.7607060" lon="-0.2245870">
        <ele>1952.4</ele>
        <time>2021-02-27T09:52:18Z</time>
      </trkpt>
      <trkpt lat="42.7607170" lon="-0.2245650">
        <ele>1953.6</ele>
        <time>2021-02-27T09:52:22Z</time>
      </trkpt>
      <trkpt lat="42.7607210" lon="-0.2245550">
        <ele>1953.6</ele>
        <time>2021-02-27T09:52:23Z</time>
      </trkpt>
      <trkpt lat="42.7607260" lon="-0.2245360">
        <ele>1954.0</ele>
        <time>2021-02-27T09:52:25Z</time>
      </trkpt>
      <trkpt lat="42.7607260" lon="-0.2245150">
        <ele>1954.6</ele>
        <time>2021-02-27T09:52:28Z</time>
      </trkpt>
      <trkpt lat="42.7607240" lon="-0.2245080">
        <ele>1955.0</ele>
        <time>2021-02-27T09:52:29Z</time>
      </trkpt>
      <trkpt lat="42.7607230" lon="-0.2245010">
        <ele>1955.2</ele>
        <time>2021-02-27T09:52:30Z</time>
      </trkpt>
      <trkpt lat="42.7607170" lon="-0.2244830">
        <ele>1955.8</ele>
        <time>2021-02-27T09:52:32Z</time>
      </trkpt>
      <trkpt lat="42.7607160" lon="-0.2244770">
        <ele>1956.0</ele>
        <time>2021-02-27T09:52:33Z</time>
      </trkpt>
      <trkpt lat="42.7607100" lon="-0.2244520">
        <ele>1956.2</ele>
        <time>2021-02-27T09:52:37Z</time>
      </trkpt>
      <trkpt lat="42.7607140" lon="-0.2244490">
        <ele>1956.2</ele>
        <time>2021-02-27T09:52:39Z</time>
      </trkpt>
      <trkpt lat="42.7607230" lon="-0.2244410">
        <ele>1956.2</ele>
        <time>2021-02-27T09:52:44Z</time>
      </trkpt>
      <trkpt lat="42.7607180" lon="-0.2244380">
        <ele>1956.2</ele>
        <time>2021-02-27T09:52:47Z</time>
      </trkpt>
      <trkpt lat="42.7607120" lon="-0.2244360">
        <ele>1957.0</ele>
        <time>2021-02-27T09:52:55Z</time>
      </trkpt>
      <trkpt lat="42.7607120" lon="-0.2244360">
        <ele>1957.8</ele>
        <time>2021-02-27T09:52:58Z</time>
      </trkpt>
      <trkpt lat="42.7607120" lon="-0.2244360">
        <ele>1958.2</ele>
        <time>2021-02-27T09:52:59Z</time>
      </trkpt>
      <trkpt lat="42.7607120" lon="-0.2244360">
        <ele>1958.8</ele>
        <time>2021-02-27T09:53:03Z</time>
      </trkpt>
      <trkpt lat="42.7607070" lon="-0.2244320">
        <ele>1959.2</ele>
        <time>2021-02-27T09:53:04Z</time>
      </trkpt>
      <trkpt lat="42.7606980" lon="-0.2244220">
        <ele>1960.0</ele>
        <time>2021-02-27T09:53:06Z</time>
      </trkpt>
      <trkpt lat="42.7606870" lon="-0.2244050">
        <ele>1960.4</ele>
        <time>2021-02-27T09:53:08Z</time>
      </trkpt>
      <trkpt lat="42.7606710" lon="-0.2243040">
        <ele>1961.4</ele>
        <time>2021-02-27T09:53:13Z</time>
      </trkpt>
      <trkpt lat="42.7606620" lon="-0.2242410">
        <ele>1962.0</ele>
        <time>2021-02-27T09:53:16Z</time>
      </trkpt>
      <trkpt lat="42.7606590" lon="-0.2241960">
        <ele>1962.6</ele>
        <time>2021-02-27T09:53:20Z</time>
      </trkpt>
      <trkpt lat="42.7606630" lon="-0.2241690">
        <ele>1963.4</ele>
        <time>2021-02-27T09:53:23Z</time>
      </trkpt>
      <trkpt lat="42.7606640" lon="-0.2241590">
        <ele>1963.8</ele>
        <time>2021-02-27T09:53:24Z</time>
      </trkpt>
      <trkpt lat="42.7606630" lon="-0.2241500">
        <ele>1964.0</ele>
        <time>2021-02-27T09:53:25Z</time>
      </trkpt>
      <trkpt lat="42.7606640" lon="-0.2241360">
        <ele>1964.2</ele>
        <time>2021-02-27T09:53:27Z</time>
      </trkpt>
      <trkpt lat="42.7606620" lon="-0.2241220">
        <ele>1964.6</ele>
        <time>2021-02-27T09:53:29Z</time>
      </trkpt>
      <trkpt lat="42.7606580" lon="-0.2241130">
        <ele>1964.8</ele>
        <time>2021-02-27T09:53:31Z</time>
      </trkpt>
      <trkpt lat="42.7606440" lon="-0.2241040">
        <ele>1965.6</ele>
        <time>2021-02-27T09:53:34Z</time>
      </trkpt>
      <trkpt lat="42.7606370" lon="-0.2241020">
        <ele>1966.0</ele>
        <time>2021-02-27T09:53:35Z</time>
      </trkpt>
      <trkpt lat="42.7606230" lon="-0.2240980">
        <ele>1967.0</ele>
        <time>2021-02-27T09:53:38Z</time>
      </trkpt>
      <trkpt lat="42.7606140" lon="-0.2240920">
        <ele>1967.8</ele>
        <time>2021-02-27T09:53:41Z</time>
      </trkpt>
      <trkpt lat="42.7606110" lon="-0.2240920">
        <ele>1968.0</ele>
        <time>2021-02-27T09:53:42Z</time>
      </trkpt>
      <trkpt lat="42.7606050" lon="-0.2240930">
        <ele>1968.2</ele>
        <time>2021-02-27T09:53:43Z</time>
      </trkpt>
      <trkpt lat="42.7605690" lon="-0.2241020">
        <ele>1969.2</ele>
        <time>2021-02-27T09:53:48Z</time>
      </trkpt>
      <trkpt lat="42.7605650" lon="-0.2241010">
        <ele>1969.2</ele>
        <time>2021-02-27T09:53:49Z</time>
      </trkpt>
      <trkpt lat="42.7605520" lon="-0.2240950">
        <ele>1969.4</ele>
        <time>2021-02-27T09:53:51Z</time>
      </trkpt>
      <trkpt lat="42.7605460" lon="-0.2240920">
        <ele>1969.6</ele>
        <time>2021-02-27T09:53:52Z</time>
      </trkpt>
      <trkpt lat="42.7605390" lon="-0.2240900">
        <ele>1969.8</ele>
        <time>2021-02-27T09:53:53Z</time>
      </trkpt>
      <trkpt lat="42.7605290" lon="-0.2240930">
        <ele>1970.2</ele>
        <time>2021-02-27T09:53:55Z</time>
      </trkpt>
      <trkpt lat="42.7605140" lon="-0.2241100">
        <ele>1971.0</ele>
        <time>2021-02-27T09:54:00Z</time>
      </trkpt>
      <trkpt lat="42.7605080" lon="-0.2241100">
        <ele>1971.2</ele>
        <time>2021-02-27T09:54:01Z</time>
      </trkpt>
      <trkpt lat="42.7605030" lon="-0.2241100">
        <ele>1971.4</ele>
        <time>2021-02-27T09:54:02Z</time>
      </trkpt>
      <trkpt lat="42.7604850" lon="-0.2241030">
        <ele>1972.0</ele>
        <time>2021-02-27T09:54:05Z</time>
      </trkpt>
      <trkpt lat="42.7604760" lon="-0.2241020">
        <ele>1972.4</ele>
        <time>2021-02-27T09:54:07Z</time>
      </trkpt>
      <trkpt lat="42.7604700" lon="-0.2240990">
        <ele>1972.6</ele>
        <time>2021-02-27T09:54:09Z</time>
      </trkpt>
      <trkpt lat="42.7604650" lon="-0.2240920">
        <ele>1972.8</ele>
        <time>2021-02-27T09:54:10Z</time>
      </trkpt>
      <trkpt lat="42.7604620" lon="-0.2240890">
        <ele>1973.0</ele>
        <time>2021-02-27T09:54:11Z</time>
      </trkpt>
      <trkpt lat="42.7604520" lon="-0.2240820">
        <ele>1973.4</ele>
        <time>2021-02-27T09:54:13Z</time>
      </trkpt>
      <trkpt lat="42.7604470" lon="-0.2240780">
        <ele>1973.6</ele>
        <time>2021-02-27T09:54:14Z</time>
      </trkpt>
      <trkpt lat="42.7604350" lon="-0.2240730">
        <ele>1974.0</ele>
        <time>2021-02-27T09:54:16Z</time>
      </trkpt>
      <trkpt lat="42.7604270" lon="-0.2240780">
        <ele>1974.4</ele>
        <time>2021-02-27T09:54:18Z</time>
      </trkpt>
      <trkpt lat="42.7604200" lon="-0.2240770">
        <ele>1974.8</ele>
        <time>2021-02-27T09:54:19Z</time>
      </trkpt>
      <trkpt lat="42.7604060" lon="-0.2240720">
        <ele>1975.4</ele>
        <time>2021-02-27T09:54:22Z</time>
      </trkpt>
      <trkpt lat="42.7604020" lon="-0.2240690">
        <ele>1975.6</ele>
        <time>2021-02-27T09:54:23Z</time>
      </trkpt>
      <trkpt lat="42.7603900" lon="-0.2240660">
        <ele>1975.8</ele>
        <time>2021-02-27T09:54:25Z</time>
      </trkpt>
      <trkpt lat="42.7603820" lon="-0.2240640">
        <ele>1976.0</ele>
        <time>2021-02-27T09:54:26Z</time>
      </trkpt>
      <trkpt lat="42.7603640" lon="-0.2240610">
        <ele>1976.6</ele>
        <time>2021-02-27T09:54:29Z</time>
      </trkpt>
      <trkpt lat="42.7603540" lon="-0.2240520">
        <ele>1977.0</ele>
        <time>2021-02-27T09:54:31Z</time>
      </trkpt>
      <trkpt lat="42.7603220" lon="-0.2240590">
        <ele>1977.8</ele>
        <time>2021-02-27T09:54:36Z</time>
      </trkpt>
      <trkpt lat="42.7603170" lon="-0.2240490">
        <ele>1978.2</ele>
        <time>2021-02-27T09:54:39Z</time>
      </trkpt>
      <trkpt lat="42.7603160" lon="-0.2240260">
        <ele>1978.8</ele>
        <time>2021-02-27T09:54:43Z</time>
      </trkpt>
      <trkpt lat="42.7603220" lon="-0.2240150">
        <ele>1979.4</ele>
        <time>2021-02-27T09:54:45Z</time>
      </trkpt>
      <trkpt lat="42.7603160" lon="-0.2240060">
        <ele>1979.8</ele>
        <time>2021-02-27T09:54:47Z</time>
      </trkpt>
      <trkpt lat="42.7603070" lon="-0.2240000">
        <ele>1979.8</ele>
        <time>2021-02-27T09:54:48Z</time>
      </trkpt>
      <trkpt lat="42.7602990" lon="-0.2239930">
        <ele>1980.0</ele>
        <time>2021-02-27T09:54:49Z</time>
      </trkpt>
      <trkpt lat="42.7602610" lon="-0.2239760">
        <ele>1981.2</ele>
        <time>2021-02-27T09:54:54Z</time>
      </trkpt>
      <trkpt lat="42.7602370" lon="-0.2239800">
        <ele>1982.2</ele>
        <time>2021-02-27T09:54:59Z</time>
      </trkpt>
      <trkpt lat="42.7602340" lon="-0.2239800">
        <ele>1982.4</ele>
        <time>2021-02-27T09:55:00Z</time>
      </trkpt>
      <trkpt lat="42.7602320" lon="-0.2239750">
        <ele>1983.0</ele>
        <time>2021-02-27T09:55:02Z</time>
      </trkpt>
      <trkpt lat="42.7602330" lon="-0.2239590">
        <ele>1983.4</ele>
        <time>2021-02-27T09:55:04Z</time>
      </trkpt>
      <trkpt lat="42.7602420" lon="-0.2239260">
        <ele>1984.0</ele>
        <time>2021-02-27T09:55:08Z</time>
      </trkpt>
      <trkpt lat="42.7602430" lon="-0.2239120">
        <ele>1984.4</ele>
        <time>2021-02-27T09:55:10Z</time>
      </trkpt>
      <trkpt lat="42.7602420" lon="-0.2238680">
        <ele>1985.0</ele>
        <time>2021-02-27T09:55:15Z</time>
      </trkpt>
      <trkpt lat="42.7602520" lon="-0.2238480">
        <ele>1985.4</ele>
        <time>2021-02-27T09:55:18Z</time>
      </trkpt>
      <trkpt lat="42.7602400" lon="-0.2238230">
        <ele>1986.0</ele>
        <time>2021-02-27T09:55:23Z</time>
      </trkpt>
      <trkpt lat="42.7602080" lon="-0.2238080">
        <ele>1986.6</ele>
        <time>2021-02-27T09:55:27Z</time>
      </trkpt>
      <trkpt lat="42.7601990" lon="-0.2237970">
        <ele>1987.2</ele>
        <time>2021-02-27T09:55:30Z</time>
      </trkpt>
      <trkpt lat="42.7601930" lon="-0.2237840">
        <ele>1987.6</ele>
        <time>2021-02-27T09:55:32Z</time>
      </trkpt>
      <trkpt lat="42.7601910" lon="-0.2237780">
        <ele>1987.8</ele>
        <time>2021-02-27T09:55:33Z</time>
      </trkpt>
      <trkpt lat="42.7601890" lon="-0.2237460">
        <ele>1989.0</ele>
        <time>2021-02-27T09:55:38Z</time>
      </trkpt>
      <trkpt lat="42.7601870" lon="-0.2237390">
        <ele>1989.2</ele>
        <time>2021-02-27T09:55:39Z</time>
      </trkpt>
      <trkpt lat="42.7601790" lon="-0.2237060">
        <ele>1990.2</ele>
        <time>2021-02-27T09:55:44Z</time>
      </trkpt>
      <trkpt lat="42.7601690" lon="-0.2236970">
        <ele>1990.6</ele>
        <time>2021-02-27T09:55:46Z</time>
      </trkpt>
      <trkpt lat="42.7601400" lon="-0.2236700">
        <ele>1991.2</ele>
        <time>2021-02-27T09:55:50Z</time>
      </trkpt>
      <trkpt lat="42.7601230" lon="-0.2236660">
        <ele>1992.2</ele>
        <time>2021-02-27T09:55:54Z</time>
      </trkpt>
      <trkpt lat="42.7601120" lon="-0.2236690">
        <ele>1992.4</ele>
        <time>2021-02-27T09:55:55Z</time>
      </trkpt>
      <trkpt lat="42.7601100" lon="-0.2236710">
        <ele>1992.6</ele>
        <time>2021-02-27T09:55:56Z</time>
      </trkpt>
      <trkpt lat="42.7600950" lon="-0.2236600">
        <ele>1993.2</ele>
        <time>2021-02-27T09:55:59Z</time>
      </trkpt>
      <trkpt lat="42.7600830" lon="-0.2236510">
        <ele>1993.4</ele>
        <time>2021-02-27T09:56:01Z</time>
      </trkpt>
      <trkpt lat="42.7600880" lon="-0.2236050">
        <ele>1994.8</ele>
        <time>2021-02-27T09:56:07Z</time>
      </trkpt>
      <trkpt lat="42.7600920" lon="-0.2235740">
        <ele>1995.8</ele>
        <time>2021-02-27T09:56:11Z</time>
      </trkpt>
      <trkpt lat="42.7600960" lon="-0.2235630">
        <ele>1996.6</ele>
        <time>2021-02-27T09:56:15Z</time>
      </trkpt>
      <trkpt lat="42.7600970" lon="-0.2235620">
        <ele>1996.8</ele>
        <time>2021-02-27T09:56:17Z</time>
      </trkpt>
      <trkpt lat="42.7600890" lon="-0.2235470">
        <ele>1996.8</ele>
        <time>2021-02-27T09:56:27Z</time>
      </trkpt>
      <trkpt lat="42.7600760" lon="-0.2235280">
        <ele>1997.8</ele>
        <time>2021-02-27T09:56:31Z</time>
      </trkpt>
      <trkpt lat="42.7600700" lon="-0.2235260">
        <ele>1998.0</ele>
        <time>2021-02-27T09:56:32Z</time>
      </trkpt>
      <trkpt lat="42.7600640" lon="-0.2235250">
        <ele>1998.0</ele>
        <time>2021-02-27T09:56:33Z</time>
      </trkpt>
      <trkpt lat="42.7600580" lon="-0.2235250">
        <ele>1998.0</ele>
        <time>2021-02-27T09:56:34Z</time>
      </trkpt>
      <trkpt lat="42.7600230" lon="-0.2235190">
        <ele>1998.6</ele>
        <time>2021-02-27T09:56:39Z</time>
      </trkpt>
      <trkpt lat="42.7600010" lon="-0.2235160">
        <ele>1999.2</ele>
        <time>2021-02-27T09:56:42Z</time>
      </trkpt>
      <trkpt lat="42.7599860" lon="-0.2235250">
        <ele>1999.6</ele>
        <time>2021-02-27T09:56:44Z</time>
      </trkpt>
      <trkpt lat="42.7599660" lon="-0.2235320">
        <ele>2000.4</ele>
        <time>2021-02-27T09:56:48Z</time>
      </trkpt>
      <trkpt lat="42.7599490" lon="-0.2235310">
        <ele>2000.8</ele>
        <time>2021-02-27T09:56:50Z</time>
      </trkpt>
      <trkpt lat="42.7599330" lon="-0.2235260">
        <ele>2001.4</ele>
        <time>2021-02-27T09:56:53Z</time>
      </trkpt>
      <trkpt lat="42.7599350" lon="-0.2235230">
        <ele>2001.6</ele>
        <time>2021-02-27T09:56:56Z</time>
      </trkpt>
      <trkpt lat="42.7599370" lon="-0.2235350">
        <ele>2002.0</ele>
        <time>2021-02-27T09:57:04Z</time>
      </trkpt>
      <trkpt lat="42.7599370" lon="-0.2235350">
        <ele>2002.4</ele>
        <time>2021-02-27T09:57:12Z</time>
      </trkpt>
      <trkpt lat="42.7599370" lon="-0.2235350">
        <ele>2002.6</ele>
        <time>2021-02-27T09:57:13Z</time>
      </trkpt>
      <trkpt lat="42.7599370" lon="-0.2235320">
        <ele>2003.8</ele>
        <time>2021-02-27T09:57:18Z</time>
      </trkpt>
      <trkpt lat="42.7599320" lon="-0.2235150">
        <ele>2004.8</ele>
        <time>2021-02-27T09:57:23Z</time>
      </trkpt>
      <trkpt lat="42.7599080" lon="-0.2234690">
        <ele>2005.8</ele>
        <time>2021-02-27T09:57:26Z</time>
      </trkpt>
      <trkpt lat="42.7599010" lon="-0.2234530">
        <ele>2006.0</ele>
        <time>2021-02-27T09:57:27Z</time>
      </trkpt>
      <trkpt lat="42.7598690" lon="-0.2233810">
        <ele>2007.2</ele>
        <time>2021-02-27T09:57:32Z</time>
      </trkpt>
      <trkpt lat="42.7598650" lon="-0.2233750">
        <ele>2007.2</ele>
        <time>2021-02-27T09:57:33Z</time>
      </trkpt>
      <trkpt lat="42.7598600" lon="-0.2233530">
        <ele>2008.0</ele>
        <time>2021-02-27T09:57:37Z</time>
      </trkpt>
      <trkpt lat="42.7598510" lon="-0.2233480">
        <ele>2008.4</ele>
        <time>2021-02-27T09:57:38Z</time>
      </trkpt>
      <trkpt lat="42.7598270" lon="-0.2233350">
        <ele>2009.2</ele>
        <time>2021-02-27T09:57:42Z</time>
      </trkpt>
      <trkpt lat="42.7598210" lon="-0.2233270">
        <ele>2009.4</ele>
        <time>2021-02-27T09:57:43Z</time>
      </trkpt>
      <trkpt lat="42.7597980" lon="-0.2233160">
        <ele>2010.2</ele>
        <time>2021-02-27T09:57:49Z</time>
      </trkpt>
      <trkpt lat="42.7597890" lon="-0.2233070">
        <ele>2010.4</ele>
        <time>2021-02-27T09:57:51Z</time>
      </trkpt>
      <trkpt lat="42.7597830" lon="-0.2233080">
        <ele>2010.6</ele>
        <time>2021-02-27T09:57:52Z</time>
      </trkpt>
      <trkpt lat="42.7597760" lon="-0.2233050">
        <ele>2010.8</ele>
        <time>2021-02-27T09:57:54Z</time>
      </trkpt>
      <trkpt lat="42.7597650" lon="-0.2233080">
        <ele>2011.6</ele>
        <time>2021-02-27T09:57:57Z</time>
      </trkpt>
      <trkpt lat="42.7597590" lon="-0.2233010">
        <ele>2011.8</ele>
        <time>2021-02-27T09:57:59Z</time>
      </trkpt>
      <trkpt lat="42.7597570" lon="-0.2232930">
        <ele>2012.4</ele>
        <time>2021-02-27T09:58:01Z</time>
      </trkpt>
      <trkpt lat="42.7597530" lon="-0.2232860">
        <ele>2012.6</ele>
        <time>2021-02-27T09:58:02Z</time>
      </trkpt>
      <trkpt lat="42.7597280" lon="-0.2232600">
        <ele>2013.8</ele>
        <time>2021-02-27T09:58:08Z</time>
      </trkpt>
      <trkpt lat="42.7597330" lon="-0.2232530">
        <ele>2014.2</ele>
        <time>2021-02-27T09:58:10Z</time>
      </trkpt>
      <trkpt lat="42.7597330" lon="-0.2232320">
        <ele>2015.0</ele>
        <time>2021-02-27T09:58:13Z</time>
      </trkpt>
      <trkpt lat="42.7597300" lon="-0.2232200">
        <ele>2015.6</ele>
        <time>2021-02-27T09:58:15Z</time>
      </trkpt>
      <trkpt lat="42.7597190" lon="-0.2232000">
        <ele>2016.0</ele>
        <time>2021-02-27T09:58:19Z</time>
      </trkpt>
      <trkpt lat="42.7597100" lon="-0.2231810">
        <ele>2016.4</ele>
        <time>2021-02-27T09:58:22Z</time>
      </trkpt>
      <trkpt lat="42.7597040" lon="-0.2231740">
        <ele>2017.0</ele>
        <time>2021-02-27T09:58:24Z</time>
      </trkpt>
      <trkpt lat="42.7596980" lon="-0.2231770">
        <ele>2017.2</ele>
        <time>2021-02-27T09:58:25Z</time>
      </trkpt>
      <trkpt lat="42.7596880" lon="-0.2231930">
        <ele>2017.4</ele>
        <time>2021-02-27T09:58:27Z</time>
      </trkpt>
      <trkpt lat="42.7596830" lon="-0.2231970">
        <ele>2017.6</ele>
        <time>2021-02-27T09:58:28Z</time>
      </trkpt>
      <trkpt lat="42.7596770" lon="-0.2232030">
        <ele>2018.0</ele>
        <time>2021-02-27T09:58:30Z</time>
      </trkpt>
      <trkpt lat="42.7596780" lon="-0.2232040">
        <ele>2018.2</ele>
        <time>2021-02-27T09:58:31Z</time>
      </trkpt>
      <trkpt lat="42.7596590" lon="-0.2231980">
        <ele>2019.0</ele>
        <time>2021-02-27T09:58:34Z</time>
      </trkpt>
      <trkpt lat="42.7596530" lon="-0.2231980">
        <ele>2019.2</ele>
        <time>2021-02-27T09:58:35Z</time>
      </trkpt>
      <trkpt lat="42.7596320" lon="-0.2232070">
        <ele>2020.4</ele>
        <time>2021-02-27T09:58:42Z</time>
      </trkpt>
      <trkpt lat="42.7596330" lon="-0.2232120">
        <ele>2020.4</ele>
        <time>2021-02-27T09:58:43Z</time>
      </trkpt>
      <trkpt lat="42.7596290" lon="-0.2232080">
        <ele>2020.6</ele>
        <time>2021-02-27T09:58:52Z</time>
      </trkpt>
      <trkpt lat="42.7596290" lon="-0.2232080">
        <ele>2020.8</ele>
        <time>2021-02-27T09:58:54Z</time>
      </trkpt>
      <trkpt lat="42.7596290" lon="-0.2232080">
        <ele>2021.6</ele>
        <time>2021-02-27T09:58:57Z</time>
      </trkpt>
      <trkpt lat="42.7596290" lon="-0.2232110">
        <ele>2022.6</ele>
        <time>2021-02-27T09:59:02Z</time>
      </trkpt>
      <trkpt lat="42.7596270" lon="-0.2232150">
        <ele>2023.6</ele>
        <time>2021-02-27T09:59:08Z</time>
      </trkpt>
      <trkpt lat="42.7596190" lon="-0.2232140">
        <ele>2023.8</ele>
        <time>2021-02-27T09:59:09Z</time>
      </trkpt>
      <trkpt lat="42.7596060" lon="-0.2232140">
        <ele>2024.0</ele>
        <time>2021-02-27T09:59:10Z</time>
      </trkpt>
      <trkpt lat="42.7595360" lon="-0.2232160">
        <ele>2024.8</ele>
        <time>2021-02-27T09:59:15Z</time>
      </trkpt>
      <trkpt lat="42.7594670" lon="-0.2232200">
        <ele>2025.8</ele>
        <time>2021-02-27T09:59:22Z</time>
      </trkpt>
      <trkpt lat="42.7594620" lon="-0.2232200">
        <ele>2026.2</ele>
        <time>2021-02-27T09:59:23Z</time>
      </trkpt>
      <trkpt lat="42.7594270" lon="-0.2232320">
        <ele>2026.8</ele>
        <time>2021-02-27T09:59:29Z</time>
      </trkpt>
      <trkpt lat="42.7594210" lon="-0.2232330">
        <ele>2027.0</ele>
        <time>2021-02-27T09:59:30Z</time>
      </trkpt>
      <trkpt lat="42.7593950" lon="-0.2232430">
        <ele>2028.0</ele>
        <time>2021-02-27T09:59:35Z</time>
      </trkpt>
      <trkpt lat="42.7593880" lon="-0.2232480">
        <ele>2028.0</ele>
        <time>2021-02-27T09:59:36Z</time>
      </trkpt>
      <trkpt lat="42.7593650" lon="-0.2232580">
        <ele>2029.0</ele>
        <time>2021-02-27T09:59:41Z</time>
      </trkpt>
      <trkpt lat="42.7593290" lon="-0.2232730">
        <ele>2030.0</ele>
        <time>2021-02-27T09:59:48Z</time>
      </trkpt>
      <trkpt lat="42.7593250" lon="-0.2232710">
        <ele>2030.0</ele>
        <time>2021-02-27T09:59:49Z</time>
      </trkpt>
      <trkpt lat="42.7593170" lon="-0.2232720">
        <ele>2030.2</ele>
        <time>2021-02-27T09:59:50Z</time>
      </trkpt>
      <trkpt lat="42.7592870" lon="-0.2232880">
        <ele>2031.2</ele>
        <time>2021-02-27T09:59:56Z</time>
      </trkpt>
      <trkpt lat="42.7592650" lon="-0.2232930">
        <ele>2031.6</ele>
        <time>2021-02-27T09:59:59Z</time>
      </trkpt>
      <trkpt lat="42.7592430" lon="-0.2233010">
        <ele>2032.0</ele>
        <time>2021-02-27T10:00:03Z</time>
      </trkpt>
      <trkpt lat="42.7592380" lon="-0.2233040">
        <ele>2032.0</ele>
        <time>2021-02-27T10:00:04Z</time>
      </trkpt>
      <trkpt lat="42.7592280" lon="-0.2233080">
        <ele>2032.4</ele>
        <time>2021-02-27T10:00:06Z</time>
      </trkpt>
      <trkpt lat="42.7592170" lon="-0.2233120">
        <ele>2032.6</ele>
        <time>2021-02-27T10:00:08Z</time>
      </trkpt>
      <trkpt lat="42.7591790" lon="-0.2233200">
        <ele>2033.4</ele>
        <time>2021-02-27T10:00:14Z</time>
      </trkpt>
      <trkpt lat="42.7591680" lon="-0.2233190">
        <ele>2033.6</ele>
        <time>2021-02-27T10:00:16Z</time>
      </trkpt>
      <trkpt lat="42.7591380" lon="-0.2233280">
        <ele>2034.4</ele>
        <time>2021-02-27T10:00:21Z</time>
      </trkpt>
      <trkpt lat="42.7591130" lon="-0.2233380">
        <ele>2035.0</ele>
        <time>2021-02-27T10:00:25Z</time>
      </trkpt>
      <trkpt lat="42.7590910" lon="-0.2233520">
        <ele>2035.4</ele>
        <time>2021-02-27T10:00:28Z</time>
      </trkpt>
      <trkpt lat="42.7590830" lon="-0.2233660">
        <ele>2035.8</ele>
        <time>2021-02-27T10:00:30Z</time>
      </trkpt>
      <trkpt lat="42.7590780" lon="-0.2233700">
        <ele>2035.8</ele>
        <time>2021-02-27T10:00:31Z</time>
      </trkpt>
      <trkpt lat="42.7590720" lon="-0.2233750">
        <ele>2035.8</ele>
        <time>2021-02-27T10:00:32Z</time>
      </trkpt>
      <trkpt lat="42.7590320" lon="-0.2234250">
        <ele>2036.6</ele>
        <time>2021-02-27T10:00:39Z</time>
      </trkpt>
      <trkpt lat="42.7590260" lon="-0.2234280">
        <ele>2036.8</ele>
        <time>2021-02-27T10:00:40Z</time>
      </trkpt>
      <trkpt lat="42.7589930" lon="-0.2234600">
        <ele>2037.6</ele>
        <time>2021-02-27T10:00:47Z</time>
      </trkpt>
      <trkpt lat="42.7589590" lon="-0.2234910">
        <ele>2038.6</ele>
        <time>2021-02-27T10:00:54Z</time>
      </trkpt>
      <trkpt lat="42.7589550" lon="-0.2234960">
        <ele>2038.8</ele>
        <time>2021-02-27T10:00:55Z</time>
      </trkpt>
      <trkpt lat="42.7589280" lon="-0.2235230">
        <ele>2039.6</ele>
        <time>2021-02-27T10:01:00Z</time>
      </trkpt>
      <trkpt lat="42.7589180" lon="-0.2235310">
        <ele>2039.8</ele>
        <time>2021-02-27T10:01:02Z</time>
      </trkpt>
      <trkpt lat="42.7589100" lon="-0.2235380">
        <ele>2040.2</ele>
        <time>2021-02-27T10:01:04Z</time>
      </trkpt>
      <trkpt lat="42.7588920" lon="-0.2235520">
        <ele>2040.8</ele>
        <time>2021-02-27T10:01:08Z</time>
      </trkpt>
      <trkpt lat="42.7588750" lon="-0.2235690">
        <ele>2041.4</ele>
        <time>2021-02-27T10:01:12Z</time>
      </trkpt>
      <trkpt lat="42.7588560" lon="-0.2236020">
        <ele>2042.0</ele>
        <time>2021-02-27T10:01:16Z</time>
      </trkpt>
      <trkpt lat="42.7588520" lon="-0.2236190">
        <ele>2042.4</ele>
        <time>2021-02-27T10:01:18Z</time>
      </trkpt>
      <trkpt lat="42.7588540" lon="-0.2236250">
        <ele>2042.6</ele>
        <time>2021-02-27T10:01:20Z</time>
      </trkpt>
      <trkpt lat="42.7588550" lon="-0.2236290">
        <ele>2042.8</ele>
        <time>2021-02-27T10:01:21Z</time>
      </trkpt>
      <trkpt lat="42.7588500" lon="-0.2236400">
        <ele>2043.0</ele>
        <time>2021-02-27T10:01:26Z</time>
      </trkpt>
      <trkpt lat="42.7588170" lon="-0.2236690">
        <ele>2044.0</ele>
        <time>2021-02-27T10:01:34Z</time>
      </trkpt>
      <trkpt lat="42.7588130" lon="-0.2236730">
        <ele>2044.0</ele>
        <time>2021-02-27T10:01:35Z</time>
      </trkpt>
      <trkpt lat="42.7587890" lon="-0.2237000">
        <ele>2045.2</ele>
        <time>2021-02-27T10:01:40Z</time>
      </trkpt>
      <trkpt lat="42.7587520" lon="-0.2237220">
        <ele>2046.0</ele>
        <time>2021-02-27T10:01:46Z</time>
      </trkpt>
      <trkpt lat="42.7587400" lon="-0.2237240">
        <ele>2046.2</ele>
        <time>2021-02-27T10:01:48Z</time>
      </trkpt>
      <trkpt lat="42.7587300" lon="-0.2237240">
        <ele>2046.4</ele>
        <time>2021-02-27T10:01:50Z</time>
      </trkpt>
      <trkpt lat="42.7587020" lon="-0.2237120">
        <ele>2046.8</ele>
        <time>2021-02-27T10:01:56Z</time>
      </trkpt>
      <trkpt lat="42.7586940" lon="-0.2236900">
        <ele>2047.2</ele>
        <time>2021-02-27T10:01:59Z</time>
      </trkpt>
      <trkpt lat="42.7586910" lon="-0.2236810">
        <ele>2047.4</ele>
        <time>2021-02-27T10:02:00Z</time>
      </trkpt>
      <trkpt lat="42.7586810" lon="-0.2236550">
        <ele>2047.8</ele>
        <time>2021-02-27T10:02:02Z</time>
      </trkpt>
      <trkpt lat="42.7586670" lon="-0.2236290">
        <ele>2048.2</ele>
        <time>2021-02-27T10:02:05Z</time>
      </trkpt>
      <trkpt lat="42.7586600" lon="-0.2236170">
        <ele>2048.6</ele>
        <time>2021-02-27T10:02:07Z</time>
      </trkpt>
      <trkpt lat="42.7586530" lon="-0.2235900">
        <ele>2049.2</ele>
        <time>2021-02-27T10:02:10Z</time>
      </trkpt>
      <trkpt lat="42.7586420" lon="-0.2235570">
        <ele>2049.6</ele>
        <time>2021-02-27T10:02:14Z</time>
      </trkpt>
      <trkpt lat="42.7586400" lon="-0.2235260">
        <ele>2050.2</ele>
        <time>2021-02-27T10:02:17Z</time>
      </trkpt>
      <trkpt lat="42.7586390" lon="-0.2235180">
        <ele>2050.6</ele>
        <time>2021-02-27T10:02:18Z</time>
      </trkpt>
      <trkpt lat="42.7586320" lon="-0.2234970">
        <ele>2051.2</ele>
        <time>2021-02-27T10:02:20Z</time>
      </trkpt>
      <trkpt lat="42.7586250" lon="-0.2234770">
        <ele>2051.6</ele>
        <time>2021-02-27T10:02:23Z</time>
      </trkpt>
      <trkpt lat="42.7586230" lon="-0.2234710">
        <ele>2051.6</ele>
        <time>2021-02-27T10:02:24Z</time>
      </trkpt>
      <trkpt lat="42.7586020" lon="-0.2234410">
        <ele>2052.8</ele>
        <time>2021-02-27T10:02:29Z</time>
      </trkpt>
      <trkpt lat="42.7585880" lon="-0.2234250">
        <ele>2053.0</ele>
        <time>2021-02-27T10:02:31Z</time>
      </trkpt>
      <trkpt lat="42.7585530" lon="-0.2234020">
        <ele>2053.8</ele>
        <time>2021-02-27T10:02:36Z</time>
      </trkpt>
      <trkpt lat="42.7585430" lon="-0.2233930">
        <ele>2054.2</ele>
        <time>2021-02-27T10:02:38Z</time>
      </trkpt>
      <trkpt lat="42.7585370" lon="-0.2233720">
        <ele>2054.8</ele>
        <time>2021-02-27T10:02:42Z</time>
      </trkpt>
      <trkpt lat="42.7585240" lon="-0.2233530">
        <ele>2055.6</ele>
        <time>2021-02-27T10:02:46Z</time>
      </trkpt>
      <trkpt lat="42.7585050" lon="-0.2233320">
        <ele>2056.0</ele>
        <time>2021-02-27T10:02:50Z</time>
      </trkpt>
      <trkpt lat="42.7585010" lon="-0.2233050">
        <ele>2056.8</ele>
        <time>2021-02-27T10:02:56Z</time>
      </trkpt>
      <trkpt lat="42.7585000" lon="-0.2232990">
        <ele>2057.0</ele>
        <time>2021-02-27T10:02:57Z</time>
      </trkpt>
      <trkpt lat="42.7585030" lon="-0.2232940">
        <ele>2057.4</ele>
        <time>2021-02-27T10:03:00Z</time>
      </trkpt>
      <trkpt lat="42.7585000" lon="-0.2232950">
        <ele>2057.6</ele>
        <time>2021-02-27T10:03:02Z</time>
      </trkpt>
      <trkpt lat="42.7585000" lon="-0.2232940">
        <ele>2057.8</ele>
        <time>2021-02-27T10:03:20Z</time>
      </trkpt>
      <trkpt lat="42.7585010" lon="-0.2232950">
        <ele>2057.6</ele>
        <time>2021-02-27T10:03:23Z</time>
      </trkpt>
      <trkpt lat="42.7585010" lon="-0.2232960">
        <ele>2057.6</ele>
        <time>2021-02-27T10:03:29Z</time>
      </trkpt>
      <trkpt lat="42.7585020" lon="-0.2232960">
        <ele>2057.4</ele>
        <time>2021-02-27T10:03:39Z</time>
      </trkpt>
      <trkpt lat="42.7585040" lon="-0.2232960">
        <ele>2057.8</ele>
        <time>2021-02-27T10:03:50Z</time>
      </trkpt>
      <trkpt lat="42.7585040" lon="-0.2232950">
        <ele>2058.2</ele>
        <time>2021-02-27T10:03:52Z</time>
      </trkpt>
      <trkpt lat="42.7585050" lon="-0.2232910">
        <ele>2059.4</ele>
        <time>2021-02-27T10:03:57Z</time>
      </trkpt>
      <trkpt lat="42.7585050" lon="-0.2232900">
        <ele>2059.6</ele>
        <time>2021-02-27T10:03:59Z</time>
      </trkpt>
      <trkpt lat="42.7585060" lon="-0.2232890">
        <ele>2060.0</ele>
        <time>2021-02-27T10:04:01Z</time>
      </trkpt>
      <trkpt lat="42.7585070" lon="-0.2232820">
        <ele>2060.4</ele>
        <time>2021-02-27T10:04:03Z</time>
      </trkpt>
      <trkpt lat="42.7585070" lon="-0.2232770">
        <ele>2060.6</ele>
        <time>2021-02-27T10:04:04Z</time>
      </trkpt>
      <trkpt lat="42.7585100" lon="-0.2232640">
        <ele>2061.2</ele>
        <time>2021-02-27T10:04:06Z</time>
      </trkpt>
      <trkpt lat="42.7585160" lon="-0.2232430">
        <ele>2062.0</ele>
        <time>2021-02-27T10:04:09Z</time>
      </trkpt>
      <trkpt lat="42.7585180" lon="-0.2232290">
        <ele>2062.6</ele>
        <time>2021-02-27T10:04:11Z</time>
      </trkpt>
      <trkpt lat="42.7585220" lon="-0.2232160">
        <ele>2063.2</ele>
        <time>2021-02-27T10:04:13Z</time>
      </trkpt>
      <trkpt lat="42.7585230" lon="-0.2231840">
        <ele>2064.2</ele>
        <time>2021-02-27T10:04:18Z</time>
      </trkpt>
      <trkpt lat="42.7585230" lon="-0.2231590">
        <ele>2064.8</ele>
        <time>2021-02-27T10:04:22Z</time>
      </trkpt>
      <trkpt lat="42.7585230" lon="-0.2231400">
        <ele>2064.6</ele>
        <time>2021-02-27T10:04:26Z</time>
      </trkpt>
      <trkpt lat="42.7585230" lon="-0.2231290">
        <ele>2064.4</ele>
        <time>2021-02-27T10:04:28Z</time>
      </trkpt>
      <trkpt lat="42.7585040" lon="-0.2230930">
        <ele>2064.6</ele>
        <time>2021-02-27T10:04:34Z</time>
      </trkpt>
      <trkpt lat="42.7585000" lon="-0.2230910">
        <ele>2064.8</ele>
        <time>2021-02-27T10:04:36Z</time>
      </trkpt>
      <trkpt lat="42.7584910" lon="-0.2230900">
        <ele>2064.4</ele>
        <time>2021-02-27T10:04:56Z</time>
      </trkpt>
      <trkpt lat="42.7584880" lon="-0.2230910">
        <ele>2065.4</ele>
        <time>2021-02-27T10:05:23Z</time>
      </trkpt>
      <trkpt lat="42.7584860" lon="-0.2230890">
        <ele>2066.0</ele>
        <time>2021-02-27T10:05:26Z</time>
      </trkpt>
      <trkpt lat="42.7584850" lon="-0.2230880">
        <ele>2066.4</ele>
        <time>2021-02-27T10:05:29Z</time>
      </trkpt>
      <trkpt lat="42.7584810" lon="-0.2230830">
        <ele>2067.4</ele>
        <time>2021-02-27T10:05:35Z</time>
      </trkpt>
      <trkpt lat="42.7584790" lon="-0.2230640">
        <ele>2068.6</ele>
        <time>2021-02-27T10:05:40Z</time>
      </trkpt>
      <trkpt lat="42.7584780" lon="-0.2230310">
        <ele>2069.8</ele>
        <time>2021-02-27T10:05:45Z</time>
      </trkpt>
      <trkpt lat="42.7584790" lon="-0.2229870">
        <ele>2070.8</ele>
        <time>2021-02-27T10:05:51Z</time>
      </trkpt>
      <trkpt lat="42.7584840" lon="-0.2228740">
        <ele>2071.8</ele>
        <time>2021-02-27T10:05:56Z</time>
      </trkpt>
      <trkpt lat="42.7584750" lon="-0.2228350">
        <ele>2072.2</ele>
        <time>2021-02-27T10:05:58Z</time>
      </trkpt>
      <trkpt lat="42.7584540" lon="-0.2227860">
        <ele>2072.8</ele>
        <time>2021-02-27T10:06:02Z</time>
      </trkpt>
      <trkpt lat="42.7584470" lon="-0.2227830">
        <ele>2073.0</ele>
        <time>2021-02-27T10:06:03Z</time>
      </trkpt>
      <trkpt lat="42.7584300" lon="-0.2227780">
        <ele>2073.4</ele>
        <time>2021-02-27T10:06:06Z</time>
      </trkpt>
      <trkpt lat="42.7584230" lon="-0.2227710">
        <ele>2073.8</ele>
        <time>2021-02-27T10:06:08Z</time>
      </trkpt>
      <trkpt lat="42.7584210" lon="-0.2227700">
        <ele>2074.0</ele>
        <time>2021-02-27T10:06:09Z</time>
      </trkpt>
      <trkpt lat="42.7583940" lon="-0.2227510">
        <ele>2074.6</ele>
        <time>2021-02-27T10:06:16Z</time>
      </trkpt>
      <trkpt lat="42.7583800" lon="-0.2227380">
        <ele>2075.2</ele>
        <time>2021-02-27T10:06:19Z</time>
      </trkpt>
      <trkpt lat="42.7583750" lon="-0.2227140">
        <ele>2076.0</ele>
        <time>2021-02-27T10:06:24Z</time>
      </trkpt>
      <trkpt lat="42.7583720" lon="-0.2227070">
        <ele>2076.2</ele>
        <time>2021-02-27T10:06:25Z</time>
      </trkpt>
      <trkpt lat="42.7583690" lon="-0.2227010">
        <ele>2076.4</ele>
        <time>2021-02-27T10:06:26Z</time>
      </trkpt>
      <trkpt lat="42.7583620" lon="-0.2226840">
        <ele>2077.2</ele>
        <time>2021-02-27T10:06:29Z</time>
      </trkpt>
      <trkpt lat="42.7583610" lon="-0.2226530">
        <ele>2078.2</ele>
        <time>2021-02-27T10:06:34Z</time>
      </trkpt>
      <trkpt lat="42.7583600" lon="-0.2226480">
        <ele>2078.4</ele>
        <time>2021-02-27T10:06:35Z</time>
      </trkpt>
      <trkpt lat="42.7583590" lon="-0.2226310">
        <ele>2079.2</ele>
        <time>2021-02-27T10:06:38Z</time>
      </trkpt>
      <trkpt lat="42.7583590" lon="-0.2226260">
        <ele>2079.4</ele>
        <time>2021-02-27T10:06:39Z</time>
      </trkpt>
      <trkpt lat="42.7583760" lon="-0.2226060">
        <ele>2080.2</ele>
        <time>2021-02-27T10:06:43Z</time>
      </trkpt>
      <trkpt lat="42.7583840" lon="-0.2225940">
        <ele>2080.6</ele>
        <time>2021-02-27T10:06:45Z</time>
      </trkpt>
      <trkpt lat="42.7584040" lon="-0.2225640">
        <ele>2081.2</ele>
        <time>2021-02-27T10:06:49Z</time>
      </trkpt>
      <trkpt lat="42.7584100" lon="-0.2225440">
        <ele>2081.6</ele>
        <time>2021-02-27T10:06:52Z</time>
      </trkpt>
      <trkpt lat="42.7584120" lon="-0.2225340">
        <ele>2081.8</ele>
        <time>2021-02-27T10:06:53Z</time>
      </trkpt>
      <trkpt lat="42.7584140" lon="-0.2225120">
        <ele>2082.0</ele>
        <time>2021-02-27T10:06:56Z</time>
      </trkpt>
      <trkpt lat="42.7584210" lon="-0.2224980">
        <ele>2082.4</ele>
        <time>2021-02-27T10:06:58Z</time>
      </trkpt>
      <trkpt lat="42.7584200" lon="-0.2224900">
        <ele>2082.4</ele>
        <time>2021-02-27T10:06:59Z</time>
      </trkpt>
      <trkpt lat="42.7584160" lon="-0.2224830">
        <ele>2082.6</ele>
        <time>2021-02-27T10:07:00Z</time>
      </trkpt>
      <trkpt lat="42.7584090" lon="-0.2224780">
        <ele>2082.8</ele>
        <time>2021-02-27T10:07:01Z</time>
      </trkpt>
      <trkpt lat="42.7584020" lon="-0.2224780">
        <ele>2083.0</ele>
        <time>2021-02-27T10:07:02Z</time>
      </trkpt>
      <trkpt lat="42.7583730" lon="-0.2224770">
        <ele>2083.6</ele>
        <time>2021-02-27T10:07:05Z</time>
      </trkpt>
      <trkpt lat="42.7583670" lon="-0.2224750">
        <ele>2083.8</ele>
        <time>2021-02-27T10:07:06Z</time>
      </trkpt>
      <trkpt lat="42.7583420" lon="-0.2224710">
        <ele>2084.8</ele>
        <time>2021-02-27T10:07:11Z</time>
      </trkpt>
      <trkpt lat="42.7583360" lon="-0.2224670">
        <ele>2085.0</ele>
        <time>2021-02-27T10:07:12Z</time>
      </trkpt>
      <trkpt lat="42.7583320" lon="-0.2224650">
        <ele>2085.4</ele>
        <time>2021-02-27T10:07:13Z</time>
      </trkpt>
      <trkpt lat="42.7583290" lon="-0.2224620">
        <ele>2085.6</ele>
        <time>2021-02-27T10:07:14Z</time>
      </trkpt>
      <trkpt lat="42.7583250" lon="-0.2224580">
        <ele>2085.8</ele>
        <time>2021-02-27T10:07:15Z</time>
      </trkpt>
      <trkpt lat="42.7583210" lon="-0.2224480">
        <ele>2086.2</ele>
        <time>2021-02-27T10:07:17Z</time>
      </trkpt>
      <trkpt lat="42.7583170" lon="-0.2224070">
        <ele>2087.4</ele>
        <time>2021-02-27T10:07:23Z</time>
      </trkpt>
      <trkpt lat="42.7583150" lon="-0.2223990">
        <ele>2087.6</ele>
        <time>2021-02-27T10:07:24Z</time>
      </trkpt>
      <trkpt lat="42.7583140" lon="-0.2223930">
        <ele>2087.8</ele>
        <time>2021-02-27T10:07:25Z</time>
      </trkpt>
      <trkpt lat="42.7583110" lon="-0.2223850">
        <ele>2088.2</ele>
        <time>2021-02-27T10:07:27Z</time>
      </trkpt>
      <trkpt lat="42.7583120" lon="-0.2223820">
        <ele>2088.6</ele>
        <time>2021-02-27T10:07:28Z</time>
      </trkpt>
      <trkpt lat="42.7583180" lon="-0.2223650">
        <ele>2088.8</ele>
        <time>2021-02-27T10:07:31Z</time>
      </trkpt>
      <trkpt lat="42.7582960" lon="-0.2223540">
        <ele>2089.6</ele>
        <time>2021-02-27T10:07:35Z</time>
      </trkpt>
      <trkpt lat="42.7582640" lon="-0.2223470">
        <ele>2090.4</ele>
        <time>2021-02-27T10:07:39Z</time>
      </trkpt>
      <trkpt lat="42.7582630" lon="-0.2223390">
        <ele>2090.8</ele>
        <time>2021-02-27T10:07:41Z</time>
      </trkpt>
      <trkpt lat="42.7582650" lon="-0.2223070">
        <ele>2091.8</ele>
        <time>2021-02-27T10:07:46Z</time>
      </trkpt>
      <trkpt lat="42.7582630" lon="-0.2222990">
        <ele>2092.0</ele>
        <time>2021-02-27T10:07:47Z</time>
      </trkpt>
      <trkpt lat="42.7582490" lon="-0.2222800">
        <ele>2093.0</ele>
        <time>2021-02-27T10:07:51Z</time>
      </trkpt>
      <trkpt lat="42.7582320" lon="-0.2222680">
        <ele>2093.8</ele>
        <time>2021-02-27T10:07:55Z</time>
      </trkpt>
      <trkpt lat="42.7582220" lon="-0.2222580">
        <ele>2094.2</ele>
        <time>2021-02-27T10:07:57Z</time>
      </trkpt>
      <trkpt lat="42.7582050" lon="-0.2222410">
        <ele>2095.2</ele>
        <time>2021-02-27T10:08:02Z</time>
      </trkpt>
      <trkpt lat="42.7581990" lon="-0.2222280">
        <ele>2095.8</ele>
        <time>2021-02-27T10:08:04Z</time>
      </trkpt>
      <trkpt lat="42.7581960" lon="-0.2222150">
        <ele>2096.2</ele>
        <time>2021-02-27T10:08:06Z</time>
      </trkpt>
      <trkpt lat="42.7581890" lon="-0.2221870">
        <ele>2097.2</ele>
        <time>2021-02-27T10:08:12Z</time>
      </trkpt>
      <trkpt lat="42.7581900" lon="-0.2221640">
        <ele>2097.8</ele>
        <time>2021-02-27T10:08:16Z</time>
      </trkpt>
      <trkpt lat="42.7581910" lon="-0.2221410">
        <ele>2098.4</ele>
        <time>2021-02-27T10:08:19Z</time>
      </trkpt>
      <trkpt lat="42.7581780" lon="-0.2221250">
        <ele>2099.0</ele>
        <time>2021-02-27T10:08:23Z</time>
      </trkpt>
      <trkpt lat="42.7581650" lon="-0.2221150">
        <ele>2099.6</ele>
        <time>2021-02-27T10:08:26Z</time>
      </trkpt>
      <trkpt lat="42.7581530" lon="-0.2221070">
        <ele>2100.4</ele>
        <time>2021-02-27T10:08:28Z</time>
      </trkpt>
      <trkpt lat="42.7581390" lon="-0.2220930">
        <ele>2100.8</ele>
        <time>2021-02-27T10:08:30Z</time>
      </trkpt>
      <trkpt lat="42.7581340" lon="-0.2220930">
        <ele>2101.4</ele>
        <time>2021-02-27T10:08:33Z</time>
      </trkpt>
      <trkpt lat="42.7581170" lon="-0.2220840">
        <ele>2101.8</ele>
        <time>2021-02-27T10:08:37Z</time>
      </trkpt>
      <trkpt lat="42.7580970" lon="-0.2220710">
        <ele>2102.4</ele>
        <time>2021-02-27T10:08:41Z</time>
      </trkpt>
      <trkpt lat="42.7580820" lon="-0.2220500">
        <ele>2102.6</ele>
        <time>2021-02-27T10:08:45Z</time>
      </trkpt>
      <trkpt lat="42.7580820" lon="-0.2220350">
        <ele>2102.8</ele>
        <time>2021-02-27T10:08:47Z</time>
      </trkpt>
      <trkpt lat="42.7580780" lon="-0.2220310">
        <ele>2103.0</ele>
        <time>2021-02-27T10:08:48Z</time>
      </trkpt>
      <trkpt lat="42.7580550" lon="-0.2220040">
        <ele>2104.0</ele>
        <time>2021-02-27T10:08:54Z</time>
      </trkpt>
      <trkpt lat="42.7580470" lon="-0.2219960">
        <ele>2104.8</ele>
        <time>2021-02-27T10:08:57Z</time>
      </trkpt>
      <trkpt lat="42.7580340" lon="-0.2219820">
        <ele>2105.2</ele>
        <time>2021-02-27T10:09:00Z</time>
      </trkpt>
      <trkpt lat="42.7580190" lon="-0.2219730">
        <ele>2105.6</ele>
        <time>2021-02-27T10:09:04Z</time>
      </trkpt>
      <trkpt lat="42.7580150" lon="-0.2219690">
        <ele>2105.6</ele>
        <time>2021-02-27T10:09:05Z</time>
      </trkpt>
      <trkpt lat="42.7579800" lon="-0.2219300">
        <ele>2106.4</ele>
        <time>2021-02-27T10:09:13Z</time>
      </trkpt>
      <trkpt lat="42.7579760" lon="-0.2219270">
        <ele>2106.6</ele>
        <time>2021-02-27T10:09:14Z</time>
      </trkpt>
      <trkpt lat="42.7579660" lon="-0.2219160">
        <ele>2107.4</ele>
        <time>2021-02-27T10:09:17Z</time>
      </trkpt>
      <trkpt lat="42.7579650" lon="-0.2219020">
        <ele>2107.8</ele>
        <time>2021-02-27T10:09:19Z</time>
      </trkpt>
      <trkpt lat="42.7579520" lon="-0.2218850">
        <ele>2108.6</ele>
        <time>2021-02-27T10:09:23Z</time>
      </trkpt>
      <trkpt lat="42.7579430" lon="-0.2218850">
        <ele>2108.8</ele>
        <time>2021-02-27T10:09:25Z</time>
      </trkpt>
      <trkpt lat="42.7579380" lon="-0.2218520">
        <ele>2109.6</ele>
        <time>2021-02-27T10:09:31Z</time>
      </trkpt>
      <trkpt lat="42.7579170" lon="-0.2218130">
        <ele>2110.8</ele>
        <time>2021-02-27T10:09:38Z</time>
      </trkpt>
      <trkpt lat="42.7578960" lon="-0.2218060">
        <ele>2111.2</ele>
        <time>2021-02-27T10:09:41Z</time>
      </trkpt>
      <trkpt lat="42.7578780" lon="-0.2217960">
        <ele>2111.8</ele>
        <time>2021-02-27T10:09:45Z</time>
      </trkpt>
      <trkpt lat="42.7578440" lon="-0.2217740">
        <ele>2112.2</ele>
        <time>2021-02-27T10:09:50Z</time>
      </trkpt>
      <trkpt lat="42.7578230" lon="-0.2217720">
        <ele>2112.4</ele>
        <time>2021-02-27T10:09:53Z</time>
      </trkpt>
      <trkpt lat="42.7577950" lon="-0.2217610">
        <ele>2112.6</ele>
        <time>2021-02-27T10:09:57Z</time>
      </trkpt>
      <trkpt lat="42.7577870" lon="-0.2217570">
        <ele>2112.8</ele>
        <time>2021-02-27T10:09:58Z</time>
      </trkpt>
      <trkpt lat="42.7577450" lon="-0.2217440">
        <ele>2113.4</ele>
        <time>2021-02-27T10:10:05Z</time>
      </trkpt>
      <trkpt lat="42.7577190" lon="-0.2217250">
        <ele>2113.8</ele>
        <time>2021-02-27T10:10:09Z</time>
      </trkpt>
      <trkpt lat="42.7576880" lon="-0.2217020">
        <ele>2114.4</ele>
        <time>2021-02-27T10:10:14Z</time>
      </trkpt>
      <trkpt lat="42.7576720" lon="-0.2216980">
        <ele>2114.6</ele>
        <time>2021-02-27T10:10:16Z</time>
      </trkpt>
      <trkpt lat="42.7576600" lon="-0.2216930">
        <ele>2114.6</ele>
        <time>2021-02-27T10:10:18Z</time>
      </trkpt>
      <trkpt lat="42.7576420" lon="-0.2216730">
        <ele>2114.8</ele>
        <time>2021-02-27T10:10:21Z</time>
      </trkpt>
      <trkpt lat="42.7576210" lon="-0.2216590">
        <ele>2115.4</ele>
        <time>2021-02-27T10:10:24Z</time>
      </trkpt>
      <trkpt lat="42.7575960" lon="-0.2216380">
        <ele>2115.8</ele>
        <time>2021-02-27T10:10:27Z</time>
      </trkpt>
      <trkpt lat="42.7575750" lon="-0.2216090">
        <ele>2116.8</ele>
        <time>2021-02-27T10:10:33Z</time>
      </trkpt>
      <trkpt lat="42.7575730" lon="-0.2216060">
        <ele>2117.0</ele>
        <time>2021-02-27T10:10:34Z</time>
      </trkpt>
      <trkpt lat="42.7575520" lon="-0.2215920">
        <ele>2117.4</ele>
        <time>2021-02-27T10:10:38Z</time>
      </trkpt>
      <trkpt lat="42.7575160" lon="-0.2215650">
        <ele>2118.0</ele>
        <time>2021-02-27T10:10:44Z</time>
      </trkpt>
      <trkpt lat="42.7575150" lon="-0.2215570">
        <ele>2118.2</ele>
        <time>2021-02-27T10:10:45Z</time>
      </trkpt>
      <trkpt lat="42.7574980" lon="-0.2215420">
        <ele>2118.8</ele>
        <time>2021-02-27T10:10:50Z</time>
      </trkpt>
      <trkpt lat="42.7574800" lon="-0.2215150">
        <ele>2119.2</ele>
        <time>2021-02-27T10:10:55Z</time>
      </trkpt>
      <trkpt lat="42.7574550" lon="-0.2214710">
        <ele>2120.2</ele>
        <time>2021-02-27T10:11:02Z</time>
      </trkpt>
      <trkpt lat="42.7574520" lon="-0.2214700">
        <ele>2120.6</ele>
        <time>2021-02-27T10:11:03Z</time>
      </trkpt>
      <trkpt lat="42.7574420" lon="-0.2214440">
        <ele>2121.2</ele>
        <time>2021-02-27T10:11:07Z</time>
      </trkpt>
      <trkpt lat="42.7574210" lon="-0.2214160">
        <ele>2122.2</ele>
        <time>2021-02-27T10:11:12Z</time>
      </trkpt>
      <trkpt lat="42.7574170" lon="-0.2214100">
        <ele>2122.4</ele>
        <time>2021-02-27T10:11:13Z</time>
      </trkpt>
      <trkpt lat="42.7573970" lon="-0.2213510">
        <ele>2123.6</ele>
        <time>2021-02-27T10:11:22Z</time>
      </trkpt>
      <trkpt lat="42.7573940" lon="-0.2213450">
        <ele>2123.8</ele>
        <time>2021-02-27T10:11:23Z</time>
      </trkpt>
      <trkpt lat="42.7573610" lon="-0.2213240">
        <ele>2124.8</ele>
        <time>2021-02-27T10:11:28Z</time>
      </trkpt>
      <trkpt lat="42.7573600" lon="-0.2213070">
        <ele>2125.2</ele>
        <time>2021-02-27T10:11:30Z</time>
      </trkpt>
      <trkpt lat="42.7573420" lon="-0.2212740">
        <ele>2125.8</ele>
        <time>2021-02-27T10:11:35Z</time>
      </trkpt>
      <trkpt lat="42.7573120" lon="-0.2212470">
        <ele>2126.8</ele>
        <time>2021-02-27T10:11:41Z</time>
      </trkpt>
      <trkpt lat="42.7573030" lon="-0.2212340">
        <ele>2127.0</ele>
        <time>2021-02-27T10:11:43Z</time>
      </trkpt>
      <trkpt lat="42.7572920" lon="-0.2212000">
        <ele>2128.2</ele>
        <time>2021-02-27T10:11:49Z</time>
      </trkpt>
      <trkpt lat="42.7572910" lon="-0.2211950">
        <ele>2128.4</ele>
        <time>2021-02-27T10:11:50Z</time>
      </trkpt>
      <trkpt lat="42.7572920" lon="-0.2211590">
        <ele>2129.4</ele>
        <time>2021-02-27T10:11:56Z</time>
      </trkpt>
      <trkpt lat="42.7573010" lon="-0.2211260">
        <ele>2130.6</ele>
        <time>2021-02-27T10:12:02Z</time>
      </trkpt>
      <trkpt lat="42.7572980" lon="-0.2211150">
        <ele>2131.2</ele>
        <time>2021-02-27T10:12:04Z</time>
      </trkpt>
      <trkpt lat="42.7572960" lon="-0.2211060">
        <ele>2131.8</ele>
        <time>2021-02-27T10:12:07Z</time>
      </trkpt>
      <trkpt lat="42.7572900" lon="-0.2210740">
        <ele>2133.0</ele>
        <time>2021-02-27T10:12:12Z</time>
      </trkpt>
      <trkpt lat="42.7572790" lon="-0.2210480">
        <ele>2133.8</ele>
        <time>2021-02-27T10:12:16Z</time>
      </trkpt>
      <trkpt lat="42.7572650" lon="-0.2210420">
        <ele>2134.0</ele>
        <time>2021-02-27T10:12:18Z</time>
      </trkpt>
      <trkpt lat="42.7572230" lon="-0.2210230">
        <ele>2135.0</ele>
        <time>2021-02-27T10:12:25Z</time>
      </trkpt>
      <trkpt lat="42.7572060" lon="-0.2210290">
        <ele>2135.2</ele>
        <time>2021-02-27T10:12:27Z</time>
      </trkpt>
      <trkpt lat="42.7571850" lon="-0.2209890">
        <ele>2135.6</ele>
        <time>2021-02-27T10:12:32Z</time>
      </trkpt>
      <trkpt lat="42.7571720" lon="-0.2209790">
        <ele>2136.2</ele>
        <time>2021-02-27T10:12:34Z</time>
      </trkpt>
      <trkpt lat="42.7571490" lon="-0.2209460">
        <ele>2137.2</ele>
        <time>2021-02-27T10:12:39Z</time>
      </trkpt>
      <trkpt lat="42.7571340" lon="-0.2209360">
        <ele>2137.8</ele>
        <time>2021-02-27T10:12:41Z</time>
      </trkpt>
      <trkpt lat="42.7571250" lon="-0.2209340">
        <ele>2138.0</ele>
        <time>2021-02-27T10:12:42Z</time>
      </trkpt>
      <trkpt lat="42.7571140" lon="-0.2209280">
        <ele>2138.4</ele>
        <time>2021-02-27T10:12:44Z</time>
      </trkpt>
      <trkpt lat="42.7570810" lon="-0.2209120">
        <ele>2139.4</ele>
        <time>2021-02-27T10:12:49Z</time>
      </trkpt>
      <trkpt lat="42.7570730" lon="-0.2209070">
        <ele>2139.8</ele>
        <time>2021-02-27T10:12:50Z</time>
      </trkpt>
      <trkpt lat="42.7570280" lon="-0.2208830">
        <ele>2140.6</ele>
        <time>2021-02-27T10:12:56Z</time>
      </trkpt>
      <trkpt lat="42.7570270" lon="-0.2208810">
        <ele>2140.6</ele>
        <time>2021-02-27T10:12:57Z</time>
      </trkpt>
      <trkpt lat="42.7569930" lon="-0.2208530">
        <ele>2141.0</ele>
        <time>2021-02-27T10:13:03Z</time>
      </trkpt>
      <trkpt lat="42.7569660" lon="-0.2208350">
        <ele>2141.6</ele>
        <time>2021-02-27T10:13:07Z</time>
      </trkpt>
      <trkpt lat="42.7569480" lon="-0.2208150">
        <ele>2142.2</ele>
        <time>2021-02-27T10:13:11Z</time>
      </trkpt>
      <trkpt lat="42.7569230" lon="-0.2208110">
        <ele>2142.6</ele>
        <time>2021-02-27T10:13:14Z</time>
      </trkpt>
      <trkpt lat="42.7569140" lon="-0.2208070">
        <ele>2143.0</ele>
        <time>2021-02-27T10:13:15Z</time>
      </trkpt>
      <trkpt lat="42.7569080" lon="-0.2208040">
        <ele>2143.2</ele>
        <time>2021-02-27T10:13:16Z</time>
      </trkpt>
      <trkpt lat="42.7568850" lon="-0.2207820">
        <ele>2143.8</ele>
        <time>2021-02-27T10:13:20Z</time>
      </trkpt>
      <trkpt lat="42.7568750" lon="-0.2207690">
        <ele>2144.0</ele>
        <time>2021-02-27T10:13:23Z</time>
      </trkpt>
      <trkpt lat="42.7568550" lon="-0.2207730">
        <ele>2144.2</ele>
        <time>2021-02-27T10:13:28Z</time>
      </trkpt>
      <trkpt lat="42.7567910" lon="-0.2207400">
        <ele>2145.0</ele>
        <time>2021-02-27T10:13:37Z</time>
      </trkpt>
      <trkpt lat="42.7567660" lon="-0.2207350">
        <ele>2145.6</ele>
        <time>2021-02-27T10:13:43Z</time>
      </trkpt>
      <trkpt lat="42.7567680" lon="-0.2207380">
        <ele>2146.0</ele>
        <time>2021-02-27T10:13:46Z</time>
      </trkpt>
      <trkpt lat="42.7567840" lon="-0.2207440">
        <ele>2146.2</ele>
        <time>2021-02-27T10:13:50Z</time>
      </trkpt>
      <trkpt lat="42.7567840" lon="-0.2207440">
        <ele>2146.0</ele>
        <time>2021-02-27T10:13:55Z</time>
      </trkpt>
      <trkpt lat="42.7567780" lon="-0.2207440">
        <ele>2146.4</ele>
        <time>2021-02-27T10:14:00Z</time>
      </trkpt>
      <trkpt lat="42.7567690" lon="-0.2207420">
        <ele>2147.0</ele>
        <time>2021-02-27T10:14:05Z</time>
      </trkpt>
      <trkpt lat="42.7567440" lon="-0.2207340">
        <ele>2148.2</ele>
        <time>2021-02-27T10:14:13Z</time>
      </trkpt>
      <trkpt lat="42.7567430" lon="-0.2207150">
        <ele>2149.0</ele>
        <time>2021-02-27T10:14:18Z</time>
      </trkpt>
      <trkpt lat="42.7567430" lon="-0.2207090">
        <ele>2149.2</ele>
        <time>2021-02-27T10:14:19Z</time>
      </trkpt>
      <trkpt lat="42.7567430" lon="-0.2206670">
        <ele>2150.2</ele>
        <time>2021-02-27T10:14:25Z</time>
      </trkpt>
      <trkpt lat="42.7567570" lon="-0.2206390">
        <ele>2151.4</ele>
        <time>2021-02-27T10:14:33Z</time>
      </trkpt>
      <trkpt lat="42.7567750" lon="-0.2206360">
        <ele>2152.6</ele>
        <time>2021-02-27T10:14:39Z</time>
      </trkpt>
      <trkpt lat="42.7567970" lon="-0.2206340">
        <ele>2153.8</ele>
        <time>2021-02-27T10:14:45Z</time>
      </trkpt>
      <trkpt lat="42.7568310" lon="-0.2206260">
        <ele>2154.4</ele>
        <time>2021-02-27T10:14:52Z</time>
      </trkpt>
      <trkpt lat="42.7568330" lon="-0.2206190">
        <ele>2154.8</ele>
        <time>2021-02-27T10:14:54Z</time>
      </trkpt>
      <trkpt lat="42.7568340" lon="-0.2205960">
        <ele>2155.6</ele>
        <time>2021-02-27T10:14:57Z</time>
      </trkpt>
      <trkpt lat="42.7568350" lon="-0.2205830">
        <ele>2156.0</ele>
        <time>2021-02-27T10:14:59Z</time>
      </trkpt>
      <trkpt lat="42.7568380" lon="-0.2205630">
        <ele>2156.4</ele>
        <time>2021-02-27T10:15:03Z</time>
      </trkpt>
      <trkpt lat="42.7568380" lon="-0.2205530">
        <ele>2157.0</ele>
        <time>2021-02-27T10:15:06Z</time>
      </trkpt>
      <trkpt lat="42.7568360" lon="-0.2205430">
        <ele>2157.8</ele>
        <time>2021-02-27T10:15:10Z</time>
      </trkpt>
      <trkpt lat="42.7568350" lon="-0.2205390">
        <ele>2157.8</ele>
        <time>2021-02-27T10:15:11Z</time>
      </trkpt>
      <trkpt lat="42.7568340" lon="-0.2205340">
        <ele>2158.0</ele>
        <time>2021-02-27T10:15:12Z</time>
      </trkpt>
      <trkpt lat="42.7568320" lon="-0.2205130">
        <ele>2159.2</ele>
        <time>2021-02-27T10:15:16Z</time>
      </trkpt>
      <trkpt lat="42.7568270" lon="-0.2204940">
        <ele>2160.2</ele>
        <time>2021-02-27T10:15:20Z</time>
      </trkpt>
      <trkpt lat="42.7568260" lon="-0.2204700">
        <ele>2161.6</ele>
        <time>2021-02-27T10:15:25Z</time>
      </trkpt>
      <trkpt lat="42.7568250" lon="-0.2204610">
        <ele>2162.2</ele>
        <time>2021-02-27T10:15:27Z</time>
      </trkpt>
      <trkpt lat="42.7568220" lon="-0.2204430">
        <ele>2162.4</ele>
        <time>2021-02-27T10:15:31Z</time>
      </trkpt>
      <trkpt lat="42.7568190" lon="-0.2204260">
        <ele>2162.8</ele>
        <time>2021-02-27T10:15:34Z</time>
      </trkpt>
      <trkpt lat="42.7568170" lon="-0.2203900">
        <ele>2163.8</ele>
        <time>2021-02-27T10:15:40Z</time>
      </trkpt>
      <trkpt lat="42.7568000" lon="-0.2203540">
        <ele>2165.0</ele>
        <time>2021-02-27T10:15:47Z</time>
      </trkpt>
      <trkpt lat="42.7567890" lon="-0.2203360">
        <ele>2165.6</ele>
        <time>2021-02-27T10:15:52Z</time>
      </trkpt>
      <trkpt lat="42.7567840" lon="-0.2202950">
        <ele>2165.8</ele>
        <time>2021-02-27T10:15:54Z</time>
      </trkpt>
      <trkpt lat="42.7567780" lon="-0.2202750">
        <ele>2165.8</ele>
        <time>2021-02-27T10:15:55Z</time>
      </trkpt>
      <trkpt lat="42.7567740" lon="-0.2202350">
        <ele>2165.8</ele>
        <time>2021-02-27T10:15:57Z</time>
      </trkpt>
      <trkpt lat="42.7567720" lon="-0.2202170">
        <ele>2166.0</ele>
        <time>2021-02-27T10:15:58Z</time>
      </trkpt>
      <trkpt lat="42.7567580" lon="-0.2201880">
        <ele>2166.4</ele>
        <time>2021-02-27T10:16:00Z</time>
      </trkpt>
      <trkpt lat="42.7567370" lon="-0.2201640">
        <ele>2166.8</ele>
        <time>2021-02-27T10:16:03Z</time>
      </trkpt>
      <trkpt lat="42.7567340" lon="-0.2201570">
        <ele>2167.0</ele>
        <time>2021-02-27T10:16:04Z</time>
      </trkpt>
      <trkpt lat="42.7566990" lon="-0.2201420">
        <ele>2168.0</ele>
        <time>2021-02-27T10:16:09Z</time>
      </trkpt>
      <trkpt lat="42.7566920" lon="-0.2201400">
        <ele>2168.4</ele>
        <time>2021-02-27T10:16:10Z</time>
      </trkpt>
      <trkpt lat="42.7566820" lon="-0.2201370">
        <ele>2168.8</ele>
        <time>2021-02-27T10:16:12Z</time>
      </trkpt>
      <trkpt lat="42.7566640" lon="-0.2201270">
        <ele>2169.4</ele>
        <time>2021-02-27T10:16:15Z</time>
      </trkpt>
      <trkpt lat="42.7566460" lon="-0.2201130">
        <ele>2169.8</ele>
        <time>2021-02-27T10:16:18Z</time>
      </trkpt>
      <trkpt lat="42.7566290" lon="-0.2201040">
        <ele>2170.2</ele>
        <time>2021-02-27T10:16:21Z</time>
      </trkpt>
      <trkpt lat="42.7566200" lon="-0.2200990">
        <ele>2170.4</ele>
        <time>2021-02-27T10:16:23Z</time>
      </trkpt>
      <trkpt lat="42.7565780" lon="-0.2200730">
        <ele>2171.0</ele>
        <time>2021-02-27T10:16:29Z</time>
      </trkpt>
      <trkpt lat="42.7565530" lon="-0.2200670">
        <ele>2171.4</ele>
        <time>2021-02-27T10:16:32Z</time>
      </trkpt>
      <trkpt lat="42.7565410" lon="-0.2200620">
        <ele>2171.6</ele>
        <time>2021-02-27T10:16:34Z</time>
      </trkpt>
      <trkpt lat="42.7565120" lon="-0.2200550">
        <ele>2172.2</ele>
        <time>2021-02-27T10:16:38Z</time>
      </trkpt>
      <trkpt lat="42.7565040" lon="-0.2200540">
        <ele>2172.2</ele>
        <time>2021-02-27T10:16:39Z</time>
      </trkpt>
      <trkpt lat="42.7564860" lon="-0.2200480">
        <ele>2172.6</ele>
        <time>2021-02-27T10:16:43Z</time>
      </trkpt>
      <trkpt lat="42.7564700" lon="-0.2200380">
        <ele>2172.8</ele>
        <time>2021-02-27T10:16:49Z</time>
      </trkpt>
      <trkpt lat="42.7564240" lon="-0.2200060">
        <ele>2173.6</ele>
        <time>2021-02-27T10:16:57Z</time>
      </trkpt>
      <trkpt lat="42.7564240" lon="-0.2200020">
        <ele>2173.8</ele>
        <time>2021-02-27T10:16:58Z</time>
      </trkpt>
      <trkpt lat="42.7564250" lon="-0.2199970">
        <ele>2173.8</ele>
        <time>2021-02-27T10:17:01Z</time>
      </trkpt>
      <trkpt lat="42.7564180" lon="-0.2200120">
        <ele>2173.2</ele>
        <time>2021-02-27T10:24:42Z</time>
      </trkpt>
      <trkpt lat="42.7564180" lon="-0.2200120">
        <ele>2173.2</ele>
        <time>2021-02-27T10:24:43Z</time>
      </trkpt>
      <trkpt lat="42.7564180" lon="-0.2200110">
        <ele>2174.8</ele>
        <time>2021-02-27T10:25:08Z</time>
      </trkpt>
      <trkpt lat="42.7563920" lon="-0.2199770">
        <ele>2175.0</ele>
        <time>2021-02-27T10:25:11Z</time>
      </trkpt>
      <trkpt lat="42.7563200" lon="-0.2198630">
        <ele>2175.2</ele>
        <time>2021-02-27T10:25:16Z</time>
      </trkpt>
      <trkpt lat="42.7562910" lon="-0.2198190">
        <ele>2175.4</ele>
        <time>2021-02-27T10:25:18Z</time>
      </trkpt>
      <trkpt lat="42.7562730" lon="-0.2197880">
        <ele>2175.6</ele>
        <time>2021-02-27T10:25:20Z</time>
      </trkpt>
      <trkpt lat="42.7562620" lon="-0.2197740">
        <ele>2175.8</ele>
        <time>2021-02-27T10:25:22Z</time>
      </trkpt>
      <trkpt lat="42.7562590" lon="-0.2197680">
        <ele>2175.8</ele>
        <time>2021-02-27T10:25:23Z</time>
      </trkpt>
      <trkpt lat="42.7562330" lon="-0.2197290">
        <ele>2176.4</ele>
        <time>2021-02-27T10:25:28Z</time>
      </trkpt>
      <trkpt lat="42.7562290" lon="-0.2197210">
        <ele>2176.4</ele>
        <time>2021-02-27T10:25:29Z</time>
      </trkpt>
      <trkpt lat="42.7562020" lon="-0.2196760">
        <ele>2177.0</ele>
        <time>2021-02-27T10:25:34Z</time>
      </trkpt>
      <trkpt lat="42.7561810" lon="-0.2196370">
        <ele>2177.4</ele>
        <time>2021-02-27T10:25:38Z</time>
      </trkpt>
      <trkpt lat="42.7561770" lon="-0.2196310">
        <ele>2177.4</ele>
        <time>2021-02-27T10:25:39Z</time>
      </trkpt>
      <trkpt lat="42.7561640" lon="-0.2195930">
        <ele>2177.6</ele>
        <time>2021-02-27T10:25:42Z</time>
      </trkpt>
      <trkpt lat="42.7561710" lon="-0.2195500">
        <ele>2178.2</ele>
        <time>2021-02-27T10:25:46Z</time>
      </trkpt>
      <trkpt lat="42.7561390" lon="-0.2195220">
        <ele>2179.2</ele>
        <time>2021-02-27T10:25:52Z</time>
      </trkpt>
      <trkpt lat="42.7561410" lon="-0.2195250">
        <ele>2179.4</ele>
        <time>2021-02-27T10:25:54Z</time>
      </trkpt>
      <trkpt lat="42.7561270" lon="-0.2194640">
        <ele>2180.0</ele>
        <time>2021-02-27T10:26:04Z</time>
      </trkpt>
      <trkpt lat="42.7561240" lon="-0.2194540">
        <ele>2180.2</ele>
        <time>2021-02-27T10:26:05Z</time>
      </trkpt>
      <trkpt lat="42.7561170" lon="-0.2194050">
        <ele>2181.2</ele>
        <time>2021-02-27T10:26:10Z</time>
      </trkpt>
      <trkpt lat="42.7561100" lon="-0.2193770">
        <ele>2181.6</ele>
        <time>2021-02-27T10:26:13Z</time>
      </trkpt>
      <trkpt lat="42.7561040" lon="-0.2193520">
        <ele>2181.8</ele>
        <time>2021-02-27T10:26:15Z</time>
      </trkpt>
      <trkpt lat="42.7560980" lon="-0.2193230">
        <ele>2182.2</ele>
        <time>2021-02-27T10:26:18Z</time>
      </trkpt>
      <trkpt lat="42.7560930" lon="-0.2193080">
        <ele>2182.2</ele>
        <time>2021-02-27T10:26:19Z</time>
      </trkpt>
      <trkpt lat="42.7560890" lon="-0.2192960">
        <ele>2182.2</ele>
        <time>2021-02-27T10:26:20Z</time>
      </trkpt>
      <trkpt lat="42.7560770" lon="-0.2192670">
        <ele>2182.8</ele>
        <time>2021-02-27T10:26:24Z</time>
      </trkpt>
      <trkpt lat="42.7560720" lon="-0.2192470">
        <ele>2183.0</ele>
        <time>2021-02-27T10:26:26Z</time>
      </trkpt>
      <trkpt lat="42.7560590" lon="-0.2192240">
        <ele>2183.4</ele>
        <time>2021-02-27T10:26:29Z</time>
      </trkpt>
      <trkpt lat="42.7560480" lon="-0.2191940">
        <ele>2184.2</ele>
        <time>2021-02-27T10:26:33Z</time>
      </trkpt>
      <trkpt lat="42.7560470" lon="-0.2191840">
        <ele>2184.4</ele>
        <time>2021-02-27T10:26:34Z</time>
      </trkpt>
      <trkpt lat="42.7560380" lon="-0.2190660">
        <ele>2185.4</ele>
        <time>2021-02-27T10:26:44Z</time>
      </trkpt>
      <trkpt lat="42.7560350" lon="-0.2190520">
        <ele>2185.6</ele>
        <time>2021-02-27T10:26:45Z</time>
      </trkpt>
      <trkpt lat="42.7560030" lon="-0.2188950">
        <ele>2185.4</ele>
        <time>2021-02-27T10:26:57Z</time>
      </trkpt>
      <trkpt lat="42.7559650" lon="-0.2188050">
        <ele>2185.0</ele>
        <time>2021-02-27T10:27:05Z</time>
      </trkpt>
      <trkpt lat="42.7559580" lon="-0.2187790">
        <ele>2185.0</ele>
        <time>2021-02-27T10:27:07Z</time>
      </trkpt>
      <trkpt lat="42.7559550" lon="-0.2187690">
        <ele>2184.8</ele>
        <time>2021-02-27T10:27:08Z</time>
      </trkpt>
      <trkpt lat="42.7559510" lon="-0.2187570">
        <ele>2184.8</ele>
        <time>2021-02-27T10:27:09Z</time>
      </trkpt>
      <trkpt lat="42.7559210" lon="-0.2186700">
        <ele>2185.2</ele>
        <time>2021-02-27T10:27:17Z</time>
      </trkpt>
      <trkpt lat="42.7559030" lon="-0.2186180">
        <ele>2185.2</ele>
        <time>2021-02-27T10:27:21Z</time>
      </trkpt>
      <trkpt lat="42.7558810" lon="-0.2185390">
        <ele>2185.4</ele>
        <time>2021-02-27T10:27:27Z</time>
      </trkpt>
      <trkpt lat="42.7558790" lon="-0.2184940">
        <ele>2185.6</ele>
        <time>2021-02-27T10:27:30Z</time>
      </trkpt>
      <trkpt lat="42.7558660" lon="-0.2183820">
        <ele>2185.4</ele>
        <time>2021-02-27T10:27:39Z</time>
      </trkpt>
      <trkpt lat="42.7558600" lon="-0.2183420">
        <ele>2185.8</ele>
        <time>2021-02-27T10:27:42Z</time>
      </trkpt>
      <trkpt lat="42.7558420" lon="-0.2182710">
        <ele>2186.4</ele>
        <time>2021-02-27T10:27:47Z</time>
      </trkpt>
      <trkpt lat="42.7558360" lon="-0.2182590">
        <ele>2186.4</ele>
        <time>2021-02-27T10:27:48Z</time>
      </trkpt>
      <trkpt lat="42.7558200" lon="-0.2182280">
        <ele>2186.4</ele>
        <time>2021-02-27T10:27:51Z</time>
      </trkpt>
      <trkpt lat="42.7557510" lon="-0.2181310">
        <ele>2186.4</ele>
        <time>2021-02-27T10:28:01Z</time>
      </trkpt>
      <trkpt lat="42.7557220" lon="-0.2180960">
        <ele>2186.6</ele>
        <time>2021-02-27T10:28:05Z</time>
      </trkpt>
      <trkpt lat="42.7556690" lon="-0.2180420">
        <ele>2186.8</ele>
        <time>2021-02-27T10:28:11Z</time>
      </trkpt>
      <trkpt lat="42.7556390" lon="-0.2179930">
        <ele>2187.6</ele>
        <time>2021-02-27T10:28:16Z</time>
      </trkpt>
      <trkpt lat="42.7556200" lon="-0.2179670">
        <ele>2188.0</ele>
        <time>2021-02-27T10:28:19Z</time>
      </trkpt>
      <trkpt lat="42.7556100" lon="-0.2179310">
        <ele>2188.6</ele>
        <time>2021-02-27T10:28:22Z</time>
      </trkpt>
      <trkpt lat="42.7555930" lon="-0.2178880">
        <ele>2189.2</ele>
        <time>2021-02-27T10:28:26Z</time>
      </trkpt>
      <trkpt lat="42.7555890" lon="-0.2178810">
        <ele>2189.4</ele>
        <time>2021-02-27T10:28:27Z</time>
      </trkpt>
      <trkpt lat="42.7555800" lon="-0.2178690">
        <ele>2189.4</ele>
        <time>2021-02-27T10:28:28Z</time>
      </trkpt>
      <trkpt lat="42.7555680" lon="-0.2178380">
        <ele>2189.6</ele>
        <time>2021-02-27T10:28:31Z</time>
      </trkpt>
      <trkpt lat="42.7555570" lon="-0.2178180">
        <ele>2189.6</ele>
        <time>2021-02-27T10:28:33Z</time>
      </trkpt>
      <trkpt lat="42.7555550" lon="-0.2178110">
        <ele>2189.6</ele>
        <time>2021-02-27T10:28:34Z</time>
      </trkpt>
      <trkpt lat="42.7555550" lon="-0.2177980">
        <ele>2189.8</ele>
        <time>2021-02-27T10:28:35Z</time>
      </trkpt>
      <trkpt lat="42.7555540" lon="-0.2177830">
        <ele>2189.8</ele>
        <time>2021-02-27T10:28:36Z</time>
      </trkpt>
      <trkpt lat="42.7555530" lon="-0.2177710">
        <ele>2189.8</ele>
        <time>2021-02-27T10:28:37Z</time>
      </trkpt>
      <trkpt lat="42.7555270" lon="-0.2176880">
        <ele>2189.8</ele>
        <time>2021-02-27T10:28:45Z</time>
      </trkpt>
      <trkpt lat="42.7555180" lon="-0.2176740">
        <ele>2189.8</ele>
        <time>2021-02-27T10:28:46Z</time>
      </trkpt>
      <trkpt lat="42.7555050" lon="-0.2176450">
        <ele>2189.8</ele>
        <time>2021-02-27T10:28:49Z</time>
      </trkpt>
      <trkpt lat="42.7554910" lon="-0.2176150">
        <ele>2189.8</ele>
        <time>2021-02-27T10:28:51Z</time>
      </trkpt>
      <trkpt lat="42.7554690" lon="-0.2175530">
        <ele>2189.8</ele>
        <time>2021-02-27T10:28:56Z</time>
      </trkpt>
      <trkpt lat="42.7554630" lon="-0.2175350">
        <ele>2189.6</ele>
        <time>2021-02-27T10:28:58Z</time>
      </trkpt>
      <trkpt lat="42.7554280" lon="-0.2174740">
        <ele>2189.2</ele>
        <time>2021-02-27T10:29:03Z</time>
      </trkpt>
      <trkpt lat="42.7554100" lon="-0.2174330">
        <ele>2189.2</ele>
        <time>2021-02-27T10:29:07Z</time>
      </trkpt>
      <trkpt lat="42.7553940" lon="-0.2174090">
        <ele>2189.6</ele>
        <time>2021-02-27T10:29:10Z</time>
      </trkpt>
      <trkpt lat="42.7553770" lon="-0.2173830">
        <ele>2190.0</ele>
        <time>2021-02-27T10:29:13Z</time>
      </trkpt>
      <trkpt lat="42.7553440" lon="-0.2173230">
        <ele>2190.6</ele>
        <time>2021-02-27T10:29:19Z</time>
      </trkpt>
      <trkpt lat="42.7553390" lon="-0.2173130">
        <ele>2190.6</ele>
        <time>2021-02-27T10:29:20Z</time>
      </trkpt>
      <trkpt lat="42.7553350" lon="-0.2173050">
        <ele>2190.6</ele>
        <time>2021-02-27T10:29:21Z</time>
      </trkpt>
      <trkpt lat="42.7553290" lon="-0.2172960">
        <ele>2190.8</ele>
        <time>2021-02-27T10:29:22Z</time>
      </trkpt>
      <trkpt lat="42.7552970" lon="-0.2172460">
        <ele>2191.4</ele>
        <time>2021-02-27T10:29:27Z</time>
      </trkpt>
      <trkpt lat="42.7552820" lon="-0.2172270">
        <ele>2191.6</ele>
        <time>2021-02-27T10:29:29Z</time>
      </trkpt>
      <trkpt lat="42.7552620" lon="-0.2171970">
        <ele>2191.6</ele>
        <time>2021-02-27T10:29:32Z</time>
      </trkpt>
      <trkpt lat="42.7552440" lon="-0.2171750">
        <ele>2191.4</ele>
        <time>2021-02-27T10:29:34Z</time>
      </trkpt>
      <trkpt lat="42.7551920" lon="-0.2171400">
        <ele>2191.0</ele>
        <time>2021-02-27T10:29:39Z</time>
      </trkpt>
      <trkpt lat="42.7551640" lon="-0.2171160">
        <ele>2190.6</ele>
        <time>2021-02-27T10:29:43Z</time>
      </trkpt>
      <trkpt lat="42.7551550" lon="-0.2171110">
        <ele>2190.6</ele>
        <time>2021-02-27T10:29:44Z</time>
      </trkpt>
      <trkpt lat="42.7551290" lon="-0.2170840">
        <ele>2190.4</ele>
        <time>2021-02-27T10:29:47Z</time>
      </trkpt>
      <trkpt lat="42.7550940" lon="-0.2170530">
        <ele>2190.6</ele>
        <time>2021-02-27T10:29:52Z</time>
      </trkpt>
      <trkpt lat="42.7550910" lon="-0.2170460">
        <ele>2190.6</ele>
        <time>2021-02-27T10:29:53Z</time>
      </trkpt>
      <trkpt lat="42.7550640" lon="-0.2170070">
        <ele>2190.2</ele>
        <time>2021-02-27T10:29:57Z</time>
      </trkpt>
      <trkpt lat="42.7550320" lon="-0.2169660">
        <ele>2190.0</ele>
        <time>2021-02-27T10:30:02Z</time>
      </trkpt>
      <trkpt lat="42.7550030" lon="-0.2169410">
        <ele>2189.8</ele>
        <time>2021-02-27T10:30:04Z</time>
      </trkpt>
      <trkpt lat="42.7549830" lon="-0.2169230">
        <ele>2189.4</ele>
        <time>2021-02-27T10:30:06Z</time>
      </trkpt>
      <trkpt lat="42.7549760" lon="-0.2169130">
        <ele>2189.4</ele>
        <time>2021-02-27T10:30:07Z</time>
      </trkpt>
      <trkpt lat="42.7549610" lon="-0.2168920">
        <ele>2189.0</ele>
        <time>2021-02-27T10:30:09Z</time>
      </trkpt>
      <trkpt lat="42.7549240" lon="-0.2168570">
        <ele>2188.4</ele>
        <time>2021-02-27T10:30:13Z</time>
      </trkpt>
      <trkpt lat="42.7549160" lon="-0.2168490">
        <ele>2188.2</ele>
        <time>2021-02-27T10:30:14Z</time>
      </trkpt>
      <trkpt lat="42.7548730" lon="-0.2168170">
        <ele>2187.4</ele>
        <time>2021-02-27T10:30:19Z</time>
      </trkpt>
      <trkpt lat="42.7548660" lon="-0.2168070">
        <ele>2187.2</ele>
        <time>2021-02-27T10:30:20Z</time>
      </trkpt>
      <trkpt lat="42.7548050" lon="-0.2167590">
        <ele>2187.0</ele>
        <time>2021-02-27T10:30:28Z</time>
      </trkpt>
      <trkpt lat="42.7547830" lon="-0.2167200">
        <ele>2187.0</ele>
        <time>2021-02-27T10:30:32Z</time>
      </trkpt>
      <trkpt lat="42.7547760" lon="-0.2167030">
        <ele>2187.2</ele>
        <time>2021-02-27T10:30:34Z</time>
      </trkpt>
      <trkpt lat="42.7547560" lon="-0.2167020">
        <ele>2187.2</ele>
        <time>2021-02-27T10:30:36Z</time>
      </trkpt>
      <trkpt lat="42.7546450" lon="-0.2166750">
        <ele>2187.4</ele>
        <time>2021-02-27T10:30:45Z</time>
      </trkpt>
      <trkpt lat="42.7546250" lon="-0.2166630">
        <ele>2187.6</ele>
        <time>2021-02-27T10:30:47Z</time>
      </trkpt>
      <trkpt lat="42.7545910" lon="-0.2166500">
        <ele>2187.6</ele>
        <time>2021-02-27T10:30:52Z</time>
      </trkpt>
      <trkpt lat="42.7544870" lon="-0.2166460">
        <ele>2187.6</ele>
        <time>2021-02-27T10:31:01Z</time>
      </trkpt>
      <trkpt lat="42.7544630" lon="-0.2166360">
        <ele>2186.8</ele>
        <time>2021-02-27T10:31:04Z</time>
      </trkpt>
      <trkpt lat="42.7544340" lon="-0.2166180">
        <ele>2186.4</ele>
        <time>2021-02-27T10:31:07Z</time>
      </trkpt>
      <trkpt lat="42.7544220" lon="-0.2166190">
        <ele>2186.2</ele>
        <time>2021-02-27T10:31:08Z</time>
      </trkpt>
      <trkpt lat="42.7543570" lon="-0.2165980">
        <ele>2185.8</ele>
        <time>2021-02-27T10:31:16Z</time>
      </trkpt>
      <trkpt lat="42.7543090" lon="-0.2165840">
        <ele>2186.0</ele>
        <time>2021-02-27T10:31:22Z</time>
      </trkpt>
      <trkpt lat="42.7542950" lon="-0.2165700">
        <ele>2186.0</ele>
        <time>2021-02-27T10:31:25Z</time>
      </trkpt>
      <trkpt lat="42.7542140" lon="-0.2165430">
        <ele>2185.6</ele>
        <time>2021-02-27T10:31:33Z</time>
      </trkpt>
      <trkpt lat="42.7541820" lon="-0.2165360">
        <ele>2185.8</ele>
        <time>2021-02-27T10:31:37Z</time>
      </trkpt>
      <trkpt lat="42.7541640" lon="-0.2165300">
        <ele>2185.8</ele>
        <time>2021-02-27T10:31:39Z</time>
      </trkpt>
      <trkpt lat="42.7541090" lon="-0.2164960">
        <ele>2185.8</ele>
        <time>2021-02-27T10:31:45Z</time>
      </trkpt>
      <trkpt lat="42.7541040" lon="-0.2164910">
        <ele>2186.0</ele>
        <time>2021-02-27T10:31:46Z</time>
      </trkpt>
      <trkpt lat="42.7540630" lon="-0.2164570">
        <ele>2186.0</ele>
        <time>2021-02-27T10:31:52Z</time>
      </trkpt>
      <trkpt lat="42.7540070" lon="-0.2164180">
        <ele>2185.8</ele>
        <time>2021-02-27T10:31:59Z</time>
      </trkpt>
      <trkpt lat="42.7539930" lon="-0.2164110">
        <ele>2185.8</ele>
        <time>2021-02-27T10:32:01Z</time>
      </trkpt>
      <trkpt lat="42.7539300" lon="-0.2163690">
        <ele>2186.2</ele>
        <time>2021-02-27T10:32:09Z</time>
      </trkpt>
      <trkpt lat="42.7538980" lon="-0.2163520">
        <ele>2186.8</ele>
        <time>2021-02-27T10:32:14Z</time>
      </trkpt>
      <trkpt lat="42.7538620" lon="-0.2163510">
        <ele>2187.2</ele>
        <time>2021-02-27T10:32:19Z</time>
      </trkpt>
      <trkpt lat="42.7538510" lon="-0.2163550">
        <ele>2187.4</ele>
        <time>2021-02-27T10:32:20Z</time>
      </trkpt>
      <trkpt lat="42.7538480" lon="-0.2163540">
        <ele>2187.4</ele>
        <time>2021-02-27T10:32:21Z</time>
      </trkpt>
      <trkpt lat="42.7538340" lon="-0.2163470">
        <ele>2187.8</ele>
        <time>2021-02-27T10:32:23Z</time>
      </trkpt>
      <trkpt lat="42.7537930" lon="-0.2163400">
        <ele>2188.2</ele>
        <time>2021-02-27T10:32:28Z</time>
      </trkpt>
      <trkpt lat="42.7537850" lon="-0.2163410">
        <ele>2188.4</ele>
        <time>2021-02-27T10:32:29Z</time>
      </trkpt>
      <trkpt lat="42.7537710" lon="-0.2163430">
        <ele>2188.4</ele>
        <time>2021-02-27T10:32:31Z</time>
      </trkpt>
      <trkpt lat="42.7537520" lon="-0.2163450">
        <ele>2188.8</ele>
        <time>2021-02-27T10:32:34Z</time>
      </trkpt>
      <trkpt lat="42.7537350" lon="-0.2163440">
        <ele>2189.2</ele>
        <time>2021-02-27T10:32:37Z</time>
      </trkpt>
      <trkpt lat="42.7537210" lon="-0.2163410">
        <ele>2189.4</ele>
        <time>2021-02-27T10:32:39Z</time>
      </trkpt>
      <trkpt lat="42.7536960" lon="-0.2163390">
        <ele>2190.0</ele>
        <time>2021-02-27T10:32:42Z</time>
      </trkpt>
      <trkpt lat="42.7536750" lon="-0.2163480">
        <ele>2190.2</ele>
        <time>2021-02-27T10:32:45Z</time>
      </trkpt>
      <trkpt lat="42.7536640" lon="-0.2163510">
        <ele>2190.4</ele>
        <time>2021-02-27T10:32:47Z</time>
      </trkpt>
      <trkpt lat="42.7536420" lon="-0.2163570">
        <ele>2191.0</ele>
        <time>2021-02-27T10:32:49Z</time>
      </trkpt>
      <trkpt lat="42.7536180" lon="-0.2163620">
        <ele>2191.2</ele>
        <time>2021-02-27T10:32:52Z</time>
      </trkpt>
      <trkpt lat="42.7536020" lon="-0.2163510">
        <ele>2191.6</ele>
        <time>2021-02-27T10:32:55Z</time>
      </trkpt>
      <trkpt lat="42.7535940" lon="-0.2163480">
        <ele>2191.6</ele>
        <time>2021-02-27T10:32:56Z</time>
      </trkpt>
      <trkpt lat="42.7535700" lon="-0.2163450">
        <ele>2192.2</ele>
        <time>2021-02-27T10:32:59Z</time>
      </trkpt>
      <trkpt lat="42.7535590" lon="-0.2163390">
        <ele>2192.6</ele>
        <time>2021-02-27T10:33:01Z</time>
      </trkpt>
      <trkpt lat="42.7535420" lon="-0.2163390">
        <ele>2193.0</ele>
        <time>2021-02-27T10:33:04Z</time>
      </trkpt>
      <trkpt lat="42.7535340" lon="-0.2163350">
        <ele>2193.2</ele>
        <time>2021-02-27T10:33:06Z</time>
      </trkpt>
      <trkpt lat="42.7535210" lon="-0.2163340">
        <ele>2193.6</ele>
        <time>2021-02-27T10:33:08Z</time>
      </trkpt>
      <trkpt lat="42.7535100" lon="-0.2163250">
        <ele>2194.0</ele>
        <time>2021-02-27T10:33:10Z</time>
      </trkpt>
      <trkpt lat="42.7535080" lon="-0.2163100">
        <ele>2194.6</ele>
        <time>2021-02-27T10:33:13Z</time>
      </trkpt>
      <trkpt lat="42.7535080" lon="-0.2163070">
        <ele>2194.8</ele>
        <time>2021-02-27T10:33:14Z</time>
      </trkpt>
      <trkpt lat="42.7535020" lon="-0.2162630">
        <ele>2195.8</ele>
        <time>2021-02-27T10:33:20Z</time>
      </trkpt>
      <trkpt lat="42.7535090" lon="-0.2162590">
        <ele>2196.0</ele>
        <time>2021-02-27T10:33:23Z</time>
      </trkpt>
      <trkpt lat="42.7535060" lon="-0.2162580">
        <ele>2196.2</ele>
        <time>2021-02-27T10:33:25Z</time>
      </trkpt>
      <trkpt lat="42.7535210" lon="-0.2162880">
        <ele>2195.8</ele>
        <time>2021-02-27T10:34:56Z</time>
      </trkpt>
      <trkpt lat="42.7535220" lon="-0.2162890">
        <ele>2196.0</ele>
        <time>2021-02-27T10:34:57Z</time>
      </trkpt>
      <trkpt lat="42.7535220" lon="-0.2162900">
        <ele>2196.2</ele>
        <time>2021-02-27T10:35:00Z</time>
      </trkpt>
      <trkpt lat="42.7535220" lon="-0.2162900">
        <ele>2196.2</ele>
        <time>2021-02-27T10:35:01Z</time>
      </trkpt>
      <trkpt lat="42.7535140" lon="-0.2162900">
        <ele>2197.0</ele>
        <time>2021-02-27T10:35:07Z</time>
      </trkpt>
      <trkpt lat="42.7535140" lon="-0.2162900">
        <ele>2198.0</ele>
        <time>2021-02-27T10:35:11Z</time>
      </trkpt>
      <trkpt lat="42.7535140" lon="-0.2162830">
        <ele>2198.6</ele>
        <time>2021-02-27T10:35:13Z</time>
      </trkpt>
      <trkpt lat="42.7534620" lon="-0.2162540">
        <ele>2199.2</ele>
        <time>2021-02-27T10:35:16Z</time>
      </trkpt>
      <trkpt lat="42.7534270" lon="-0.2162380">
        <ele>2199.8</ele>
        <time>2021-02-27T10:35:18Z</time>
      </trkpt>
      <trkpt lat="42.7534060" lon="-0.2162260">
        <ele>2200.0</ele>
        <time>2021-02-27T10:35:19Z</time>
      </trkpt>
      <trkpt lat="42.7533880" lon="-0.2162100">
        <ele>2200.2</ele>
        <time>2021-02-27T10:35:20Z</time>
      </trkpt>
      <trkpt lat="42.7533700" lon="-0.2162010">
        <ele>2200.4</ele>
        <time>2021-02-27T10:35:21Z</time>
      </trkpt>
      <trkpt lat="42.7533320" lon="-0.2161880">
        <ele>2200.6</ele>
        <time>2021-02-27T10:35:24Z</time>
      </trkpt>
      <trkpt lat="42.7533200" lon="-0.2161990">
        <ele>2200.6</ele>
        <time>2021-02-27T10:35:26Z</time>
      </trkpt>
      <trkpt lat="42.7532880" lon="-0.2162040">
        <ele>2201.4</ele>
        <time>2021-02-27T10:35:31Z</time>
      </trkpt>
      <trkpt lat="42.7532580" lon="-0.2162120">
        <ele>2202.2</ele>
        <time>2021-02-27T10:35:36Z</time>
      </trkpt>
      <trkpt lat="42.7532480" lon="-0.2162190">
        <ele>2202.4</ele>
        <time>2021-02-27T10:35:38Z</time>
      </trkpt>
      <trkpt lat="42.7532390" lon="-0.2162200">
        <ele>2202.6</ele>
        <time>2021-02-27T10:35:39Z</time>
      </trkpt>
      <trkpt lat="42.7531990" lon="-0.2162340">
        <ele>2203.4</ele>
        <time>2021-02-27T10:35:44Z</time>
      </trkpt>
      <trkpt lat="42.7531990" lon="-0.2162140">
        <ele>2203.6</ele>
        <time>2021-02-27T10:35:46Z</time>
      </trkpt>
      <trkpt lat="42.7532000" lon="-0.2161890">
        <ele>2204.2</ele>
        <time>2021-02-27T10:35:48Z</time>
      </trkpt>
      <trkpt lat="42.7531810" lon="-0.2161930">
        <ele>2204.6</ele>
        <time>2021-02-27T10:35:50Z</time>
      </trkpt>
      <trkpt lat="42.7531670" lon="-0.2161910">
        <ele>2204.8</ele>
        <time>2021-02-27T10:35:52Z</time>
      </trkpt>
      <trkpt lat="42.7531630" lon="-0.2161790">
        <ele>2205.4</ele>
        <time>2021-02-27T10:35:54Z</time>
      </trkpt>
      <trkpt lat="42.7531610" lon="-0.2161620">
        <ele>2205.6</ele>
        <time>2021-02-27T10:35:56Z</time>
      </trkpt>
      <trkpt lat="42.7531380" lon="-0.2161400">
        <ele>2206.0</ele>
        <time>2021-02-27T10:36:01Z</time>
      </trkpt>
      <trkpt lat="42.7531300" lon="-0.2161320">
        <ele>2206.4</ele>
        <time>2021-02-27T10:36:03Z</time>
      </trkpt>
      <trkpt lat="42.7531250" lon="-0.2161310">
        <ele>2206.6</ele>
        <time>2021-02-27T10:36:04Z</time>
      </trkpt>
      <trkpt lat="42.7531200" lon="-0.2161310">
        <ele>2206.6</ele>
        <time>2021-02-27T10:36:05Z</time>
      </trkpt>
      <trkpt lat="42.7530950" lon="-0.2161220">
        <ele>2207.0</ele>
        <time>2021-02-27T10:36:09Z</time>
      </trkpt>
      <trkpt lat="42.7530720" lon="-0.2161320">
        <ele>2207.6</ele>
        <time>2021-02-27T10:36:13Z</time>
      </trkpt>
      <trkpt lat="42.7530690" lon="-0.2161350">
        <ele>2207.8</ele>
        <time>2021-02-27T10:36:14Z</time>
      </trkpt>
      <trkpt lat="42.7530520" lon="-0.2161480">
        <ele>2208.2</ele>
        <time>2021-02-27T10:36:20Z</time>
      </trkpt>
      <trkpt lat="42.7530160" lon="-0.2161680">
        <ele>2208.8</ele>
        <time>2021-02-27T10:36:25Z</time>
      </trkpt>
      <trkpt lat="42.7530010" lon="-0.2161800">
        <ele>2209.0</ele>
        <time>2021-02-27T10:36:27Z</time>
      </trkpt>
      <trkpt lat="42.7529770" lon="-0.2162030">
        <ele>2209.6</ele>
        <time>2021-02-27T10:36:32Z</time>
      </trkpt>
      <trkpt lat="42.7529670" lon="-0.2162190">
        <ele>2209.8</ele>
        <time>2021-02-27T10:36:34Z</time>
      </trkpt>
      <trkpt lat="42.7529510" lon="-0.2162460">
        <ele>2210.4</ele>
        <time>2021-02-27T10:36:38Z</time>
      </trkpt>
      <trkpt lat="42.7529500" lon="-0.2162650">
        <ele>2210.8</ele>
        <time>2021-02-27T10:36:41Z</time>
      </trkpt>
      <trkpt lat="42.7529490" lon="-0.2162720">
        <ele>2210.8</ele>
        <time>2021-02-27T10:36:42Z</time>
      </trkpt>
      <trkpt lat="42.7529480" lon="-0.2162790">
        <ele>2211.0</ele>
        <time>2021-02-27T10:36:43Z</time>
      </trkpt>
      <trkpt lat="42.7529450" lon="-0.2163040">
        <ele>2211.4</ele>
        <time>2021-02-27T10:36:46Z</time>
      </trkpt>
      <trkpt lat="42.7529450" lon="-0.2163130">
        <ele>2211.6</ele>
        <time>2021-02-27T10:36:47Z</time>
      </trkpt>
      <trkpt lat="42.7529450" lon="-0.2163490">
        <ele>2211.8</ele>
        <time>2021-02-27T10:36:51Z</time>
      </trkpt>
      <trkpt lat="42.7529450" lon="-0.2163610">
        <ele>2212.0</ele>
        <time>2021-02-27T10:36:53Z</time>
      </trkpt>
      <trkpt lat="42.7529460" lon="-0.2163660">
        <ele>2212.2</ele>
        <time>2021-02-27T10:36:54Z</time>
      </trkpt>
      <trkpt lat="42.7529460" lon="-0.2163800">
        <ele>2212.2</ele>
        <time>2021-02-27T10:36:56Z</time>
      </trkpt>
      <trkpt lat="42.7529520" lon="-0.2164080">
        <ele>2212.6</ele>
        <time>2021-02-27T10:37:00Z</time>
      </trkpt>
      <trkpt lat="42.7529550" lon="-0.2164180">
        <ele>2212.8</ele>
        <time>2021-02-27T10:37:01Z</time>
      </trkpt>
      <trkpt lat="42.7529580" lon="-0.2164290">
        <ele>2213.0</ele>
        <time>2021-02-27T10:37:02Z</time>
      </trkpt>
      <trkpt lat="42.7529580" lon="-0.2164400">
        <ele>2213.0</ele>
        <time>2021-02-27T10:37:03Z</time>
      </trkpt>
      <trkpt lat="42.7529600" lon="-0.2164530">
        <ele>2213.4</ele>
        <time>2021-02-27T10:37:05Z</time>
      </trkpt>
      <trkpt lat="42.7529530" lon="-0.2164670">
        <ele>2214.0</ele>
        <time>2021-02-27T10:37:08Z</time>
      </trkpt>
      <trkpt lat="42.7529410" lon="-0.2164790">
        <ele>2214.2</ele>
        <time>2021-02-27T10:37:10Z</time>
      </trkpt>
      <trkpt lat="42.7529000" lon="-0.2164870">
        <ele>2215.0</ele>
        <time>2021-02-27T10:37:17Z</time>
      </trkpt>
      <trkpt lat="42.7528540" lon="-0.2164580">
        <ele>2216.2</ele>
        <time>2021-02-27T10:37:26Z</time>
      </trkpt>
      <trkpt lat="42.7528440" lon="-0.2164530">
        <ele>2216.4</ele>
        <time>2021-02-27T10:37:28Z</time>
      </trkpt>
      <trkpt lat="42.7528200" lon="-0.2164330">
        <ele>2217.4</ele>
        <time>2021-02-27T10:37:33Z</time>
      </trkpt>
      <trkpt lat="42.7528060" lon="-0.2164220">
        <ele>2217.6</ele>
        <time>2021-02-27T10:37:35Z</time>
      </trkpt>
      <trkpt lat="42.7528000" lon="-0.2164170">
        <ele>2217.8</ele>
        <time>2021-02-27T10:37:37Z</time>
      </trkpt>
      <trkpt lat="42.7527920" lon="-0.2164130">
        <ele>2218.2</ele>
        <time>2021-02-27T10:37:39Z</time>
      </trkpt>
      <trkpt lat="42.7527800" lon="-0.2164060">
        <ele>2218.6</ele>
        <time>2021-02-27T10:37:41Z</time>
      </trkpt>
      <trkpt lat="42.7527430" lon="-0.2163900">
        <ele>2219.2</ele>
        <time>2021-02-27T10:37:47Z</time>
      </trkpt>
      <trkpt lat="42.7527400" lon="-0.2163870">
        <ele>2219.4</ele>
        <time>2021-02-27T10:37:48Z</time>
      </trkpt>
      <trkpt lat="42.7527360" lon="-0.2163860">
        <ele>2219.6</ele>
        <time>2021-02-27T10:37:49Z</time>
      </trkpt>
      <trkpt lat="42.7527230" lon="-0.2163800">
        <ele>2220.2</ele>
        <time>2021-02-27T10:37:52Z</time>
      </trkpt>
      <trkpt lat="42.7527150" lon="-0.2163770">
        <ele>2220.2</ele>
        <time>2021-02-27T10:37:54Z</time>
      </trkpt>
      <trkpt lat="42.7527140" lon="-0.2163750">
        <ele>2220.4</ele>
        <time>2021-02-27T10:37:55Z</time>
      </trkpt>
      <trkpt lat="42.7527100" lon="-0.2163720">
        <ele>2220.8</ele>
        <time>2021-02-27T10:37:57Z</time>
      </trkpt>
      <trkpt lat="42.7526970" lon="-0.2163630">
        <ele>2221.2</ele>
        <time>2021-02-27T10:38:00Z</time>
      </trkpt>
      <trkpt lat="42.7526820" lon="-0.2163510">
        <ele>2221.8</ele>
        <time>2021-02-27T10:38:05Z</time>
      </trkpt>
      <trkpt lat="42.7526650" lon="-0.2163420">
        <ele>2222.4</ele>
        <time>2021-02-27T10:38:10Z</time>
      </trkpt>
      <trkpt lat="42.7526440" lon="-0.2163240">
        <ele>2222.6</ele>
        <time>2021-02-27T10:38:15Z</time>
      </trkpt>
      <trkpt lat="42.7526360" lon="-0.2163160">
        <ele>2222.8</ele>
        <time>2021-02-27T10:38:17Z</time>
      </trkpt>
      <trkpt lat="42.7526300" lon="-0.2163150">
        <ele>2223.0</ele>
        <time>2021-02-27T10:38:19Z</time>
      </trkpt>
      <trkpt lat="42.7526400" lon="-0.2163230">
        <ele>2254.8</ele>
        <time>2021-02-27T10:38:31Z</time>
      </trkpt>
      <trkpt lat="42.7526400" lon="-0.2163230">
        <ele>2254.8</ele>
        <time>2021-02-27T10:38:34Z</time>
      </trkpt>
      <trkpt lat="42.7526400" lon="-0.2163230">
        <ele>2254.8</ele>
        <time>2021-02-27T10:38:37Z</time>
      </trkpt>
      <trkpt lat="42.7526360" lon="-0.2163220">
        <ele>2254.8</ele>
        <time>2021-02-27T10:38:46Z</time>
      </trkpt>
      <trkpt lat="42.7525870" lon="-0.2162920">
        <ele>2254.8</ele>
        <time>2021-02-27T10:39:03Z</time>
      </trkpt>
      <trkpt lat="42.7525580" lon="-0.2162790">
        <ele>2254.8</ele>
        <time>2021-02-27T10:39:10Z</time>
      </trkpt>
      <trkpt lat="42.7524790" lon="-0.2162380">
        <ele>2254.8</ele>
        <time>2021-02-27T10:39:24Z</time>
      </trkpt>
      <trkpt lat="42.7524510" lon="-0.2162140">
        <ele>2254.8</ele>
        <time>2021-02-27T10:39:26Z</time>
      </trkpt>
      <trkpt lat="42.7524190" lon="-0.2161980">
        <ele>2255.0</ele>
        <time>2021-02-27T10:39:28Z</time>
      </trkpt>
      <trkpt lat="42.7523490" lon="-0.2161240">
        <ele>2255.8</ele>
        <time>2021-02-27T10:39:35Z</time>
      </trkpt>
      <trkpt lat="42.7523390" lon="-0.2161210">
        <ele>2256.0</ele>
        <time>2021-02-27T10:39:37Z</time>
      </trkpt>
      <trkpt lat="42.7523340" lon="-0.2161180">
        <ele>2256.0</ele>
        <time>2021-02-27T10:39:38Z</time>
      </trkpt>
      <trkpt lat="42.7523110" lon="-0.2161020">
        <ele>2256.6</ele>
        <time>2021-02-27T10:39:42Z</time>
      </trkpt>
      <trkpt lat="42.7523000" lon="-0.2160920">
        <ele>2256.8</ele>
        <time>2021-02-27T10:39:44Z</time>
      </trkpt>
      <trkpt lat="42.7522950" lon="-0.2160850">
        <ele>2257.0</ele>
        <time>2021-02-27T10:39:45Z</time>
      </trkpt>
      <trkpt lat="42.7522800" lon="-0.2160720">
        <ele>2257.4</ele>
        <time>2021-02-27T10:39:48Z</time>
      </trkpt>
      <trkpt lat="42.7522660" lon="-0.2160420">
        <ele>2257.8</ele>
        <time>2021-02-27T10:39:53Z</time>
      </trkpt>
      <trkpt lat="42.7522560" lon="-0.2160310">
        <ele>2258.0</ele>
        <time>2021-02-27T10:39:55Z</time>
      </trkpt>
      <trkpt lat="42.7522500" lon="-0.2160250">
        <ele>2258.0</ele>
        <time>2021-02-27T10:39:56Z</time>
      </trkpt>
      <trkpt lat="42.7522230" lon="-0.2160050">
        <ele>2258.6</ele>
        <time>2021-02-27T10:40:00Z</time>
      </trkpt>
      <trkpt lat="42.7522070" lon="-0.2159920">
        <ele>2259.0</ele>
        <time>2021-02-27T10:40:03Z</time>
      </trkpt>
      <trkpt lat="42.7522010" lon="-0.2159860">
        <ele>2259.0</ele>
        <time>2021-02-27T10:40:04Z</time>
      </trkpt>
      <trkpt lat="42.7521950" lon="-0.2159820">
        <ele>2259.2</ele>
        <time>2021-02-27T10:40:05Z</time>
      </trkpt>
      <trkpt lat="42.7521510" lon="-0.2159410">
        <ele>2259.6</ele>
        <time>2021-02-27T10:40:12Z</time>
      </trkpt>
      <trkpt lat="42.7521440" lon="-0.2159360">
        <ele>2259.8</ele>
        <time>2021-02-27T10:40:13Z</time>
      </trkpt>
      <trkpt lat="42.7521300" lon="-0.2159290">
        <ele>2259.8</ele>
        <time>2021-02-27T10:40:15Z</time>
      </trkpt>
      <trkpt lat="42.7520990" lon="-0.2159090">
        <ele>2260.2</ele>
        <time>2021-02-27T10:40:20Z</time>
      </trkpt>
      <trkpt lat="42.7520790" lon="-0.2158880">
        <ele>2260.2</ele>
        <time>2021-02-27T10:40:23Z</time>
      </trkpt>
      <trkpt lat="42.7520530" lon="-0.2158750">
        <ele>2260.4</ele>
        <time>2021-02-27T10:40:26Z</time>
      </trkpt>
      <trkpt lat="42.7519670" lon="-0.2158550">
        <ele>2261.0</ele>
        <time>2021-02-27T10:40:37Z</time>
      </trkpt>
      <trkpt lat="42.7519490" lon="-0.2158550">
        <ele>2261.2</ele>
        <time>2021-02-27T10:40:39Z</time>
      </trkpt>
      <trkpt lat="42.7519280" lon="-0.2158350">
        <ele>2261.2</ele>
        <time>2021-02-27T10:40:43Z</time>
      </trkpt>
      <trkpt lat="42.7519220" lon="-0.2158280">
        <ele>2261.2</ele>
        <time>2021-02-27T10:40:44Z</time>
      </trkpt>
      <trkpt lat="42.7518900" lon="-0.2158120">
        <ele>2262.2</ele>
        <time>2021-02-27T10:40:49Z</time>
      </trkpt>
      <trkpt lat="42.7518760" lon="-0.2158110">
        <ele>2262.4</ele>
        <time>2021-02-27T10:40:51Z</time>
      </trkpt>
      <trkpt lat="42.7518160" lon="-0.2158020">
        <ele>2263.2</ele>
        <time>2021-02-27T10:40:59Z</time>
      </trkpt>
      <trkpt lat="42.7518100" lon="-0.2158010">
        <ele>2263.4</ele>
        <time>2021-02-27T10:41:00Z</time>
      </trkpt>
      <trkpt lat="42.7517920" lon="-0.2158040">
        <ele>2263.6</ele>
        <time>2021-02-27T10:41:03Z</time>
      </trkpt>
      <trkpt lat="42.7517680" lon="-0.2157960">
        <ele>2264.2</ele>
        <time>2021-02-27T10:41:09Z</time>
      </trkpt>
      <trkpt lat="42.7517350" lon="-0.2157960">
        <ele>2265.4</ele>
        <time>2021-02-27T10:41:16Z</time>
      </trkpt>
      <trkpt lat="42.7517020" lon="-0.2157870">
        <ele>2266.4</ele>
        <time>2021-02-27T10:41:23Z</time>
      </trkpt>
      <trkpt lat="42.7517010" lon="-0.2157860">
        <ele>2266.6</ele>
        <time>2021-02-27T10:41:24Z</time>
      </trkpt>
      <trkpt lat="42.7516970" lon="-0.2157810">
        <ele>2266.8</ele>
        <time>2021-02-27T10:41:26Z</time>
      </trkpt>
      <trkpt lat="42.7516740" lon="-0.2157700">
        <ele>2267.4</ele>
        <time>2021-02-27T10:41:32Z</time>
      </trkpt>
      <trkpt lat="42.7516650" lon="-0.2157660">
        <ele>2268.0</ele>
        <time>2021-02-27T10:41:34Z</time>
      </trkpt>
      <trkpt lat="42.7516570" lon="-0.2157590">
        <ele>2268.6</ele>
        <time>2021-02-27T10:41:38Z</time>
      </trkpt>
      <trkpt lat="42.7516540" lon="-0.2157590">
        <ele>2268.8</ele>
        <time>2021-02-27T10:41:40Z</time>
      </trkpt>
      <trkpt lat="42.7516500" lon="-0.2157580">
        <ele>2269.4</ele>
        <time>2021-02-27T10:41:50Z</time>
      </trkpt>
      <trkpt lat="42.7516500" lon="-0.2157580">
        <ele>2269.6</ele>
        <time>2021-02-27T10:41:58Z</time>
      </trkpt>
      <trkpt lat="42.7516360" lon="-0.2157550">
        <ele>2270.6</ele>
        <time>2021-02-27T10:42:08Z</time>
      </trkpt>
      <trkpt lat="42.7516340" lon="-0.2157540">
        <ele>2271.0</ele>
        <time>2021-02-27T10:42:10Z</time>
      </trkpt>
      <trkpt lat="42.7516280" lon="-0.2157530">
        <ele>2271.8</ele>
        <time>2021-02-27T10:42:14Z</time>
      </trkpt>
      <trkpt lat="42.7516120" lon="-0.2157410">
        <ele>2272.8</ele>
        <time>2021-02-27T10:42:19Z</time>
      </trkpt>
      <trkpt lat="42.7515970" lon="-0.2157160">
        <ele>2273.6</ele>
        <time>2021-02-27T10:42:24Z</time>
      </trkpt>
      <trkpt lat="42.7515820" lon="-0.2156980">
        <ele>2274.0</ele>
        <time>2021-02-27T10:42:27Z</time>
      </trkpt>
      <trkpt lat="42.7515710" lon="-0.2156820">
        <ele>2274.0</ele>
        <time>2021-02-27T10:42:30Z</time>
      </trkpt>
      <trkpt lat="42.7515510" lon="-0.2156640">
        <ele>2274.2</ele>
        <time>2021-02-27T10:42:34Z</time>
      </trkpt>
      <trkpt lat="42.7515320" lon="-0.2156550">
        <ele>2274.8</ele>
        <time>2021-02-27T10:42:38Z</time>
      </trkpt>
      <trkpt lat="42.7515290" lon="-0.2156480">
        <ele>2275.0</ele>
        <time>2021-02-27T10:42:40Z</time>
      </trkpt>
      <trkpt lat="42.7515200" lon="-0.2156320">
        <ele>2276.2</ele>
        <time>2021-02-27T10:42:49Z</time>
      </trkpt>
      <trkpt lat="42.7515060" lon="-0.2155810">
        <ele>2276.8</ele>
        <time>2021-02-27T10:42:57Z</time>
      </trkpt>
      <trkpt lat="42.7514800" lon="-0.2155400">
        <ele>2276.6</ele>
        <time>2021-02-27T10:43:04Z</time>
      </trkpt>
      <trkpt lat="42.7514600" lon="-0.2155130">
        <ele>2276.6</ele>
        <time>2021-02-27T10:43:09Z</time>
      </trkpt>
      <trkpt lat="42.7514340" lon="-0.2154790">
        <ele>2277.0</ele>
        <time>2021-02-27T10:43:14Z</time>
      </trkpt>
      <trkpt lat="42.7514220" lon="-0.2154450">
        <ele>2277.4</ele>
        <time>2021-02-27T10:43:16Z</time>
      </trkpt>
      <trkpt lat="42.7514160" lon="-0.2154330">
        <ele>2277.6</ele>
        <time>2021-02-27T10:43:17Z</time>
      </trkpt>
      <trkpt lat="42.7513970" lon="-0.2153510">
        <ele>2278.6</ele>
        <time>2021-02-27T10:43:22Z</time>
      </trkpt>
      <trkpt lat="42.7514020" lon="-0.2153190">
        <ele>2279.2</ele>
        <time>2021-02-27T10:43:25Z</time>
      </trkpt>
      <trkpt lat="42.7514050" lon="-0.2153010">
        <ele>2279.8</ele>
        <time>2021-02-27T10:43:28Z</time>
      </trkpt>
      <trkpt lat="42.7514010" lon="-0.2152890">
        <ele>2280.0</ele>
        <time>2021-02-27T10:43:30Z</time>
      </trkpt>
      <trkpt lat="42.7514000" lon="-0.2152480">
        <ele>2280.4</ele>
        <time>2021-02-27T10:43:35Z</time>
      </trkpt>
      <trkpt lat="42.7513980" lon="-0.2152490">
        <ele>2280.8</ele>
        <time>2021-02-27T10:43:37Z</time>
      </trkpt>
      <trkpt lat="42.7513990" lon="-0.2152450">
        <ele>2281.0</ele>
        <time>2021-02-27T10:43:44Z</time>
      </trkpt>
      <trkpt lat="42.7513990" lon="-0.2152460">
        <ele>2281.2</ele>
        <time>2021-02-27T10:43:57Z</time>
      </trkpt>
      <trkpt lat="42.7513990" lon="-0.2152460">
        <ele>2281.8</ele>
        <time>2021-02-27T10:44:04Z</time>
      </trkpt>
      <trkpt lat="42.7514090" lon="-0.2151500">
        <ele>2282.2</ele>
        <time>2021-02-27T10:44:29Z</time>
      </trkpt>
      <trkpt lat="42.7514090" lon="-0.2151500">
        <ele>2282.4</ele>
        <time>2021-02-27T10:44:30Z</time>
      </trkpt>
      <trkpt lat="42.7514090" lon="-0.2151490">
        <ele>2282.8</ele>
        <time>2021-02-27T10:44:34Z</time>
      </trkpt>
      <trkpt lat="42.7514090" lon="-0.2151490">
        <ele>2282.8</ele>
        <time>2021-02-27T10:44:35Z</time>
      </trkpt>
      <trkpt lat="42.7514090" lon="-0.2151460">
        <ele>2283.0</ele>
        <time>2021-02-27T10:44:44Z</time>
      </trkpt>
      <trkpt lat="42.7514750" lon="-0.2151210">
        <ele>2282.6</ele>
        <time>2021-02-27T10:44:53Z</time>
      </trkpt>
      <trkpt lat="42.7515030" lon="-0.2151160">
        <ele>2282.2</ele>
        <time>2021-02-27T10:44:55Z</time>
      </trkpt>
      <trkpt lat="42.7515170" lon="-0.2151140">
        <ele>2281.8</ele>
        <time>2021-02-27T10:44:56Z</time>
      </trkpt>
      <trkpt lat="42.7515460" lon="-0.2151040">
        <ele>2281.0</ele>
        <time>2021-02-27T10:44:58Z</time>
      </trkpt>
      <trkpt lat="42.7515600" lon="-0.2150950">
        <ele>2280.4</ele>
        <time>2021-02-27T10:44:59Z</time>
      </trkpt>
      <trkpt lat="42.7515760" lon="-0.2150790">
        <ele>2279.4</ele>
        <time>2021-02-27T10:45:01Z</time>
      </trkpt>
      <trkpt lat="42.7515820" lon="-0.2150700">
        <ele>2278.8</ele>
        <time>2021-02-27T10:45:02Z</time>
      </trkpt>
      <trkpt lat="42.7515940" lon="-0.2150510">
        <ele>2278.0</ele>
        <time>2021-02-27T10:45:04Z</time>
      </trkpt>
      <trkpt lat="42.7516190" lon="-0.2150220">
        <ele>2276.6</ele>
        <time>2021-02-27T10:45:07Z</time>
      </trkpt>
      <trkpt lat="42.7516290" lon="-0.2150020">
        <ele>2275.4</ele>
        <time>2021-02-27T10:45:09Z</time>
      </trkpt>
      <trkpt lat="42.7516370" lon="-0.2149880">
        <ele>2274.8</ele>
        <time>2021-02-27T10:45:11Z</time>
      </trkpt>
      <trkpt lat="42.7516430" lon="-0.2149850">
        <ele>2274.6</ele>
        <time>2021-02-27T10:45:12Z</time>
      </trkpt>
      <trkpt lat="42.7516580" lon="-0.2149760">
        <ele>2274.4</ele>
        <time>2021-02-27T10:45:14Z</time>
      </trkpt>
      <trkpt lat="42.7516740" lon="-0.2149430">
        <ele>2274.6</ele>
        <time>2021-02-27T10:45:18Z</time>
      </trkpt>
      <trkpt lat="42.7516860" lon="-0.2149060">
        <ele>2274.8</ele>
        <time>2021-02-27T10:45:22Z</time>
      </trkpt>
      <trkpt lat="42.7516970" lon="-0.2148760">
        <ele>2275.0</ele>
        <time>2021-02-27T10:45:25Z</time>
      </trkpt>
      <trkpt lat="42.7517000" lon="-0.2148690">
        <ele>2275.0</ele>
        <time>2021-02-27T10:45:26Z</time>
      </trkpt>
      <trkpt lat="42.7517030" lon="-0.2148620">
        <ele>2275.0</ele>
        <time>2021-02-27T10:45:27Z</time>
      </trkpt>
      <trkpt lat="42.7517070" lon="-0.2148540">
        <ele>2275.4</ele>
        <time>2021-02-27T10:45:30Z</time>
      </trkpt>
      <trkpt lat="42.7517050" lon="-0.2148480">
        <ele>2275.4</ele>
        <time>2021-02-27T10:45:33Z</time>
      </trkpt>
      <trkpt lat="42.7517010" lon="-0.2148520">
        <ele>2275.2</ele>
        <time>2021-02-27T10:45:39Z</time>
      </trkpt>
      <trkpt lat="42.7516560" lon="-0.2148150">
        <ele>2275.2</ele>
        <time>2021-02-27T10:45:53Z</time>
      </trkpt>
      <trkpt lat="42.7516390" lon="-0.2147970">
        <ele>2275.2</ele>
        <time>2021-02-27T10:45:55Z</time>
      </trkpt>
      <trkpt lat="42.7516140" lon="-0.2147730">
        <ele>2275.2</ele>
        <time>2021-02-27T10:46:01Z</time>
      </trkpt>
      <trkpt lat="42.7516170" lon="-0.2147760">
        <ele>2275.6</ele>
        <time>2021-02-27T10:46:06Z</time>
      </trkpt>
      <trkpt lat="42.7516160" lon="-0.2147750">
        <ele>2275.8</ele>
        <time>2021-02-27T10:46:11Z</time>
      </trkpt>
      <trkpt lat="42.7516160" lon="-0.2147750">
        <ele>2275.8</ele>
        <time>2021-02-27T10:46:14Z</time>
      </trkpt>
      <trkpt lat="42.7516160" lon="-0.2147750">
        <ele>2275.8</ele>
        <time>2021-02-27T10:46:15Z</time>
      </trkpt>
      <trkpt lat="42.7516160" lon="-0.2147740">
        <ele>2276.2</ele>
        <time>2021-02-27T10:46:25Z</time>
      </trkpt>
      <trkpt lat="42.7516160" lon="-0.2147740">
        <ele>2276.2</ele>
        <time>2021-02-27T10:46:27Z</time>
      </trkpt>
      <trkpt lat="42.7516170" lon="-0.2147760">
        <ele>2276.4</ele>
        <time>2021-02-27T10:46:37Z</time>
      </trkpt>
      <trkpt lat="42.7516170" lon="-0.2147760">
        <ele>2276.6</ele>
        <time>2021-02-27T10:46:42Z</time>
      </trkpt>
      <trkpt lat="42.7516170" lon="-0.2147760">
        <ele>2276.6</ele>
        <time>2021-02-27T10:46:49Z</time>
      </trkpt>
      <trkpt lat="42.7516170" lon="-0.2147740">
        <ele>2276.2</ele>
        <time>2021-02-27T10:46:56Z</time>
      </trkpt>
      <trkpt lat="42.7516200" lon="-0.2147710">
        <ele>2276.0</ele>
        <time>2021-02-27T10:47:04Z</time>
      </trkpt>
      <trkpt lat="42.7516250" lon="-0.2147600">
        <ele>2276.0</ele>
        <time>2021-02-27T10:47:16Z</time>
      </trkpt>
      <trkpt lat="42.7516250" lon="-0.2147500">
        <ele>2276.0</ele>
        <time>2021-02-27T10:47:22Z</time>
      </trkpt>
      <trkpt lat="42.7516250" lon="-0.2147500">
        <ele>2276.0</ele>
        <time>2021-02-27T10:47:24Z</time>
      </trkpt>
      <trkpt lat="42.7516260" lon="-0.2147490">
        <ele>2275.8</ele>
        <time>2021-02-27T10:47:31Z</time>
      </trkpt>
      <trkpt lat="42.7516260" lon="-0.2147460">
        <ele>2275.4</ele>
        <time>2021-02-27T10:47:36Z</time>
      </trkpt>
      <trkpt lat="42.7516240" lon="-0.2147480">
        <ele>2274.8</ele>
        <time>2021-02-27T10:47:49Z</time>
      </trkpt>
      <trkpt lat="42.7516240" lon="-0.2147490">
        <ele>2275.0</ele>
        <time>2021-02-27T10:48:00Z</time>
      </trkpt>
      <trkpt lat="42.7516240" lon="-0.2147520">
        <ele>2275.2</ele>
        <time>2021-02-27T10:48:02Z</time>
      </trkpt>
      <trkpt lat="42.7516220" lon="-0.2147550">
        <ele>2276.4</ele>
        <time>2021-02-27T10:48:13Z</time>
      </trkpt>
      <trkpt lat="42.7516220" lon="-0.2147560">
        <ele>2276.6</ele>
        <time>2021-02-27T10:48:15Z</time>
      </trkpt>
      <trkpt lat="42.7516230" lon="-0.2147570">
        <ele>2276.6</ele>
        <time>2021-02-27T10:48:16Z</time>
      </trkpt>
      <trkpt lat="42.7516240" lon="-0.2147570">
        <ele>2276.8</ele>
        <time>2021-02-27T10:48:18Z</time>
      </trkpt>
      <trkpt lat="42.7516250" lon="-0.2147580">
        <ele>2276.8</ele>
        <time>2021-02-27T10:48:21Z</time>
      </trkpt>
      <trkpt lat="42.7516270" lon="-0.2147600">
        <ele>2277.0</ele>
        <time>2021-02-27T10:48:24Z</time>
      </trkpt>
      <trkpt lat="42.7516300" lon="-0.2147800">
        <ele>2277.0</ele>
        <time>2021-02-27T10:48:31Z</time>
      </trkpt>
      <trkpt lat="42.7516300" lon="-0.2147900">
        <ele>2276.2</ele>
        <time>2021-02-27T10:48:40Z</time>
      </trkpt>
      <trkpt lat="42.7516190" lon="-0.2147920">
        <ele>2276.2</ele>
        <time>2021-02-27T10:48:53Z</time>
      </trkpt>
      <trkpt lat="42.7516210" lon="-0.2147930">
        <ele>2276.8</ele>
        <time>2021-02-27T10:49:03Z</time>
      </trkpt>
      <trkpt lat="42.7516210" lon="-0.2147930">
        <ele>2276.8</ele>
        <time>2021-02-27T10:49:04Z</time>
      </trkpt>
      <trkpt lat="42.7516530" lon="-0.2148080">
        <ele>2276.8</ele>
        <time>2021-02-27T10:49:20Z</time>
      </trkpt>
      <trkpt lat="42.7516540" lon="-0.2148090">
        <ele>2276.8</ele>
        <time>2021-02-27T10:49:21Z</time>
      </trkpt>
      <trkpt lat="42.7516580" lon="-0.2148130">
        <ele>2277.0</ele>
        <time>2021-02-27T10:49:37Z</time>
      </trkpt>
      <trkpt lat="42.7516590" lon="-0.2148130">
        <ele>2277.0</ele>
        <time>2021-02-27T10:49:42Z</time>
      </trkpt>
      <trkpt lat="42.7516590" lon="-0.2148140">
        <ele>2277.0</ele>
        <time>2021-02-27T10:49:57Z</time>
      </trkpt>
      <trkpt lat="42.7516600" lon="-0.2148140">
        <ele>2277.0</ele>
        <time>2021-02-27T10:50:01Z</time>
      </trkpt>
      <trkpt lat="42.7516600" lon="-0.2148140">
        <ele>2276.8</ele>
        <time>2021-02-27T10:50:04Z</time>
      </trkpt>
      <trkpt lat="42.7516600" lon="-0.2148140">
        <ele>2276.6</ele>
        <time>2021-02-27T10:50:17Z</time>
      </trkpt>
      <trkpt lat="42.7516660" lon="-0.2148180">
        <ele>2276.8</ele>
        <time>2021-02-27T10:51:38Z</time>
      </trkpt>
      <trkpt lat="42.7516660" lon="-0.2148190">
        <ele>2276.8</ele>
        <time>2021-02-27T10:51:39Z</time>
      </trkpt>
      <trkpt lat="42.7516660" lon="-0.2148190">
        <ele>2276.8</ele>
        <time>2021-02-27T10:51:43Z</time>
      </trkpt>
      <trkpt lat="42.7517170" lon="-0.2147810">
        <ele>2277.2</ele>
        <time>2021-02-27T10:51:51Z</time>
      </trkpt>
      <trkpt lat="42.7517450" lon="-0.2147520">
        <ele>2277.2</ele>
        <time>2021-02-27T10:51:53Z</time>
      </trkpt>
      <trkpt lat="42.7517840" lon="-0.2147110">
        <ele>2277.2</ele>
        <time>2021-02-27T10:51:56Z</time>
      </trkpt>
      <trkpt lat="42.7518070" lon="-0.2146720">
        <ele>2277.6</ele>
        <time>2021-02-27T10:52:01Z</time>
      </trkpt>
      <trkpt lat="42.7518180" lon="-0.2146470">
        <ele>2277.8</ele>
        <time>2021-02-27T10:52:04Z</time>
      </trkpt>
      <trkpt lat="42.7518400" lon="-0.2146220">
        <ele>2278.4</ele>
        <time>2021-02-27T10:52:09Z</time>
      </trkpt>
      <trkpt lat="42.7518520" lon="-0.2146020">
        <ele>2278.6</ele>
        <time>2021-02-27T10:52:11Z</time>
      </trkpt>
      <trkpt lat="42.7518590" lon="-0.2145950">
        <ele>2279.0</ele>
        <time>2021-02-27T10:52:13Z</time>
      </trkpt>
      <trkpt lat="42.7518830" lon="-0.2145840">
        <ele>2279.4</ele>
        <time>2021-02-27T10:52:17Z</time>
      </trkpt>
      <trkpt lat="42.7519000" lon="-0.2145860">
        <ele>2279.8</ele>
        <time>2021-02-27T10:52:19Z</time>
      </trkpt>
      <trkpt lat="42.7519200" lon="-0.2145910">
        <ele>2280.2</ele>
        <time>2021-02-27T10:52:22Z</time>
      </trkpt>
      <trkpt lat="42.7519330" lon="-0.2145950">
        <ele>2280.4</ele>
        <time>2021-02-27T10:52:24Z</time>
      </trkpt>
      <trkpt lat="42.7519460" lon="-0.2146010">
        <ele>2280.8</ele>
        <time>2021-02-27T10:52:26Z</time>
      </trkpt>
      <trkpt lat="42.7519530" lon="-0.2146050">
        <ele>2281.0</ele>
        <time>2021-02-27T10:52:27Z</time>
      </trkpt>
      <trkpt lat="42.7519760" lon="-0.2146250">
        <ele>2281.4</ele>
        <time>2021-02-27T10:52:31Z</time>
      </trkpt>
      <trkpt lat="42.7519830" lon="-0.2146290">
        <ele>2281.6</ele>
        <time>2021-02-27T10:52:32Z</time>
      </trkpt>
      <trkpt lat="42.7519870" lon="-0.2146340">
        <ele>2281.8</ele>
        <time>2021-02-27T10:52:33Z</time>
      </trkpt>
      <trkpt lat="42.7519900" lon="-0.2146390">
        <ele>2281.8</ele>
        <time>2021-02-27T10:52:34Z</time>
      </trkpt>
      <trkpt lat="42.7520040" lon="-0.2146490">
        <ele>2282.0</ele>
        <time>2021-02-27T10:52:36Z</time>
      </trkpt>
      <trkpt lat="42.7520120" lon="-0.2146560">
        <ele>2282.2</ele>
        <time>2021-02-27T10:52:38Z</time>
      </trkpt>
      <trkpt lat="42.7520200" lon="-0.2146680">
        <ele>2282.8</ele>
        <time>2021-02-27T10:52:40Z</time>
      </trkpt>
      <trkpt lat="42.7520240" lon="-0.2146730">
        <ele>2283.0</ele>
        <time>2021-02-27T10:52:41Z</time>
      </trkpt>
      <trkpt lat="42.7520350" lon="-0.2147020">
        <ele>2283.4</ele>
        <time>2021-02-27T10:52:46Z</time>
      </trkpt>
      <trkpt lat="42.7520380" lon="-0.2147090">
        <ele>2283.6</ele>
        <time>2021-02-27T10:52:47Z</time>
      </trkpt>
      <trkpt lat="42.7520500" lon="-0.2147450">
        <ele>2284.2</ele>
        <time>2021-02-27T10:52:52Z</time>
      </trkpt>
      <trkpt lat="42.7520500" lon="-0.2147580">
        <ele>2284.4</ele>
        <time>2021-02-27T10:52:54Z</time>
      </trkpt>
      <trkpt lat="42.7520570" lon="-0.2147700">
        <ele>2284.8</ele>
        <time>2021-02-27T10:52:56Z</time>
      </trkpt>
      <trkpt lat="42.7520630" lon="-0.2147890">
        <ele>2285.2</ele>
        <time>2021-02-27T10:52:59Z</time>
      </trkpt>
      <trkpt lat="42.7520760" lon="-0.2148210">
        <ele>2286.2</ele>
        <time>2021-02-27T10:53:04Z</time>
      </trkpt>
      <trkpt lat="42.7520820" lon="-0.2148330">
        <ele>2286.6</ele>
        <time>2021-02-27T10:53:06Z</time>
      </trkpt>
      <trkpt lat="42.7520870" lon="-0.2148550">
        <ele>2286.8</ele>
        <time>2021-02-27T10:53:09Z</time>
      </trkpt>
      <trkpt lat="42.7520930" lon="-0.2148740">
        <ele>2287.0</ele>
        <time>2021-02-27T10:53:11Z</time>
      </trkpt>
      <trkpt lat="42.7520990" lon="-0.2148920">
        <ele>2287.4</ele>
        <time>2021-02-27T10:53:14Z</time>
      </trkpt>
      <trkpt lat="42.7521050" lon="-0.2148960">
        <ele>2287.6</ele>
        <time>2021-02-27T10:53:16Z</time>
      </trkpt>
      <trkpt lat="42.7520920" lon="-0.2149070">
        <ele>2288.2</ele>
        <time>2021-02-27T10:53:23Z</time>
      </trkpt>
      <trkpt lat="42.7521120" lon="-0.2149180">
        <ele>2288.4</ele>
        <time>2021-02-27T10:53:27Z</time>
      </trkpt>
      <trkpt lat="42.7521380" lon="-0.2149530">
        <ele>2289.0</ele>
        <time>2021-02-27T10:53:32Z</time>
      </trkpt>
      <trkpt lat="42.7521500" lon="-0.2149780">
        <ele>2289.4</ele>
        <time>2021-02-27T10:53:34Z</time>
      </trkpt>
      <trkpt lat="42.7521800" lon="-0.2150070">
        <ele>2290.2</ele>
        <time>2021-02-27T10:53:40Z</time>
      </trkpt>
      <trkpt lat="42.7522060" lon="-0.2150160">
        <ele>2290.6</ele>
        <time>2021-02-27T10:53:44Z</time>
      </trkpt>
      <trkpt lat="42.7522410" lon="-0.2150220">
        <ele>2291.0</ele>
        <time>2021-02-27T10:53:49Z</time>
      </trkpt>
      <trkpt lat="42.7522700" lon="-0.2150180">
        <ele>2291.6</ele>
        <time>2021-02-27T10:53:53Z</time>
      </trkpt>
      <trkpt lat="42.7522830" lon="-0.2150170">
        <ele>2292.0</ele>
        <time>2021-02-27T10:53:55Z</time>
      </trkpt>
      <trkpt lat="42.7522970" lon="-0.2150090">
        <ele>2292.2</ele>
        <time>2021-02-27T10:53:57Z</time>
      </trkpt>
      <trkpt lat="42.7523290" lon="-0.2150070">
        <ele>2292.8</ele>
        <time>2021-02-27T10:54:02Z</time>
      </trkpt>
      <trkpt lat="42.7523560" lon="-0.2150180">
        <ele>2293.2</ele>
        <time>2021-02-27T10:54:06Z</time>
      </trkpt>
      <trkpt lat="42.7523730" lon="-0.2150200">
        <ele>2293.8</ele>
        <time>2021-02-27T10:54:09Z</time>
      </trkpt>
      <trkpt lat="42.7523890" lon="-0.2149860">
        <ele>2294.8</ele>
        <time>2021-02-27T10:54:14Z</time>
      </trkpt>
      <trkpt lat="42.7523860" lon="-0.2149750">
        <ele>2294.8</ele>
        <time>2021-02-27T10:54:15Z</time>
      </trkpt>
      <trkpt lat="42.7523850" lon="-0.2149600">
        <ele>2295.2</ele>
        <time>2021-02-27T10:54:17Z</time>
      </trkpt>
      <trkpt lat="42.7523930" lon="-0.2149250">
        <ele>2296.0</ele>
        <time>2021-02-27T10:54:21Z</time>
      </trkpt>
      <trkpt lat="42.7523970" lon="-0.2149060">
        <ele>2296.6</ele>
        <time>2021-02-27T10:54:23Z</time>
      </trkpt>
      <trkpt lat="42.7524050" lon="-0.2148910">
        <ele>2297.2</ele>
        <time>2021-02-27T10:54:26Z</time>
      </trkpt>
      <trkpt lat="42.7524110" lon="-0.2148790">
        <ele>2298.2</ele>
        <time>2021-02-27T10:54:29Z</time>
      </trkpt>
      <trkpt lat="42.7524250" lon="-0.2148650">
        <ele>2299.4</ele>
        <time>2021-02-27T10:54:33Z</time>
      </trkpt>
      <trkpt lat="42.7524290" lon="-0.2148610">
        <ele>2299.6</ele>
        <time>2021-02-27T10:54:34Z</time>
      </trkpt>
      <trkpt lat="42.7524410" lon="-0.2148530">
        <ele>2300.4</ele>
        <time>2021-02-27T10:54:38Z</time>
      </trkpt>
      <trkpt lat="42.7524580" lon="-0.2148350">
        <ele>2301.4</ele>
        <time>2021-02-27T10:54:42Z</time>
      </trkpt>
      <trkpt lat="42.7524620" lon="-0.2148340">
        <ele>2301.6</ele>
        <time>2021-02-27T10:54:43Z</time>
      </trkpt>
      <trkpt lat="42.7524720" lon="-0.2148250">
        <ele>2301.8</ele>
        <time>2021-02-27T10:54:45Z</time>
      </trkpt>
      <trkpt lat="42.7525000" lon="-0.2148080">
        <ele>2302.6</ele>
        <time>2021-02-27T10:54:50Z</time>
      </trkpt>
      <trkpt lat="42.7525170" lon="-0.2147850">
        <ele>2303.4</ele>
        <time>2021-02-27T10:54:54Z</time>
      </trkpt>
      <trkpt lat="42.7525220" lon="-0.2147670">
        <ele>2303.6</ele>
        <time>2021-02-27T10:54:56Z</time>
      </trkpt>
      <trkpt lat="42.7525290" lon="-0.2147230">
        <ele>2304.8</ele>
        <time>2021-02-27T10:55:02Z</time>
      </trkpt>
      <trkpt lat="42.7525450" lon="-0.2146960">
        <ele>2306.0</ele>
        <time>2021-02-27T10:55:07Z</time>
      </trkpt>
      <trkpt lat="42.7525530" lon="-0.2146790">
        <ele>2306.6</ele>
        <time>2021-02-27T10:55:10Z</time>
      </trkpt>
      <trkpt lat="42.7525530" lon="-0.2146720">
        <ele>2307.0</ele>
        <time>2021-02-27T10:55:11Z</time>
      </trkpt>
      <trkpt lat="42.7525610" lon="-0.2146430">
        <ele>2308.0</ele>
        <time>2021-02-27T10:55:16Z</time>
      </trkpt>
      <trkpt lat="42.7525720" lon="-0.2146170">
        <ele>2308.8</ele>
        <time>2021-02-27T10:55:20Z</time>
      </trkpt>
      <trkpt lat="42.7525760" lon="-0.2146030">
        <ele>2309.2</ele>
        <time>2021-02-27T10:55:22Z</time>
      </trkpt>
      <trkpt lat="42.7525940" lon="-0.2145720">
        <ele>2310.4</ele>
        <time>2021-02-27T10:55:28Z</time>
      </trkpt>
      <trkpt lat="42.7525990" lon="-0.2145700">
        <ele>2310.6</ele>
        <time>2021-02-27T10:55:29Z</time>
      </trkpt>
      <trkpt lat="42.7526120" lon="-0.2145630">
        <ele>2311.4</ele>
        <time>2021-02-27T10:55:32Z</time>
      </trkpt>
      <trkpt lat="42.7526460" lon="-0.2145670">
        <ele>2312.4</ele>
        <time>2021-02-27T10:55:38Z</time>
      </trkpt>
      <trkpt lat="42.7526530" lon="-0.2145630">
        <ele>2312.6</ele>
        <time>2021-02-27T10:55:39Z</time>
      </trkpt>
      <trkpt lat="42.7526610" lon="-0.2145430">
        <ele>2313.0</ele>
        <time>2021-02-27T10:55:42Z</time>
      </trkpt>
      <trkpt lat="42.7526560" lon="-0.2145210">
        <ele>2313.6</ele>
        <time>2021-02-27T10:55:45Z</time>
      </trkpt>
      <trkpt lat="42.7526510" lon="-0.2145070">
        <ele>2314.2</ele>
        <time>2021-02-27T10:55:47Z</time>
      </trkpt>
      <trkpt lat="42.7526490" lon="-0.2145020">
        <ele>2314.6</ele>
        <time>2021-02-27T10:55:48Z</time>
      </trkpt>
      <trkpt lat="42.7526460" lon="-0.2144950">
        <ele>2314.8</ele>
        <time>2021-02-27T10:55:49Z</time>
      </trkpt>
      <trkpt lat="42.7526350" lon="-0.2144770">
        <ele>2315.2</ele>
        <time>2021-02-27T10:55:52Z</time>
      </trkpt>
      <trkpt lat="42.7526370" lon="-0.2144600">
        <ele>2315.8</ele>
        <time>2021-02-27T10:55:55Z</time>
      </trkpt>
      <trkpt lat="42.7526370" lon="-0.2144530">
        <ele>2316.4</ele>
        <time>2021-02-27T10:55:59Z</time>
      </trkpt>
      <trkpt lat="42.7526330" lon="-0.2144550">
        <ele>2316.2</ele>
        <time>2021-02-27T10:56:15Z</time>
      </trkpt>
      <trkpt lat="42.7526330" lon="-0.2144530">
        <ele>2316.2</ele>
        <time>2021-02-27T10:56:18Z</time>
      </trkpt>
      <trkpt lat="42.7526330" lon="-0.2144510">
        <ele>2317.0</ele>
        <time>2021-02-27T10:56:22Z</time>
      </trkpt>
      <trkpt lat="42.7526320" lon="-0.2144460">
        <ele>2317.4</ele>
        <time>2021-02-27T10:56:30Z</time>
      </trkpt>
      <trkpt lat="42.7526280" lon="-0.2144270">
        <ele>2317.6</ele>
        <time>2021-02-27T10:56:35Z</time>
      </trkpt>
      <trkpt lat="42.7526190" lon="-0.2144120">
        <ele>2318.0</ele>
        <time>2021-02-27T10:56:44Z</time>
      </trkpt>
      <trkpt lat="42.7526190" lon="-0.2144110">
        <ele>2319.0</ele>
        <time>2021-02-27T10:56:48Z</time>
      </trkpt>
      <trkpt lat="42.7526190" lon="-0.2144090">
        <ele>2320.0</ele>
        <time>2021-02-27T10:56:51Z</time>
      </trkpt>
      <trkpt lat="42.7526190" lon="-0.2144080">
        <ele>2320.4</ele>
        <time>2021-02-27T10:56:53Z</time>
      </trkpt>
      <trkpt lat="42.7526190" lon="-0.2143970">
        <ele>2321.2</ele>
        <time>2021-02-27T10:56:56Z</time>
      </trkpt>
      <trkpt lat="42.7526210" lon="-0.2143650">
        <ele>2322.6</ele>
        <time>2021-02-27T10:57:01Z</time>
      </trkpt>
      <trkpt lat="42.7526240" lon="-0.2143480">
        <ele>2323.6</ele>
        <time>2021-02-27T10:57:04Z</time>
      </trkpt>
      <trkpt lat="42.7526260" lon="-0.2143290">
        <ele>2324.8</ele>
        <time>2021-02-27T10:57:08Z</time>
      </trkpt>
      <trkpt lat="42.7526350" lon="-0.2143130">
        <ele>2325.4</ele>
        <time>2021-02-27T10:57:11Z</time>
      </trkpt>
      <trkpt lat="42.7526420" lon="-0.2142980">
        <ele>2325.8</ele>
        <time>2021-02-27T10:57:14Z</time>
      </trkpt>
      <trkpt lat="42.7526720" lon="-0.2142850">
        <ele>2326.8</ele>
        <time>2021-02-27T10:57:21Z</time>
      </trkpt>
      <trkpt lat="42.7527030" lon="-0.2142810">
        <ele>2328.0</ele>
        <time>2021-02-27T10:57:27Z</time>
      </trkpt>
      <trkpt lat="42.7527350" lon="-0.2142780">
        <ele>2329.0</ele>
        <time>2021-02-27T10:57:35Z</time>
      </trkpt>
      <trkpt lat="42.7527400" lon="-0.2142500">
        <ele>2330.2</ele>
        <time>2021-02-27T10:57:43Z</time>
      </trkpt>
      <trkpt lat="42.7527450" lon="-0.2142250">
        <ele>2331.2</ele>
        <time>2021-02-27T10:57:50Z</time>
      </trkpt>
      <trkpt lat="42.7527570" lon="-0.2142210">
        <ele>2332.4</ele>
        <time>2021-02-27T10:57:57Z</time>
      </trkpt>
      <trkpt lat="42.7527670" lon="-0.2142200">
        <ele>2332.8</ele>
        <time>2021-02-27T10:57:59Z</time>
      </trkpt>
      <trkpt lat="42.7527780" lon="-0.2142200">
        <ele>2333.2</ele>
        <time>2021-02-27T10:58:01Z</time>
      </trkpt>
      <trkpt lat="42.7527820" lon="-0.2142190">
        <ele>2333.4</ele>
        <time>2021-02-27T10:58:02Z</time>
      </trkpt>
      <trkpt lat="42.7527880" lon="-0.2142190">
        <ele>2333.6</ele>
        <time>2021-02-27T10:58:03Z</time>
      </trkpt>
      <trkpt lat="42.7527980" lon="-0.2142180">
        <ele>2334.0</ele>
        <time>2021-02-27T10:58:05Z</time>
      </trkpt>
      <trkpt lat="42.7528130" lon="-0.2142110">
        <ele>2334.6</ele>
        <time>2021-02-27T10:58:08Z</time>
      </trkpt>
      <trkpt lat="42.7528190" lon="-0.2142090">
        <ele>2334.8</ele>
        <time>2021-02-27T10:58:09Z</time>
      </trkpt>
      <trkpt lat="42.7528340" lon="-0.2142030">
        <ele>2335.8</ele>
        <time>2021-02-27T10:58:12Z</time>
      </trkpt>
      <trkpt lat="42.7528480" lon="-0.2141970">
        <ele>2336.6</ele>
        <time>2021-02-27T10:58:15Z</time>
      </trkpt>
      <trkpt lat="42.7528560" lon="-0.2141900">
        <ele>2337.0</ele>
        <time>2021-02-27T10:58:17Z</time>
      </trkpt>
      <trkpt lat="42.7528600" lon="-0.2141680">
        <ele>2338.0</ele>
        <time>2021-02-27T10:58:21Z</time>
      </trkpt>
      <trkpt lat="42.7528610" lon="-0.2141470">
        <ele>2338.8</ele>
        <time>2021-02-27T10:58:24Z</time>
      </trkpt>
      <trkpt lat="42.7528610" lon="-0.2141340">
        <ele>2339.2</ele>
        <time>2021-02-27T10:58:26Z</time>
      </trkpt>
      <trkpt lat="42.7528610" lon="-0.2141100">
        <ele>2340.4</ele>
        <time>2021-02-27T10:58:30Z</time>
      </trkpt>
      <trkpt lat="42.7528550" lon="-0.2140760">
        <ele>2341.4</ele>
        <time>2021-02-27T10:58:36Z</time>
      </trkpt>
      <trkpt lat="42.7528420" lon="-0.2140470">
        <ele>2342.4</ele>
        <time>2021-02-27T10:58:42Z</time>
      </trkpt>
      <trkpt lat="42.7528180" lon="-0.2140200">
        <ele>2343.6</ele>
        <time>2021-02-27T10:58:49Z</time>
      </trkpt>
      <trkpt lat="42.7527940" lon="-0.2140000">
        <ele>2344.6</ele>
        <time>2021-02-27T10:58:55Z</time>
      </trkpt>
      <trkpt lat="42.7527700" lon="-0.2139700">
        <ele>2345.8</ele>
        <time>2021-02-27T10:59:03Z</time>
      </trkpt>
      <trkpt lat="42.7527570" lon="-0.2139330">
        <ele>2346.8</ele>
        <time>2021-02-27T10:59:12Z</time>
      </trkpt>
      <trkpt lat="42.7527540" lon="-0.2139210">
        <ele>2348.0</ele>
        <time>2021-02-27T10:59:16Z</time>
      </trkpt>
      <trkpt lat="42.7527580" lon="-0.2139040">
        <ele>2349.0</ele>
        <time>2021-02-27T10:59:19Z</time>
      </trkpt>
      <trkpt lat="42.7527980" lon="-0.2138350">
        <ele>2349.6</ele>
        <time>2021-02-27T10:59:23Z</time>
      </trkpt>
      <trkpt lat="42.7528130" lon="-0.2138000">
        <ele>2350.2</ele>
        <time>2021-02-27T10:59:25Z</time>
      </trkpt>
      <trkpt lat="42.7528260" lon="-0.2137670">
        <ele>2350.8</ele>
        <time>2021-02-27T10:59:27Z</time>
      </trkpt>
      <trkpt lat="42.7528350" lon="-0.2137460">
        <ele>2351.4</ele>
        <time>2021-02-27T10:59:29Z</time>
      </trkpt>
      <trkpt lat="42.7528390" lon="-0.2137420">
        <ele>2351.6</ele>
        <time>2021-02-27T10:59:30Z</time>
      </trkpt>
      <trkpt lat="42.7528520" lon="-0.2137340">
        <ele>2352.2</ele>
        <time>2021-02-27T10:59:32Z</time>
      </trkpt>
      <trkpt lat="42.7528570" lon="-0.2137310">
        <ele>2352.4</ele>
        <time>2021-02-27T10:59:33Z</time>
      </trkpt>
      <trkpt lat="42.7528600" lon="-0.2137280">
        <ele>2352.6</ele>
        <time>2021-02-27T10:59:34Z</time>
      </trkpt>
      <trkpt lat="42.7528660" lon="-0.2137240">
        <ele>2353.0</ele>
        <time>2021-02-27T10:59:36Z</time>
      </trkpt>
      <trkpt lat="42.7528710" lon="-0.2137220">
        <ele>2353.2</ele>
        <time>2021-02-27T10:59:37Z</time>
      </trkpt>
      <trkpt lat="42.7528840" lon="-0.2137180">
        <ele>2353.8</ele>
        <time>2021-02-27T10:59:39Z</time>
      </trkpt>
      <trkpt lat="42.7528980" lon="-0.2137070">
        <ele>2354.6</ele>
        <time>2021-02-27T10:59:42Z</time>
      </trkpt>
      <trkpt lat="42.7529020" lon="-0.2137020">
        <ele>2354.8</ele>
        <time>2021-02-27T10:59:43Z</time>
      </trkpt>
      <trkpt lat="42.7529160" lon="-0.2136920">
        <ele>2355.4</ele>
        <time>2021-02-27T10:59:46Z</time>
      </trkpt>
      <trkpt lat="42.7529210" lon="-0.2136890">
        <ele>2355.6</ele>
        <time>2021-02-27T10:59:47Z</time>
      </trkpt>
      <trkpt lat="42.7529320" lon="-0.2136830">
        <ele>2356.0</ele>
        <time>2021-02-27T10:59:49Z</time>
      </trkpt>
      <trkpt lat="42.7529430" lon="-0.2136760">
        <ele>2356.4</ele>
        <time>2021-02-27T10:59:51Z</time>
      </trkpt>
      <trkpt lat="42.7529600" lon="-0.2136690">
        <ele>2357.0</ele>
        <time>2021-02-27T10:59:54Z</time>
      </trkpt>
      <trkpt lat="42.7529650" lon="-0.2136680">
        <ele>2357.2</ele>
        <time>2021-02-27T10:59:55Z</time>
      </trkpt>
      <trkpt lat="42.7529760" lon="-0.2136620">
        <ele>2357.8</ele>
        <time>2021-02-27T10:59:58Z</time>
      </trkpt>
      <trkpt lat="42.7529790" lon="-0.2136560">
        <ele>2358.2</ele>
        <time>2021-02-27T10:59:59Z</time>
      </trkpt>
      <trkpt lat="42.7529830" lon="-0.2136510">
        <ele>2358.2</ele>
        <time>2021-02-27T11:00:00Z</time>
      </trkpt>
      <trkpt lat="42.7529930" lon="-0.2136440">
        <ele>2358.6</ele>
        <time>2021-02-27T11:00:02Z</time>
      </trkpt>
      <trkpt lat="42.7530070" lon="-0.2136140">
        <ele>2359.4</ele>
        <time>2021-02-27T11:00:07Z</time>
      </trkpt>
      <trkpt lat="42.7530100" lon="-0.2136050">
        <ele>2359.6</ele>
        <time>2021-02-27T11:00:08Z</time>
      </trkpt>
      <trkpt lat="42.7530240" lon="-0.2135920">
        <ele>2360.6</ele>
        <time>2021-02-27T11:00:12Z</time>
      </trkpt>
      <trkpt lat="42.7530330" lon="-0.2135860">
        <ele>2361.0</ele>
        <time>2021-02-27T11:00:14Z</time>
      </trkpt>
      <trkpt lat="42.7530570" lon="-0.2135600">
        <ele>2361.6</ele>
        <time>2021-02-27T11:00:19Z</time>
      </trkpt>
      <trkpt lat="42.7530660" lon="-0.2135330">
        <ele>2362.6</ele>
        <time>2021-02-27T11:00:23Z</time>
      </trkpt>
      <trkpt lat="42.7530670" lon="-0.2135250">
        <ele>2362.8</ele>
        <time>2021-02-27T11:00:24Z</time>
      </trkpt>
      <trkpt lat="42.7530670" lon="-0.2135180">
        <ele>2363.0</ele>
        <time>2021-02-27T11:00:25Z</time>
      </trkpt>
      <trkpt lat="42.7530650" lon="-0.2134930">
        <ele>2364.0</ele>
        <time>2021-02-27T11:00:28Z</time>
      </trkpt>
      <trkpt lat="42.7530660" lon="-0.2134850">
        <ele>2364.2</ele>
        <time>2021-02-27T11:00:29Z</time>
      </trkpt>
      <trkpt lat="42.7530620" lon="-0.2134630">
        <ele>2365.0</ele>
        <time>2021-02-27T11:00:33Z</time>
      </trkpt>
      <trkpt lat="42.7530630" lon="-0.2134550">
        <ele>2365.2</ele>
        <time>2021-02-27T11:00:34Z</time>
      </trkpt>
      <trkpt lat="42.7530640" lon="-0.2134510">
        <ele>2365.4</ele>
        <time>2021-02-27T11:00:35Z</time>
      </trkpt>
      <trkpt lat="42.7530710" lon="-0.2134410">
        <ele>2365.8</ele>
        <time>2021-02-27T11:00:37Z</time>
      </trkpt>
      <trkpt lat="42.7530740" lon="-0.2134350">
        <ele>2366.2</ele>
        <time>2021-02-27T11:00:38Z</time>
      </trkpt>
      <trkpt lat="42.7530820" lon="-0.2134190">
        <ele>2366.8</ele>
        <time>2021-02-27T11:00:41Z</time>
      </trkpt>
      <trkpt lat="42.7530840" lon="-0.2134110">
        <ele>2367.0</ele>
        <time>2021-02-27T11:00:42Z</time>
      </trkpt>
      <trkpt lat="42.7530870" lon="-0.2134040">
        <ele>2367.4</ele>
        <time>2021-02-27T11:00:43Z</time>
      </trkpt>
      <trkpt lat="42.7530890" lon="-0.2133970">
        <ele>2367.6</ele>
        <time>2021-02-27T11:00:44Z</time>
      </trkpt>
      <trkpt lat="42.7530950" lon="-0.2133870">
        <ele>2368.2</ele>
        <time>2021-02-27T11:00:46Z</time>
      </trkpt>
      <trkpt lat="42.7530980" lon="-0.2133800">
        <ele>2368.4</ele>
        <time>2021-02-27T11:00:47Z</time>
      </trkpt>
      <trkpt lat="42.7531100" lon="-0.2133640">
        <ele>2369.2</ele>
        <time>2021-02-27T11:00:50Z</time>
      </trkpt>
      <trkpt lat="42.7531120" lon="-0.2133510">
        <ele>2369.6</ele>
        <time>2021-02-27T11:00:52Z</time>
      </trkpt>
      <trkpt lat="42.7531150" lon="-0.2133450">
        <ele>2370.0</ele>
        <time>2021-02-27T11:00:53Z</time>
      </trkpt>
      <trkpt lat="42.7531250" lon="-0.2133220">
        <ele>2370.6</ele>
        <time>2021-02-27T11:00:57Z</time>
      </trkpt>
      <trkpt lat="42.7531270" lon="-0.2133180">
        <ele>2370.8</ele>
        <time>2021-02-27T11:00:58Z</time>
      </trkpt>
      <trkpt lat="42.7531390" lon="-0.2132990">
        <ele>2372.2</ele>
        <time>2021-02-27T11:01:02Z</time>
      </trkpt>
      <trkpt lat="42.7531520" lon="-0.2132780">
        <ele>2373.2</ele>
        <time>2021-02-27T11:01:06Z</time>
      </trkpt>
      <trkpt lat="42.7531610" lon="-0.2132650">
        <ele>2373.6</ele>
        <time>2021-02-27T11:01:08Z</time>
      </trkpt>
      <trkpt lat="42.7531650" lon="-0.2132470">
        <ele>2374.4</ele>
        <time>2021-02-27T11:01:11Z</time>
      </trkpt>
      <trkpt lat="42.7531710" lon="-0.2132150">
        <ele>2375.4</ele>
        <time>2021-02-27T11:01:16Z</time>
      </trkpt>
      <trkpt lat="42.7531770" lon="-0.2131960">
        <ele>2376.2</ele>
        <time>2021-02-27T11:01:20Z</time>
      </trkpt>
      <trkpt lat="42.7531850" lon="-0.2131880">
        <ele>2376.6</ele>
        <time>2021-02-27T11:01:22Z</time>
      </trkpt>
      <trkpt lat="42.7531990" lon="-0.2131690">
        <ele>2377.8</ele>
        <time>2021-02-27T11:01:26Z</time>
      </trkpt>
      <trkpt lat="42.7532240" lon="-0.2131610">
        <ele>2378.2</ele>
        <time>2021-02-27T11:01:31Z</time>
      </trkpt>
      <trkpt lat="42.7532230" lon="-0.2131570">
        <ele>2378.4</ele>
        <time>2021-02-27T11:01:33Z</time>
      </trkpt>
      <trkpt lat="42.7532320" lon="-0.2131910">
        <ele>2378.2</ele>
        <time>2021-02-27T11:08:14Z</time>
      </trkpt>
      <trkpt lat="42.7532320" lon="-0.2131910">
        <ele>2378.6</ele>
        <time>2021-02-27T11:08:15Z</time>
      </trkpt>
      <trkpt lat="42.7532310" lon="-0.2131900">
        <ele>2378.0</ele>
        <time>2021-02-27T11:08:17Z</time>
      </trkpt>
      <trkpt lat="42.7532310" lon="-0.2131890">
        <ele>2378.0</ele>
        <time>2021-02-27T11:08:18Z</time>
      </trkpt>
      <trkpt lat="42.7532280" lon="-0.2131850">
        <ele>2379.0</ele>
        <time>2021-02-27T11:08:24Z</time>
      </trkpt>
      <trkpt lat="42.7532280" lon="-0.2131840">
        <ele>2379.6</ele>
        <time>2021-02-27T11:08:27Z</time>
      </trkpt>
      <trkpt lat="42.7532280" lon="-0.2131720">
        <ele>2380.2</ele>
        <time>2021-02-27T11:08:29Z</time>
      </trkpt>
      <trkpt lat="42.7532320" lon="-0.2131540">
        <ele>2380.2</ele>
        <time>2021-02-27T11:08:30Z</time>
      </trkpt>
      <trkpt lat="42.7532350" lon="-0.2131350">
        <ele>2380.4</ele>
        <time>2021-02-27T11:08:31Z</time>
      </trkpt>
      <trkpt lat="42.7532480" lon="-0.2130080">
        <ele>2381.2</ele>
        <time>2021-02-27T11:08:37Z</time>
      </trkpt>
      <trkpt lat="42.7532480" lon="-0.2129870">
        <ele>2381.4</ele>
        <time>2021-02-27T11:08:38Z</time>
      </trkpt>
      <trkpt lat="42.7532490" lon="-0.2129780">
        <ele>2381.6</ele>
        <time>2021-02-27T11:08:39Z</time>
      </trkpt>
      <trkpt lat="42.7532510" lon="-0.2129500">
        <ele>2382.4</ele>
        <time>2021-02-27T11:08:43Z</time>
      </trkpt>
      <trkpt lat="42.7532580" lon="-0.2129240">
        <ele>2383.4</ele>
        <time>2021-02-27T11:08:48Z</time>
      </trkpt>
      <trkpt lat="42.7532570" lon="-0.2129130">
        <ele>2383.4</ele>
        <time>2021-02-27T11:08:49Z</time>
      </trkpt>
      <trkpt lat="42.7532570" lon="-0.2129090">
        <ele>2383.6</ele>
        <time>2021-02-27T11:08:50Z</time>
      </trkpt>
      <trkpt lat="42.7532720" lon="-0.2128760">
        <ele>2384.4</ele>
        <time>2021-02-27T11:08:54Z</time>
      </trkpt>
      <trkpt lat="42.7532800" lon="-0.2128260">
        <ele>2385.2</ele>
        <time>2021-02-27T11:09:01Z</time>
      </trkpt>
      <trkpt lat="42.7532830" lon="-0.2128210">
        <ele>2385.4</ele>
        <time>2021-02-27T11:09:02Z</time>
      </trkpt>
      <trkpt lat="42.7532880" lon="-0.2127740">
        <ele>2386.6</ele>
        <time>2021-02-27T11:09:08Z</time>
      </trkpt>
      <trkpt lat="42.7532910" lon="-0.2127570">
        <ele>2386.8</ele>
        <time>2021-02-27T11:09:10Z</time>
      </trkpt>
      <trkpt lat="42.7532940" lon="-0.2127470">
        <ele>2387.0</ele>
        <time>2021-02-27T11:09:11Z</time>
      </trkpt>
      <trkpt lat="42.7532930" lon="-0.2127370">
        <ele>2387.0</ele>
        <time>2021-02-27T11:09:12Z</time>
      </trkpt>
      <trkpt lat="42.7532940" lon="-0.2127220">
        <ele>2387.0</ele>
        <time>2021-02-27T11:09:14Z</time>
      </trkpt>
      <trkpt lat="42.7532970" lon="-0.2126920">
        <ele>2387.8</ele>
        <time>2021-02-27T11:09:17Z</time>
      </trkpt>
      <trkpt lat="42.7532990" lon="-0.2126720">
        <ele>2388.2</ele>
        <time>2021-02-27T11:09:20Z</time>
      </trkpt>
      <trkpt lat="42.7532910" lon="-0.2126460">
        <ele>2388.2</ele>
        <time>2021-02-27T11:09:23Z</time>
      </trkpt>
      <trkpt lat="42.7532860" lon="-0.2126230">
        <ele>2389.0</ele>
        <time>2021-02-27T11:09:26Z</time>
      </trkpt>
      <trkpt lat="42.7532810" lon="-0.2126000">
        <ele>2389.6</ele>
        <time>2021-02-27T11:09:29Z</time>
      </trkpt>
      <trkpt lat="42.7532820" lon="-0.2125920">
        <ele>2389.8</ele>
        <time>2021-02-27T11:09:30Z</time>
      </trkpt>
      <trkpt lat="42.7532750" lon="-0.2125640">
        <ele>2390.0</ele>
        <time>2021-02-27T11:09:33Z</time>
      </trkpt>
      <trkpt lat="42.7532700" lon="-0.2125410">
        <ele>2390.8</ele>
        <time>2021-02-27T11:09:36Z</time>
      </trkpt>
      <trkpt lat="42.7532590" lon="-0.2125050">
        <ele>2391.0</ele>
        <time>2021-02-27T11:09:40Z</time>
      </trkpt>
      <trkpt lat="42.7532540" lon="-0.2124940">
        <ele>2391.2</ele>
        <time>2021-02-27T11:09:41Z</time>
      </trkpt>
      <trkpt lat="42.7532360" lon="-0.2124670">
        <ele>2391.6</ele>
        <time>2021-02-27T11:09:45Z</time>
      </trkpt>
      <trkpt lat="42.7532040" lon="-0.2124450">
        <ele>2392.0</ele>
        <time>2021-02-27T11:09:49Z</time>
      </trkpt>
      <trkpt lat="42.7531950" lon="-0.2124370">
        <ele>2392.0</ele>
        <time>2021-02-27T11:09:50Z</time>
      </trkpt>
      <trkpt lat="42.7531900" lon="-0.2124230">
        <ele>2392.4</ele>
        <time>2021-02-27T11:09:52Z</time>
      </trkpt>
      <trkpt lat="42.7531850" lon="-0.2123790">
        <ele>2393.0</ele>
        <time>2021-02-27T11:09:56Z</time>
      </trkpt>
      <trkpt lat="42.7531820" lon="-0.2123580">
        <ele>2393.2</ele>
        <time>2021-02-27T11:09:58Z</time>
      </trkpt>
      <trkpt lat="42.7531810" lon="-0.2123490">
        <ele>2393.4</ele>
        <time>2021-02-27T11:09:59Z</time>
      </trkpt>
      <trkpt lat="42.7531790" lon="-0.2123270">
        <ele>2393.8</ele>
        <time>2021-02-27T11:10:01Z</time>
      </trkpt>
      <trkpt lat="42.7531900" lon="-0.2122850">
        <ele>2394.2</ele>
        <time>2021-02-27T11:10:06Z</time>
      </trkpt>
      <trkpt lat="42.7531910" lon="-0.2122760">
        <ele>2394.2</ele>
        <time>2021-02-27T11:10:07Z</time>
      </trkpt>
      <trkpt lat="42.7531900" lon="-0.2122380">
        <ele>2394.6</ele>
        <time>2021-02-27T11:10:11Z</time>
      </trkpt>
      <trkpt lat="42.7531900" lon="-0.2122190">
        <ele>2394.6</ele>
        <time>2021-02-27T11:10:13Z</time>
      </trkpt>
      <trkpt lat="42.7531900" lon="-0.2121990">
        <ele>2394.4</ele>
        <time>2021-02-27T11:10:15Z</time>
      </trkpt>
      <trkpt lat="42.7531930" lon="-0.2121900">
        <ele>2394.4</ele>
        <time>2021-02-27T11:10:16Z</time>
      </trkpt>
      <trkpt lat="42.7531920" lon="-0.2121630">
        <ele>2394.4</ele>
        <time>2021-02-27T11:10:21Z</time>
      </trkpt>
      <trkpt lat="42.7531920" lon="-0.2121610">
        <ele>2394.4</ele>
        <time>2021-02-27T11:10:22Z</time>
      </trkpt>
      <trkpt lat="42.7531910" lon="-0.2121580">
        <ele>2394.8</ele>
        <time>2021-02-27T11:10:24Z</time>
      </trkpt>
      <trkpt lat="42.7531910" lon="-0.2121600">
        <ele>2394.8</ele>
        <time>2021-02-27T11:10:26Z</time>
      </trkpt>
      <trkpt lat="42.7531920" lon="-0.2121510">
        <ele>2394.6</ele>
        <time>2021-02-27T11:10:28Z</time>
      </trkpt>
      <trkpt lat="42.7531650" lon="-0.2121280">
        <ele>2394.2</ele>
        <time>2021-02-27T11:10:31Z</time>
      </trkpt>
      <trkpt lat="42.7531440" lon="-0.2121130">
        <ele>2393.8</ele>
        <time>2021-02-27T11:10:34Z</time>
      </trkpt>
      <trkpt lat="42.7531130" lon="-0.2120920">
        <ele>2394.0</ele>
        <time>2021-02-27T11:10:38Z</time>
      </trkpt>
      <trkpt lat="42.7530970" lon="-0.2120860">
        <ele>2394.0</ele>
        <time>2021-02-27T11:10:40Z</time>
      </trkpt>
      <trkpt lat="42.7530020" lon="-0.2120640">
        <ele>2394.6</ele>
        <time>2021-02-27T11:10:51Z</time>
      </trkpt>
      <trkpt lat="42.7529870" lon="-0.2120620">
        <ele>2394.4</ele>
        <time>2021-02-27T11:10:53Z</time>
      </trkpt>
      <trkpt lat="42.7529310" lon="-0.2120500">
        <ele>2394.4</ele>
        <time>2021-02-27T11:10:59Z</time>
      </trkpt>
      <trkpt lat="42.7528620" lon="-0.2120240">
        <ele>2393.4</ele>
        <time>2021-02-27T11:11:08Z</time>
      </trkpt>
      <trkpt lat="42.7528440" lon="-0.2120120">
        <ele>2394.6</ele>
        <time>2021-02-27T11:11:16Z</time>
      </trkpt>
      <trkpt lat="42.7528340" lon="-0.2120140">
        <ele>2394.4</ele>
        <time>2021-02-27T11:11:20Z</time>
      </trkpt>
      <trkpt lat="42.7528340" lon="-0.2120140">
        <ele>2393.2</ele>
        <time>2021-02-27T11:11:25Z</time>
      </trkpt>
      <trkpt lat="42.7528340" lon="-0.2120140">
        <ele>2393.0</ele>
        <time>2021-02-27T11:11:26Z</time>
      </trkpt>
      <trkpt lat="42.7528330" lon="-0.2120110">
        <ele>2392.8</ele>
        <time>2021-02-27T11:11:28Z</time>
      </trkpt>
      <trkpt lat="42.7528100" lon="-0.2119970">
        <ele>2392.6</ele>
        <time>2021-02-27T11:11:30Z</time>
      </trkpt>
      <trkpt lat="42.7527830" lon="-0.2119760">
        <ele>2392.2</ele>
        <time>2021-02-27T11:11:32Z</time>
      </trkpt>
      <trkpt lat="42.7527700" lon="-0.2119660">
        <ele>2391.8</ele>
        <time>2021-02-27T11:11:33Z</time>
      </trkpt>
      <trkpt lat="42.7527450" lon="-0.2119520">
        <ele>2389.8</ele>
        <time>2021-02-27T11:11:35Z</time>
      </trkpt>
      <trkpt lat="42.7527190" lon="-0.2119370">
        <ele>2388.2</ele>
        <time>2021-02-27T11:11:37Z</time>
      </trkpt>
      <trkpt lat="42.7527000" lon="-0.2119240">
        <ele>2387.4</ele>
        <time>2021-02-27T11:11:39Z</time>
      </trkpt>
      <trkpt lat="42.7526900" lon="-0.2119170">
        <ele>2387.0</ele>
        <time>2021-02-27T11:11:40Z</time>
      </trkpt>
      <trkpt lat="42.7526710" lon="-0.2119070">
        <ele>2386.6</ele>
        <time>2021-02-27T11:11:42Z</time>
      </trkpt>
      <trkpt lat="42.7526560" lon="-0.2119000">
        <ele>2386.4</ele>
        <time>2021-02-27T11:11:44Z</time>
      </trkpt>
      <trkpt lat="42.7526450" lon="-0.2118990">
        <ele>2386.4</ele>
        <time>2021-02-27T11:11:45Z</time>
      </trkpt>
      <trkpt lat="42.7526150" lon="-0.2118880">
        <ele>2386.4</ele>
        <time>2021-02-27T11:11:50Z</time>
      </trkpt>
      <trkpt lat="42.7525920" lon="-0.2118730">
        <ele>2386.4</ele>
        <time>2021-02-27T11:11:54Z</time>
      </trkpt>
      <trkpt lat="42.7525850" lon="-0.2118700">
        <ele>2386.4</ele>
        <time>2021-02-27T11:11:55Z</time>
      </trkpt>
      <trkpt lat="42.7525630" lon="-0.2118640">
        <ele>2386.4</ele>
        <time>2021-02-27T11:11:57Z</time>
      </trkpt>
      <trkpt lat="42.7525320" lon="-0.2118390">
        <ele>2386.2</ele>
        <time>2021-02-27T11:12:02Z</time>
      </trkpt>
      <trkpt lat="42.7525180" lon="-0.2118260">
        <ele>2386.0</ele>
        <time>2021-02-27T11:12:04Z</time>
      </trkpt>
      <trkpt lat="42.7524990" lon="-0.2118110">
        <ele>2386.2</ele>
        <time>2021-02-27T11:12:08Z</time>
      </trkpt>
      <trkpt lat="42.7524970" lon="-0.2118060">
        <ele>2386.2</ele>
        <time>2021-02-27T11:12:09Z</time>
      </trkpt>
      <trkpt lat="42.7524890" lon="-0.2117940">
        <ele>2386.4</ele>
        <time>2021-02-27T11:12:11Z</time>
      </trkpt>
      <trkpt lat="42.7524920" lon="-0.2117980">
        <ele>2386.6</ele>
        <time>2021-02-27T11:12:12Z</time>
      </trkpt>
      <trkpt lat="42.7525000" lon="-0.2118330">
        <ele>2387.0</ele>
        <time>2021-02-27T11:12:17Z</time>
      </trkpt>
      <trkpt lat="42.7525060" lon="-0.2118350">
        <ele>2387.0</ele>
        <time>2021-02-27T11:12:21Z</time>
      </trkpt>
      <trkpt lat="42.7525050" lon="-0.2118350">
        <ele>2387.4</ele>
        <time>2021-02-27T11:12:32Z</time>
      </trkpt>
      <trkpt lat="42.7525050" lon="-0.2118350">
        <ele>2386.8</ele>
        <time>2021-02-27T11:12:40Z</time>
      </trkpt>
      <trkpt lat="42.7525070" lon="-0.2118380">
        <ele>2387.2</ele>
        <time>2021-02-27T11:12:47Z</time>
      </trkpt>
      <trkpt lat="42.7525060" lon="-0.2118470">
        <ele>2388.0</ele>
        <time>2021-02-27T11:13:02Z</time>
      </trkpt>
      <trkpt lat="42.7525010" lon="-0.2118500">
        <ele>2387.4</ele>
        <time>2021-02-27T11:13:07Z</time>
      </trkpt>
      <trkpt lat="42.7524870" lon="-0.2118510">
        <ele>2387.6</ele>
        <time>2021-02-27T11:13:10Z</time>
      </trkpt>
      <trkpt lat="42.7524820" lon="-0.2118510">
        <ele>2387.8</ele>
        <time>2021-02-27T11:13:12Z</time>
      </trkpt>
      <trkpt lat="42.7524810" lon="-0.2118510">
        <ele>2388.0</ele>
        <time>2021-02-27T11:13:13Z</time>
      </trkpt>
      <trkpt lat="42.7524810" lon="-0.2118510">
        <ele>2388.2</ele>
        <time>2021-02-27T11:13:14Z</time>
      </trkpt>
      <trkpt lat="42.7524810" lon="-0.2118520">
        <ele>2388.4</ele>
        <time>2021-02-27T11:13:16Z</time>
      </trkpt>
      <trkpt lat="42.7524810" lon="-0.2118520">
        <ele>2387.0</ele>
        <time>2021-02-27T11:13:21Z</time>
      </trkpt>
      <trkpt lat="42.7524810" lon="-0.2118530">
        <ele>2385.6</ele>
        <time>2021-02-27T11:13:23Z</time>
      </trkpt>
      <trkpt lat="42.7524800" lon="-0.2118530">
        <ele>2385.2</ele>
        <time>2021-02-27T11:13:25Z</time>
      </trkpt>
      <trkpt lat="42.7524780" lon="-0.2118520">
        <ele>2385.4</ele>
        <time>2021-02-27T11:13:29Z</time>
      </trkpt>
      <trkpt lat="42.7524770" lon="-0.2118510">
        <ele>2386.8</ele>
        <time>2021-02-27T11:13:32Z</time>
      </trkpt>
      <trkpt lat="42.7524770" lon="-0.2118510">
        <ele>2386.8</ele>
        <time>2021-02-27T11:13:35Z</time>
      </trkpt>
      <trkpt lat="42.7523900" lon="-0.2118090">
        <ele>2386.8</ele>
        <time>2021-02-27T11:13:41Z</time>
      </trkpt>
      <trkpt lat="42.7523740" lon="-0.2118010">
        <ele>2386.8</ele>
        <time>2021-02-27T11:13:42Z</time>
      </trkpt>
      <trkpt lat="42.7523280" lon="-0.2117720">
        <ele>2386.2</ele>
        <time>2021-02-27T11:13:45Z</time>
      </trkpt>
      <trkpt lat="42.7523070" lon="-0.2117600">
        <ele>2386.2</ele>
        <time>2021-02-27T11:13:48Z</time>
      </trkpt>
      <trkpt lat="42.7522910" lon="-0.2117520">
        <ele>2386.0</ele>
        <time>2021-02-27T11:13:50Z</time>
      </trkpt>
      <trkpt lat="42.7522740" lon="-0.2117480">
        <ele>2386.2</ele>
        <time>2021-02-27T11:13:52Z</time>
      </trkpt>
      <trkpt lat="42.7522490" lon="-0.2117380">
        <ele>2386.4</ele>
        <time>2021-02-27T11:13:55Z</time>
      </trkpt>
      <trkpt lat="42.7522410" lon="-0.2117360">
        <ele>2386.4</ele>
        <time>2021-02-27T11:13:56Z</time>
      </trkpt>
      <trkpt lat="42.7522330" lon="-0.2117330">
        <ele>2386.6</ele>
        <time>2021-02-27T11:13:57Z</time>
      </trkpt>
      <trkpt lat="42.7522090" lon="-0.2117230">
        <ele>2386.4</ele>
        <time>2021-02-27T11:14:00Z</time>
      </trkpt>
      <trkpt lat="42.7522000" lon="-0.2117170">
        <ele>2386.4</ele>
        <time>2021-02-27T11:14:01Z</time>
      </trkpt>
      <trkpt lat="42.7521920" lon="-0.2117130">
        <ele>2386.4</ele>
        <time>2021-02-27T11:14:02Z</time>
      </trkpt>
      <trkpt lat="42.7521800" lon="-0.2117080">
        <ele>2386.4</ele>
        <time>2021-02-27T11:14:04Z</time>
      </trkpt>
      <trkpt lat="42.7521570" lon="-0.2116860">
        <ele>2386.8</ele>
        <time>2021-02-27T11:14:07Z</time>
      </trkpt>
      <trkpt lat="42.7521400" lon="-0.2116740">
        <ele>2386.6</ele>
        <time>2021-02-27T11:14:09Z</time>
      </trkpt>
      <trkpt lat="42.7521200" lon="-0.2116650">
        <ele>2386.6</ele>
        <time>2021-02-27T11:14:12Z</time>
      </trkpt>
      <trkpt lat="42.7521030" lon="-0.2116550">
        <ele>2386.4</ele>
        <time>2021-02-27T11:14:14Z</time>
      </trkpt>
      <trkpt lat="42.7520710" lon="-0.2116400">
        <ele>2386.4</ele>
        <time>2021-02-27T11:14:18Z</time>
      </trkpt>
      <trkpt lat="42.7520340" lon="-0.2116140">
        <ele>2387.0</ele>
        <time>2021-02-27T11:14:23Z</time>
      </trkpt>
      <trkpt lat="42.7520210" lon="-0.2116000">
        <ele>2387.0</ele>
        <time>2021-02-27T11:14:25Z</time>
      </trkpt>
      <trkpt lat="42.7519980" lon="-0.2115700">
        <ele>2386.8</ele>
        <time>2021-02-27T11:14:29Z</time>
      </trkpt>
      <trkpt lat="42.7519580" lon="-0.2115130">
        <ele>2387.4</ele>
        <time>2021-02-27T11:14:36Z</time>
      </trkpt>
      <trkpt lat="42.7519070" lon="-0.2114490">
        <ele>2386.6</ele>
        <time>2021-02-27T11:14:45Z</time>
      </trkpt>
      <trkpt lat="42.7518650" lon="-0.2113900">
        <ele>2387.6</ele>
        <time>2021-02-27T11:14:53Z</time>
      </trkpt>
      <trkpt lat="42.7518530" lon="-0.2113740">
        <ele>2387.4</ele>
        <time>2021-02-27T11:14:55Z</time>
      </trkpt>
      <trkpt lat="42.7517830" lon="-0.2112800">
        <ele>2387.2</ele>
        <time>2021-02-27T11:15:08Z</time>
      </trkpt>
      <trkpt lat="42.7517470" lon="-0.2112300">
        <ele>2387.8</ele>
        <time>2021-02-27T11:15:16Z</time>
      </trkpt>
      <trkpt lat="42.7517470" lon="-0.2112320">
        <ele>2388.0</ele>
        <time>2021-02-27T11:15:17Z</time>
      </trkpt>
      <trkpt lat="42.7517510" lon="-0.2112330">
        <ele>2388.4</ele>
        <time>2021-02-27T11:15:21Z</time>
      </trkpt>
      <trkpt lat="42.7517490" lon="-0.2112380">
        <ele>2388.8</ele>
        <time>2021-02-27T11:15:29Z</time>
      </trkpt>
      <trkpt lat="42.7517490" lon="-0.2112380">
        <ele>2389.4</ele>
        <time>2021-02-27T11:15:33Z</time>
      </trkpt>
      <trkpt lat="42.7517490" lon="-0.2112380">
        <ele>2390.0</ele>
        <time>2021-02-27T11:15:37Z</time>
      </trkpt>
      <trkpt lat="42.7517480" lon="-0.2112380">
        <ele>2388.8</ele>
        <time>2021-02-27T11:15:40Z</time>
      </trkpt>
      <trkpt lat="42.7517160" lon="-0.2111810">
        <ele>2389.6</ele>
        <time>2021-02-27T11:15:54Z</time>
      </trkpt>
      <trkpt lat="42.7517000" lon="-0.2111470">
        <ele>2389.6</ele>
        <time>2021-02-27T11:15:56Z</time>
      </trkpt>
      <trkpt lat="42.7516900" lon="-0.2111140">
        <ele>2389.8</ele>
        <time>2021-02-27T11:15:58Z</time>
      </trkpt>
      <trkpt lat="42.7516800" lon="-0.2110840">
        <ele>2390.0</ele>
        <time>2021-02-27T11:16:00Z</time>
      </trkpt>
      <trkpt lat="42.7516720" lon="-0.2110110">
        <ele>2390.2</ele>
        <time>2021-02-27T11:16:07Z</time>
      </trkpt>
      <trkpt lat="42.7516680" lon="-0.2109920">
        <ele>2390.2</ele>
        <time>2021-02-27T11:16:10Z</time>
      </trkpt>
      <trkpt lat="42.7516650" lon="-0.2109870">
        <ele>2390.2</ele>
        <time>2021-02-27T11:16:11Z</time>
      </trkpt>
      <trkpt lat="42.7516500" lon="-0.2109540">
        <ele>2390.6</ele>
        <time>2021-02-27T11:16:15Z</time>
      </trkpt>
      <trkpt lat="42.7516390" lon="-0.2109380">
        <ele>2390.6</ele>
        <time>2021-02-27T11:16:17Z</time>
      </trkpt>
      <trkpt lat="42.7516350" lon="-0.2109310">
        <ele>2390.6</ele>
        <time>2021-02-27T11:16:18Z</time>
      </trkpt>
      <trkpt lat="42.7516180" lon="-0.2108990">
        <ele>2390.8</ele>
        <time>2021-02-27T11:16:22Z</time>
      </trkpt>
      <trkpt lat="42.7515980" lon="-0.2108560">
        <ele>2391.2</ele>
        <time>2021-02-27T11:16:27Z</time>
      </trkpt>
      <trkpt lat="42.7515970" lon="-0.2108490">
        <ele>2391.2</ele>
        <time>2021-02-27T11:16:28Z</time>
      </trkpt>
      <trkpt lat="42.7515790" lon="-0.2108370">
        <ele>2392.0</ele>
        <time>2021-02-27T11:16:31Z</time>
      </trkpt>
      <trkpt lat="42.7515650" lon="-0.2108190">
        <ele>2392.4</ele>
        <time>2021-02-27T11:16:35Z</time>
      </trkpt>
      <trkpt lat="42.7515340" lon="-0.2107760">
        <ele>2392.8</ele>
        <time>2021-02-27T11:16:41Z</time>
      </trkpt>
      <trkpt lat="42.7515310" lon="-0.2107690">
        <ele>2393.2</ele>
        <time>2021-02-27T11:16:42Z</time>
      </trkpt>
      <trkpt lat="42.7515170" lon="-0.2107560">
        <ele>2393.6</ele>
        <time>2021-02-27T11:16:44Z</time>
      </trkpt>
      <trkpt lat="42.7514930" lon="-0.2107230">
        <ele>2394.2</ele>
        <time>2021-02-27T11:16:49Z</time>
      </trkpt>
      <trkpt lat="42.7514880" lon="-0.2107160">
        <ele>2394.2</ele>
        <time>2021-02-27T11:16:50Z</time>
      </trkpt>
      <trkpt lat="42.7514700" lon="-0.2106950">
        <ele>2394.6</ele>
        <time>2021-02-27T11:16:53Z</time>
      </trkpt>
      <trkpt lat="42.7514440" lon="-0.2106730">
        <ele>2395.0</ele>
        <time>2021-02-27T11:16:57Z</time>
      </trkpt>
      <trkpt lat="42.7514260" lon="-0.2106560">
        <ele>2395.4</ele>
        <time>2021-02-27T11:16:59Z</time>
      </trkpt>
      <trkpt lat="42.7514220" lon="-0.2106480">
        <ele>2395.4</ele>
        <time>2021-02-27T11:17:00Z</time>
      </trkpt>
      <trkpt lat="42.7513640" lon="-0.2105860">
        <ele>2396.0</ele>
        <time>2021-02-27T11:17:10Z</time>
      </trkpt>
      <trkpt lat="42.7513590" lon="-0.2105790">
        <ele>2396.0</ele>
        <time>2021-02-27T11:17:11Z</time>
      </trkpt>
      <trkpt lat="42.7513530" lon="-0.2105710">
        <ele>2396.0</ele>
        <time>2021-02-27T11:17:12Z</time>
      </trkpt>
      <trkpt lat="42.7512970" lon="-0.2105080">
        <ele>2395.2</ele>
        <time>2021-02-27T11:17:22Z</time>
      </trkpt>
      <trkpt lat="42.7512620" lon="-0.2104720">
        <ele>2396.4</ele>
        <time>2021-02-27T11:17:28Z</time>
      </trkpt>
      <trkpt lat="42.7512420" lon="-0.2104310">
        <ele>2397.0</ele>
        <time>2021-02-27T11:17:32Z</time>
      </trkpt>
      <trkpt lat="42.7512350" lon="-0.2104190">
        <ele>2397.0</ele>
        <time>2021-02-27T11:17:33Z</time>
      </trkpt>
      <trkpt lat="42.7512260" lon="-0.2103990">
        <ele>2397.6</ele>
        <time>2021-02-27T11:17:35Z</time>
      </trkpt>
      <trkpt lat="42.7512190" lon="-0.2103670">
        <ele>2399.6</ele>
        <time>2021-02-27T11:17:38Z</time>
      </trkpt>
      <trkpt lat="42.7512200" lon="-0.2103530">
        <ele>2400.0</ele>
        <time>2021-02-27T11:17:39Z</time>
      </trkpt>
      <trkpt lat="42.7512190" lon="-0.2103380">
        <ele>2400.6</ele>
        <time>2021-02-27T11:17:40Z</time>
      </trkpt>
      <trkpt lat="42.7512100" lon="-0.2102870">
        <ele>2399.0</ele>
        <time>2021-02-27T11:17:44Z</time>
      </trkpt>
      <trkpt lat="42.7512090" lon="-0.2102600">
        <ele>2397.4</ele>
        <time>2021-02-27T11:17:46Z</time>
      </trkpt>
      <trkpt lat="42.7512010" lon="-0.2102340">
        <ele>2396.2</ele>
        <time>2021-02-27T11:17:48Z</time>
      </trkpt>
      <trkpt lat="42.7511890" lon="-0.2101840">
        <ele>2395.0</ele>
        <time>2021-02-27T11:17:52Z</time>
      </trkpt>
      <trkpt lat="42.7511890" lon="-0.2101730">
        <ele>2394.6</ele>
        <time>2021-02-27T11:17:53Z</time>
      </trkpt>
      <trkpt lat="42.7511820" lon="-0.2101610">
        <ele>2394.2</ele>
        <time>2021-02-27T11:17:54Z</time>
      </trkpt>
      <trkpt lat="42.7511740" lon="-0.2101490">
        <ele>2393.8</ele>
        <time>2021-02-27T11:17:55Z</time>
      </trkpt>
      <trkpt lat="42.7511690" lon="-0.2101400">
        <ele>2393.6</ele>
        <time>2021-02-27T11:17:56Z</time>
      </trkpt>
      <trkpt lat="42.7511420" lon="-0.2101030">
        <ele>2392.6</ele>
        <time>2021-02-27T11:18:00Z</time>
      </trkpt>
      <trkpt lat="42.7511290" lon="-0.2100750">
        <ele>2392.2</ele>
        <time>2021-02-27T11:18:02Z</time>
      </trkpt>
      <trkpt lat="42.7511160" lon="-0.2100560">
        <ele>2391.6</ele>
        <time>2021-02-27T11:18:04Z</time>
      </trkpt>
      <trkpt lat="42.7510800" lon="-0.2100220">
        <ele>2391.0</ele>
        <time>2021-02-27T11:18:08Z</time>
      </trkpt>
      <trkpt lat="42.7510630" lon="-0.2100080">
        <ele>2390.8</ele>
        <time>2021-02-27T11:18:10Z</time>
      </trkpt>
      <trkpt lat="42.7510250" lon="-0.2099910">
        <ele>2390.4</ele>
        <time>2021-02-27T11:18:14Z</time>
      </trkpt>
      <trkpt lat="42.7509920" lon="-0.2099800">
        <ele>2389.8</ele>
        <time>2021-02-27T11:18:18Z</time>
      </trkpt>
      <trkpt lat="42.7509860" lon="-0.2099610">
        <ele>2389.0</ele>
        <time>2021-02-27T11:18:20Z</time>
      </trkpt>
      <trkpt lat="42.7509750" lon="-0.2099100">
        <ele>2388.2</ele>
        <time>2021-02-27T11:18:24Z</time>
      </trkpt>
      <trkpt lat="42.7509680" lon="-0.2098450">
        <ele>2388.4</ele>
        <time>2021-02-27T11:18:29Z</time>
      </trkpt>
      <trkpt lat="42.7509610" lon="-0.2097880">
        <ele>2388.4</ele>
        <time>2021-02-27T11:18:34Z</time>
      </trkpt>
      <trkpt lat="42.7509340" lon="-0.2097160">
        <ele>2388.8</ele>
        <time>2021-02-27T11:18:41Z</time>
      </trkpt>
      <trkpt lat="42.7509230" lon="-0.2096920">
        <ele>2388.8</ele>
        <time>2021-02-27T11:18:43Z</time>
      </trkpt>
      <trkpt lat="42.7509150" lon="-0.2096820">
        <ele>2388.8</ele>
        <time>2021-02-27T11:18:46Z</time>
      </trkpt>
      <trkpt lat="42.7509120" lon="-0.2096750">
        <ele>2388.6</ele>
        <time>2021-02-27T11:18:48Z</time>
      </trkpt>
      <trkpt lat="42.7508880" lon="-0.2096550">
        <ele>2388.0</ele>
        <time>2021-02-27T11:18:52Z</time>
      </trkpt>
      <trkpt lat="42.7508740" lon="-0.2096460">
        <ele>2387.8</ele>
        <time>2021-02-27T11:18:54Z</time>
      </trkpt>
      <trkpt lat="42.7508120" lon="-0.2095980">
        <ele>2387.6</ele>
        <time>2021-02-27T11:19:02Z</time>
      </trkpt>
      <trkpt lat="42.7508040" lon="-0.2095950">
        <ele>2387.6</ele>
        <time>2021-02-27T11:19:03Z</time>
      </trkpt>
      <trkpt lat="42.7507860" lon="-0.2095860">
        <ele>2387.6</ele>
        <time>2021-02-27T11:19:05Z</time>
      </trkpt>
      <trkpt lat="42.7507360" lon="-0.2095570">
        <ele>2387.4</ele>
        <time>2021-02-27T11:19:11Z</time>
      </trkpt>
      <trkpt lat="42.7507180" lon="-0.2095560">
        <ele>2387.2</ele>
        <time>2021-02-27T11:19:15Z</time>
      </trkpt>
      <trkpt lat="42.7506950" lon="-0.2095630">
        <ele>2388.4</ele>
        <time>2021-02-27T11:19:19Z</time>
      </trkpt>
      <trkpt lat="42.7506620" lon="-0.2095650">
        <ele>2389.0</ele>
        <time>2021-02-27T11:19:22Z</time>
      </trkpt>
      <trkpt lat="42.7506290" lon="-0.2095700">
        <ele>2389.2</ele>
        <time>2021-02-27T11:19:25Z</time>
      </trkpt>
      <trkpt lat="42.7506080" lon="-0.2095680">
        <ele>2389.0</ele>
        <time>2021-02-27T11:19:27Z</time>
      </trkpt>
      <trkpt lat="42.7505720" lon="-0.2095500">
        <ele>2389.0</ele>
        <time>2021-02-27T11:19:32Z</time>
      </trkpt>
      <trkpt lat="42.7505670" lon="-0.2095480">
        <ele>2389.2</ele>
        <time>2021-02-27T11:19:33Z</time>
      </trkpt>
      <trkpt lat="42.7505530" lon="-0.2095300">
        <ele>2389.6</ele>
        <time>2021-02-27T11:19:36Z</time>
      </trkpt>
      <trkpt lat="42.7505450" lon="-0.2095200">
        <ele>2389.8</ele>
        <time>2021-02-27T11:19:38Z</time>
      </trkpt>
      <trkpt lat="42.7505280" lon="-0.2095030">
        <ele>2390.2</ele>
        <time>2021-02-27T11:19:42Z</time>
      </trkpt>
      <trkpt lat="42.7505040" lon="-0.2094730">
        <ele>2391.2</ele>
        <time>2021-02-27T11:19:46Z</time>
      </trkpt>
      <trkpt lat="42.7504900" lon="-0.2094620">
        <ele>2391.0</ele>
        <time>2021-02-27T11:19:48Z</time>
      </trkpt>
      <trkpt lat="42.7504860" lon="-0.2094590">
        <ele>2391.6</ele>
        <time>2021-02-27T11:19:49Z</time>
      </trkpt>
      <trkpt lat="42.7504670" lon="-0.2094360">
        <ele>2391.2</ele>
        <time>2021-02-27T11:19:53Z</time>
      </trkpt>
      <trkpt lat="42.7504590" lon="-0.2094200">
        <ele>2391.2</ele>
        <time>2021-02-27T11:19:55Z</time>
      </trkpt>
      <trkpt lat="42.7504510" lon="-0.2093610">
        <ele>2391.4</ele>
        <time>2021-02-27T11:20:01Z</time>
      </trkpt>
      <trkpt lat="42.7504400" lon="-0.2093190">
        <ele>2392.0</ele>
        <time>2021-02-27T11:20:05Z</time>
      </trkpt>
      <trkpt lat="42.7504300" lon="-0.2092900">
        <ele>2392.0</ele>
        <time>2021-02-27T11:20:08Z</time>
      </trkpt>
      <trkpt lat="42.7504180" lon="-0.2092340">
        <ele>2392.4</ele>
        <time>2021-02-27T11:20:14Z</time>
      </trkpt>
      <trkpt lat="42.7504050" lon="-0.2091900">
        <ele>2392.6</ele>
        <time>2021-02-27T11:20:18Z</time>
      </trkpt>
      <trkpt lat="42.7503890" lon="-0.2091650">
        <ele>2392.8</ele>
        <time>2021-02-27T11:20:21Z</time>
      </trkpt>
      <trkpt lat="42.7503660" lon="-0.2091410">
        <ele>2393.2</ele>
        <time>2021-02-27T11:20:26Z</time>
      </trkpt>
      <trkpt lat="42.7503690" lon="-0.2091400">
        <ele>2393.2</ele>
        <time>2021-02-27T11:20:28Z</time>
      </trkpt>
      <trkpt lat="42.7503650" lon="-0.2091400">
        <ele>2393.6</ele>
        <time>2021-02-27T11:20:34Z</time>
      </trkpt>
      <trkpt lat="42.7503650" lon="-0.2091400">
        <ele>2393.6</ele>
        <time>2021-02-27T11:20:36Z</time>
      </trkpt>
      <trkpt lat="42.7503650" lon="-0.2091400">
        <ele>2392.4</ele>
        <time>2021-02-27T11:20:41Z</time>
      </trkpt>
      <trkpt lat="42.7503570" lon="-0.2091210">
        <ele>2391.6</ele>
        <time>2021-02-27T11:20:46Z</time>
      </trkpt>
      <trkpt lat="42.7503500" lon="-0.2091040">
        <ele>2391.4</ele>
        <time>2021-02-27T11:20:47Z</time>
      </trkpt>
      <trkpt lat="42.7503360" lon="-0.2090730">
        <ele>2391.2</ele>
        <time>2021-02-27T11:20:49Z</time>
      </trkpt>
      <trkpt lat="42.7503300" lon="-0.2090560">
        <ele>2391.0</ele>
        <time>2021-02-27T11:20:50Z</time>
      </trkpt>
      <trkpt lat="42.7503170" lon="-0.2090260">
        <ele>2390.8</ele>
        <time>2021-02-27T11:20:52Z</time>
      </trkpt>
      <trkpt lat="42.7503030" lon="-0.2089970">
        <ele>2391.0</ele>
        <time>2021-02-27T11:20:54Z</time>
      </trkpt>
      <trkpt lat="42.7502900" lon="-0.2089740">
        <ele>2391.2</ele>
        <time>2021-02-27T11:20:56Z</time>
      </trkpt>
      <trkpt lat="42.7502740" lon="-0.2089410">
        <ele>2392.0</ele>
        <time>2021-02-27T11:21:00Z</time>
      </trkpt>
      <trkpt lat="42.7502590" lon="-0.2089080">
        <ele>2392.2</ele>
        <time>2021-02-27T11:21:04Z</time>
      </trkpt>
      <trkpt lat="42.7502260" lon="-0.2088680">
        <ele>2391.8</ele>
        <time>2021-02-27T11:21:09Z</time>
      </trkpt>
      <trkpt lat="42.7501940" lon="-0.2087720">
        <ele>2392.0</ele>
        <time>2021-02-27T11:21:17Z</time>
      </trkpt>
      <trkpt lat="42.7501700" lon="-0.2086930">
        <ele>2390.4</ele>
        <time>2021-02-27T11:21:23Z</time>
      </trkpt>
      <trkpt lat="42.7501450" lon="-0.2086680">
        <ele>2389.4</ele>
        <time>2021-02-27T11:21:27Z</time>
      </trkpt>
      <trkpt lat="42.7501440" lon="-0.2086660">
        <ele>2389.4</ele>
        <time>2021-02-27T11:21:28Z</time>
      </trkpt>
      <trkpt lat="42.7501440" lon="-0.2086660">
        <ele>2389.4</ele>
        <time>2021-02-27T11:21:29Z</time>
      </trkpt>
      <trkpt lat="42.7501420" lon="-0.2086670">
        <ele>2389.4</ele>
        <time>2021-02-27T11:21:30Z</time>
      </trkpt>
      <trkpt lat="42.7501390" lon="-0.2086720">
        <ele>2389.8</ele>
        <time>2021-02-27T11:21:35Z</time>
      </trkpt>
      <trkpt lat="42.7501360" lon="-0.2086710">
        <ele>2390.0</ele>
        <time>2021-02-27T11:21:36Z</time>
      </trkpt>
      <trkpt lat="42.7501190" lon="-0.2086770">
        <ele>2390.4</ele>
        <time>2021-02-27T11:21:39Z</time>
      </trkpt>
      <trkpt lat="42.7500870" lon="-0.2086660">
        <ele>2391.0</ele>
        <time>2021-02-27T11:21:43Z</time>
      </trkpt>
      <trkpt lat="42.7500830" lon="-0.2086650">
        <ele>2391.0</ele>
        <time>2021-02-27T11:21:44Z</time>
      </trkpt>
      <trkpt lat="42.7500420" lon="-0.2086530">
        <ele>2391.2</ele>
        <time>2021-02-27T11:21:49Z</time>
      </trkpt>
      <trkpt lat="42.7500250" lon="-0.2086480">
        <ele>2391.2</ele>
        <time>2021-02-27T11:21:51Z</time>
      </trkpt>
      <trkpt lat="42.7500090" lon="-0.2086430">
        <ele>2391.4</ele>
        <time>2021-02-27T11:21:53Z</time>
      </trkpt>
      <trkpt lat="42.7499820" lon="-0.2086380">
        <ele>2391.6</ele>
        <time>2021-02-27T11:21:57Z</time>
      </trkpt>
      <trkpt lat="42.7499750" lon="-0.2086350">
        <ele>2391.6</ele>
        <time>2021-02-27T11:21:58Z</time>
      </trkpt>
      <trkpt lat="42.7499660" lon="-0.2086340">
        <ele>2391.6</ele>
        <time>2021-02-27T11:21:59Z</time>
      </trkpt>
      <trkpt lat="42.7499120" lon="-0.2086240">
        <ele>2392.0</ele>
        <time>2021-02-27T11:22:05Z</time>
      </trkpt>
      <trkpt lat="42.7498830" lon="-0.2086390">
        <ele>2392.4</ele>
        <time>2021-02-27T11:22:09Z</time>
      </trkpt>
      <trkpt lat="42.7498760" lon="-0.2086440">
        <ele>2392.6</ele>
        <time>2021-02-27T11:22:10Z</time>
      </trkpt>
      <trkpt lat="42.7498640" lon="-0.2086550">
        <ele>2392.8</ele>
        <time>2021-02-27T11:22:12Z</time>
      </trkpt>
      <trkpt lat="42.7498450" lon="-0.2086700">
        <ele>2393.6</ele>
        <time>2021-02-27T11:22:15Z</time>
      </trkpt>
      <trkpt lat="42.7498380" lon="-0.2086700">
        <ele>2393.8</ele>
        <time>2021-02-27T11:22:16Z</time>
      </trkpt>
      <trkpt lat="42.7498200" lon="-0.2086880">
        <ele>2394.8</ele>
        <time>2021-02-27T11:22:20Z</time>
      </trkpt>
      <trkpt lat="42.7498160" lon="-0.2086910">
        <ele>2395.0</ele>
        <time>2021-02-27T11:22:21Z</time>
      </trkpt>
      <trkpt lat="42.7498050" lon="-0.2086990">
        <ele>2395.8</ele>
        <time>2021-02-27T11:22:23Z</time>
      </trkpt>
      <trkpt lat="42.7497990" lon="-0.2087010">
        <ele>2396.2</ele>
        <time>2021-02-27T11:22:24Z</time>
      </trkpt>
      <trkpt lat="42.7497700" lon="-0.2087120">
        <ele>2397.4</ele>
        <time>2021-02-27T11:22:29Z</time>
      </trkpt>
      <trkpt lat="42.7497620" lon="-0.2087110">
        <ele>2397.8</ele>
        <time>2021-02-27T11:22:30Z</time>
      </trkpt>
      <trkpt lat="42.7497530" lon="-0.2087110">
        <ele>2398.6</ele>
        <time>2021-02-27T11:22:32Z</time>
      </trkpt>
      <trkpt lat="42.7497340" lon="-0.2087160">
        <ele>2399.6</ele>
        <time>2021-02-27T11:22:35Z</time>
      </trkpt>
      <trkpt lat="42.7497290" lon="-0.2087190">
        <ele>2399.8</ele>
        <time>2021-02-27T11:22:36Z</time>
      </trkpt>
      <trkpt lat="42.7497050" lon="-0.2087360">
        <ele>2401.0</ele>
        <time>2021-02-27T11:22:40Z</time>
      </trkpt>
      <trkpt lat="42.7496970" lon="-0.2087420">
        <ele>2401.2</ele>
        <time>2021-02-27T11:22:41Z</time>
      </trkpt>
      <trkpt lat="42.7496810" lon="-0.2087680">
        <ele>2402.2</ele>
        <time>2021-02-27T11:22:45Z</time>
      </trkpt>
      <trkpt lat="42.7496770" lon="-0.2087800">
        <ele>2402.8</ele>
        <time>2021-02-27T11:22:47Z</time>
      </trkpt>
      <trkpt lat="42.7496730" lon="-0.2087850">
        <ele>2403.2</ele>
        <time>2021-02-27T11:22:49Z</time>
      </trkpt>
      <trkpt lat="42.7496600" lon="-0.2088110">
        <ele>2403.6</ele>
        <time>2021-02-27T11:22:53Z</time>
      </trkpt>
      <trkpt lat="42.7496420" lon="-0.2088580">
        <ele>2402.6</ele>
        <time>2021-02-27T11:22:58Z</time>
      </trkpt>
      <trkpt lat="42.7496400" lon="-0.2088680">
        <ele>2402.2</ele>
        <time>2021-02-27T11:22:59Z</time>
      </trkpt>
      <trkpt lat="42.7496070" lon="-0.2089080">
        <ele>2401.2</ele>
        <time>2021-02-27T11:23:05Z</time>
      </trkpt>
      <trkpt lat="42.7495960" lon="-0.2089250">
        <ele>2400.8</ele>
        <time>2021-02-27T11:23:07Z</time>
      </trkpt>
      <trkpt lat="42.7495780" lon="-0.2089630">
        <ele>2400.4</ele>
        <time>2021-02-27T11:23:11Z</time>
      </trkpt>
      <trkpt lat="42.7495640" lon="-0.2089870">
        <ele>2400.6</ele>
        <time>2021-02-27T11:23:14Z</time>
      </trkpt>
      <trkpt lat="42.7495520" lon="-0.2089940">
        <ele>2400.8</ele>
        <time>2021-02-27T11:23:16Z</time>
      </trkpt>
      <trkpt lat="42.7495180" lon="-0.2089950">
        <ele>2400.0</ele>
        <time>2021-02-27T11:23:21Z</time>
      </trkpt>
      <trkpt lat="42.7495050" lon="-0.2089980">
        <ele>2399.6</ele>
        <time>2021-02-27T11:23:23Z</time>
      </trkpt>
      <trkpt lat="42.7494810" lon="-0.2089900">
        <ele>2398.8</ele>
        <time>2021-02-27T11:23:26Z</time>
      </trkpt>
      <trkpt lat="42.7494710" lon="-0.2089870">
        <ele>2398.4</ele>
        <time>2021-02-27T11:23:27Z</time>
      </trkpt>
      <trkpt lat="42.7494550" lon="-0.2089860">
        <ele>2397.6</ele>
        <time>2021-02-27T11:23:29Z</time>
      </trkpt>
      <trkpt lat="42.7494300" lon="-0.2089770">
        <ele>2396.2</ele>
        <time>2021-02-27T11:23:32Z</time>
      </trkpt>
      <trkpt lat="42.7494140" lon="-0.2089650">
        <ele>2395.2</ele>
        <time>2021-02-27T11:23:34Z</time>
      </trkpt>
      <trkpt lat="42.7493910" lon="-0.2089460">
        <ele>2394.0</ele>
        <time>2021-02-27T11:23:37Z</time>
      </trkpt>
      <trkpt lat="42.7493690" lon="-0.2089130">
        <ele>2392.8</ele>
        <time>2021-02-27T11:23:42Z</time>
      </trkpt>
      <trkpt lat="42.7493490" lon="-0.2088910">
        <ele>2392.0</ele>
        <time>2021-02-27T11:23:46Z</time>
      </trkpt>
      <trkpt lat="42.7493360" lon="-0.2088790">
        <ele>2391.8</ele>
        <time>2021-02-27T11:23:48Z</time>
      </trkpt>
      <trkpt lat="42.7493150" lon="-0.2088580">
        <ele>2391.6</ele>
        <time>2021-02-27T11:23:51Z</time>
      </trkpt>
      <trkpt lat="42.7492910" lon="-0.2088440">
        <ele>2391.4</ele>
        <time>2021-02-27T11:23:55Z</time>
      </trkpt>
      <trkpt lat="42.7492860" lon="-0.2088410">
        <ele>2391.4</ele>
        <time>2021-02-27T11:23:56Z</time>
      </trkpt>
      <trkpt lat="42.7492690" lon="-0.2088310">
        <ele>2391.2</ele>
        <time>2021-02-27T11:23:59Z</time>
      </trkpt>
      <trkpt lat="42.7492550" lon="-0.2088180">
        <ele>2391.2</ele>
        <time>2021-02-27T11:24:01Z</time>
      </trkpt>
      <trkpt lat="42.7492510" lon="-0.2088150">
        <ele>2391.2</ele>
        <time>2021-02-27T11:24:02Z</time>
      </trkpt>
      <trkpt lat="42.7492320" lon="-0.2088060">
        <ele>2391.0</ele>
        <time>2021-02-27T11:24:06Z</time>
      </trkpt>
      <trkpt lat="42.7492110" lon="-0.2088000">
        <ele>2391.0</ele>
        <time>2021-02-27T11:24:09Z</time>
      </trkpt>
      <trkpt lat="42.7492050" lon="-0.2087960">
        <ele>2391.0</ele>
        <time>2021-02-27T11:24:10Z</time>
      </trkpt>
      <trkpt lat="42.7491660" lon="-0.2087940">
        <ele>2391.0</ele>
        <time>2021-02-27T11:24:15Z</time>
      </trkpt>
      <trkpt lat="42.7491590" lon="-0.2087910">
        <ele>2390.8</ele>
        <time>2021-02-27T11:24:16Z</time>
      </trkpt>
      <trkpt lat="42.7491560" lon="-0.2087880">
        <ele>2390.6</ele>
        <time>2021-02-27T11:24:18Z</time>
      </trkpt>
      <trkpt lat="42.7491550" lon="-0.2087910">
        <ele>2390.6</ele>
        <time>2021-02-27T11:24:20Z</time>
      </trkpt>
      <trkpt lat="42.7491550" lon="-0.2087820">
        <ele>2390.8</ele>
        <time>2021-02-27T11:24:22Z</time>
      </trkpt>
      <trkpt lat="42.7491580" lon="-0.2087410">
        <ele>2390.2</ele>
        <time>2021-02-27T11:24:30Z</time>
      </trkpt>
      <trkpt lat="42.7491450" lon="-0.2087120">
        <ele>2390.0</ele>
        <time>2021-02-27T11:24:34Z</time>
      </trkpt>
      <trkpt lat="42.7491380" lon="-0.2086970">
        <ele>2390.0</ele>
        <time>2021-02-27T11:24:35Z</time>
      </trkpt>
      <trkpt lat="42.7491320" lon="-0.2086860">
        <ele>2390.0</ele>
        <time>2021-02-27T11:24:36Z</time>
      </trkpt>
      <trkpt lat="42.7490900" lon="-0.2086610">
        <ele>2390.2</ele>
        <time>2021-02-27T11:24:41Z</time>
      </trkpt>
      <trkpt lat="42.7490790" lon="-0.2086500">
        <ele>2390.2</ele>
        <time>2021-02-27T11:24:43Z</time>
      </trkpt>
      <trkpt lat="42.7490730" lon="-0.2086460">
        <ele>2390.2</ele>
        <time>2021-02-27T11:24:44Z</time>
      </trkpt>
      <trkpt lat="42.7490630" lon="-0.2086400">
        <ele>2390.2</ele>
        <time>2021-02-27T11:24:45Z</time>
      </trkpt>
      <trkpt lat="42.7490240" lon="-0.2086150">
        <ele>2390.0</ele>
        <time>2021-02-27T11:24:51Z</time>
      </trkpt>
      <trkpt lat="42.7490060" lon="-0.2086060">
        <ele>2390.0</ele>
        <time>2021-02-27T11:24:54Z</time>
      </trkpt>
      <trkpt lat="42.7489940" lon="-0.2085950">
        <ele>2390.0</ele>
        <time>2021-02-27T11:24:56Z</time>
      </trkpt>
      <trkpt lat="42.7489870" lon="-0.2085870">
        <ele>2390.0</ele>
        <time>2021-02-27T11:24:57Z</time>
      </trkpt>
      <trkpt lat="42.7489780" lon="-0.2085770">
        <ele>2390.0</ele>
        <time>2021-02-27T11:24:58Z</time>
      </trkpt>
      <trkpt lat="42.7489720" lon="-0.2085700">
        <ele>2390.2</ele>
        <time>2021-02-27T11:24:59Z</time>
      </trkpt>
      <trkpt lat="42.7489570" lon="-0.2085610">
        <ele>2390.2</ele>
        <time>2021-02-27T11:25:01Z</time>
      </trkpt>
      <trkpt lat="42.7488870" lon="-0.2085220">
        <ele>2390.2</ele>
        <time>2021-02-27T11:25:11Z</time>
      </trkpt>
      <trkpt lat="42.7488360" lon="-0.2084880">
        <ele>2390.4</ele>
        <time>2021-02-27T11:25:20Z</time>
      </trkpt>
      <trkpt lat="42.7488300" lon="-0.2084850">
        <ele>2390.4</ele>
        <time>2021-02-27T11:25:21Z</time>
      </trkpt>
      <trkpt lat="42.7487830" lon="-0.2084560">
        <ele>2390.6</ele>
        <time>2021-02-27T11:25:28Z</time>
      </trkpt>
      <trkpt lat="42.7487320" lon="-0.2084120">
        <ele>2390.6</ele>
        <time>2021-02-27T11:25:34Z</time>
      </trkpt>
      <trkpt lat="42.7486860" lon="-0.2084080">
        <ele>2390.6</ele>
        <time>2021-02-27T11:25:40Z</time>
      </trkpt>
      <trkpt lat="42.7486690" lon="-0.2084090">
        <ele>2390.6</ele>
        <time>2021-02-27T11:25:42Z</time>
      </trkpt>
      <trkpt lat="42.7486340" lon="-0.2084010">
        <ele>2390.6</ele>
        <time>2021-02-27T11:25:47Z</time>
      </trkpt>
      <trkpt lat="42.7485770" lon="-0.2083970">
        <ele>2390.6</ele>
        <time>2021-02-27T11:25:54Z</time>
      </trkpt>
      <trkpt lat="42.7485340" lon="-0.2083890">
        <ele>2390.6</ele>
        <time>2021-02-27T11:25:59Z</time>
      </trkpt>
      <trkpt lat="42.7485310" lon="-0.2083890">
        <ele>2390.6</ele>
        <time>2021-02-27T11:26:00Z</time>
      </trkpt>
      <trkpt lat="42.7485010" lon="-0.2083710">
        <ele>2390.6</ele>
        <time>2021-02-27T11:26:04Z</time>
      </trkpt>
      <trkpt lat="42.7484650" lon="-0.2083620">
        <ele>2390.6</ele>
        <time>2021-02-27T11:26:10Z</time>
      </trkpt>
      <trkpt lat="42.7484220" lon="-0.2083610">
        <ele>2390.6</ele>
        <time>2021-02-27T11:26:16Z</time>
      </trkpt>
      <trkpt lat="42.7483810" lon="-0.2083390">
        <ele>2390.6</ele>
        <time>2021-02-27T11:26:22Z</time>
      </trkpt>
      <trkpt lat="42.7483490" lon="-0.2083290">
        <ele>2390.6</ele>
        <time>2021-02-27T11:26:26Z</time>
      </trkpt>
      <trkpt lat="42.7483460" lon="-0.2083330">
        <ele>2390.6</ele>
        <time>2021-02-27T11:26:28Z</time>
      </trkpt>
      <trkpt lat="42.7482770" lon="-0.2082660">
        <ele>2390.6</ele>
        <time>2021-02-27T11:26:36Z</time>
      </trkpt>
      <trkpt lat="42.7482330" lon="-0.2082060">
        <ele>2390.6</ele>
        <time>2021-02-27T11:26:44Z</time>
      </trkpt>
      <trkpt lat="42.7482310" lon="-0.2082040">
        <ele>2390.6</ele>
        <time>2021-02-27T11:26:45Z</time>
      </trkpt>
      <trkpt lat="42.7481890" lon="-0.2081700">
        <ele>2389.8</ele>
        <time>2021-02-27T11:26:52Z</time>
      </trkpt>
      <trkpt lat="42.7481800" lon="-0.2081680">
        <ele>2390.2</ele>
        <time>2021-02-27T11:26:54Z</time>
      </trkpt>
      <trkpt lat="42.7481680" lon="-0.2081580">
        <ele>2390.2</ele>
        <time>2021-02-27T11:26:56Z</time>
      </trkpt>
      <trkpt lat="42.7481480" lon="-0.2081340">
        <ele>2390.2</ele>
        <time>2021-02-27T11:26:59Z</time>
      </trkpt>
      <trkpt lat="42.7481450" lon="-0.2081420">
        <ele>2390.2</ele>
        <time>2021-02-27T11:27:02Z</time>
      </trkpt>
      <trkpt lat="42.7481190" lon="-0.2081120">
        <ele>2389.8</ele>
        <time>2021-02-27T11:27:11Z</time>
      </trkpt>
      <trkpt lat="42.7481200" lon="-0.2081140">
        <ele>2389.8</ele>
        <time>2021-02-27T11:27:14Z</time>
      </trkpt>
      <trkpt lat="42.7481200" lon="-0.2081140">
        <ele>2389.8</ele>
        <time>2021-02-27T11:27:18Z</time>
      </trkpt>
      <trkpt lat="42.7480950" lon="-0.2081060">
        <ele>2389.6</ele>
        <time>2021-02-27T11:27:21Z</time>
      </trkpt>
      <trkpt lat="42.7480780" lon="-0.2081040">
        <ele>2389.6</ele>
        <time>2021-02-27T11:27:22Z</time>
      </trkpt>
      <trkpt lat="42.7480210" lon="-0.2080880">
        <ele>2389.6</ele>
        <time>2021-02-27T11:27:27Z</time>
      </trkpt>
      <trkpt lat="42.7479620" lon="-0.2080830">
        <ele>2389.8</ele>
        <time>2021-02-27T11:27:36Z</time>
      </trkpt>
      <trkpt lat="42.7479440" lon="-0.2080560">
        <ele>2389.8</ele>
        <time>2021-02-27T11:27:39Z</time>
      </trkpt>
      <trkpt lat="42.7479340" lon="-0.2080500">
        <ele>2390.0</ele>
        <time>2021-02-27T11:27:41Z</time>
      </trkpt>
      <trkpt lat="42.7479270" lon="-0.2080460">
        <ele>2389.8</ele>
        <time>2021-02-27T11:27:42Z</time>
      </trkpt>
      <trkpt lat="42.7479110" lon="-0.2080260">
        <ele>2390.0</ele>
        <time>2021-02-27T11:27:46Z</time>
      </trkpt>
      <trkpt lat="42.7478900" lon="-0.2079710">
        <ele>2390.2</ele>
        <time>2021-02-27T11:27:54Z</time>
      </trkpt>
      <trkpt lat="42.7478700" lon="-0.2079010">
        <ele>2390.2</ele>
        <time>2021-02-27T11:28:01Z</time>
      </trkpt>
      <trkpt lat="42.7478680" lon="-0.2078860">
        <ele>2390.0</ele>
        <time>2021-02-27T11:28:03Z</time>
      </trkpt>
      <trkpt lat="42.7478660" lon="-0.2078590">
        <ele>2389.8</ele>
        <time>2021-02-27T11:28:06Z</time>
      </trkpt>
      <trkpt lat="42.7478570" lon="-0.2078380">
        <ele>2389.8</ele>
        <time>2021-02-27T11:28:08Z</time>
      </trkpt>
      <trkpt lat="42.7478510" lon="-0.2077810">
        <ele>2390.0</ele>
        <time>2021-02-27T11:28:14Z</time>
      </trkpt>
      <trkpt lat="42.7478510" lon="-0.2077550">
        <ele>2389.8</ele>
        <time>2021-02-27T11:28:19Z</time>
      </trkpt>
      <trkpt lat="42.7478530" lon="-0.2077560">
        <ele>2389.8</ele>
        <time>2021-02-27T11:28:22Z</time>
      </trkpt>
      <trkpt lat="42.7478530" lon="-0.2077580">
        <ele>2389.8</ele>
        <time>2021-02-27T11:28:25Z</time>
      </trkpt>
      <trkpt lat="42.7478540" lon="-0.2077610">
        <ele>2389.8</ele>
        <time>2021-02-27T11:28:29Z</time>
      </trkpt>
      <trkpt lat="42.7478540" lon="-0.2077610">
        <ele>2389.8</ele>
        <time>2021-02-27T11:28:32Z</time>
      </trkpt>
      <trkpt lat="42.7478540" lon="-0.2077610">
        <ele>2389.8</ele>
        <time>2021-02-27T11:28:36Z</time>
      </trkpt>
      <trkpt lat="42.7478530" lon="-0.2077610">
        <ele>2389.8</ele>
        <time>2021-02-27T11:28:42Z</time>
      </trkpt>
      <trkpt lat="42.7478520" lon="-0.2077600">
        <ele>2389.8</ele>
        <time>2021-02-27T11:28:49Z</time>
      </trkpt>
      <trkpt lat="42.7478470" lon="-0.2077600">
        <ele>2389.8</ele>
        <time>2021-02-27T11:28:55Z</time>
      </trkpt>
      <trkpt lat="42.7478300" lon="-0.2077560">
        <ele>2389.8</ele>
        <time>2021-02-27T11:29:05Z</time>
      </trkpt>
      <trkpt lat="42.7478270" lon="-0.2077560">
        <ele>2389.8</ele>
        <time>2021-02-27T11:29:07Z</time>
      </trkpt>
      <trkpt lat="42.7478250" lon="-0.2077540">
        <ele>2389.8</ele>
        <time>2021-02-27T11:29:09Z</time>
      </trkpt>
      <trkpt lat="42.7478360" lon="-0.2076100">
        <ele>2389.8</ele>
        <time>2021-02-27T11:29:20Z</time>
      </trkpt>
      <trkpt lat="42.7478450" lon="-0.2075690">
        <ele>2389.8</ele>
        <time>2021-02-27T11:29:22Z</time>
      </trkpt>
      <trkpt lat="42.7478610" lon="-0.2074730">
        <ele>2389.8</ele>
        <time>2021-02-27T11:29:27Z</time>
      </trkpt>
      <trkpt lat="42.7478690" lon="-0.2074250">
        <ele>2389.8</ele>
        <time>2021-02-27T11:29:32Z</time>
      </trkpt>
      <trkpt lat="42.7478870" lon="-0.2073580">
        <ele>2389.8</ele>
        <time>2021-02-27T11:29:40Z</time>
      </trkpt>
      <trkpt lat="42.7479050" lon="-0.2073110">
        <ele>2389.8</ele>
        <time>2021-02-27T11:29:46Z</time>
      </trkpt>
      <trkpt lat="42.7479080" lon="-0.2073030">
        <ele>2389.8</ele>
        <time>2021-02-27T11:29:47Z</time>
      </trkpt>
      <trkpt lat="42.7479110" lon="-0.2072850">
        <ele>2389.8</ele>
        <time>2021-02-27T11:29:49Z</time>
      </trkpt>
      <trkpt lat="42.7479280" lon="-0.2072430">
        <ele>2389.8</ele>
        <time>2021-02-27T11:29:58Z</time>
      </trkpt>
      <trkpt lat="42.7479280" lon="-0.2072440">
        <ele>2389.8</ele>
        <time>2021-02-27T11:29:59Z</time>
      </trkpt>
      <trkpt lat="42.7479320" lon="-0.2072400">
        <ele>2389.8</ele>
        <time>2021-02-27T11:30:03Z</time>
      </trkpt>
      <trkpt lat="42.7479310" lon="-0.2072380">
        <ele>2389.8</ele>
        <time>2021-02-27T11:30:11Z</time>
      </trkpt>
      <trkpt lat="42.7479290" lon="-0.2072380">
        <ele>2389.8</ele>
        <time>2021-02-27T11:30:14Z</time>
      </trkpt>
      <trkpt lat="42.7479280" lon="-0.2072290">
        <ele>2389.8</ele>
        <time>2021-02-27T11:30:25Z</time>
      </trkpt>
      <trkpt lat="42.7479280" lon="-0.2071870">
        <ele>2389.8</ele>
        <time>2021-02-27T11:30:34Z</time>
      </trkpt>
      <trkpt lat="42.7479300" lon="-0.2071870">
        <ele>2389.8</ele>
        <time>2021-02-27T11:30:35Z</time>
      </trkpt>
      <trkpt lat="42.7479680" lon="-0.2070420">
        <ele>2389.8</ele>
        <time>2021-02-27T11:30:49Z</time>
      </trkpt>
      <trkpt lat="42.7479730" lon="-0.2070240">
        <ele>2389.8</ele>
        <time>2021-02-27T11:30:50Z</time>
      </trkpt>
      <trkpt lat="42.7479760" lon="-0.2070110">
        <ele>2389.8</ele>
        <time>2021-02-27T11:30:51Z</time>
      </trkpt>
      <trkpt lat="42.7479860" lon="-0.2069830">
        <ele>2389.8</ele>
        <time>2021-02-27T11:30:55Z</time>
      </trkpt>
      <trkpt lat="42.7479840" lon="-0.2069830">
        <ele>2389.8</ele>
        <time>2021-02-27T11:30:58Z</time>
      </trkpt>
      <trkpt lat="42.7479830" lon="-0.2069830">
        <ele>2389.8</ele>
        <time>2021-02-27T11:31:03Z</time>
      </trkpt>
      <trkpt lat="42.7479830" lon="-0.2069830">
        <ele>2389.8</ele>
        <time>2021-02-27T11:31:09Z</time>
      </trkpt>
      <trkpt lat="42.7479830" lon="-0.2069830">
        <ele>2389.8</ele>
        <time>2021-02-27T11:31:12Z</time>
      </trkpt>
      <trkpt lat="42.7479820" lon="-0.2069830">
        <ele>2389.8</ele>
        <time>2021-02-27T11:31:18Z</time>
      </trkpt>
      <trkpt lat="42.7479840" lon="-0.2069780">
        <ele>2389.8</ele>
        <time>2021-02-27T11:31:41Z</time>
      </trkpt>
      <trkpt lat="42.7479970" lon="-0.2068880">
        <ele>2389.8</ele>
        <time>2021-02-27T11:31:52Z</time>
      </trkpt>
      <trkpt lat="42.7480310" lon="-0.2067030">
        <ele>2389.8</ele>
        <time>2021-02-27T11:32:14Z</time>
      </trkpt>
      <trkpt lat="42.7480800" lon="-0.2065600">
        <ele>2389.8</ele>
        <time>2021-02-27T11:32:24Z</time>
      </trkpt>
      <trkpt lat="42.7480900" lon="-0.2065160">
        <ele>2389.6</ele>
        <time>2021-02-27T11:32:26Z</time>
      </trkpt>
      <trkpt lat="42.7480980" lon="-0.2064770">
        <ele>2389.4</ele>
        <time>2021-02-27T11:32:28Z</time>
      </trkpt>
      <trkpt lat="42.7481080" lon="-0.2064380">
        <ele>2389.2</ele>
        <time>2021-02-27T11:32:32Z</time>
      </trkpt>
      <trkpt lat="42.7481100" lon="-0.2064300">
        <ele>2389.2</ele>
        <time>2021-02-27T11:32:33Z</time>
      </trkpt>
      <trkpt lat="42.7481110" lon="-0.2064110">
        <ele>2389.2</ele>
        <time>2021-02-27T11:32:35Z</time>
      </trkpt>
      <trkpt lat="42.7481120" lon="-0.2064020">
        <ele>2389.2</ele>
        <time>2021-02-27T11:32:36Z</time>
      </trkpt>
      <trkpt lat="42.7481150" lon="-0.2063840">
        <ele>2389.0</ele>
        <time>2021-02-27T11:32:38Z</time>
      </trkpt>
      <trkpt lat="42.7481180" lon="-0.2063690">
        <ele>2389.0</ele>
        <time>2021-02-27T11:32:40Z</time>
      </trkpt>
      <trkpt lat="42.7481260" lon="-0.2063520">
        <ele>2389.0</ele>
        <time>2021-02-27T11:32:42Z</time>
      </trkpt>
      <trkpt lat="42.7481280" lon="-0.2063470">
        <ele>2389.0</ele>
        <time>2021-02-27T11:32:43Z</time>
      </trkpt>
      <trkpt lat="42.7481410" lon="-0.2063260">
        <ele>2389.4</ele>
        <time>2021-02-27T11:32:46Z</time>
      </trkpt>
      <trkpt lat="42.7481610" lon="-0.2062960">
        <ele>2389.6</ele>
        <time>2021-02-27T11:32:50Z</time>
      </trkpt>
      <trkpt lat="42.7481820" lon="-0.2062620">
        <ele>2389.6</ele>
        <time>2021-02-27T11:32:54Z</time>
      </trkpt>
      <trkpt lat="42.7481860" lon="-0.2062560">
        <ele>2389.4</ele>
        <time>2021-02-27T11:32:55Z</time>
      </trkpt>
      <trkpt lat="42.7481910" lon="-0.2062460">
        <ele>2389.4</ele>
        <time>2021-02-27T11:32:56Z</time>
      </trkpt>
      <trkpt lat="42.7481950" lon="-0.2062180">
        <ele>2389.4</ele>
        <time>2021-02-27T11:32:59Z</time>
      </trkpt>
      <trkpt lat="42.7481970" lon="-0.2062090">
        <ele>2389.4</ele>
        <time>2021-02-27T11:33:00Z</time>
      </trkpt>
      <trkpt lat="42.7482070" lon="-0.2061790">
        <ele>2389.4</ele>
        <time>2021-02-27T11:33:03Z</time>
      </trkpt>
      <trkpt lat="42.7482140" lon="-0.2061630">
        <ele>2389.4</ele>
        <time>2021-02-27T11:33:05Z</time>
      </trkpt>
      <trkpt lat="42.7482210" lon="-0.2061430">
        <ele>2389.4</ele>
        <time>2021-02-27T11:33:07Z</time>
      </trkpt>
      <trkpt lat="42.7482260" lon="-0.2061320">
        <ele>2389.4</ele>
        <time>2021-02-27T11:33:08Z</time>
      </trkpt>
      <trkpt lat="42.7482360" lon="-0.2061090">
        <ele>2389.4</ele>
        <time>2021-02-27T11:33:11Z</time>
      </trkpt>
      <trkpt lat="42.7482360" lon="-0.2061010">
        <ele>2389.4</ele>
        <time>2021-02-27T11:33:12Z</time>
      </trkpt>
      <trkpt lat="42.7482320" lon="-0.2060880">
        <ele>2389.4</ele>
        <time>2021-02-27T11:33:13Z</time>
      </trkpt>
      <trkpt lat="42.7482270" lon="-0.2060720">
        <ele>2389.4</ele>
        <time>2021-02-27T11:33:14Z</time>
      </trkpt>
      <trkpt lat="42.7481970" lon="-0.2059910">
        <ele>2389.6</ele>
        <time>2021-02-27T11:33:22Z</time>
      </trkpt>
      <trkpt lat="42.7481630" lon="-0.2059280">
        <ele>2389.8</ele>
        <time>2021-02-27T11:33:30Z</time>
      </trkpt>
      <trkpt lat="42.7480990" lon="-0.2058440">
        <ele>2389.6</ele>
        <time>2021-02-27T11:33:40Z</time>
      </trkpt>
      <trkpt lat="42.7480660" lon="-0.2058200">
        <ele>2389.6</ele>
        <time>2021-02-27T11:33:45Z</time>
      </trkpt>
      <trkpt lat="42.7480630" lon="-0.2058150">
        <ele>2389.8</ele>
        <time>2021-02-27T11:33:48Z</time>
      </trkpt>
      <trkpt lat="42.7480600" lon="-0.2058130">
        <ele>2389.8</ele>
        <time>2021-02-27T11:33:49Z</time>
      </trkpt>
      <trkpt lat="42.7480490" lon="-0.2058030">
        <ele>2390.0</ele>
        <time>2021-02-27T11:33:54Z</time>
      </trkpt>
      <trkpt lat="42.7480420" lon="-0.2057990">
        <ele>2390.2</ele>
        <time>2021-02-27T11:33:56Z</time>
      </trkpt>
      <trkpt lat="42.7480200" lon="-0.2057830">
        <ele>2390.6</ele>
        <time>2021-02-27T11:34:01Z</time>
      </trkpt>
      <trkpt lat="42.7480070" lon="-0.2057750">
        <ele>2391.0</ele>
        <time>2021-02-27T11:34:04Z</time>
      </trkpt>
      <trkpt lat="42.7479990" lon="-0.2057670">
        <ele>2391.4</ele>
        <time>2021-02-27T11:34:06Z</time>
      </trkpt>
      <trkpt lat="42.7479960" lon="-0.2057650">
        <ele>2391.6</ele>
        <time>2021-02-27T11:34:07Z</time>
      </trkpt>
      <trkpt lat="42.7479950" lon="-0.2057630">
        <ele>2391.8</ele>
        <time>2021-02-27T11:34:09Z</time>
      </trkpt>
      <trkpt lat="42.7479730" lon="-0.2057350">
        <ele>2392.6</ele>
        <time>2021-02-27T11:34:17Z</time>
      </trkpt>
      <trkpt lat="42.7479670" lon="-0.2057330">
        <ele>2392.8</ele>
        <time>2021-02-27T11:34:18Z</time>
      </trkpt>
      <trkpt lat="42.7479480" lon="-0.2057250">
        <ele>2393.8</ele>
        <time>2021-02-27T11:34:22Z</time>
      </trkpt>
      <trkpt lat="42.7479290" lon="-0.2057100">
        <ele>2394.0</ele>
        <time>2021-02-27T11:34:26Z</time>
      </trkpt>
      <trkpt lat="42.7479240" lon="-0.2057070">
        <ele>2394.0</ele>
        <time>2021-02-27T11:34:29Z</time>
      </trkpt>
      <trkpt lat="42.7479230" lon="-0.2057080">
        <ele>2394.0</ele>
        <time>2021-02-27T11:34:32Z</time>
      </trkpt>
      <trkpt lat="42.7479270" lon="-0.2057020">
        <ele>2394.2</ele>
        <time>2021-02-27T11:34:34Z</time>
      </trkpt>
      <trkpt lat="42.7479170" lon="-0.2056770">
        <ele>2395.0</ele>
        <time>2021-02-27T11:34:38Z</time>
      </trkpt>
      <trkpt lat="42.7479340" lon="-0.2056600">
        <ele>2396.2</ele>
        <time>2021-02-27T11:34:43Z</time>
      </trkpt>
      <trkpt lat="42.7479430" lon="-0.2056540">
        <ele>2396.2</ele>
        <time>2021-02-27T11:34:45Z</time>
      </trkpt>
      <trkpt lat="42.7479340" lon="-0.2056210">
        <ele>2397.2</ele>
        <time>2021-02-27T11:34:50Z</time>
      </trkpt>
      <trkpt lat="42.7479370" lon="-0.2056240">
        <ele>2398.6</ele>
        <time>2021-02-27T11:34:54Z</time>
      </trkpt>
      <trkpt lat="42.7479370" lon="-0.2056240">
        <ele>2399.2</ele>
        <time>2021-02-27T11:34:58Z</time>
      </trkpt>
      <trkpt lat="42.7479290" lon="-0.2056180">
        <ele>2398.4</ele>
        <time>2021-02-27T11:35:12Z</time>
      </trkpt>
      <trkpt lat="42.7479170" lon="-0.2056110">
        <ele>2398.6</ele>
        <time>2021-02-27T11:35:16Z</time>
      </trkpt>
      <trkpt lat="42.7479150" lon="-0.2056090">
        <ele>2399.0</ele>
        <time>2021-02-27T11:35:18Z</time>
      </trkpt>
      <trkpt lat="42.7479050" lon="-0.2055860">
        <ele>2399.6</ele>
        <time>2021-02-27T11:35:23Z</time>
      </trkpt>
      <trkpt lat="42.7479010" lon="-0.2055820">
        <ele>2400.6</ele>
        <time>2021-02-27T11:35:29Z</time>
      </trkpt>
      <trkpt lat="42.7478940" lon="-0.2055620">
        <ele>2401.8</ele>
        <time>2021-02-27T11:35:35Z</time>
      </trkpt>
      <trkpt lat="42.7478880" lon="-0.2055540">
        <ele>2402.0</ele>
        <time>2021-02-27T11:35:37Z</time>
      </trkpt>
      <trkpt lat="42.7478760" lon="-0.2055280">
        <ele>2402.6</ele>
        <time>2021-02-27T11:35:42Z</time>
      </trkpt>
      <trkpt lat="42.7478520" lon="-0.2054730">
        <ele>2403.0</ele>
        <time>2021-02-27T11:35:50Z</time>
      </trkpt>
      <trkpt lat="42.7478470" lon="-0.2054620">
        <ele>2403.2</ele>
        <time>2021-02-27T11:35:52Z</time>
      </trkpt>
      <trkpt lat="42.7478330" lon="-0.2054390">
        <ele>2403.6</ele>
        <time>2021-02-27T11:35:56Z</time>
      </trkpt>
      <trkpt lat="42.7477500" lon="-0.2053920">
        <ele>2403.6</ele>
        <time>2021-02-27T11:36:21Z</time>
      </trkpt>
      <trkpt lat="42.7477480" lon="-0.2053930">
        <ele>2403.6</ele>
        <time>2021-02-27T11:36:24Z</time>
      </trkpt>
      <trkpt lat="42.7477480" lon="-0.2053930">
        <ele>2403.8</ele>
        <time>2021-02-27T11:36:27Z</time>
      </trkpt>
      <trkpt lat="42.7477470" lon="-0.2053930">
        <ele>2404.0</ele>
        <time>2021-02-27T11:36:29Z</time>
      </trkpt>
      <trkpt lat="42.7477460" lon="-0.2053930">
        <ele>2404.2</ele>
        <time>2021-02-27T11:36:34Z</time>
      </trkpt>
      <trkpt lat="42.7477180" lon="-0.2053770">
        <ele>2404.4</ele>
        <time>2021-02-27T11:36:40Z</time>
      </trkpt>
      <trkpt lat="42.7476660" lon="-0.2053550">
        <ele>2404.6</ele>
        <time>2021-02-27T11:36:43Z</time>
      </trkpt>
      <trkpt lat="42.7476060" lon="-0.2053200">
        <ele>2404.6</ele>
        <time>2021-02-27T11:36:47Z</time>
      </trkpt>
      <trkpt lat="42.7475590" lon="-0.2053040">
        <ele>2404.6</ele>
        <time>2021-02-27T11:36:53Z</time>
      </trkpt>
      <trkpt lat="42.7475530" lon="-0.2053080">
        <ele>2404.6</ele>
        <time>2021-02-27T11:36:54Z</time>
      </trkpt>
      <trkpt lat="42.7475440" lon="-0.2053070">
        <ele>2404.8</ele>
        <time>2021-02-27T11:36:56Z</time>
      </trkpt>
      <trkpt lat="42.7475150" lon="-0.2053010">
        <ele>2404.8</ele>
        <time>2021-02-27T11:37:01Z</time>
      </trkpt>
      <trkpt lat="42.7475090" lon="-0.2053000">
        <ele>2404.8</ele>
        <time>2021-02-27T11:37:02Z</time>
      </trkpt>
      <trkpt lat="42.7474990" lon="-0.2052980">
        <ele>2404.8</ele>
        <time>2021-02-27T11:37:04Z</time>
      </trkpt>
      <trkpt lat="42.7474860" lon="-0.2053010">
        <ele>2404.6</ele>
        <time>2021-02-27T11:37:07Z</time>
      </trkpt>
      <trkpt lat="42.7474880" lon="-0.2053040">
        <ele>2404.4</ele>
        <time>2021-02-27T11:37:09Z</time>
      </trkpt>
      <trkpt lat="42.7474930" lon="-0.2053110">
        <ele>2404.4</ele>
        <time>2021-02-27T11:37:17Z</time>
      </trkpt>
      <trkpt lat="42.7474930" lon="-0.2053110">
        <ele>2404.2</ele>
        <time>2021-02-27T11:37:22Z</time>
      </trkpt>
      <trkpt lat="42.7474930" lon="-0.2053090">
        <ele>2404.2</ele>
        <time>2021-02-27T11:37:24Z</time>
      </trkpt>
      <trkpt lat="42.7474920" lon="-0.2053080">
        <ele>2404.4</ele>
        <time>2021-02-27T11:37:27Z</time>
      </trkpt>
      <trkpt lat="42.7474870" lon="-0.2053010">
        <ele>2404.4</ele>
        <time>2021-02-27T11:37:32Z</time>
      </trkpt>
      <trkpt lat="42.7474810" lon="-0.2052990">
        <ele>2404.4</ele>
        <time>2021-02-27T11:37:36Z</time>
      </trkpt>
      <trkpt lat="42.7474460" lon="-0.2052940">
        <ele>2404.2</ele>
        <time>2021-02-27T11:37:42Z</time>
      </trkpt>
      <trkpt lat="42.7473990" lon="-0.2052900">
        <ele>2404.4</ele>
        <time>2021-02-27T11:37:45Z</time>
      </trkpt>
      <trkpt lat="42.7473350" lon="-0.2052820">
        <ele>2404.4</ele>
        <time>2021-02-27T11:37:49Z</time>
      </trkpt>
      <trkpt lat="42.7473210" lon="-0.2052850">
        <ele>2404.2</ele>
        <time>2021-02-27T11:37:51Z</time>
      </trkpt>
      <trkpt lat="42.7473030" lon="-0.2052770">
        <ele>2404.2</ele>
        <time>2021-02-27T11:37:54Z</time>
      </trkpt>
      <trkpt lat="42.7472960" lon="-0.2052740">
        <ele>2404.2</ele>
        <time>2021-02-27T11:37:55Z</time>
      </trkpt>
      <trkpt lat="42.7472860" lon="-0.2052710">
        <ele>2404.4</ele>
        <time>2021-02-27T11:37:56Z</time>
      </trkpt>
      <trkpt lat="42.7472470" lon="-0.2052630">
        <ele>2404.8</ele>
        <time>2021-02-27T11:38:01Z</time>
      </trkpt>
      <trkpt lat="42.7472330" lon="-0.2052590">
        <ele>2405.0</ele>
        <time>2021-02-27T11:38:03Z</time>
      </trkpt>
      <trkpt lat="42.7472270" lon="-0.2052590">
        <ele>2405.0</ele>
        <time>2021-02-27T11:38:04Z</time>
      </trkpt>
      <trkpt lat="42.7472220" lon="-0.2052590">
        <ele>2405.0</ele>
        <time>2021-02-27T11:38:05Z</time>
      </trkpt>
      <trkpt lat="42.7472090" lon="-0.2052580">
        <ele>2405.0</ele>
        <time>2021-02-27T11:38:07Z</time>
      </trkpt>
      <trkpt lat="42.7472050" lon="-0.2052580">
        <ele>2405.0</ele>
        <time>2021-02-27T11:38:08Z</time>
      </trkpt>
      <trkpt lat="42.7471830" lon="-0.2052580">
        <ele>2405.0</ele>
        <time>2021-02-27T11:38:11Z</time>
      </trkpt>
      <trkpt lat="42.7471690" lon="-0.2052570">
        <ele>2405.2</ele>
        <time>2021-02-27T11:38:13Z</time>
      </trkpt>
      <trkpt lat="42.7471460" lon="-0.2052520">
        <ele>2405.4</ele>
        <time>2021-02-27T11:38:16Z</time>
      </trkpt>
      <trkpt lat="42.7471320" lon="-0.2052460">
        <ele>2405.4</ele>
        <time>2021-02-27T11:38:18Z</time>
      </trkpt>
      <trkpt lat="42.7470980" lon="-0.2052500">
        <ele>2405.4</ele>
        <time>2021-02-27T11:38:24Z</time>
      </trkpt>
      <trkpt lat="42.7470840" lon="-0.2052440">
        <ele>2405.4</ele>
        <time>2021-02-27T11:38:26Z</time>
      </trkpt>
      <trkpt lat="42.7469950" lon="-0.2052350">
        <ele>2405.4</ele>
        <time>2021-02-27T11:38:36Z</time>
      </trkpt>
      <trkpt lat="42.7469780" lon="-0.2052340">
        <ele>2405.2</ele>
        <time>2021-02-27T11:38:38Z</time>
      </trkpt>
      <trkpt lat="42.7468970" lon="-0.2052030">
        <ele>2405.4</ele>
        <time>2021-02-27T11:38:49Z</time>
      </trkpt>
      <trkpt lat="42.7468630" lon="-0.2051900">
        <ele>2405.6</ele>
        <time>2021-02-27T11:38:54Z</time>
      </trkpt>
      <trkpt lat="42.7468220" lon="-0.2051650">
        <ele>2405.8</ele>
        <time>2021-02-27T11:39:00Z</time>
      </trkpt>
      <trkpt lat="42.7467820" lon="-0.2051620">
        <ele>2405.6</ele>
        <time>2021-02-27T11:39:05Z</time>
      </trkpt>
      <trkpt lat="42.7467730" lon="-0.2051630">
        <ele>2405.6</ele>
        <time>2021-02-27T11:39:06Z</time>
      </trkpt>
      <trkpt lat="42.7467590" lon="-0.2051600">
        <ele>2405.6</ele>
        <time>2021-02-27T11:39:08Z</time>
      </trkpt>
      <trkpt lat="42.7467450" lon="-0.2051610">
        <ele>2405.6</ele>
        <time>2021-02-27T11:39:10Z</time>
      </trkpt>
      <trkpt lat="42.7466320" lon="-0.2051520">
        <ele>2405.6</ele>
        <time>2021-02-27T11:39:25Z</time>
      </trkpt>
      <trkpt lat="42.7466150" lon="-0.2051560">
        <ele>2405.8</ele>
        <time>2021-02-27T11:39:28Z</time>
      </trkpt>
      <trkpt lat="42.7465980" lon="-0.2051530">
        <ele>2406.0</ele>
        <time>2021-02-27T11:39:31Z</time>
      </trkpt>
      <trkpt lat="42.7465850" lon="-0.2051530">
        <ele>2406.0</ele>
        <time>2021-02-27T11:39:33Z</time>
      </trkpt>
      <trkpt lat="42.7465400" lon="-0.2051370">
        <ele>2406.0</ele>
        <time>2021-02-27T11:39:39Z</time>
      </trkpt>
      <trkpt lat="42.7465200" lon="-0.2051180">
        <ele>2406.4</ele>
        <time>2021-02-27T11:39:43Z</time>
      </trkpt>
      <trkpt lat="42.7464920" lon="-0.2050870">
        <ele>2407.0</ele>
        <time>2021-02-27T11:39:48Z</time>
      </trkpt>
      <trkpt lat="42.7464860" lon="-0.2050800">
        <ele>2407.0</ele>
        <time>2021-02-27T11:39:49Z</time>
      </trkpt>
      <trkpt lat="42.7464680" lon="-0.2050620">
        <ele>2407.6</ele>
        <time>2021-02-27T11:39:53Z</time>
      </trkpt>
      <trkpt lat="42.7464410" lon="-0.2050470">
        <ele>2407.8</ele>
        <time>2021-02-27T11:39:57Z</time>
      </trkpt>
      <trkpt lat="42.7463990" lon="-0.2050240">
        <ele>2408.0</ele>
        <time>2021-02-27T11:40:05Z</time>
      </trkpt>
      <trkpt lat="42.7463920" lon="-0.2050210">
        <ele>2408.0</ele>
        <time>2021-02-27T11:40:06Z</time>
      </trkpt>
      <trkpt lat="42.7463810" lon="-0.2050150">
        <ele>2408.2</ele>
        <time>2021-02-27T11:40:08Z</time>
      </trkpt>
      <trkpt lat="42.7463380" lon="-0.2049900">
        <ele>2408.4</ele>
        <time>2021-02-27T11:40:14Z</time>
      </trkpt>
      <trkpt lat="42.7463200" lon="-0.2049750">
        <ele>2408.8</ele>
        <time>2021-02-27T11:40:19Z</time>
      </trkpt>
      <trkpt lat="42.7462680" lon="-0.2049570">
        <ele>2409.2</ele>
        <time>2021-02-27T11:40:27Z</time>
      </trkpt>
      <trkpt lat="42.7462530" lon="-0.2049560">
        <ele>2409.2</ele>
        <time>2021-02-27T11:40:29Z</time>
      </trkpt>
      <trkpt lat="42.7462440" lon="-0.2049540">
        <ele>2409.2</ele>
        <time>2021-02-27T11:40:30Z</time>
      </trkpt>
      <trkpt lat="42.7461880" lon="-0.2049290">
        <ele>2409.0</ele>
        <time>2021-02-27T11:40:39Z</time>
      </trkpt>
      <trkpt lat="42.7461710" lon="-0.2049190">
        <ele>2409.0</ele>
        <time>2021-02-27T11:40:42Z</time>
      </trkpt>
      <trkpt lat="42.7461640" lon="-0.2049140">
        <ele>2409.0</ele>
        <time>2021-02-27T11:40:43Z</time>
      </trkpt>
      <trkpt lat="42.7461510" lon="-0.2049090">
        <ele>2409.0</ele>
        <time>2021-02-27T11:40:45Z</time>
      </trkpt>
      <trkpt lat="42.7461320" lon="-0.2048910">
        <ele>2409.0</ele>
        <time>2021-02-27T11:40:48Z</time>
      </trkpt>
      <trkpt lat="42.7461130" lon="-0.2048740">
        <ele>2409.2</ele>
        <time>2021-02-27T11:40:51Z</time>
      </trkpt>
      <trkpt lat="42.7461030" lon="-0.2048680">
        <ele>2409.2</ele>
        <time>2021-02-27T11:40:53Z</time>
      </trkpt>
      <trkpt lat="42.7460970" lon="-0.2048630">
        <ele>2409.2</ele>
        <time>2021-02-27T11:40:54Z</time>
      </trkpt>
      <trkpt lat="42.7460880" lon="-0.2048530">
        <ele>2409.4</ele>
        <time>2021-02-27T11:40:56Z</time>
      </trkpt>
      <trkpt lat="42.7460780" lon="-0.2048450">
        <ele>2409.8</ele>
        <time>2021-02-27T11:40:58Z</time>
      </trkpt>
      <trkpt lat="42.7460700" lon="-0.2048390">
        <ele>2409.8</ele>
        <time>2021-02-27T11:40:59Z</time>
      </trkpt>
      <trkpt lat="42.7460500" lon="-0.2048270">
        <ele>2410.2</ele>
        <time>2021-02-27T11:41:03Z</time>
      </trkpt>
      <trkpt lat="42.7460160" lon="-0.2047900">
        <ele>2410.6</ele>
        <time>2021-02-27T11:41:08Z</time>
      </trkpt>
      <trkpt lat="42.7460050" lon="-0.2047770">
        <ele>2411.0</ele>
        <time>2021-02-27T11:41:10Z</time>
      </trkpt>
      <trkpt lat="42.7459990" lon="-0.2047690">
        <ele>2411.2</ele>
        <time>2021-02-27T11:41:11Z</time>
      </trkpt>
      <trkpt lat="42.7459890" lon="-0.2047520">
        <ele>2411.6</ele>
        <time>2021-02-27T11:41:13Z</time>
      </trkpt>
      <trkpt lat="42.7459890" lon="-0.2047460">
        <ele>2411.8</ele>
        <time>2021-02-27T11:41:14Z</time>
      </trkpt>
      <trkpt lat="42.7459860" lon="-0.2047400">
        <ele>2412.0</ele>
        <time>2021-02-27T11:41:15Z</time>
      </trkpt>
      <trkpt lat="42.7459850" lon="-0.2047320">
        <ele>2412.2</ele>
        <time>2021-02-27T11:41:16Z</time>
      </trkpt>
      <trkpt lat="42.7459840" lon="-0.2047220">
        <ele>2412.4</ele>
        <time>2021-02-27T11:41:17Z</time>
      </trkpt>
      <trkpt lat="42.7459730" lon="-0.2046970">
        <ele>2413.2</ele>
        <time>2021-02-27T11:41:22Z</time>
      </trkpt>
      <trkpt lat="42.7459710" lon="-0.2046920">
        <ele>2413.6</ele>
        <time>2021-02-27T11:41:23Z</time>
      </trkpt>
      <trkpt lat="42.7459700" lon="-0.2046860">
        <ele>2413.8</ele>
        <time>2021-02-27T11:41:24Z</time>
      </trkpt>
      <trkpt lat="42.7459720" lon="-0.2046740">
        <ele>2414.6</ele>
        <time>2021-02-27T11:41:28Z</time>
      </trkpt>
      <trkpt lat="42.7459750" lon="-0.2046540">
        <ele>2415.6</ele>
        <time>2021-02-27T11:41:33Z</time>
      </trkpt>
      <trkpt lat="42.7459770" lon="-0.2046510">
        <ele>2415.8</ele>
        <time>2021-02-27T11:41:34Z</time>
      </trkpt>
      <trkpt lat="42.7459780" lon="-0.2046460">
        <ele>2416.0</ele>
        <time>2021-02-27T11:41:35Z</time>
      </trkpt>
      <trkpt lat="42.7459820" lon="-0.2046450">
        <ele>2416.0</ele>
        <time>2021-02-27T11:41:36Z</time>
      </trkpt>
      <trkpt lat="42.7460060" lon="-0.2046320">
        <ele>2416.8</ele>
        <time>2021-02-27T11:41:40Z</time>
      </trkpt>
      <trkpt lat="42.7460150" lon="-0.2046190">
        <ele>2417.4</ele>
        <time>2021-02-27T11:41:43Z</time>
      </trkpt>
      <trkpt lat="42.7460120" lon="-0.2046080">
        <ele>2417.8</ele>
        <time>2021-02-27T11:41:45Z</time>
      </trkpt>
      <trkpt lat="42.7460000" lon="-0.2045890">
        <ele>2418.8</ele>
        <time>2021-02-27T11:41:48Z</time>
      </trkpt>
      <trkpt lat="42.7460000" lon="-0.2045810">
        <ele>2419.0</ele>
        <time>2021-02-27T11:41:49Z</time>
      </trkpt>
      <trkpt lat="42.7460110" lon="-0.2045800">
        <ele>2419.6</ele>
        <time>2021-02-27T11:41:54Z</time>
      </trkpt>
      <trkpt lat="42.7460110" lon="-0.2045790">
        <ele>2419.8</ele>
        <time>2021-02-27T11:41:55Z</time>
      </trkpt>
      <trkpt lat="42.7460120" lon="-0.2045800">
        <ele>2420.0</ele>
        <time>2021-02-27T11:42:05Z</time>
      </trkpt>
      <trkpt lat="42.7460120" lon="-0.2045800">
        <ele>2420.0</ele>
        <time>2021-02-27T11:42:06Z</time>
      </trkpt>
      <trkpt lat="42.7460120" lon="-0.2045800">
        <ele>2420.8</ele>
        <time>2021-02-27T11:42:12Z</time>
      </trkpt>
      <trkpt lat="42.7460110" lon="-0.2045800">
        <ele>2421.2</ele>
        <time>2021-02-27T11:42:14Z</time>
      </trkpt>
      <trkpt lat="42.7460040" lon="-0.2045700">
        <ele>2422.2</ele>
        <time>2021-02-27T11:42:20Z</time>
      </trkpt>
      <trkpt lat="42.7459970" lon="-0.2045500">
        <ele>2423.0</ele>
        <time>2021-02-27T11:42:26Z</time>
      </trkpt>
      <trkpt lat="42.7459900" lon="-0.2045490">
        <ele>2423.2</ele>
        <time>2021-02-27T11:42:27Z</time>
      </trkpt>
      <trkpt lat="42.7459790" lon="-0.2045370">
        <ele>2423.4</ele>
        <time>2021-02-27T11:42:29Z</time>
      </trkpt>
      <trkpt lat="42.7459400" lon="-0.2044840">
        <ele>2424.2</ele>
        <time>2021-02-27T11:42:35Z</time>
      </trkpt>
      <trkpt lat="42.7459290" lon="-0.2044630">
        <ele>2424.6</ele>
        <time>2021-02-27T11:42:39Z</time>
      </trkpt>
      <trkpt lat="42.7459040" lon="-0.2044430">
        <ele>2425.2</ele>
        <time>2021-02-27T11:42:45Z</time>
      </trkpt>
      <trkpt lat="42.7459000" lon="-0.2044410">
        <ele>2425.6</ele>
        <time>2021-02-27T11:42:48Z</time>
      </trkpt>
      <trkpt lat="42.7458860" lon="-0.2044360">
        <ele>2426.2</ele>
        <time>2021-02-27T11:42:52Z</time>
      </trkpt>
      <trkpt lat="42.7458830" lon="-0.2044330">
        <ele>2426.4</ele>
        <time>2021-02-27T11:42:53Z</time>
      </trkpt>
      <trkpt lat="42.7458780" lon="-0.2044290">
        <ele>2426.6</ele>
        <time>2021-02-27T11:42:54Z</time>
      </trkpt>
      <trkpt lat="42.7458550" lon="-0.2044120">
        <ele>2427.2</ele>
        <time>2021-02-27T11:43:00Z</time>
      </trkpt>
      <trkpt lat="42.7458530" lon="-0.2044110">
        <ele>2427.2</ele>
        <time>2021-02-27T11:43:01Z</time>
      </trkpt>
      <trkpt lat="42.7458250" lon="-0.2043930">
        <ele>2428.4</ele>
        <time>2021-02-27T11:43:08Z</time>
      </trkpt>
      <trkpt lat="42.7457940" lon="-0.2043750">
        <ele>2429.6</ele>
        <time>2021-02-27T11:43:15Z</time>
      </trkpt>
      <trkpt lat="42.7457680" lon="-0.2043610">
        <ele>2430.2</ele>
        <time>2021-02-27T11:43:21Z</time>
      </trkpt>
      <trkpt lat="42.7457580" lon="-0.2043550">
        <ele>2430.6</ele>
        <time>2021-02-27T11:43:24Z</time>
      </trkpt>
      <trkpt lat="42.7457240" lon="-0.2043450">
        <ele>2431.8</ele>
        <time>2021-02-27T11:43:32Z</time>
      </trkpt>
      <trkpt lat="42.7456970" lon="-0.2043430">
        <ele>2432.4</ele>
        <time>2021-02-27T11:43:38Z</time>
      </trkpt>
      <trkpt lat="42.7456910" lon="-0.2043410">
        <ele>2432.8</ele>
        <time>2021-02-27T11:43:40Z</time>
      </trkpt>
      <trkpt lat="42.7456870" lon="-0.2043390">
        <ele>2432.8</ele>
        <time>2021-02-27T11:43:41Z</time>
      </trkpt>
      <trkpt lat="42.7456520" lon="-0.2043200">
        <ele>2434.0</ele>
        <time>2021-02-27T11:43:49Z</time>
      </trkpt>
      <trkpt lat="42.7456050" lon="-0.2042990">
        <ele>2435.0</ele>
        <time>2021-02-27T11:43:58Z</time>
      </trkpt>
      <trkpt lat="42.7455880" lon="-0.2042910">
        <ele>2435.8</ele>
        <time>2021-02-27T11:44:02Z</time>
      </trkpt>
      <trkpt lat="42.7455790" lon="-0.2042900">
        <ele>2436.2</ele>
        <time>2021-02-27T11:44:04Z</time>
      </trkpt>
      <trkpt lat="42.7455650" lon="-0.2042860">
        <ele>2436.4</ele>
        <time>2021-02-27T11:44:07Z</time>
      </trkpt>
      <trkpt lat="42.7455290" lon="-0.2042490">
        <ele>2436.8</ele>
        <time>2021-02-27T11:44:14Z</time>
      </trkpt>
      <trkpt lat="42.7455180" lon="-0.2042440">
        <ele>2437.4</ele>
        <time>2021-02-27T11:44:17Z</time>
      </trkpt>
      <trkpt lat="42.7455010" lon="-0.2042390">
        <ele>2437.8</ele>
        <time>2021-02-27T11:44:21Z</time>
      </trkpt>
      <trkpt lat="42.7454820" lon="-0.2042350">
        <ele>2437.8</ele>
        <time>2021-02-27T11:44:24Z</time>
      </trkpt>
      <trkpt lat="42.7453870" lon="-0.2042090">
        <ele>2437.6</ele>
        <time>2021-02-27T11:44:30Z</time>
      </trkpt>
      <trkpt lat="42.7453410" lon="-0.2042020">
        <ele>2437.6</ele>
        <time>2021-02-27T11:44:33Z</time>
      </trkpt>
      <trkpt lat="42.7453170" lon="-0.2041860">
        <ele>2437.8</ele>
        <time>2021-02-27T11:44:37Z</time>
      </trkpt>
      <trkpt lat="42.7452870" lon="-0.2041890">
        <ele>2438.4</ele>
        <time>2021-02-27T11:44:43Z</time>
      </trkpt>
      <trkpt lat="42.7452730" lon="-0.2041850">
        <ele>2438.6</ele>
        <time>2021-02-27T11:44:46Z</time>
      </trkpt>
      <trkpt lat="42.7452440" lon="-0.2041720">
        <ele>2439.6</ele>
        <time>2021-02-27T11:44:54Z</time>
      </trkpt>
      <trkpt lat="42.7452360" lon="-0.2041690">
        <ele>2440.0</ele>
        <time>2021-02-27T11:44:56Z</time>
      </trkpt>
      <trkpt lat="42.7452210" lon="-0.2041690">
        <ele>2440.4</ele>
        <time>2021-02-27T11:44:59Z</time>
      </trkpt>
      <trkpt lat="42.7452000" lon="-0.2041590">
        <ele>2440.6</ele>
        <time>2021-02-27T11:45:02Z</time>
      </trkpt>
      <trkpt lat="42.7451870" lon="-0.2041500">
        <ele>2441.0</ele>
        <time>2021-02-27T11:45:05Z</time>
      </trkpt>
      <trkpt lat="42.7451620" lon="-0.2041310">
        <ele>2441.8</ele>
        <time>2021-02-27T11:45:10Z</time>
      </trkpt>
      <trkpt lat="42.7451560" lon="-0.2041240">
        <ele>2442.0</ele>
        <time>2021-02-27T11:45:11Z</time>
      </trkpt>
      <trkpt lat="42.7451360" lon="-0.2041070">
        <ele>2442.8</ele>
        <time>2021-02-27T11:45:16Z</time>
      </trkpt>
      <trkpt lat="42.7451160" lon="-0.2040890">
        <ele>2443.8</ele>
        <time>2021-02-27T11:45:20Z</time>
      </trkpt>
      <trkpt lat="42.7451110" lon="-0.2040830">
        <ele>2444.0</ele>
        <time>2021-02-27T11:45:21Z</time>
      </trkpt>
      <trkpt lat="42.7451070" lon="-0.2040880">
        <ele>2444.4</ele>
        <time>2021-02-27T11:45:23Z</time>
      </trkpt>
      <trkpt lat="42.7450840" lon="-0.2040480">
        <ele>2445.0</ele>
        <time>2021-02-27T11:45:26Z</time>
      </trkpt>
      <trkpt lat="42.7450850" lon="-0.2040440">
        <ele>2445.2</ele>
        <time>2021-02-27T11:45:27Z</time>
      </trkpt>
      <trkpt lat="42.7450900" lon="-0.2040480">
        <ele>2445.4</ele>
        <time>2021-02-27T11:45:29Z</time>
      </trkpt>
      <trkpt lat="42.7450850" lon="-0.2040500">
        <ele>2445.6</ele>
        <time>2021-02-27T11:45:30Z</time>
      </trkpt>
      <trkpt lat="42.7450690" lon="-0.2040400">
        <ele>2446.0</ele>
        <time>2021-02-27T11:45:32Z</time>
      </trkpt>
      <trkpt lat="42.7450590" lon="-0.2040390">
        <ele>2446.6</ele>
        <time>2021-02-27T11:45:35Z</time>
      </trkpt>
      <trkpt lat="42.7450540" lon="-0.2040370">
        <ele>2446.8</ele>
        <time>2021-02-27T11:45:36Z</time>
      </trkpt>
      <trkpt lat="42.7450470" lon="-0.2040280">
        <ele>2446.8</ele>
        <time>2021-02-27T11:45:37Z</time>
      </trkpt>
      <trkpt lat="42.7450380" lon="-0.2040180">
        <ele>2447.0</ele>
        <time>2021-02-27T11:45:38Z</time>
      </trkpt>
      <trkpt lat="42.7450310" lon="-0.2040110">
        <ele>2447.0</ele>
        <time>2021-02-27T11:45:39Z</time>
      </trkpt>
      <trkpt lat="42.7450150" lon="-0.2040270">
        <ele>2447.6</ele>
        <time>2021-02-27T11:45:44Z</time>
      </trkpt>
      <trkpt lat="42.7450090" lon="-0.2040500">
        <ele>2448.2</ele>
        <time>2021-02-27T11:45:47Z</time>
      </trkpt>
      <trkpt lat="42.7450000" lon="-0.2040650">
        <ele>2448.4</ele>
        <time>2021-02-27T11:45:49Z</time>
      </trkpt>
      <trkpt lat="42.7450000" lon="-0.2040690">
        <ele>2449.0</ele>
        <time>2021-02-27T11:45:52Z</time>
      </trkpt>
      <trkpt lat="42.7450010" lon="-0.2040590">
        <ele>2449.2</ele>
        <time>2021-02-27T11:45:54Z</time>
      </trkpt>
      <trkpt lat="42.7449620" lon="-0.2040300">
        <ele>2450.2</ele>
        <time>2021-02-27T11:46:03Z</time>
      </trkpt>
      <trkpt lat="42.7449560" lon="-0.2040260">
        <ele>2450.4</ele>
        <time>2021-02-27T11:46:04Z</time>
      </trkpt>
      <trkpt lat="42.7449100" lon="-0.2040240">
        <ele>2451.0</ele>
        <time>2021-02-27T11:46:13Z</time>
      </trkpt>
      <trkpt lat="42.7449100" lon="-0.2040310">
        <ele>2451.4</ele>
        <time>2021-02-27T11:46:16Z</time>
      </trkpt>
      <trkpt lat="42.7449130" lon="-0.2040360">
        <ele>2451.4</ele>
        <time>2021-02-27T11:46:21Z</time>
      </trkpt>
      <trkpt lat="42.7449130" lon="-0.2040360">
        <ele>2451.8</ele>
        <time>2021-02-27T11:46:27Z</time>
      </trkpt>
      <trkpt lat="42.7449130" lon="-0.2040360">
        <ele>2452.4</ele>
        <time>2021-02-27T11:46:30Z</time>
      </trkpt>
      <trkpt lat="42.7449130" lon="-0.2040340">
        <ele>2453.0</ele>
        <time>2021-02-27T11:46:33Z</time>
      </trkpt>
      <trkpt lat="42.7449100" lon="-0.2040300">
        <ele>2453.6</ele>
        <time>2021-02-27T11:46:37Z</time>
      </trkpt>
      <trkpt lat="42.7449090" lon="-0.2040240">
        <ele>2454.4</ele>
        <time>2021-02-27T11:46:41Z</time>
      </trkpt>
      <trkpt lat="42.7449030" lon="-0.2040230">
        <ele>2454.6</ele>
        <time>2021-02-27T11:46:43Z</time>
      </trkpt>
      <trkpt lat="42.7448730" lon="-0.2040200">
        <ele>2455.8</ele>
        <time>2021-02-27T11:46:50Z</time>
      </trkpt>
      <trkpt lat="42.7448410" lon="-0.2040070">
        <ele>2456.6</ele>
        <time>2021-02-27T11:46:56Z</time>
      </trkpt>
      <trkpt lat="42.7448290" lon="-0.2039960">
        <ele>2456.8</ele>
        <time>2021-02-27T11:46:58Z</time>
      </trkpt>
      <trkpt lat="42.7448200" lon="-0.2039900">
        <ele>2457.4</ele>
        <time>2021-02-27T11:47:01Z</time>
      </trkpt>
      <trkpt lat="42.7448150" lon="-0.2039860">
        <ele>2457.6</ele>
        <time>2021-02-27T11:47:02Z</time>
      </trkpt>
      <trkpt lat="42.7448060" lon="-0.2039770">
        <ele>2457.8</ele>
        <time>2021-02-27T11:47:04Z</time>
      </trkpt>
      <trkpt lat="42.7447870" lon="-0.2039680">
        <ele>2458.8</ele>
        <time>2021-02-27T11:47:10Z</time>
      </trkpt>
      <trkpt lat="42.7447840" lon="-0.2039660">
        <ele>2459.0</ele>
        <time>2021-02-27T11:47:11Z</time>
      </trkpt>
      <trkpt lat="42.7447740" lon="-0.2039630">
        <ele>2459.6</ele>
        <time>2021-02-27T11:47:15Z</time>
      </trkpt>
      <trkpt lat="42.7447650" lon="-0.2039590">
        <ele>2460.0</ele>
        <time>2021-02-27T11:47:18Z</time>
      </trkpt>
      <trkpt lat="42.7447620" lon="-0.2039590">
        <ele>2460.0</ele>
        <time>2021-02-27T11:47:19Z</time>
      </trkpt>
      <trkpt lat="42.7447460" lon="-0.2039560">
        <ele>2460.4</ele>
        <time>2021-02-27T11:47:23Z</time>
      </trkpt>
      <trkpt lat="42.7447390" lon="-0.2039540">
        <ele>2460.6</ele>
        <time>2021-02-27T11:47:24Z</time>
      </trkpt>
      <trkpt lat="42.7447310" lon="-0.2039470">
        <ele>2461.0</ele>
        <time>2021-02-27T11:47:26Z</time>
      </trkpt>
      <trkpt lat="42.7447140" lon="-0.2039400">
        <ele>2462.2</ele>
        <time>2021-02-27T11:47:32Z</time>
      </trkpt>
      <trkpt lat="42.7446780" lon="-0.2039240">
        <ele>2463.2</ele>
        <time>2021-02-27T11:47:41Z</time>
      </trkpt>
      <trkpt lat="42.7446560" lon="-0.2039220">
        <ele>2464.4</ele>
        <time>2021-02-27T11:47:48Z</time>
      </trkpt>
      <trkpt lat="42.7446260" lon="-0.2039230">
        <ele>2465.4</ele>
        <time>2021-02-27T11:47:56Z</time>
      </trkpt>
      <trkpt lat="42.7445990" lon="-0.2039210">
        <ele>2466.4</ele>
        <time>2021-02-27T11:48:05Z</time>
      </trkpt>
      <trkpt lat="42.7445850" lon="-0.2039200">
        <ele>2467.2</ele>
        <time>2021-02-27T11:48:10Z</time>
      </trkpt>
      <trkpt lat="42.7445830" lon="-0.2039200">
        <ele>2467.4</ele>
        <time>2021-02-27T11:48:11Z</time>
      </trkpt>
      <trkpt lat="42.7445800" lon="-0.2039200">
        <ele>2467.6</ele>
        <time>2021-02-27T11:48:12Z</time>
      </trkpt>
      <trkpt lat="42.7445740" lon="-0.2039160">
        <ele>2467.8</ele>
        <time>2021-02-27T11:48:14Z</time>
      </trkpt>
      <trkpt lat="42.7445640" lon="-0.2039090">
        <ele>2468.2</ele>
        <time>2021-02-27T11:48:17Z</time>
      </trkpt>
      <trkpt lat="42.7445570" lon="-0.2039050">
        <ele>2468.6</ele>
        <time>2021-02-27T11:48:19Z</time>
      </trkpt>
      <trkpt lat="42.7445320" lon="-0.2038950">
        <ele>2469.6</ele>
        <time>2021-02-27T11:48:26Z</time>
      </trkpt>
      <trkpt lat="42.7445080" lon="-0.2038900">
        <ele>2470.8</ele>
        <time>2021-02-27T11:48:32Z</time>
      </trkpt>
      <trkpt lat="42.7445010" lon="-0.2038880">
        <ele>2471.0</ele>
        <time>2021-02-27T11:48:34Z</time>
      </trkpt>
      <trkpt lat="42.7444780" lon="-0.2038750">
        <ele>2471.6</ele>
        <time>2021-02-27T11:48:40Z</time>
      </trkpt>
      <trkpt lat="42.7444750" lon="-0.2038730">
        <ele>2472.0</ele>
        <time>2021-02-27T11:48:41Z</time>
      </trkpt>
      <trkpt lat="42.7444690" lon="-0.2038680">
        <ele>2472.2</ele>
        <time>2021-02-27T11:48:43Z</time>
      </trkpt>
      <trkpt lat="42.7444580" lon="-0.2038620">
        <ele>2472.8</ele>
        <time>2021-02-27T11:48:47Z</time>
      </trkpt>
      <trkpt lat="42.7444540" lon="-0.2038610">
        <ele>2473.0</ele>
        <time>2021-02-27T11:48:48Z</time>
      </trkpt>
      <trkpt lat="42.7444510" lon="-0.2038580">
        <ele>2473.0</ele>
        <time>2021-02-27T11:48:49Z</time>
      </trkpt>
      <trkpt lat="42.7444270" lon="-0.2038240">
        <ele>2474.0</ele>
        <time>2021-02-27T11:48:57Z</time>
      </trkpt>
      <trkpt lat="42.7444130" lon="-0.2038080">
        <ele>2475.0</ele>
        <time>2021-02-27T11:49:04Z</time>
      </trkpt>
      <trkpt lat="42.7443990" lon="-0.2037680">
        <ele>2475.6</ele>
        <time>2021-02-27T11:49:14Z</time>
      </trkpt>
      <trkpt lat="42.7443910" lon="-0.2037110">
        <ele>2476.0</ele>
        <time>2021-02-27T11:49:36Z</time>
      </trkpt>
      <trkpt lat="42.7443920" lon="-0.2037090">
        <ele>2476.0</ele>
        <time>2021-02-27T11:49:40Z</time>
      </trkpt>
      <trkpt lat="42.7443920" lon="-0.2037090">
        <ele>2476.0</ele>
        <time>2021-02-27T11:49:43Z</time>
      </trkpt>
      <trkpt lat="42.7443920" lon="-0.2037090">
        <ele>2476.0</ele>
        <time>2021-02-27T11:49:47Z</time>
      </trkpt>
      <trkpt lat="42.7443920" lon="-0.2037090">
        <ele>2476.0</ele>
        <time>2021-02-27T11:49:50Z</time>
      </trkpt>
      <trkpt lat="42.7443920" lon="-0.2037090">
        <ele>2475.8</ele>
        <time>2021-02-27T11:49:51Z</time>
      </trkpt>
      <trkpt lat="42.7443920" lon="-0.2037090">
        <ele>2475.8</ele>
        <time>2021-02-27T11:49:52Z</time>
      </trkpt>
      <trkpt lat="42.7443920" lon="-0.2037090">
        <ele>2475.8</ele>
        <time>2021-02-27T11:49:54Z</time>
      </trkpt>
      <trkpt lat="42.7443920" lon="-0.2037080">
        <ele>2475.8</ele>
        <time>2021-02-27T11:49:56Z</time>
      </trkpt>
      <trkpt lat="42.7443920" lon="-0.2037080">
        <ele>2475.8</ele>
        <time>2021-02-27T11:49:58Z</time>
      </trkpt>
      <trkpt lat="42.7443920" lon="-0.2037080">
        <ele>2476.2</ele>
        <time>2021-02-27T11:50:01Z</time>
      </trkpt>
      <trkpt lat="42.7443920" lon="-0.2037080">
        <ele>2476.2</ele>
        <time>2021-02-27T11:50:04Z</time>
      </trkpt>
      <trkpt lat="42.7443920" lon="-0.2037070">
        <ele>2476.0</ele>
        <time>2021-02-27T11:50:20Z</time>
      </trkpt>
      <trkpt lat="42.7443920" lon="-0.2037070">
        <ele>2476.2</ele>
        <time>2021-02-27T11:50:23Z</time>
      </trkpt>
      <trkpt lat="42.7443920" lon="-0.2037070">
        <ele>2476.2</ele>
        <time>2021-02-27T11:50:29Z</time>
      </trkpt>
      <trkpt lat="42.7443920" lon="-0.2037070">
        <ele>2476.2</ele>
        <time>2021-02-27T11:50:35Z</time>
      </trkpt>
      <trkpt lat="42.7443920" lon="-0.2037070">
        <ele>2476.2</ele>
        <time>2021-02-27T11:50:38Z</time>
      </trkpt>
      <trkpt lat="42.7443920" lon="-0.2037070">
        <ele>2476.2</ele>
        <time>2021-02-27T11:50:42Z</time>
      </trkpt>
      <trkpt lat="42.7443930" lon="-0.2037070">
        <ele>2476.2</ele>
        <time>2021-02-27T11:50:59Z</time>
      </trkpt>
      <trkpt lat="42.7443930" lon="-0.2037070">
        <ele>2476.2</ele>
        <time>2021-02-27T11:51:04Z</time>
      </trkpt>
      <trkpt lat="42.7443930" lon="-0.2037070">
        <ele>2476.2</ele>
        <time>2021-02-27T11:51:07Z</time>
      </trkpt>
      <trkpt lat="42.7443930" lon="-0.2037060">
        <ele>2476.2</ele>
        <time>2021-02-27T11:51:19Z</time>
      </trkpt>
      <trkpt lat="42.7443930" lon="-0.2037060">
        <ele>2476.2</ele>
        <time>2021-02-27T11:51:20Z</time>
      </trkpt>
      <trkpt lat="42.7443930" lon="-0.2037050">
        <ele>2476.2</ele>
        <time>2021-02-27T11:51:31Z</time>
      </trkpt>
      <trkpt lat="42.7443930" lon="-0.2037050">
        <ele>2476.2</ele>
        <time>2021-02-27T11:51:36Z</time>
      </trkpt>
      <trkpt lat="42.7443940" lon="-0.2037050">
        <ele>2476.2</ele>
        <time>2021-02-27T11:51:44Z</time>
      </trkpt>
      <trkpt lat="42.7443940" lon="-0.2037040">
        <ele>2476.2</ele>
        <time>2021-02-27T11:51:54Z</time>
      </trkpt>
      <trkpt lat="42.7443960" lon="-0.2037000">
        <ele>2476.0</ele>
        <time>2021-02-27T11:54:20Z</time>
      </trkpt>
      <trkpt lat="42.7443960" lon="-0.2036990">
        <ele>2476.6</ele>
        <time>2021-02-27T11:54:23Z</time>
      </trkpt>
      <trkpt lat="42.7443960" lon="-0.2036990">
        <ele>2477.0</ele>
        <time>2021-02-27T11:54:24Z</time>
      </trkpt>
      <trkpt lat="42.7443960" lon="-0.2036990">
        <ele>2477.2</ele>
        <time>2021-02-27T11:54:25Z</time>
      </trkpt>
      <trkpt lat="42.7443960" lon="-0.2036990">
        <ele>2478.2</ele>
        <time>2021-02-27T11:54:34Z</time>
      </trkpt>
      <trkpt lat="42.7443950" lon="-0.2036990">
        <ele>2479.4</ele>
        <time>2021-02-27T11:54:40Z</time>
      </trkpt>
      <trkpt lat="42.7443950" lon="-0.2036990">
        <ele>2480.4</ele>
        <time>2021-02-27T11:54:45Z</time>
      </trkpt>
      <trkpt lat="42.7443950" lon="-0.2036990">
        <ele>2480.6</ele>
        <time>2021-02-27T11:54:46Z</time>
      </trkpt>
      <trkpt lat="42.7443950" lon="-0.2036990">
        <ele>2481.0</ele>
        <time>2021-02-27T11:54:48Z</time>
      </trkpt>
      <trkpt lat="42.7443950" lon="-0.2036990">
        <ele>2481.6</ele>
        <time>2021-02-27T11:54:52Z</time>
      </trkpt>
      <trkpt lat="42.7443940" lon="-0.2036980">
        <ele>2482.4</ele>
        <time>2021-02-27T11:54:58Z</time>
      </trkpt>
      <trkpt lat="42.7443940" lon="-0.2036980">
        <ele>2482.6</ele>
        <time>2021-02-27T11:54:59Z</time>
      </trkpt>
      <trkpt lat="42.7443930" lon="-0.2036980">
        <ele>2482.8</ele>
        <time>2021-02-27T11:55:00Z</time>
      </trkpt>
      <trkpt lat="42.7443930" lon="-0.2036980">
        <ele>2483.2</ele>
        <time>2021-02-27T11:55:01Z</time>
      </trkpt>
      <trkpt lat="42.7443930" lon="-0.2036980">
        <ele>2483.2</ele>
        <time>2021-02-27T11:55:02Z</time>
      </trkpt>
      <trkpt lat="42.7443930" lon="-0.2036970">
        <ele>2483.4</ele>
        <time>2021-02-27T11:55:03Z</time>
      </trkpt>
      <trkpt lat="42.7443930" lon="-0.2036970">
        <ele>2483.4</ele>
        <time>2021-02-27T11:55:04Z</time>
      </trkpt>
      <trkpt lat="42.7443920" lon="-0.2036970">
        <ele>2483.6</ele>
        <time>2021-02-27T11:55:06Z</time>
      </trkpt>
      <trkpt lat="42.7443920" lon="-0.2036970">
        <ele>2483.8</ele>
        <time>2021-02-27T11:55:07Z</time>
      </trkpt>
      <trkpt lat="42.7443920" lon="-0.2036960">
        <ele>2484.4</ele>
        <time>2021-02-27T11:55:10Z</time>
      </trkpt>
      <trkpt lat="42.7443910" lon="-0.2036960">
        <ele>2484.8</ele>
        <time>2021-02-27T11:55:12Z</time>
      </trkpt>
      <trkpt lat="42.7443900" lon="-0.2036950">
        <ele>2485.4</ele>
        <time>2021-02-27T11:55:17Z</time>
      </trkpt>
      <trkpt lat="42.7443890" lon="-0.2036940">
        <ele>2486.0</ele>
        <time>2021-02-27T11:55:19Z</time>
      </trkpt>
      <trkpt lat="42.7443890" lon="-0.2036940">
        <ele>2486.2</ele>
        <time>2021-02-27T11:55:20Z</time>
      </trkpt>
      <trkpt lat="42.7443880" lon="-0.2036940">
        <ele>2486.4</ele>
        <time>2021-02-27T11:55:22Z</time>
      </trkpt>
      <trkpt lat="42.7443870" lon="-0.2036930">
        <ele>2487.0</ele>
        <time>2021-02-27T11:55:26Z</time>
      </trkpt>
      <trkpt lat="42.7443860" lon="-0.2036920">
        <ele>2487.8</ele>
        <time>2021-02-27T11:55:30Z</time>
      </trkpt>
      <trkpt lat="42.7443850" lon="-0.2036910">
        <ele>2488.2</ele>
        <time>2021-02-27T11:55:32Z</time>
      </trkpt>
      <trkpt lat="42.7443830" lon="-0.2036890">
        <ele>2489.4</ele>
        <time>2021-02-27T11:55:38Z</time>
      </trkpt>
      <trkpt lat="42.7443820" lon="-0.2036880">
        <ele>2489.8</ele>
        <time>2021-02-27T11:55:41Z</time>
      </trkpt>
      <trkpt lat="42.7443800" lon="-0.2036870">
        <ele>2490.4</ele>
        <time>2021-02-27T11:55:45Z</time>
      </trkpt>
      <trkpt lat="42.7443790" lon="-0.2036860">
        <ele>2490.6</ele>
        <time>2021-02-27T11:55:48Z</time>
      </trkpt>
      <trkpt lat="42.7443760" lon="-0.2036840">
        <ele>2491.4</ele>
        <time>2021-02-27T11:55:53Z</time>
      </trkpt>
      <trkpt lat="42.7443740" lon="-0.2036820">
        <ele>2492.2</ele>
        <time>2021-02-27T11:55:58Z</time>
      </trkpt>
      <trkpt lat="42.7443730" lon="-0.2036820">
        <ele>2492.4</ele>
        <time>2021-02-27T11:56:00Z</time>
      </trkpt>
      <trkpt lat="42.7443710" lon="-0.2036800">
        <ele>2492.8</ele>
        <time>2021-02-27T11:56:03Z</time>
      </trkpt>
      <trkpt lat="42.7443690" lon="-0.2036790">
        <ele>2493.4</ele>
        <time>2021-02-27T11:56:07Z</time>
      </trkpt>
      <trkpt lat="42.7443680" lon="-0.2036790">
        <ele>2493.4</ele>
        <time>2021-02-27T11:56:08Z</time>
      </trkpt>
      <trkpt lat="42.7443670" lon="-0.2036780">
        <ele>2493.6</ele>
        <time>2021-02-27T11:56:10Z</time>
      </trkpt>
      <trkpt lat="42.7443660" lon="-0.2036770">
        <ele>2494.0</ele>
        <time>2021-02-27T11:56:12Z</time>
      </trkpt>
      <trkpt lat="42.7443640" lon="-0.2036760">
        <ele>2494.4</ele>
        <time>2021-02-27T11:56:15Z</time>
      </trkpt>
      <trkpt lat="42.7443580" lon="-0.2036730">
        <ele>2495.6</ele>
        <time>2021-02-27T11:56:24Z</time>
      </trkpt>
      <trkpt lat="42.7443520" lon="-0.2036690">
        <ele>2496.6</ele>
        <time>2021-02-27T11:56:32Z</time>
      </trkpt>
      <trkpt lat="42.7443470" lon="-0.2036670">
        <ele>2497.8</ele>
        <time>2021-02-27T11:56:38Z</time>
      </trkpt>
      <trkpt lat="42.7442900" lon="-0.2036280">
        <ele>2498.0</ele>
        <time>2021-02-27T11:56:40Z</time>
      </trkpt>
      <trkpt lat="42.7440550" lon="-0.2034430">
        <ele>2498.8</ele>
        <time>2021-02-27T11:56:44Z</time>
      </trkpt>
      <trkpt lat="42.7439990" lon="-0.2033970">
        <ele>2498.8</ele>
        <time>2021-02-27T11:56:45Z</time>
      </trkpt>
      <trkpt lat="42.7437650" lon="-0.2032150">
        <ele>2499.4</ele>
        <time>2021-02-27T11:56:49Z</time>
      </trkpt>
      <trkpt lat="42.7437600" lon="-0.2031950">
        <ele>2500.0</ele>
        <time>2021-02-27T11:56:52Z</time>
      </trkpt>
      <trkpt lat="42.7437320" lon="-0.2031720">
        <ele>2500.8</ele>
        <time>2021-02-27T11:56:58Z</time>
      </trkpt>
      <trkpt lat="42.7437270" lon="-0.2031680">
        <ele>2501.0</ele>
        <time>2021-02-27T11:56:59Z</time>
      </trkpt>
      <trkpt lat="42.7437250" lon="-0.2031640">
        <ele>2501.2</ele>
        <time>2021-02-27T11:57:00Z</time>
      </trkpt>
      <trkpt lat="42.7437070" lon="-0.2031490">
        <ele>2502.2</ele>
        <time>2021-02-27T11:57:06Z</time>
      </trkpt>
      <trkpt lat="42.7436950" lon="-0.2031410">
        <ele>2502.4</ele>
        <time>2021-02-27T11:57:08Z</time>
      </trkpt>
      <trkpt lat="42.7436580" lon="-0.2031000">
        <ele>2503.4</ele>
        <time>2021-02-27T11:57:14Z</time>
      </trkpt>
      <trkpt lat="42.7436480" lon="-0.2031020">
        <ele>2504.0</ele>
        <time>2021-02-27T11:57:17Z</time>
      </trkpt>
      <trkpt lat="42.7436370" lon="-0.2030990">
        <ele>2504.4</ele>
        <time>2021-02-27T11:57:20Z</time>
      </trkpt>
      <trkpt lat="42.7436410" lon="-0.2031060">
        <ele>2505.0</ele>
        <time>2021-02-27T11:57:23Z</time>
      </trkpt>
      <trkpt lat="42.7436080" lon="-0.2030710">
        <ele>2505.6</ele>
        <time>2021-02-27T11:57:28Z</time>
      </trkpt>
      <trkpt lat="42.7435900" lon="-0.2030620">
        <ele>2506.2</ele>
        <time>2021-02-27T11:57:33Z</time>
      </trkpt>
      <trkpt lat="42.7435780" lon="-0.2030550">
        <ele>2506.6</ele>
        <time>2021-02-27T11:57:36Z</time>
      </trkpt>
      <trkpt lat="42.7435550" lon="-0.2030580">
        <ele>2507.2</ele>
        <time>2021-02-27T11:57:40Z</time>
      </trkpt>
      <trkpt lat="42.7435450" lon="-0.2030650">
        <ele>2507.8</ele>
        <time>2021-02-27T11:57:42Z</time>
      </trkpt>
      <trkpt lat="42.7435380" lon="-0.2030670">
        <ele>2508.2</ele>
        <time>2021-02-27T11:57:45Z</time>
      </trkpt>
      <trkpt lat="42.7435360" lon="-0.2030680">
        <ele>2508.2</ele>
        <time>2021-02-27T11:57:48Z</time>
      </trkpt>
      <trkpt lat="42.7435220" lon="-0.2030690">
        <ele>2508.8</ele>
        <time>2021-02-27T11:57:54Z</time>
      </trkpt>
      <trkpt lat="42.7435040" lon="-0.2030680">
        <ele>2509.4</ele>
        <time>2021-02-27T11:57:57Z</time>
      </trkpt>
      <trkpt lat="42.7434920" lon="-0.2030750">
        <ele>2510.0</ele>
        <time>2021-02-27T11:58:00Z</time>
      </trkpt>
      <trkpt lat="42.7434560" lon="-0.2030920">
        <ele>2511.0</ele>
        <time>2021-02-27T11:58:07Z</time>
      </trkpt>
      <trkpt lat="42.7434300" lon="-0.2030940">
        <ele>2512.2</ele>
        <time>2021-02-27T11:58:13Z</time>
      </trkpt>
      <trkpt lat="42.7434170" lon="-0.2030960">
        <ele>2513.0</ele>
        <time>2021-02-27T11:58:17Z</time>
      </trkpt>
      <trkpt lat="42.7434190" lon="-0.2030970">
        <ele>2513.2</ele>
        <time>2021-02-27T11:58:18Z</time>
      </trkpt>
      <trkpt lat="42.7434210" lon="-0.2030970">
        <ele>2513.2</ele>
        <time>2021-02-27T11:58:19Z</time>
      </trkpt>
      <trkpt lat="42.7434250" lon="-0.2031000">
        <ele>2514.4</ele>
        <time>2021-02-27T11:58:29Z</time>
      </trkpt>
      <trkpt lat="42.7434230" lon="-0.2031000">
        <ele>2515.4</ele>
        <time>2021-02-27T11:58:33Z</time>
      </trkpt>
      <trkpt lat="42.7434170" lon="-0.2031010">
        <ele>2516.4</ele>
        <time>2021-02-27T11:58:39Z</time>
      </trkpt>
      <trkpt lat="42.7434140" lon="-0.2031020">
        <ele>2516.6</ele>
        <time>2021-02-27T11:58:40Z</time>
      </trkpt>
      <trkpt lat="42.7433870" lon="-0.2031040">
        <ele>2517.6</ele>
        <time>2021-02-27T11:58:45Z</time>
      </trkpt>
      <trkpt lat="42.7433650" lon="-0.2031090">
        <ele>2518.4</ele>
        <time>2021-02-27T11:58:50Z</time>
      </trkpt>
      <trkpt lat="42.7433550" lon="-0.2031100">
        <ele>2518.8</ele>
        <time>2021-02-27T11:58:52Z</time>
      </trkpt>
      <trkpt lat="42.7433400" lon="-0.2031110">
        <ele>2519.8</ele>
        <time>2021-02-27T11:58:55Z</time>
      </trkpt>
      <trkpt lat="42.7432970" lon="-0.2031220">
        <ele>2521.0</ele>
        <time>2021-02-27T11:59:04Z</time>
      </trkpt>
      <trkpt lat="42.7432820" lon="-0.2031350">
        <ele>2522.0</ele>
        <time>2021-02-27T11:59:08Z</time>
      </trkpt>
      <trkpt lat="42.7432710" lon="-0.2031440">
        <ele>2522.6</ele>
        <time>2021-02-27T11:59:11Z</time>
      </trkpt>
      <trkpt lat="42.7432600" lon="-0.2031450">
        <ele>2523.0</ele>
        <time>2021-02-27T11:59:14Z</time>
      </trkpt>
      <trkpt lat="42.7432550" lon="-0.2031450">
        <ele>2523.0</ele>
        <time>2021-02-27T11:59:15Z</time>
      </trkpt>
      <trkpt lat="42.7432440" lon="-0.2031460">
        <ele>2523.6</ele>
        <time>2021-02-27T11:59:18Z</time>
      </trkpt>
      <trkpt lat="42.7432320" lon="-0.2031460">
        <ele>2524.0</ele>
        <time>2021-02-27T11:59:21Z</time>
      </trkpt>
      <trkpt lat="42.7432300" lon="-0.2031460">
        <ele>2524.0</ele>
        <time>2021-02-27T11:59:22Z</time>
      </trkpt>
      <trkpt lat="42.7432060" lon="-0.2031460">
        <ele>2525.2</ele>
        <time>2021-02-27T11:59:28Z</time>
      </trkpt>
      <trkpt lat="42.7431910" lon="-0.2031460">
        <ele>2526.4</ele>
        <time>2021-02-27T11:59:34Z</time>
      </trkpt>
      <trkpt lat="42.7431770" lon="-0.2031460">
        <ele>2527.0</ele>
        <time>2021-02-27T11:59:38Z</time>
      </trkpt>
      <trkpt lat="42.7431690" lon="-0.2031460">
        <ele>2527.4</ele>
        <time>2021-02-27T11:59:40Z</time>
      </trkpt>
      <trkpt lat="42.7431480" lon="-0.2031470">
        <ele>2528.4</ele>
        <time>2021-02-27T11:59:47Z</time>
      </trkpt>
      <trkpt lat="42.7431420" lon="-0.2031480">
        <ele>2528.8</ele>
        <time>2021-02-27T11:59:49Z</time>
      </trkpt>
      <trkpt lat="42.7430960" lon="-0.2031530">
        <ele>2529.6</ele>
        <time>2021-02-27T12:00:04Z</time>
      </trkpt>
      <trkpt lat="42.7430930" lon="-0.2031530">
        <ele>2530.4</ele>
        <time>2021-02-27T12:00:08Z</time>
      </trkpt>
      <trkpt lat="42.7430930" lon="-0.2031530">
        <ele>2530.8</ele>
        <time>2021-02-27T12:00:10Z</time>
      </trkpt>
      <trkpt lat="42.7430870" lon="-0.2031530">
        <ele>2531.8</ele>
        <time>2021-02-27T12:00:16Z</time>
      </trkpt>
      <trkpt lat="42.7430700" lon="-0.2031520">
        <ele>2532.8</ele>
        <time>2021-02-27T12:00:22Z</time>
      </trkpt>
      <trkpt lat="42.7430260" lon="-0.2031330">
        <ele>2533.6</ele>
        <time>2021-02-27T12:00:48Z</time>
      </trkpt>
      <trkpt lat="42.7430250" lon="-0.2031330">
        <ele>2534.0</ele>
        <time>2021-02-27T12:00:51Z</time>
      </trkpt>
      <trkpt lat="42.7430240" lon="-0.2031330">
        <ele>2534.8</ele>
        <time>2021-02-27T12:00:56Z</time>
      </trkpt>
      <trkpt lat="42.7430240" lon="-0.2031330">
        <ele>2535.2</ele>
        <time>2021-02-27T12:00:58Z</time>
      </trkpt>
      <trkpt lat="42.7430230" lon="-0.2031330">
        <ele>2535.8</ele>
        <time>2021-02-27T12:01:00Z</time>
      </trkpt>
      <trkpt lat="42.7430220" lon="-0.2031320">
        <ele>2536.4</ele>
        <time>2021-02-27T12:01:03Z</time>
      </trkpt>
      <trkpt lat="42.7430140" lon="-0.2031270">
        <ele>2537.4</ele>
        <time>2021-02-27T12:01:08Z</time>
      </trkpt>
      <trkpt lat="42.7430010" lon="-0.2031180">
        <ele>2538.6</ele>
        <time>2021-02-27T12:01:13Z</time>
      </trkpt>
      <trkpt lat="42.7429830" lon="-0.2031050">
        <ele>2539.8</ele>
        <time>2021-02-27T12:01:19Z</time>
      </trkpt>
      <trkpt lat="42.7429660" lon="-0.2030920">
        <ele>2541.0</ele>
        <time>2021-02-27T12:01:25Z</time>
      </trkpt>
      <trkpt lat="42.7429570" lon="-0.2030880">
        <ele>2541.6</ele>
        <time>2021-02-27T12:01:28Z</time>
      </trkpt>
      <trkpt lat="42.7429500" lon="-0.2030840">
        <ele>2542.2</ele>
        <time>2021-02-27T12:01:31Z</time>
      </trkpt>
      <trkpt lat="42.7429400" lon="-0.2030800">
        <ele>2543.2</ele>
        <time>2021-02-27T12:01:37Z</time>
      </trkpt>
      <trkpt lat="42.7429360" lon="-0.2030790">
        <ele>2544.4</ele>
        <time>2021-02-27T12:01:44Z</time>
      </trkpt>
      <trkpt lat="42.7429360" lon="-0.2030790">
        <ele>2544.4</ele>
        <time>2021-02-27T12:01:45Z</time>
      </trkpt>
      <trkpt lat="42.7429350" lon="-0.2030780">
        <ele>2544.6</ele>
        <time>2021-02-27T12:01:50Z</time>
      </trkpt>
      <trkpt lat="42.7429330" lon="-0.2030780">
        <ele>2545.4</ele>
        <time>2021-02-27T12:02:01Z</time>
      </trkpt>
      <trkpt lat="42.7429320" lon="-0.2030770">
        <ele>2546.6</ele>
        <time>2021-02-27T12:02:06Z</time>
      </trkpt>
      <trkpt lat="42.7429310" lon="-0.2030760">
        <ele>2547.6</ele>
        <time>2021-02-27T12:02:13Z</time>
      </trkpt>
      <trkpt lat="42.7429290" lon="-0.2030760">
        <ele>2548.8</ele>
        <time>2021-02-27T12:02:20Z</time>
      </trkpt>
      <trkpt lat="42.7429280" lon="-0.2030750">
        <ele>2549.4</ele>
        <time>2021-02-27T12:02:23Z</time>
      </trkpt>
      <trkpt lat="42.7429270" lon="-0.2030750">
        <ele>2549.8</ele>
        <time>2021-02-27T12:02:25Z</time>
      </trkpt>
      <trkpt lat="42.7429250" lon="-0.2030740">
        <ele>2551.0</ele>
        <time>2021-02-27T12:02:31Z</time>
      </trkpt>
      <trkpt lat="42.7429240" lon="-0.2030740">
        <ele>2551.4</ele>
        <time>2021-02-27T12:02:34Z</time>
      </trkpt>
      <trkpt lat="42.7429230" lon="-0.2030740">
        <ele>2552.2</ele>
        <time>2021-02-27T12:02:38Z</time>
      </trkpt>
      <trkpt lat="42.7429210" lon="-0.2030730">
        <ele>2553.2</ele>
        <time>2021-02-27T12:02:43Z</time>
      </trkpt>
      <trkpt lat="42.7429170" lon="-0.2030720">
        <ele>2554.4</ele>
        <time>2021-02-27T12:02:50Z</time>
      </trkpt>
      <trkpt lat="42.7429140" lon="-0.2030710">
        <ele>2555.4</ele>
        <time>2021-02-27T12:02:56Z</time>
      </trkpt>
      <trkpt lat="42.7429020" lon="-0.2030700">
        <ele>2556.4</ele>
        <time>2021-02-27T12:03:17Z</time>
      </trkpt>
      <trkpt lat="42.7428970" lon="-0.2030690">
        <ele>2557.6</ele>
        <time>2021-02-27T12:03:25Z</time>
      </trkpt>
      <trkpt lat="42.7428930" lon="-0.2030690">
        <ele>2558.6</ele>
        <time>2021-02-27T12:03:31Z</time>
      </trkpt>
      <trkpt lat="42.7428920" lon="-0.2030690">
        <ele>2558.6</ele>
        <time>2021-02-27T12:03:32Z</time>
      </trkpt>
      <trkpt lat="42.7428890" lon="-0.2030680">
        <ele>2559.4</ele>
        <time>2021-02-27T12:03:37Z</time>
      </trkpt>
      <trkpt lat="42.7428880" lon="-0.2030680">
        <ele>2559.6</ele>
        <time>2021-02-27T12:03:38Z</time>
      </trkpt>
      <trkpt lat="42.7428850" lon="-0.2030680">
        <ele>2560.8</ele>
        <time>2021-02-27T12:03:43Z</time>
      </trkpt>
      <trkpt lat="42.7428820" lon="-0.2030670">
        <ele>2561.8</ele>
        <time>2021-02-27T12:03:48Z</time>
      </trkpt>
      <trkpt lat="42.7428790" lon="-0.2030670">
        <ele>2562.6</ele>
        <time>2021-02-27T12:03:51Z</time>
      </trkpt>
      <trkpt lat="42.7428780" lon="-0.2030670">
        <ele>2563.0</ele>
        <time>2021-02-27T12:03:53Z</time>
      </trkpt>
      <trkpt lat="42.7428740" lon="-0.2030660">
        <ele>2564.2</ele>
        <time>2021-02-27T12:03:58Z</time>
      </trkpt>
      <trkpt lat="42.7428720" lon="-0.2030660">
        <ele>2564.6</ele>
        <time>2021-02-27T12:04:01Z</time>
      </trkpt>
      <trkpt lat="42.7428670" lon="-0.2030660">
        <ele>2565.0</ele>
        <time>2021-02-27T12:04:07Z</time>
      </trkpt>
      <trkpt lat="42.7428650" lon="-0.2030650">
        <ele>2565.2</ele>
        <time>2021-02-27T12:04:10Z</time>
      </trkpt>
      <trkpt lat="42.7428610" lon="-0.2030650">
        <ele>2566.4</ele>
        <time>2021-02-27T12:04:14Z</time>
      </trkpt>
      <trkpt lat="42.7428570" lon="-0.2030650">
        <ele>2567.0</ele>
        <time>2021-02-27T12:04:19Z</time>
      </trkpt>
      <trkpt lat="42.7428560" lon="-0.2030640">
        <ele>2567.4</ele>
        <time>2021-02-27T12:04:21Z</time>
      </trkpt>
      <trkpt lat="42.7428460" lon="-0.2030630">
        <ele>2568.4</ele>
        <time>2021-02-27T12:04:32Z</time>
      </trkpt>
      <trkpt lat="42.7428300" lon="-0.2030600">
        <ele>2569.4</ele>
        <time>2021-02-27T12:04:51Z</time>
      </trkpt>
      <trkpt lat="42.7428270" lon="-0.2030600">
        <ele>2570.4</ele>
        <time>2021-02-27T12:04:55Z</time>
      </trkpt>
      <trkpt lat="42.7428260" lon="-0.2030590">
        <ele>2570.6</ele>
        <time>2021-02-27T12:04:56Z</time>
      </trkpt>
      <trkpt lat="42.7428210" lon="-0.2030580">
        <ele>2571.8</ele>
        <time>2021-02-27T12:05:02Z</time>
      </trkpt>
      <trkpt lat="42.7428160" lon="-0.2030570">
        <ele>2573.0</ele>
        <time>2021-02-27T12:05:08Z</time>
      </trkpt>
      <trkpt lat="42.7428140" lon="-0.2030570">
        <ele>2573.4</ele>
        <time>2021-02-27T12:05:10Z</time>
      </trkpt>
      <trkpt lat="42.7428120" lon="-0.2030570">
        <ele>2574.0</ele>
        <time>2021-02-27T12:05:12Z</time>
      </trkpt>
      <trkpt lat="42.7428100" lon="-0.2030560">
        <ele>2574.4</ele>
        <time>2021-02-27T12:05:15Z</time>
      </trkpt>
      <trkpt lat="42.7428040" lon="-0.2030540">
        <ele>2575.0</ele>
        <time>2021-02-27T12:05:21Z</time>
      </trkpt>
      <trkpt lat="42.7428030" lon="-0.2030540">
        <ele>2575.2</ele>
        <time>2021-02-27T12:05:23Z</time>
      </trkpt>
      <trkpt lat="42.7428000" lon="-0.2030530">
        <ele>2575.8</ele>
        <time>2021-02-27T12:05:26Z</time>
      </trkpt>
      <trkpt lat="42.7427970" lon="-0.2030520">
        <ele>2576.2</ele>
        <time>2021-02-27T12:05:29Z</time>
      </trkpt>
      <trkpt lat="42.7427910" lon="-0.2030500">
        <ele>2577.2</ele>
        <time>2021-02-27T12:05:35Z</time>
      </trkpt>
      <trkpt lat="42.7427870" lon="-0.2030480">
        <ele>2578.4</ele>
        <time>2021-02-27T12:05:40Z</time>
      </trkpt>
      <trkpt lat="42.7427820" lon="-0.2030460">
        <ele>2579.4</ele>
        <time>2021-02-27T12:05:45Z</time>
      </trkpt>
      <trkpt lat="42.7427660" lon="-0.2030390">
        <ele>2580.0</ele>
        <time>2021-02-27T12:06:01Z</time>
      </trkpt>
      <trkpt lat="42.7427610" lon="-0.2030370">
        <ele>2580.4</ele>
        <time>2021-02-27T12:06:06Z</time>
      </trkpt>
      <trkpt lat="42.7427540" lon="-0.2030330">
        <ele>2580.4</ele>
        <time>2021-02-27T12:06:13Z</time>
      </trkpt>
      <trkpt lat="42.7427490" lon="-0.2030300">
        <ele>2580.0</ele>
        <time>2021-02-27T12:06:19Z</time>
      </trkpt>
      <trkpt lat="42.7427450" lon="-0.2030290">
        <ele>2579.6</ele>
        <time>2021-02-27T12:06:23Z</time>
      </trkpt>
      <trkpt lat="42.7427410" lon="-0.2030270">
        <ele>2579.4</ele>
        <time>2021-02-27T12:06:27Z</time>
      </trkpt>
      <trkpt lat="42.7427360" lon="-0.2030240">
        <ele>2579.8</ele>
        <time>2021-02-27T12:06:33Z</time>
      </trkpt>
      <trkpt lat="42.7427330" lon="-0.2030230">
        <ele>2579.6</ele>
        <time>2021-02-27T12:06:36Z</time>
      </trkpt>
      <trkpt lat="42.7427280" lon="-0.2030210">
        <ele>2579.4</ele>
        <time>2021-02-27T12:06:41Z</time>
      </trkpt>
      <trkpt lat="42.7427170" lon="-0.2030160">
        <ele>2578.8</ele>
        <time>2021-02-27T12:06:53Z</time>
      </trkpt>
      <trkpt lat="42.7427100" lon="-0.2030120">
        <ele>2579.2</ele>
        <time>2021-02-27T12:07:01Z</time>
      </trkpt>
      <trkpt lat="42.7427030" lon="-0.2030080">
        <ele>2580.4</ele>
        <time>2021-02-27T12:07:10Z</time>
      </trkpt>
      <trkpt lat="42.7426960" lon="-0.2030050">
        <ele>2581.4</ele>
        <time>2021-02-27T12:07:17Z</time>
      </trkpt>
      <trkpt lat="42.7426890" lon="-0.2030010">
        <ele>2581.6</ele>
        <time>2021-02-27T12:07:25Z</time>
      </trkpt>
      <trkpt lat="42.7426840" lon="-0.2029980">
        <ele>2582.6</ele>
        <time>2021-02-27T12:07:31Z</time>
      </trkpt>
      <trkpt lat="42.7426710" lon="-0.2029910">
        <ele>2583.0</ele>
        <time>2021-02-27T12:07:45Z</time>
      </trkpt>
      <trkpt lat="42.7426570" lon="-0.2029830">
        <ele>2583.0</ele>
        <time>2021-02-27T12:07:59Z</time>
      </trkpt>
      <trkpt lat="42.7426380" lon="-0.2029710">
        <ele>2582.4</ele>
        <time>2021-02-27T12:08:19Z</time>
      </trkpt>
      <trkpt lat="42.7426330" lon="-0.2029680">
        <ele>2582.4</ele>
        <time>2021-02-27T12:08:25Z</time>
      </trkpt>
      <trkpt lat="42.7426300" lon="-0.2029660">
        <ele>2582.8</ele>
        <time>2021-02-27T12:08:28Z</time>
      </trkpt>
      <trkpt lat="42.7425720" lon="-0.2029270">
        <ele>2583.6</ele>
        <time>2021-02-27T12:08:31Z</time>
      </trkpt>
      <trkpt lat="42.7423290" lon="-0.2027520">
        <ele>2584.4</ele>
        <time>2021-02-27T12:08:35Z</time>
      </trkpt>
      <trkpt lat="42.7422030" lon="-0.2026630">
        <ele>2584.8</ele>
        <time>2021-02-27T12:08:37Z</time>
      </trkpt>
      <trkpt lat="42.7420210" lon="-0.2025430">
        <ele>2585.4</ele>
        <time>2021-02-27T12:08:40Z</time>
      </trkpt>
      <trkpt lat="42.7420080" lon="-0.2025340">
        <ele>2585.8</ele>
        <time>2021-02-27T12:08:42Z</time>
      </trkpt>
      <trkpt lat="42.7419980" lon="-0.2025240">
        <ele>2586.4</ele>
        <time>2021-02-27T12:08:45Z</time>
      </trkpt>
      <trkpt lat="42.7419860" lon="-0.2025130">
        <ele>2587.0</ele>
        <time>2021-02-27T12:08:48Z</time>
      </trkpt>
      <trkpt lat="42.7419680" lon="-0.2024990">
        <ele>2587.8</ele>
        <time>2021-02-27T12:08:53Z</time>
      </trkpt>
      <trkpt lat="42.7419620" lon="-0.2024970">
        <ele>2588.2</ele>
        <time>2021-02-27T12:08:54Z</time>
      </trkpt>
      <trkpt lat="42.7419440" lon="-0.2024890">
        <ele>2588.8</ele>
        <time>2021-02-27T12:08:58Z</time>
      </trkpt>
      <trkpt lat="42.7419300" lon="-0.2024890">
        <ele>2589.0</ele>
        <time>2021-02-27T12:09:00Z</time>
      </trkpt>
      <trkpt lat="42.7419260" lon="-0.2024890">
        <ele>2589.2</ele>
        <time>2021-02-27T12:09:01Z</time>
      </trkpt>
      <trkpt lat="42.7419210" lon="-0.2024890">
        <ele>2589.4</ele>
        <time>2021-02-27T12:09:02Z</time>
      </trkpt>
      <trkpt lat="42.7419050" lon="-0.2024860">
        <ele>2589.8</ele>
        <time>2021-02-27T12:09:04Z</time>
      </trkpt>
      <trkpt lat="42.7418920" lon="-0.2024850">
        <ele>2590.2</ele>
        <time>2021-02-27T12:09:06Z</time>
      </trkpt>
      <trkpt lat="42.7418830" lon="-0.2024830">
        <ele>2590.6</ele>
        <time>2021-02-27T12:09:08Z</time>
      </trkpt>
      <trkpt lat="42.7418730" lon="-0.2024820">
        <ele>2591.0</ele>
        <time>2021-02-27T12:09:10Z</time>
      </trkpt>
      <trkpt lat="42.7418690" lon="-0.2024820">
        <ele>2591.2</ele>
        <time>2021-02-27T12:09:11Z</time>
      </trkpt>
      <trkpt lat="42.7418600" lon="-0.2024750">
        <ele>2591.6</ele>
        <time>2021-02-27T12:09:14Z</time>
      </trkpt>
      <trkpt lat="42.7418570" lon="-0.2024730">
        <ele>2591.8</ele>
        <time>2021-02-27T12:09:15Z</time>
      </trkpt>
      <trkpt lat="42.7418470" lon="-0.2024730">
        <ele>2592.2</ele>
        <time>2021-02-27T12:09:17Z</time>
      </trkpt>
      <trkpt lat="42.7418430" lon="-0.2024720">
        <ele>2592.2</ele>
        <time>2021-02-27T12:09:18Z</time>
      </trkpt>
      <trkpt lat="42.7418350" lon="-0.2024730">
        <ele>2592.6</ele>
        <time>2021-02-27T12:09:20Z</time>
      </trkpt>
      <trkpt lat="42.7418290" lon="-0.2024690">
        <ele>2593.2</ele>
        <time>2021-02-27T12:09:22Z</time>
      </trkpt>
      <trkpt lat="42.7418240" lon="-0.2024690">
        <ele>2593.6</ele>
        <time>2021-02-27T12:09:23Z</time>
      </trkpt>
      <trkpt lat="42.7418080" lon="-0.2024570">
        <ele>2594.6</ele>
        <time>2021-02-27T12:09:26Z</time>
      </trkpt>
      <trkpt lat="42.7417830" lon="-0.2024420">
        <ele>2595.0</ele>
        <time>2021-02-27T12:09:31Z</time>
      </trkpt>
      <trkpt lat="42.7417620" lon="-0.2024280">
        <ele>2595.4</ele>
        <time>2021-02-27T12:09:34Z</time>
      </trkpt>
      <trkpt lat="42.7417510" lon="-0.2024230">
        <ele>2595.8</ele>
        <time>2021-02-27T12:09:36Z</time>
      </trkpt>
      <trkpt lat="42.7417450" lon="-0.2024220">
        <ele>2596.0</ele>
        <time>2021-02-27T12:09:37Z</time>
      </trkpt>
      <trkpt lat="42.7417290" lon="-0.2024140">
        <ele>2596.8</ele>
        <time>2021-02-27T12:09:40Z</time>
      </trkpt>
      <trkpt lat="42.7417240" lon="-0.2024110">
        <ele>2597.4</ele>
        <time>2021-02-27T12:09:41Z</time>
      </trkpt>
      <trkpt lat="42.7416750" lon="-0.2024060">
        <ele>2598.2</ele>
        <time>2021-02-27T12:09:47Z</time>
      </trkpt>
      <trkpt lat="42.7416560" lon="-0.2024070">
        <ele>2598.4</ele>
        <time>2021-02-27T12:09:50Z</time>
      </trkpt>
      <trkpt lat="42.7416300" lon="-0.2024040">
        <ele>2599.2</ele>
        <time>2021-02-27T12:09:55Z</time>
      </trkpt>
      <trkpt lat="42.7416170" lon="-0.2023970">
        <ele>2599.6</ele>
        <time>2021-02-27T12:09:58Z</time>
      </trkpt>
      <trkpt lat="42.7415940" lon="-0.2023750">
        <ele>2600.0</ele>
        <time>2021-02-27T12:10:02Z</time>
      </trkpt>
      <trkpt lat="42.7415910" lon="-0.2023730">
        <ele>2600.2</ele>
        <time>2021-02-27T12:10:03Z</time>
      </trkpt>
      <trkpt lat="42.7415820" lon="-0.2023730">
        <ele>2600.4</ele>
        <time>2021-02-27T12:10:04Z</time>
      </trkpt>
      <trkpt lat="42.7415610" lon="-0.2023640">
        <ele>2600.6</ele>
        <time>2021-02-27T12:10:07Z</time>
      </trkpt>
      <trkpt lat="42.7415490" lon="-0.2023580">
        <ele>2600.6</ele>
        <time>2021-02-27T12:10:09Z</time>
      </trkpt>
      <trkpt lat="42.7415350" lon="-0.2023570">
        <ele>2600.8</ele>
        <time>2021-02-27T12:10:11Z</time>
      </trkpt>
      <trkpt lat="42.7415290" lon="-0.2023570">
        <ele>2601.0</ele>
        <time>2021-02-27T12:10:12Z</time>
      </trkpt>
      <trkpt lat="42.7415010" lon="-0.2023460">
        <ele>2601.4</ele>
        <time>2021-02-27T12:10:16Z</time>
      </trkpt>
      <trkpt lat="42.7414970" lon="-0.2023450">
        <ele>2601.8</ele>
        <time>2021-02-27T12:10:18Z</time>
      </trkpt>
      <trkpt lat="42.7414980" lon="-0.2023440">
        <ele>2601.8</ele>
        <time>2021-02-27T12:10:19Z</time>
      </trkpt>
      <trkpt lat="42.7415060" lon="-0.2023450">
        <ele>2602.4</ele>
        <time>2021-02-27T12:10:27Z</time>
      </trkpt>
      <trkpt lat="42.7415060" lon="-0.2023450">
        <ele>2602.4</ele>
        <time>2021-02-27T12:10:28Z</time>
      </trkpt>
      <trkpt lat="42.7415060" lon="-0.2023450">
        <ele>2601.6</ele>
        <time>2021-02-27T12:10:40Z</time>
      </trkpt>
      <trkpt lat="42.7415060" lon="-0.2023450">
        <ele>2601.6</ele>
        <time>2021-02-27T12:10:42Z</time>
      </trkpt>
      <trkpt lat="42.7415050" lon="-0.2023450">
        <ele>2601.8</ele>
        <time>2021-02-27T12:10:45Z</time>
      </trkpt>
      <trkpt lat="42.7415040" lon="-0.2023440">
        <ele>2602.2</ele>
        <time>2021-02-27T12:10:50Z</time>
      </trkpt>
      <trkpt lat="42.7415030" lon="-0.2023440">
        <ele>2602.8</ele>
        <time>2021-02-27T12:10:54Z</time>
      </trkpt>
      <trkpt lat="42.7414970" lon="-0.2023390">
        <ele>2603.6</ele>
        <time>2021-02-27T12:11:01Z</time>
      </trkpt>
      <trkpt lat="42.7414900" lon="-0.2023330">
        <ele>2603.8</ele>
        <time>2021-02-27T12:11:02Z</time>
      </trkpt>
      <trkpt lat="42.7414460" lon="-0.2023120">
        <ele>2605.0</ele>
        <time>2021-02-27T12:11:08Z</time>
      </trkpt>
      <trkpt lat="42.7414260" lon="-0.2023070">
        <ele>2605.4</ele>
        <time>2021-02-27T12:11:11Z</time>
      </trkpt>
      <trkpt lat="42.7413950" lon="-0.2022970">
        <ele>2606.0</ele>
        <time>2021-02-27T12:11:17Z</time>
      </trkpt>
      <trkpt lat="42.7413790" lon="-0.2022910">
        <ele>2606.4</ele>
        <time>2021-02-27T12:11:20Z</time>
      </trkpt>
      <trkpt lat="42.7413390" lon="-0.2022810">
        <ele>2607.0</ele>
        <time>2021-02-27T12:11:42Z</time>
      </trkpt>
      <trkpt lat="42.7413360" lon="-0.2022950">
        <ele>2607.4</ele>
        <time>2021-02-27T12:11:45Z</time>
      </trkpt>
      <trkpt lat="42.7413170" lon="-0.2023630">
        <ele>2607.6</ele>
        <time>2021-02-27T12:11:48Z</time>
      </trkpt>
      <trkpt lat="42.7413150" lon="-0.2023930">
        <ele>2607.6</ele>
        <time>2021-02-27T12:11:49Z</time>
      </trkpt>
      <trkpt lat="42.7413120" lon="-0.2024090">
        <ele>2607.6</ele>
        <time>2021-02-27T12:11:50Z</time>
      </trkpt>
      <trkpt lat="42.7413060" lon="-0.2024300">
        <ele>2607.6</ele>
        <time>2021-02-27T12:11:51Z</time>
      </trkpt>
      <trkpt lat="42.7412930" lon="-0.2024650">
        <ele>2607.6</ele>
        <time>2021-02-27T12:11:53Z</time>
      </trkpt>
      <trkpt lat="42.7412770" lon="-0.2025090">
        <ele>2608.0</ele>
        <time>2021-02-27T12:11:57Z</time>
      </trkpt>
      <trkpt lat="42.7412540" lon="-0.2025150">
        <ele>2608.2</ele>
        <time>2021-02-27T12:11:59Z</time>
      </trkpt>
      <trkpt lat="42.7412350" lon="-0.2025380">
        <ele>2608.4</ele>
        <time>2021-02-27T12:12:03Z</time>
      </trkpt>
      <trkpt lat="42.7412250" lon="-0.2025720">
        <ele>2608.6</ele>
        <time>2021-02-27T12:12:08Z</time>
      </trkpt>
      <trkpt lat="42.7412240" lon="-0.2025820">
        <ele>2608.8</ele>
        <time>2021-02-27T12:12:09Z</time>
      </trkpt>
      <trkpt lat="42.7412240" lon="-0.2025910">
        <ele>2608.8</ele>
        <time>2021-02-27T12:12:10Z</time>
      </trkpt>
      <trkpt lat="42.7412230" lon="-0.2026010">
        <ele>2609.0</ele>
        <time>2021-02-27T12:12:11Z</time>
      </trkpt>
      <trkpt lat="42.7412230" lon="-0.2026080">
        <ele>2609.2</ele>
        <time>2021-02-27T12:12:12Z</time>
      </trkpt>
      <trkpt lat="42.7412230" lon="-0.2026460">
        <ele>2609.4</ele>
        <time>2021-02-27T12:12:16Z</time>
      </trkpt>
      <trkpt lat="42.7412230" lon="-0.2026710">
        <ele>2609.6</ele>
        <time>2021-02-27T12:12:19Z</time>
      </trkpt>
      <trkpt lat="42.7412120" lon="-0.2026820">
        <ele>2609.8</ele>
        <time>2021-02-27T12:12:21Z</time>
      </trkpt>
      <trkpt lat="42.7412100" lon="-0.2026910">
        <ele>2610.2</ele>
        <time>2021-02-27T12:12:22Z</time>
      </trkpt>
      <trkpt lat="42.7412080" lon="-0.2027010">
        <ele>2610.4</ele>
        <time>2021-02-27T12:12:23Z</time>
      </trkpt>
      <trkpt lat="42.7412090" lon="-0.2027260">
        <ele>2610.8</ele>
        <time>2021-02-27T12:12:26Z</time>
      </trkpt>
      <trkpt lat="42.7412040" lon="-0.2027390">
        <ele>2611.2</ele>
        <time>2021-02-27T12:12:28Z</time>
      </trkpt>
      <trkpt lat="42.7412020" lon="-0.2027470">
        <ele>2611.4</ele>
        <time>2021-02-27T12:12:30Z</time>
      </trkpt>
      <trkpt lat="42.7411890" lon="-0.2027330">
        <ele>2612.2</ele>
        <time>2021-02-27T12:12:34Z</time>
      </trkpt>
      <trkpt lat="42.7411780" lon="-0.2027260">
        <ele>2612.6</ele>
        <time>2021-02-27T12:12:36Z</time>
      </trkpt>
      <trkpt lat="42.7411640" lon="-0.2027210">
        <ele>2613.6</ele>
        <time>2021-02-27T12:12:39Z</time>
      </trkpt>
      <trkpt lat="42.7411450" lon="-0.2027130">
        <ele>2614.8</ele>
        <time>2021-02-27T12:12:43Z</time>
      </trkpt>
      <trkpt lat="42.7411320" lon="-0.2027010">
        <ele>2615.8</ele>
        <time>2021-02-27T12:12:47Z</time>
      </trkpt>
      <trkpt lat="42.7411300" lon="-0.2026990">
        <ele>2616.0</ele>
        <time>2021-02-27T12:12:48Z</time>
      </trkpt>
      <trkpt lat="42.7411320" lon="-0.2026870">
        <ele>2616.6</ele>
        <time>2021-02-27T12:12:51Z</time>
      </trkpt>
      <trkpt lat="42.7411190" lon="-0.2026910">
        <ele>2617.4</ele>
        <time>2021-02-27T12:12:53Z</time>
      </trkpt>
      <trkpt lat="42.7410930" lon="-0.2026840">
        <ele>2618.4</ele>
        <time>2021-02-27T12:12:56Z</time>
      </trkpt>
      <trkpt lat="42.7410830" lon="-0.2027050">
        <ele>2619.6</ele>
        <time>2021-02-27T12:13:00Z</time>
      </trkpt>
      <trkpt lat="42.7410860" lon="-0.2027140">
        <ele>2620.0</ele>
        <time>2021-02-27T12:13:01Z</time>
      </trkpt>
      <trkpt lat="42.7410890" lon="-0.2027310">
        <ele>2620.8</ele>
        <time>2021-02-27T12:13:03Z</time>
      </trkpt>
      <trkpt lat="42.7410900" lon="-0.2027560">
        <ele>2621.8</ele>
        <time>2021-02-27T12:13:07Z</time>
      </trkpt>
      <trkpt lat="42.7410840" lon="-0.2027810">
        <ele>2622.8</ele>
        <time>2021-02-27T12:13:11Z</time>
      </trkpt>
      <trkpt lat="42.7410800" lon="-0.2027870">
        <ele>2623.0</ele>
        <time>2021-02-27T12:13:12Z</time>
      </trkpt>
      <trkpt lat="42.7410670" lon="-0.2028090">
        <ele>2624.0</ele>
        <time>2021-02-27T12:13:17Z</time>
      </trkpt>
      <trkpt lat="42.7410680" lon="-0.2028200">
        <ele>2624.4</ele>
        <time>2021-02-27T12:13:19Z</time>
      </trkpt>
      <trkpt lat="42.7410670" lon="-0.2028190">
        <ele>2625.0</ele>
        <time>2021-02-27T12:13:26Z</time>
      </trkpt>
      <trkpt lat="42.7410670" lon="-0.2028190">
        <ele>2625.0</ele>
        <time>2021-02-27T12:13:31Z</time>
      </trkpt>
      <trkpt lat="42.7410680" lon="-0.2028190">
        <ele>2624.8</ele>
        <time>2021-02-27T12:13:36Z</time>
      </trkpt>
      <trkpt lat="42.7410680" lon="-0.2028190">
        <ele>2626.2</ele>
        <time>2021-02-27T12:13:44Z</time>
      </trkpt>
      <trkpt lat="42.7410660" lon="-0.2028350">
        <ele>2627.2</ele>
        <time>2021-02-27T12:13:49Z</time>
      </trkpt>
      <trkpt lat="42.7410410" lon="-0.2029390">
        <ele>2628.4</ele>
        <time>2021-02-27T12:13:54Z</time>
      </trkpt>
      <trkpt lat="42.7410020" lon="-0.2030460">
        <ele>2629.6</ele>
        <time>2021-02-27T12:14:01Z</time>
      </trkpt>
      <trkpt lat="42.7410000" lon="-0.2030530">
        <ele>2629.8</ele>
        <time>2021-02-27T12:14:02Z</time>
      </trkpt>
      <trkpt lat="42.7409920" lon="-0.2030680">
        <ele>2630.4</ele>
        <time>2021-02-27T12:14:05Z</time>
      </trkpt>
      <trkpt lat="42.7409870" lon="-0.2030740">
        <ele>2630.6</ele>
        <time>2021-02-27T12:14:06Z</time>
      </trkpt>
      <trkpt lat="42.7409750" lon="-0.2030860">
        <ele>2631.4</ele>
        <time>2021-02-27T12:14:09Z</time>
      </trkpt>
      <trkpt lat="42.7409590" lon="-0.2031030">
        <ele>2631.8</ele>
        <time>2021-02-27T12:14:12Z</time>
      </trkpt>
      <trkpt lat="42.7409620" lon="-0.2031110">
        <ele>2632.0</ele>
        <time>2021-02-27T12:14:16Z</time>
      </trkpt>
      <trkpt lat="42.7409640" lon="-0.2031090">
        <ele>2632.0</ele>
        <time>2021-02-27T12:14:31Z</time>
      </trkpt>
      <trkpt lat="42.7409630" lon="-0.2031090">
        <ele>2632.2</ele>
        <time>2021-02-27T12:14:33Z</time>
      </trkpt>
      <trkpt lat="42.7409420" lon="-0.2031060">
        <ele>2632.4</ele>
        <time>2021-02-27T12:14:49Z</time>
      </trkpt>
      <trkpt lat="42.7409420" lon="-0.2031060">
        <ele>2632.4</ele>
        <time>2021-02-27T12:14:50Z</time>
      </trkpt>
      <trkpt lat="42.7409400" lon="-0.2031060">
        <ele>2632.4</ele>
        <time>2021-02-27T12:14:52Z</time>
      </trkpt>
      <trkpt lat="42.7409390" lon="-0.2031080">
        <ele>2632.4</ele>
        <time>2021-02-27T12:14:53Z</time>
      </trkpt>
      <trkpt lat="42.7409350" lon="-0.2031100">
        <ele>2632.8</ele>
        <time>2021-02-27T12:14:56Z</time>
      </trkpt>
      <trkpt lat="42.7409210" lon="-0.2031350">
        <ele>2633.4</ele>
        <time>2021-02-27T12:15:03Z</time>
      </trkpt>
      <trkpt lat="42.7409190" lon="-0.2031490">
        <ele>2633.8</ele>
        <time>2021-02-27T12:15:08Z</time>
      </trkpt>
      <trkpt lat="42.7409190" lon="-0.2031740">
        <ele>2634.0</ele>
        <time>2021-02-27T12:15:17Z</time>
      </trkpt>
      <trkpt lat="42.7409190" lon="-0.2031770">
        <ele>2634.0</ele>
        <time>2021-02-27T12:15:19Z</time>
      </trkpt>
      <trkpt lat="42.7409210" lon="-0.2031780">
        <ele>2634.6</ele>
        <time>2021-02-27T12:15:22Z</time>
      </trkpt>
      <trkpt lat="42.7409210" lon="-0.2031780">
        <ele>2635.0</ele>
        <time>2021-02-27T12:15:23Z</time>
      </trkpt>
      <trkpt lat="42.7409260" lon="-0.2033060">
        <ele>2635.2</ele>
        <time>2021-02-27T12:15:36Z</time>
      </trkpt>
      <trkpt lat="42.7409270" lon="-0.2033880">
        <ele>2634.8</ele>
        <time>2021-02-27T12:15:43Z</time>
      </trkpt>
      <trkpt lat="42.7409120" lon="-0.2034560">
        <ele>2634.2</ele>
        <time>2021-02-27T12:15:51Z</time>
      </trkpt>
      <trkpt lat="42.7409110" lon="-0.2034610">
        <ele>2634.0</ele>
        <time>2021-02-27T12:15:53Z</time>
      </trkpt>
      <trkpt lat="42.7409090" lon="-0.2034760">
        <ele>2633.8</ele>
        <time>2021-02-27T12:15:55Z</time>
      </trkpt>
      <trkpt lat="42.7409130" lon="-0.2034970">
        <ele>2633.2</ele>
        <time>2021-02-27T12:15:58Z</time>
      </trkpt>
      <trkpt lat="42.7409060" lon="-0.2035370">
        <ele>2632.8</ele>
        <time>2021-02-27T12:16:03Z</time>
      </trkpt>
      <trkpt lat="42.7409040" lon="-0.2035540">
        <ele>2632.8</ele>
        <time>2021-02-27T12:16:07Z</time>
      </trkpt>
      <trkpt lat="42.7408690" lon="-0.2036220">
        <ele>2632.8</ele>
        <time>2021-02-27T12:16:18Z</time>
      </trkpt>
      <trkpt lat="42.7408500" lon="-0.2036530">
        <ele>2633.2</ele>
        <time>2021-02-27T12:16:25Z</time>
      </trkpt>
      <trkpt lat="42.7408450" lon="-0.2036630">
        <ele>2633.2</ele>
        <time>2021-02-27T12:16:27Z</time>
      </trkpt>
      <trkpt lat="42.7408380" lon="-0.2036680">
        <ele>2633.0</ele>
        <time>2021-02-27T12:16:31Z</time>
      </trkpt>
      <trkpt lat="42.7408350" lon="-0.2036650">
        <ele>2633.0</ele>
        <time>2021-02-27T12:16:32Z</time>
      </trkpt>
      <trkpt lat="42.7408330" lon="-0.2036620">
        <ele>2633.0</ele>
        <time>2021-02-27T12:16:33Z</time>
      </trkpt>
      <trkpt lat="42.7408300" lon="-0.2036580">
        <ele>2633.2</ele>
        <time>2021-02-27T12:16:35Z</time>
      </trkpt>
      <trkpt lat="42.7408300" lon="-0.2036580">
        <ele>2633.6</ele>
        <time>2021-02-27T12:16:38Z</time>
      </trkpt>
      <trkpt lat="42.7408300" lon="-0.2036580">
        <ele>2633.8</ele>
        <time>2021-02-27T12:16:40Z</time>
      </trkpt>
      <trkpt lat="42.7408300" lon="-0.2036580">
        <ele>2634.6</ele>
        <time>2021-02-27T12:16:46Z</time>
      </trkpt>
      <trkpt lat="42.7408300" lon="-0.2036620">
        <ele>2635.0</ele>
        <time>2021-02-27T12:16:49Z</time>
      </trkpt>
      <trkpt lat="42.7408270" lon="-0.2036650">
        <ele>2635.2</ele>
        <time>2021-02-27T12:16:51Z</time>
      </trkpt>
      <trkpt lat="42.7408250" lon="-0.2036660">
        <ele>2635.2</ele>
        <time>2021-02-27T12:16:52Z</time>
      </trkpt>
      <trkpt lat="42.7408160" lon="-0.2036710">
        <ele>2635.2</ele>
        <time>2021-02-27T12:16:57Z</time>
      </trkpt>
      <trkpt lat="42.7407950" lon="-0.2037000">
        <ele>2636.2</ele>
        <time>2021-02-27T12:17:05Z</time>
      </trkpt>
      <trkpt lat="42.7407710" lon="-0.2037080">
        <ele>2637.2</ele>
        <time>2021-02-27T12:17:12Z</time>
      </trkpt>
      <trkpt lat="42.7407660" lon="-0.2037140">
        <ele>2637.2</ele>
        <time>2021-02-27T12:17:14Z</time>
      </trkpt>
      <trkpt lat="42.7407630" lon="-0.2037300">
        <ele>2637.4</ele>
        <time>2021-02-27T12:17:17Z</time>
      </trkpt>
      <trkpt lat="42.7407590" lon="-0.2037420">
        <ele>2638.2</ele>
        <time>2021-02-27T12:17:22Z</time>
      </trkpt>
      <trkpt lat="42.7407510" lon="-0.2037520">
        <ele>2639.4</ele>
        <time>2021-02-27T12:17:29Z</time>
      </trkpt>
      <trkpt lat="42.7407510" lon="-0.2037550">
        <ele>2639.6</ele>
        <time>2021-02-27T12:17:31Z</time>
      </trkpt>
      <trkpt lat="42.7407440" lon="-0.2037650">
        <ele>2640.2</ele>
        <time>2021-02-27T12:17:37Z</time>
      </trkpt>
      <trkpt lat="42.7407290" lon="-0.2037870">
        <ele>2639.8</ele>
        <time>2021-02-27T12:17:43Z</time>
      </trkpt>
      <trkpt lat="42.7406990" lon="-0.2038060">
        <ele>2640.4</ele>
        <time>2021-02-27T12:17:50Z</time>
      </trkpt>
      <trkpt lat="42.7406890" lon="-0.2038060">
        <ele>2641.6</ele>
        <time>2021-02-27T12:17:57Z</time>
      </trkpt>
      <trkpt lat="42.7406820" lon="-0.2038060">
        <ele>2642.2</ele>
        <time>2021-02-27T12:18:01Z</time>
      </trkpt>
      <trkpt lat="42.7406770" lon="-0.2038040">
        <ele>2642.4</ele>
        <time>2021-02-27T12:18:03Z</time>
      </trkpt>
      <trkpt lat="42.7406640" lon="-0.2037920">
        <ele>2642.6</ele>
        <time>2021-02-27T12:18:10Z</time>
      </trkpt>
      <trkpt lat="42.7406600" lon="-0.2037810">
        <ele>2643.6</ele>
        <time>2021-02-27T12:18:16Z</time>
      </trkpt>
      <trkpt lat="42.7406580" lon="-0.2037810">
        <ele>2643.8</ele>
        <time>2021-02-27T12:18:23Z</time>
      </trkpt>
      <trkpt lat="42.7406460" lon="-0.2037910">
        <ele>2644.8</ele>
        <time>2021-02-27T12:18:39Z</time>
      </trkpt>
      <trkpt lat="42.7406360" lon="-0.2037910">
        <ele>2645.8</ele>
        <time>2021-02-27T12:18:53Z</time>
      </trkpt>
      <trkpt lat="42.7406200" lon="-0.2037910">
        <ele>2647.0</ele>
        <time>2021-02-27T12:19:01Z</time>
      </trkpt>
      <trkpt lat="42.7406180" lon="-0.2037920">
        <ele>2647.4</ele>
        <time>2021-02-27T12:19:03Z</time>
      </trkpt>
      <trkpt lat="42.7406040" lon="-0.2038070">
        <ele>2648.0</ele>
        <time>2021-02-27T12:19:15Z</time>
      </trkpt>
      <trkpt lat="42.7406000" lon="-0.2038090">
        <ele>2648.2</ele>
        <time>2021-02-27T12:19:18Z</time>
      </trkpt>
      <trkpt lat="42.7405950" lon="-0.2038110">
        <ele>2648.4</ele>
        <time>2021-02-27T12:19:21Z</time>
      </trkpt>
      <trkpt lat="42.7405900" lon="-0.2038130">
        <ele>2648.4</ele>
        <time>2021-02-27T12:19:25Z</time>
      </trkpt>
      <trkpt lat="42.7405880" lon="-0.2038140">
        <ele>2648.4</ele>
        <time>2021-02-27T12:19:27Z</time>
      </trkpt>
      <trkpt lat="42.7405800" lon="-0.2038160">
        <ele>2648.4</ele>
        <time>2021-02-27T12:19:39Z</time>
      </trkpt>
      <trkpt lat="42.7405770" lon="-0.2038160">
        <ele>2648.4</ele>
        <time>2021-02-27T12:19:47Z</time>
      </trkpt>
      <trkpt lat="42.7405760" lon="-0.2038160">
        <ele>2648.4</ele>
        <time>2021-02-27T12:19:54Z</time>
      </trkpt>
      <trkpt lat="42.7405760" lon="-0.2038160">
        <ele>2648.4</ele>
        <time>2021-02-27T12:19:58Z</time>
      </trkpt>
      <trkpt lat="42.7405760" lon="-0.2038160">
        <ele>2648.6</ele>
        <time>2021-02-27T12:20:03Z</time>
      </trkpt>
      <trkpt lat="42.7405760" lon="-0.2038160">
        <ele>2648.6</ele>
        <time>2021-02-27T12:20:09Z</time>
      </trkpt>
      <trkpt lat="42.7405760" lon="-0.2038160">
        <ele>2648.4</ele>
        <time>2021-02-27T12:20:11Z</time>
      </trkpt>
      <trkpt lat="42.7405760" lon="-0.2038160">
        <ele>2648.6</ele>
        <time>2021-02-27T12:20:20Z</time>
      </trkpt>
      <trkpt lat="42.7405760" lon="-0.2038170">
        <ele>2649.0</ele>
        <time>2021-02-27T12:20:31Z</time>
      </trkpt>
      <trkpt lat="42.7405760" lon="-0.2038170">
        <ele>2649.2</ele>
        <time>2021-02-27T12:20:34Z</time>
      </trkpt>
      <trkpt lat="42.7405770" lon="-0.2038170">
        <ele>2649.2</ele>
        <time>2021-02-27T12:20:41Z</time>
      </trkpt>
      <trkpt lat="42.7405770" lon="-0.2038170">
        <ele>2649.2</ele>
        <time>2021-02-27T12:20:49Z</time>
      </trkpt>
      <trkpt lat="42.7405770" lon="-0.2038170">
        <ele>2649.0</ele>
        <time>2021-02-27T12:20:57Z</time>
      </trkpt>
      <trkpt lat="42.7405770" lon="-0.2038170">
        <ele>2649.0</ele>
        <time>2021-02-27T12:21:00Z</time>
      </trkpt>
      <trkpt lat="42.7405770" lon="-0.2038170">
        <ele>2649.0</ele>
        <time>2021-02-27T12:21:01Z</time>
      </trkpt>
      <trkpt lat="42.7405770" lon="-0.2038170">
        <ele>2649.8</ele>
        <time>2021-02-27T12:21:08Z</time>
      </trkpt>
      <trkpt lat="42.7405770" lon="-0.2038170">
        <ele>2649.6</ele>
        <time>2021-02-27T12:21:25Z</time>
      </trkpt>
      <trkpt lat="42.7405770" lon="-0.2038170">
        <ele>2650.2</ele>
        <time>2021-02-27T12:21:29Z</time>
      </trkpt>
      <trkpt lat="42.7405770" lon="-0.2038170">
        <ele>2650.2</ele>
        <time>2021-02-27T12:21:33Z</time>
      </trkpt>
      <trkpt lat="42.7405780" lon="-0.2038180">
        <ele>2650.2</ele>
        <time>2021-02-27T12:21:36Z</time>
      </trkpt>
      <trkpt lat="42.7405780" lon="-0.2038180">
        <ele>2649.8</ele>
        <time>2021-02-27T12:21:53Z</time>
      </trkpt>
      <trkpt lat="42.7405780" lon="-0.2038190">
        <ele>2649.4</ele>
        <time>2021-02-27T12:22:10Z</time>
      </trkpt>
      <trkpt lat="42.7405780" lon="-0.2038190">
        <ele>2649.4</ele>
        <time>2021-02-27T12:22:12Z</time>
      </trkpt>
      <trkpt lat="42.7405780" lon="-0.2038190">
        <ele>2649.4</ele>
        <time>2021-02-27T12:22:15Z</time>
      </trkpt>
      <trkpt lat="42.7405790" lon="-0.2038200">
        <ele>2651.2</ele>
        <time>2021-02-27T12:22:38Z</time>
      </trkpt>
      <trkpt lat="42.7405790" lon="-0.2038200">
        <ele>2651.6</ele>
        <time>2021-02-27T12:22:40Z</time>
      </trkpt>
      <trkpt lat="42.7405790" lon="-0.2038210">
        <ele>2651.8</ele>
        <time>2021-02-27T12:22:41Z</time>
      </trkpt>
      <trkpt lat="42.7405800" lon="-0.2038210">
        <ele>2652.4</ele>
        <time>2021-02-27T12:22:45Z</time>
      </trkpt>
      <trkpt lat="42.7405790" lon="-0.2038210">
        <ele>2653.2</ele>
        <time>2021-02-27T12:22:49Z</time>
      </trkpt>
      <trkpt lat="42.7405790" lon="-0.2038210">
        <ele>2653.4</ele>
        <time>2021-02-27T12:22:50Z</time>
      </trkpt>
      <trkpt lat="42.7405790" lon="-0.2038210">
        <ele>2654.6</ele>
        <time>2021-02-27T12:22:53Z</time>
      </trkpt>
      <trkpt lat="42.7405790" lon="-0.2038220">
        <ele>2655.4</ele>
        <time>2021-02-27T12:22:55Z</time>
      </trkpt>
      <trkpt lat="42.7405790" lon="-0.2038220">
        <ele>2655.8</ele>
        <time>2021-02-27T12:22:56Z</time>
      </trkpt>
      <trkpt lat="42.7405790" lon="-0.2038220">
        <ele>2656.0</ele>
        <time>2021-02-27T12:22:57Z</time>
      </trkpt>
      <trkpt lat="42.7405790" lon="-0.2038220">
        <ele>2656.8</ele>
        <time>2021-02-27T12:23:01Z</time>
      </trkpt>
      <trkpt lat="42.7405790" lon="-0.2038220">
        <ele>2657.0</ele>
        <time>2021-02-27T12:23:03Z</time>
      </trkpt>
      <trkpt lat="42.7405780" lon="-0.2038220">
        <ele>2657.2</ele>
        <time>2021-02-27T12:23:05Z</time>
      </trkpt>
      <trkpt lat="42.7405780" lon="-0.2038230">
        <ele>2658.0</ele>
        <time>2021-02-27T12:23:09Z</time>
      </trkpt>
      <trkpt lat="42.7405780" lon="-0.2038230">
        <ele>2658.6</ele>
        <time>2021-02-27T12:23:11Z</time>
      </trkpt>
      <trkpt lat="42.7405770" lon="-0.2038230">
        <ele>2659.0</ele>
        <time>2021-02-27T12:23:13Z</time>
      </trkpt>
      <trkpt lat="42.7405760" lon="-0.2038240">
        <ele>2660.2</ele>
        <time>2021-02-27T12:23:25Z</time>
      </trkpt>
      <trkpt lat="42.7405750" lon="-0.2038240">
        <ele>2661.0</ele>
        <time>2021-02-27T12:23:30Z</time>
      </trkpt>
      <trkpt lat="42.7405740" lon="-0.2038240">
        <ele>2661.2</ele>
        <time>2021-02-27T12:23:32Z</time>
      </trkpt>
      <trkpt lat="42.7405710" lon="-0.2038250">
        <ele>2662.2</ele>
        <time>2021-02-27T12:23:44Z</time>
      </trkpt>
      <trkpt lat="42.7405700" lon="-0.2038250">
        <ele>2663.2</ele>
        <time>2021-02-27T12:23:48Z</time>
      </trkpt>
      <trkpt lat="42.7405700" lon="-0.2038250">
        <ele>2663.4</ele>
        <time>2021-02-27T12:23:49Z</time>
      </trkpt>
      <trkpt lat="42.7405690" lon="-0.2038250">
        <ele>2664.4</ele>
        <time>2021-02-27T12:23:53Z</time>
      </trkpt>
      <trkpt lat="42.7405670" lon="-0.2038260">
        <ele>2665.0</ele>
        <time>2021-02-27T12:23:59Z</time>
      </trkpt>
      <trkpt lat="42.7405670" lon="-0.2038260">
        <ele>2665.0</ele>
        <time>2021-02-27T12:24:01Z</time>
      </trkpt>
      <trkpt lat="42.7405650" lon="-0.2038260">
        <ele>2665.4</ele>
        <time>2021-02-27T12:24:06Z</time>
      </trkpt>
      <trkpt lat="42.7405650" lon="-0.2038260">
        <ele>2665.4</ele>
        <time>2021-02-27T12:24:07Z</time>
      </trkpt>
      <trkpt lat="42.7405630" lon="-0.2038270">
        <ele>2666.2</ele>
        <time>2021-02-27T12:24:12Z</time>
      </trkpt>
      <trkpt lat="42.7405620" lon="-0.2038270">
        <ele>2666.4</ele>
        <time>2021-02-27T12:24:15Z</time>
      </trkpt>
      <trkpt lat="42.7405590" lon="-0.2038280">
        <ele>2667.4</ele>
        <time>2021-02-27T12:24:23Z</time>
      </trkpt>
      <trkpt lat="42.7405570" lon="-0.2038280">
        <ele>2668.6</ele>
        <time>2021-02-27T12:24:28Z</time>
      </trkpt>
      <trkpt lat="42.7405540" lon="-0.2038290">
        <ele>2669.6</ele>
        <time>2021-02-27T12:24:37Z</time>
      </trkpt>
      <trkpt lat="42.7405510" lon="-0.2038300">
        <ele>2670.2</ele>
        <time>2021-02-27T12:24:44Z</time>
      </trkpt>
      <trkpt lat="42.7405490" lon="-0.2038300">
        <ele>2670.8</ele>
        <time>2021-02-27T12:24:49Z</time>
      </trkpt>
      <trkpt lat="42.7405470" lon="-0.2038300">
        <ele>2671.8</ele>
        <time>2021-02-27T12:24:54Z</time>
      </trkpt>
      <trkpt lat="42.7405460" lon="-0.2038300">
        <ele>2671.8</ele>
        <time>2021-02-27T12:24:55Z</time>
      </trkpt>
      <trkpt lat="42.7405420" lon="-0.2038310">
        <ele>2672.2</ele>
        <time>2021-02-27T12:25:04Z</time>
      </trkpt>
      <trkpt lat="42.7405410" lon="-0.2038310">
        <ele>2672.0</ele>
        <time>2021-02-27T12:25:06Z</time>
      </trkpt>
      <trkpt lat="42.7402330" lon="-0.2036760">
        <ele>2690.6</ele>
        <time>2021-02-27T13:15:22Z</time>
      </trkpt>
      <trkpt lat="42.7402500" lon="-0.2036680">
        <ele>2690.4</ele>
        <time>2021-02-27T13:15:31Z</time>
      </trkpt>
      <trkpt lat="42.7402500" lon="-0.2036680">
        <ele>2690.4</ele>
        <time>2021-02-27T13:15:32Z</time>
      </trkpt>
      <trkpt lat="42.7402520" lon="-0.2036690">
        <ele>2690.4</ele>
        <time>2021-02-27T13:15:47Z</time>
      </trkpt>
      <trkpt lat="42.7402500" lon="-0.2036690">
        <ele>2690.2</ele>
        <time>2021-02-27T13:15:52Z</time>
      </trkpt>
      <trkpt lat="42.7402500" lon="-0.2036700">
        <ele>2690.2</ele>
        <time>2021-02-27T13:15:53Z</time>
      </trkpt>
      <trkpt lat="42.7402470" lon="-0.2036710">
        <ele>2690.4</ele>
        <time>2021-02-27T13:16:04Z</time>
      </trkpt>
      <trkpt lat="42.7402470" lon="-0.2036710">
        <ele>2690.4</ele>
        <time>2021-02-27T13:16:08Z</time>
      </trkpt>
      <trkpt lat="42.7402470" lon="-0.2036720">
        <ele>2690.4</ele>
        <time>2021-02-27T13:16:13Z</time>
      </trkpt>
      <trkpt lat="42.7402480" lon="-0.2036730">
        <ele>2690.4</ele>
        <time>2021-02-27T13:16:17Z</time>
      </trkpt>
      <trkpt lat="42.7402480" lon="-0.2036740">
        <ele>2690.4</ele>
        <time>2021-02-27T13:16:18Z</time>
      </trkpt>
      <trkpt lat="42.7402500" lon="-0.2036800">
        <ele>2690.2</ele>
        <time>2021-02-27T13:16:23Z</time>
      </trkpt>
      <trkpt lat="42.7402620" lon="-0.2037050">
        <ele>2690.0</ele>
        <time>2021-02-27T13:16:49Z</time>
      </trkpt>
      <trkpt lat="42.7402650" lon="-0.2037070">
        <ele>2690.0</ele>
        <time>2021-02-27T13:17:00Z</time>
      </trkpt>
      <trkpt lat="42.7402800" lon="-0.2037160">
        <ele>2690.0</ele>
        <time>2021-02-27T13:17:13Z</time>
      </trkpt>
      <trkpt lat="42.7402860" lon="-0.2037160">
        <ele>2690.0</ele>
        <time>2021-02-27T13:17:23Z</time>
      </trkpt>
      <trkpt lat="42.7402870" lon="-0.2037060">
        <ele>2690.0</ele>
        <time>2021-02-27T13:17:29Z</time>
      </trkpt>
      <trkpt lat="42.7402860" lon="-0.2037010">
        <ele>2690.0</ele>
        <time>2021-02-27T13:17:37Z</time>
      </trkpt>
      <trkpt lat="42.7402590" lon="-0.2036910">
        <ele>2690.0</ele>
        <time>2021-02-27T13:18:04Z</time>
      </trkpt>
      <trkpt lat="42.7402540" lon="-0.2036880">
        <ele>2690.0</ele>
        <time>2021-02-27T13:18:13Z</time>
      </trkpt>
      <trkpt lat="42.7402530" lon="-0.2036880">
        <ele>2690.0</ele>
        <time>2021-02-27T13:18:16Z</time>
      </trkpt>
      <trkpt lat="42.7402500" lon="-0.2036870">
        <ele>2690.0</ele>
        <time>2021-02-27T13:18:24Z</time>
      </trkpt>
      <trkpt lat="42.7402500" lon="-0.2036870">
        <ele>2690.0</ele>
        <time>2021-02-27T13:18:42Z</time>
      </trkpt>
      <trkpt lat="42.7402500" lon="-0.2036870">
        <ele>2690.0</ele>
        <time>2021-02-27T13:18:56Z</time>
      </trkpt>
      <trkpt lat="42.7402500" lon="-0.2036870">
        <ele>2690.0</ele>
        <time>2021-02-27T13:18:58Z</time>
      </trkpt>
      <trkpt lat="42.7402500" lon="-0.2036860">
        <ele>2690.0</ele>
        <time>2021-02-27T13:19:02Z</time>
      </trkpt>
      <trkpt lat="42.7402500" lon="-0.2036860">
        <ele>2690.0</ele>
        <time>2021-02-27T13:19:03Z</time>
      </trkpt>
      <trkpt lat="42.7402500" lon="-0.2036860">
        <ele>2690.0</ele>
        <time>2021-02-27T13:19:06Z</time>
      </trkpt>
      <trkpt lat="42.7402500" lon="-0.2036860">
        <ele>2690.0</ele>
        <time>2021-02-27T13:19:30Z</time>
      </trkpt>
      <trkpt lat="42.7402500" lon="-0.2036860">
        <ele>2684.4</ele>
        <time>2021-02-27T13:19:34Z</time>
      </trkpt>
      <trkpt lat="42.7402500" lon="-0.2036860">
        <ele>2683.4</ele>
        <time>2021-02-27T13:19:38Z</time>
      </trkpt>
      <trkpt lat="42.7402490" lon="-0.2036870">
        <ele>2683.2</ele>
        <time>2021-02-27T13:19:45Z</time>
      </trkpt>
      <trkpt lat="42.7402490" lon="-0.2036870">
        <ele>2682.6</ele>
        <time>2021-02-27T13:19:50Z</time>
      </trkpt>
      <trkpt lat="42.7402490" lon="-0.2036870">
        <ele>2682.4</ele>
        <time>2021-02-27T13:19:51Z</time>
      </trkpt>
      <trkpt lat="42.7402490" lon="-0.2036870">
        <ele>2682.2</ele>
        <time>2021-02-27T13:19:52Z</time>
      </trkpt>
      <trkpt lat="42.7402490" lon="-0.2036880">
        <ele>2681.4</ele>
        <time>2021-02-27T13:19:58Z</time>
      </trkpt>
      <trkpt lat="42.7402490" lon="-0.2036890">
        <ele>2681.2</ele>
        <time>2021-02-27T13:20:00Z</time>
      </trkpt>
      <trkpt lat="42.7402490" lon="-0.2036900">
        <ele>2680.2</ele>
        <time>2021-02-27T13:20:07Z</time>
      </trkpt>
      <trkpt lat="42.7402490" lon="-0.2036900">
        <ele>2680.0</ele>
        <time>2021-02-27T13:20:09Z</time>
      </trkpt>
      <trkpt lat="42.7402480" lon="-0.2036920">
        <ele>2679.0</ele>
        <time>2021-02-27T13:20:18Z</time>
      </trkpt>
      <trkpt lat="42.7402480" lon="-0.2036920">
        <ele>2678.8</ele>
        <time>2021-02-27T13:20:19Z</time>
      </trkpt>
      <trkpt lat="42.7402480" lon="-0.2036930">
        <ele>2678.6</ele>
        <time>2021-02-27T13:20:23Z</time>
      </trkpt>
      <trkpt lat="42.7402480" lon="-0.2036960">
        <ele>2678.4</ele>
        <time>2021-02-27T13:20:37Z</time>
      </trkpt>
      <trkpt lat="42.7402480" lon="-0.2036970">
        <ele>2678.2</ele>
        <time>2021-02-27T13:20:40Z</time>
      </trkpt>
      <trkpt lat="42.7402480" lon="-0.2036970">
        <ele>2677.8</ele>
        <time>2021-02-27T13:20:44Z</time>
      </trkpt>
      <trkpt lat="42.7402480" lon="-0.2036980">
        <ele>2677.6</ele>
        <time>2021-02-27T13:20:45Z</time>
      </trkpt>
      <trkpt lat="42.7402480" lon="-0.2036980">
        <ele>2676.6</ele>
        <time>2021-02-27T13:20:48Z</time>
      </trkpt>
      <trkpt lat="42.7402480" lon="-0.2036990">
        <ele>2676.0</ele>
        <time>2021-02-27T13:20:52Z</time>
      </trkpt>
      <trkpt lat="42.7402480" lon="-0.2037000">
        <ele>2675.8</ele>
        <time>2021-02-27T13:20:53Z</time>
      </trkpt>
      <trkpt lat="42.7402480" lon="-0.2037000">
        <ele>2675.4</ele>
        <time>2021-02-27T13:20:54Z</time>
      </trkpt>
      <trkpt lat="42.7402480" lon="-0.2037010">
        <ele>2674.4</ele>
        <time>2021-02-27T13:21:00Z</time>
      </trkpt>
      <trkpt lat="42.7402480" lon="-0.2037020">
        <ele>2674.0</ele>
        <time>2021-02-27T13:21:02Z</time>
      </trkpt>
      <trkpt lat="42.7402480" lon="-0.2037030">
        <ele>2673.4</ele>
        <time>2021-02-27T13:21:05Z</time>
      </trkpt>
      <trkpt lat="42.7402480" lon="-0.2037030">
        <ele>2673.2</ele>
        <time>2021-02-27T13:21:06Z</time>
      </trkpt>
      <trkpt lat="42.7402480" lon="-0.2037040">
        <ele>2672.0</ele>
        <time>2021-02-27T13:21:10Z</time>
      </trkpt>
      <trkpt lat="42.7402490" lon="-0.2037060">
        <ele>2671.0</ele>
        <time>2021-02-27T13:21:14Z</time>
      </trkpt>
      <trkpt lat="42.7402490" lon="-0.2037080">
        <ele>2670.8</ele>
        <time>2021-02-27T13:21:22Z</time>
      </trkpt>
      <trkpt lat="42.7402500" lon="-0.2037130">
        <ele>2670.2</ele>
        <time>2021-02-27T13:21:35Z</time>
      </trkpt>
      <trkpt lat="42.7402500" lon="-0.2037190">
        <ele>2670.4</ele>
        <time>2021-02-27T13:21:50Z</time>
      </trkpt>
      <trkpt lat="42.7402500" lon="-0.2037200">
        <ele>2670.4</ele>
        <time>2021-02-27T13:21:52Z</time>
      </trkpt>
      <trkpt lat="42.7402500" lon="-0.2037200">
        <ele>2670.4</ele>
        <time>2021-02-27T13:21:54Z</time>
      </trkpt>
      <trkpt lat="42.7402510" lon="-0.2037250">
        <ele>2670.2</ele>
        <time>2021-02-27T13:22:06Z</time>
      </trkpt>
      <trkpt lat="42.7402520" lon="-0.2037280">
        <ele>2670.2</ele>
        <time>2021-02-27T13:22:15Z</time>
      </trkpt>
      <trkpt lat="42.7402520" lon="-0.2037290">
        <ele>2670.2</ele>
        <time>2021-02-27T13:22:16Z</time>
      </trkpt>
      <trkpt lat="42.7402520" lon="-0.2037290">
        <ele>2670.4</ele>
        <time>2021-02-27T13:22:18Z</time>
      </trkpt>
      <trkpt lat="42.7402530" lon="-0.2037360">
        <ele>2670.8</ele>
        <time>2021-02-27T13:22:37Z</time>
      </trkpt>
      <trkpt lat="42.7402540" lon="-0.2037400">
        <ele>2670.8</ele>
        <time>2021-02-27T13:22:49Z</time>
      </trkpt>
      <trkpt lat="42.7402540" lon="-0.2037410">
        <ele>2670.8</ele>
        <time>2021-02-27T13:22:53Z</time>
      </trkpt>
      <trkpt lat="42.7402540" lon="-0.2037420">
        <ele>2670.8</ele>
        <time>2021-02-27T13:22:54Z</time>
      </trkpt>
      <trkpt lat="42.7402620" lon="-0.2037620">
        <ele>2670.8</ele>
        <time>2021-02-27T13:22:56Z</time>
      </trkpt>
      <trkpt lat="42.7403150" lon="-0.2038630">
        <ele>2670.8</ele>
        <time>2021-02-27T13:23:01Z</time>
      </trkpt>
      <trkpt lat="42.7403240" lon="-0.2038810">
        <ele>2670.8</ele>
        <time>2021-02-27T13:23:02Z</time>
      </trkpt>
      <trkpt lat="42.7403560" lon="-0.2039350">
        <ele>2670.8</ele>
        <time>2021-02-27T13:23:07Z</time>
      </trkpt>
      <trkpt lat="42.7403570" lon="-0.2039360">
        <ele>2670.8</ele>
        <time>2021-02-27T13:23:10Z</time>
      </trkpt>
      <trkpt lat="42.7403570" lon="-0.2039360">
        <ele>2670.8</ele>
        <time>2021-02-27T13:23:13Z</time>
      </trkpt>
      <trkpt lat="42.7403570" lon="-0.2039360">
        <ele>2670.8</ele>
        <time>2021-02-27T13:23:16Z</time>
      </trkpt>
      <trkpt lat="42.7404400" lon="-0.2039340">
        <ele>2670.8</ele>
        <time>2021-02-27T13:23:23Z</time>
      </trkpt>
      <trkpt lat="42.7404910" lon="-0.2039320">
        <ele>2669.8</ele>
        <time>2021-02-27T13:23:26Z</time>
      </trkpt>
      <trkpt lat="42.7405160" lon="-0.2039310">
        <ele>2669.0</ele>
        <time>2021-02-27T13:23:28Z</time>
      </trkpt>
      <trkpt lat="42.7405230" lon="-0.2039200">
        <ele>2669.0</ele>
        <time>2021-02-27T13:23:31Z</time>
      </trkpt>
      <trkpt lat="42.7405300" lon="-0.2039260">
        <ele>2668.6</ele>
        <time>2021-02-27T13:23:33Z</time>
      </trkpt>
      <trkpt lat="42.7405310" lon="-0.2039320">
        <ele>2668.0</ele>
        <time>2021-02-27T13:23:36Z</time>
      </trkpt>
      <trkpt lat="42.7405340" lon="-0.2039290">
        <ele>2667.6</ele>
        <time>2021-02-27T13:23:38Z</time>
      </trkpt>
      <trkpt lat="42.7405320" lon="-0.2039280">
        <ele>2667.4</ele>
        <time>2021-02-27T13:23:39Z</time>
      </trkpt>
      <trkpt lat="42.7405310" lon="-0.2039290">
        <ele>2666.4</ele>
        <time>2021-02-27T13:23:42Z</time>
      </trkpt>
      <trkpt lat="42.7405500" lon="-0.2039390">
        <ele>2665.2</ele>
        <time>2021-02-27T13:23:46Z</time>
      </trkpt>
      <trkpt lat="42.7405830" lon="-0.2039470">
        <ele>2664.0</ele>
        <time>2021-02-27T13:23:49Z</time>
      </trkpt>
      <trkpt lat="42.7405890" lon="-0.2039420">
        <ele>2663.2</ele>
        <time>2021-02-27T13:23:51Z</time>
      </trkpt>
      <trkpt lat="42.7405960" lon="-0.2039400">
        <ele>2663.0</ele>
        <time>2021-02-27T13:23:52Z</time>
      </trkpt>
      <trkpt lat="42.7406050" lon="-0.2039380">
        <ele>2662.6</ele>
        <time>2021-02-27T13:23:53Z</time>
      </trkpt>
      <trkpt lat="42.7406150" lon="-0.2039380">
        <ele>2662.2</ele>
        <time>2021-02-27T13:23:54Z</time>
      </trkpt>
      <trkpt lat="42.7406280" lon="-0.2039290">
        <ele>2661.6</ele>
        <time>2021-02-27T13:23:56Z</time>
      </trkpt>
      <trkpt lat="42.7406450" lon="-0.2039190">
        <ele>2660.4</ele>
        <time>2021-02-27T13:23:59Z</time>
      </trkpt>
      <trkpt lat="42.7406500" lon="-0.2039170">
        <ele>2659.2</ele>
        <time>2021-02-27T13:24:02Z</time>
      </trkpt>
      <trkpt lat="42.7406520" lon="-0.2039170">
        <ele>2659.0</ele>
        <time>2021-02-27T13:24:03Z</time>
      </trkpt>
      <trkpt lat="42.7406700" lon="-0.2039120">
        <ele>2658.2</ele>
        <time>2021-02-27T13:24:07Z</time>
      </trkpt>
      <trkpt lat="42.7406860" lon="-0.2039060">
        <ele>2657.4</ele>
        <time>2021-02-27T13:24:09Z</time>
      </trkpt>
      <trkpt lat="42.7406940" lon="-0.2039090">
        <ele>2656.8</ele>
        <time>2021-02-27T13:24:10Z</time>
      </trkpt>
      <trkpt lat="42.7407160" lon="-0.2039080">
        <ele>2655.8</ele>
        <time>2021-02-27T13:24:13Z</time>
      </trkpt>
      <trkpt lat="42.7407200" lon="-0.2039070">
        <ele>2655.4</ele>
        <time>2021-02-27T13:24:14Z</time>
      </trkpt>
      <trkpt lat="42.7407340" lon="-0.2039060">
        <ele>2655.0</ele>
        <time>2021-02-27T13:24:16Z</time>
      </trkpt>
      <trkpt lat="42.7407400" lon="-0.2039050">
        <ele>2654.6</ele>
        <time>2021-02-27T13:24:17Z</time>
      </trkpt>
      <trkpt lat="42.7407580" lon="-0.2038970">
        <ele>2653.4</ele>
        <time>2021-02-27T13:24:21Z</time>
      </trkpt>
      <trkpt lat="42.7407560" lon="-0.2039000">
        <ele>2653.0</ele>
        <time>2021-02-27T13:24:23Z</time>
      </trkpt>
      <trkpt lat="42.7407640" lon="-0.2038750">
        <ele>2652.4</ele>
        <time>2021-02-27T13:24:27Z</time>
      </trkpt>
      <trkpt lat="42.7407820" lon="-0.2038480">
        <ele>2651.6</ele>
        <time>2021-02-27T13:24:30Z</time>
      </trkpt>
      <trkpt lat="42.7407920" lon="-0.2038390">
        <ele>2651.2</ele>
        <time>2021-02-27T13:24:32Z</time>
      </trkpt>
      <trkpt lat="42.7408150" lon="-0.2038270">
        <ele>2650.8</ele>
        <time>2021-02-27T13:24:36Z</time>
      </trkpt>
      <trkpt lat="42.7408290" lon="-0.2038250">
        <ele>2650.8</ele>
        <time>2021-02-27T13:24:37Z</time>
      </trkpt>
      <trkpt lat="42.7408340" lon="-0.2038170">
        <ele>2650.6</ele>
        <time>2021-02-27T13:24:41Z</time>
      </trkpt>
      <trkpt lat="42.7408290" lon="-0.2038140">
        <ele>2650.6</ele>
        <time>2021-02-27T13:24:43Z</time>
      </trkpt>
      <trkpt lat="42.7408160" lon="-0.2038150">
        <ele>2650.6</ele>
        <time>2021-02-27T13:24:45Z</time>
      </trkpt>
      <trkpt lat="42.7408100" lon="-0.2038150">
        <ele>2650.6</ele>
        <time>2021-02-27T13:24:47Z</time>
      </trkpt>
      <trkpt lat="42.7408090" lon="-0.2038150">
        <ele>2650.8</ele>
        <time>2021-02-27T13:24:49Z</time>
      </trkpt>
      <trkpt lat="42.7408090" lon="-0.2038150">
        <ele>2650.8</ele>
        <time>2021-02-27T13:24:51Z</time>
      </trkpt>
      <trkpt lat="42.7408090" lon="-0.2038150">
        <ele>2651.0</ele>
        <time>2021-02-27T13:25:01Z</time>
      </trkpt>
      <trkpt lat="42.7408190" lon="-0.2038110">
        <ele>2651.0</ele>
        <time>2021-02-27T13:25:07Z</time>
      </trkpt>
      <trkpt lat="42.7408220" lon="-0.2038110">
        <ele>2651.0</ele>
        <time>2021-02-27T13:25:08Z</time>
      </trkpt>
      <trkpt lat="42.7408220" lon="-0.2038100">
        <ele>2651.0</ele>
        <time>2021-02-27T13:25:09Z</time>
      </trkpt>
      <trkpt lat="42.7408190" lon="-0.2038090">
        <ele>2651.0</ele>
        <time>2021-02-27T13:25:10Z</time>
      </trkpt>
      <trkpt lat="42.7408190" lon="-0.2038040">
        <ele>2651.2</ele>
        <time>2021-02-27T13:25:11Z</time>
      </trkpt>
      <trkpt lat="42.7408170" lon="-0.2037970">
        <ele>2651.2</ele>
        <time>2021-02-27T13:25:13Z</time>
      </trkpt>
      <trkpt lat="42.7408130" lon="-0.2037970">
        <ele>2651.2</ele>
        <time>2021-02-27T13:25:17Z</time>
      </trkpt>
      <trkpt lat="42.7408140" lon="-0.2037970">
        <ele>2651.2</ele>
        <time>2021-02-27T13:25:23Z</time>
      </trkpt>
      <trkpt lat="42.7408170" lon="-0.2037960">
        <ele>2651.0</ele>
        <time>2021-02-27T13:25:26Z</time>
      </trkpt>
      <trkpt lat="42.7408170" lon="-0.2037960">
        <ele>2650.0</ele>
        <time>2021-02-27T13:25:32Z</time>
      </trkpt>
      <trkpt lat="42.7408170" lon="-0.2037940">
        <ele>2649.0</ele>
        <time>2021-02-27T13:25:36Z</time>
      </trkpt>
      <trkpt lat="42.7408340" lon="-0.2037760">
        <ele>2648.0</ele>
        <time>2021-02-27T13:25:44Z</time>
      </trkpt>
      <trkpt lat="42.7408720" lon="-0.2037630">
        <ele>2647.4</ele>
        <time>2021-02-27T13:25:50Z</time>
      </trkpt>
      <trkpt lat="42.7408730" lon="-0.2037570">
        <ele>2647.4</ele>
        <time>2021-02-27T13:25:51Z</time>
      </trkpt>
      <trkpt lat="42.7408780" lon="-0.2037520">
        <ele>2647.4</ele>
        <time>2021-02-27T13:25:52Z</time>
      </trkpt>
      <trkpt lat="42.7408860" lon="-0.2037420">
        <ele>2647.4</ele>
        <time>2021-02-27T13:25:54Z</time>
      </trkpt>
      <trkpt lat="42.7408990" lon="-0.2036960">
        <ele>2647.2</ele>
        <time>2021-02-27T13:26:01Z</time>
      </trkpt>
      <trkpt lat="42.7409020" lon="-0.2036810">
        <ele>2647.0</ele>
        <time>2021-02-27T13:26:03Z</time>
      </trkpt>
      <trkpt lat="42.7409240" lon="-0.2035940">
        <ele>2646.6</ele>
        <time>2021-02-27T13:26:10Z</time>
      </trkpt>
      <trkpt lat="42.7409430" lon="-0.2034690">
        <ele>2646.8</ele>
        <time>2021-02-27T13:26:19Z</time>
      </trkpt>
      <trkpt lat="42.7409330" lon="-0.2034160">
        <ele>2648.0</ele>
        <time>2021-02-27T13:26:26Z</time>
      </trkpt>
      <trkpt lat="42.7409280" lon="-0.2033950">
        <ele>2648.2</ele>
        <time>2021-02-27T13:26:28Z</time>
      </trkpt>
      <trkpt lat="42.7409370" lon="-0.2033860">
        <ele>2648.2</ele>
        <time>2021-02-27T13:26:30Z</time>
      </trkpt>
      <trkpt lat="42.7409460" lon="-0.2033690">
        <ele>2648.4</ele>
        <time>2021-02-27T13:26:32Z</time>
      </trkpt>
      <trkpt lat="42.7409500" lon="-0.2033230">
        <ele>2648.6</ele>
        <time>2021-02-27T13:26:36Z</time>
      </trkpt>
      <trkpt lat="42.7409480" lon="-0.2033070">
        <ele>2648.8</ele>
        <time>2021-02-27T13:26:38Z</time>
      </trkpt>
      <trkpt lat="42.7409550" lon="-0.2032920">
        <ele>2649.0</ele>
        <time>2021-02-27T13:26:40Z</time>
      </trkpt>
      <trkpt lat="42.7409640" lon="-0.2032840">
        <ele>2649.2</ele>
        <time>2021-02-27T13:26:41Z</time>
      </trkpt>
      <trkpt lat="42.7409680" lon="-0.2032590">
        <ele>2649.4</ele>
        <time>2021-02-27T13:26:43Z</time>
      </trkpt>
      <trkpt lat="42.7409620" lon="-0.2032380">
        <ele>2649.6</ele>
        <time>2021-02-27T13:26:46Z</time>
      </trkpt>
      <trkpt lat="42.7409610" lon="-0.2032280">
        <ele>2649.6</ele>
        <time>2021-02-27T13:26:47Z</time>
      </trkpt>
      <trkpt lat="42.7409700" lon="-0.2032120">
        <ele>2649.6</ele>
        <time>2021-02-27T13:26:49Z</time>
      </trkpt>
      <trkpt lat="42.7409800" lon="-0.2031850">
        <ele>2649.2</ele>
        <time>2021-02-27T13:26:54Z</time>
      </trkpt>
      <trkpt lat="42.7409820" lon="-0.2031780">
        <ele>2649.2</ele>
        <time>2021-02-27T13:26:55Z</time>
      </trkpt>
      <trkpt lat="42.7409850" lon="-0.2031730">
        <ele>2649.0</ele>
        <time>2021-02-27T13:26:57Z</time>
      </trkpt>
      <trkpt lat="42.7409900" lon="-0.2031620">
        <ele>2648.8</ele>
        <time>2021-02-27T13:26:59Z</time>
      </trkpt>
      <trkpt lat="42.7409950" lon="-0.2031440">
        <ele>2648.4</ele>
        <time>2021-02-27T13:27:03Z</time>
      </trkpt>
      <trkpt lat="42.7409970" lon="-0.2031290">
        <ele>2648.0</ele>
        <time>2021-02-27T13:27:06Z</time>
      </trkpt>
      <trkpt lat="42.7409990" lon="-0.2031200">
        <ele>2648.0</ele>
        <time>2021-02-27T13:27:07Z</time>
      </trkpt>
      <trkpt lat="42.7409990" lon="-0.2030680">
        <ele>2647.0</ele>
        <time>2021-02-27T13:27:13Z</time>
      </trkpt>
      <trkpt lat="42.7410060" lon="-0.2030560">
        <ele>2646.8</ele>
        <time>2021-02-27T13:27:14Z</time>
      </trkpt>
      <trkpt lat="42.7410310" lon="-0.2030440">
        <ele>2646.2</ele>
        <time>2021-02-27T13:27:19Z</time>
      </trkpt>
      <trkpt lat="42.7410340" lon="-0.2030320">
        <ele>2646.2</ele>
        <time>2021-02-27T13:27:20Z</time>
      </trkpt>
      <trkpt lat="42.7410400" lon="-0.2030130">
        <ele>2646.0</ele>
        <time>2021-02-27T13:27:22Z</time>
      </trkpt>
      <trkpt lat="42.7410550" lon="-0.2029790">
        <ele>2645.4</ele>
        <time>2021-02-27T13:27:25Z</time>
      </trkpt>
      <trkpt lat="42.7410590" lon="-0.2029710">
        <ele>2645.0</ele>
        <time>2021-02-27T13:27:26Z</time>
      </trkpt>
      <trkpt lat="42.7410670" lon="-0.2029380">
        <ele>2644.0</ele>
        <time>2021-02-27T13:27:29Z</time>
      </trkpt>
      <trkpt lat="42.7410700" lon="-0.2029280">
        <ele>2643.8</ele>
        <time>2021-02-27T13:27:30Z</time>
      </trkpt>
      <trkpt lat="42.7410750" lon="-0.2029120">
        <ele>2643.4</ele>
        <time>2021-02-27T13:27:32Z</time>
      </trkpt>
      <trkpt lat="42.7410780" lon="-0.2028920">
        <ele>2643.0</ele>
        <time>2021-02-27T13:27:34Z</time>
      </trkpt>
      <trkpt lat="42.7410780" lon="-0.2028770">
        <ele>2642.8</ele>
        <time>2021-02-27T13:27:35Z</time>
      </trkpt>
      <trkpt lat="42.7410830" lon="-0.2028620">
        <ele>2642.8</ele>
        <time>2021-02-27T13:27:36Z</time>
      </trkpt>
      <trkpt lat="42.7410940" lon="-0.2027950">
        <ele>2641.6</ele>
        <time>2021-02-27T13:27:42Z</time>
      </trkpt>
      <trkpt lat="42.7411010" lon="-0.2027550">
        <ele>2640.4</ele>
        <time>2021-02-27T13:27:46Z</time>
      </trkpt>
      <trkpt lat="42.7411010" lon="-0.2027490">
        <ele>2640.2</ele>
        <time>2021-02-27T13:27:47Z</time>
      </trkpt>
      <trkpt lat="42.7411070" lon="-0.2027390">
        <ele>2639.8</ele>
        <time>2021-02-27T13:27:49Z</time>
      </trkpt>
      <trkpt lat="42.7411090" lon="-0.2027350">
        <ele>2639.6</ele>
        <time>2021-02-27T13:27:50Z</time>
      </trkpt>
      <trkpt lat="42.7411100" lon="-0.2027240">
        <ele>2639.2</ele>
        <time>2021-02-27T13:27:53Z</time>
      </trkpt>
      <trkpt lat="42.7411120" lon="-0.2027290">
        <ele>2639.0</ele>
        <time>2021-02-27T13:27:55Z</time>
      </trkpt>
      <trkpt lat="42.7410960" lon="-0.2027390">
        <ele>2638.8</ele>
        <time>2021-02-27T13:28:03Z</time>
      </trkpt>
      <trkpt lat="42.7410960" lon="-0.2027390">
        <ele>2638.8</ele>
        <time>2021-02-27T13:28:12Z</time>
      </trkpt>
      <trkpt lat="42.7410990" lon="-0.2027390">
        <ele>2638.8</ele>
        <time>2021-02-27T13:28:14Z</time>
      </trkpt>
      <trkpt lat="42.7411100" lon="-0.2027520">
        <ele>2638.6</ele>
        <time>2021-02-27T13:28:21Z</time>
      </trkpt>
      <trkpt lat="42.7411110" lon="-0.2027550">
        <ele>2638.6</ele>
        <time>2021-02-27T13:28:22Z</time>
      </trkpt>
      <trkpt lat="42.7411230" lon="-0.2027660">
        <ele>2638.6</ele>
        <time>2021-02-27T13:28:34Z</time>
      </trkpt>
      <trkpt lat="42.7411280" lon="-0.2027790">
        <ele>2638.4</ele>
        <time>2021-02-27T13:28:41Z</time>
      </trkpt>
      <trkpt lat="42.7411380" lon="-0.2027860">
        <ele>2638.2</ele>
        <time>2021-02-27T13:28:47Z</time>
      </trkpt>
      <trkpt lat="42.7411450" lon="-0.2027330">
        <ele>2638.4</ele>
        <time>2021-02-27T13:29:01Z</time>
      </trkpt>
      <trkpt lat="42.7411310" lon="-0.2027070">
        <ele>2638.4</ele>
        <time>2021-02-27T13:29:02Z</time>
      </trkpt>
      <trkpt lat="42.7411130" lon="-0.2026460">
        <ele>2638.8</ele>
        <time>2021-02-27T13:29:04Z</time>
      </trkpt>
      <trkpt lat="42.7411060" lon="-0.2026190">
        <ele>2638.8</ele>
        <time>2021-02-27T13:29:05Z</time>
      </trkpt>
      <trkpt lat="42.7410940" lon="-0.2025850">
        <ele>2639.2</ele>
        <time>2021-02-27T13:29:07Z</time>
      </trkpt>
      <trkpt lat="42.7410880" lon="-0.2025700">
        <ele>2639.2</ele>
        <time>2021-02-27T13:29:08Z</time>
      </trkpt>
      <trkpt lat="42.7410800" lon="-0.2025440">
        <ele>2639.4</ele>
        <time>2021-02-27T13:29:10Z</time>
      </trkpt>
      <trkpt lat="42.7410770" lon="-0.2025330">
        <ele>2639.4</ele>
        <time>2021-02-27T13:29:11Z</time>
      </trkpt>
      <trkpt lat="42.7410430" lon="-0.2024930">
        <ele>2639.6</ele>
        <time>2021-02-27T13:29:16Z</time>
      </trkpt>
      <trkpt lat="42.7410470" lon="-0.2024830">
        <ele>2639.8</ele>
        <time>2021-02-27T13:29:17Z</time>
      </trkpt>
      <trkpt lat="42.7410570" lon="-0.2024580">
        <ele>2640.0</ele>
        <time>2021-02-27T13:29:23Z</time>
      </trkpt>
      <trkpt lat="42.7410530" lon="-0.2024110">
        <ele>2640.0</ele>
        <time>2021-02-27T13:29:28Z</time>
      </trkpt>
      <trkpt lat="42.7410560" lon="-0.2023670">
        <ele>2640.2</ele>
        <time>2021-02-27T13:29:33Z</time>
      </trkpt>
      <trkpt lat="42.7410500" lon="-0.2023520">
        <ele>2640.2</ele>
        <time>2021-02-27T13:29:36Z</time>
      </trkpt>
      <trkpt lat="42.7410420" lon="-0.2023390">
        <ele>2640.4</ele>
        <time>2021-02-27T13:29:39Z</time>
      </trkpt>
      <trkpt lat="42.7410350" lon="-0.2022890">
        <ele>2640.4</ele>
        <time>2021-02-27T13:29:48Z</time>
      </trkpt>
      <trkpt lat="42.7410350" lon="-0.2022840">
        <ele>2640.6</ele>
        <time>2021-02-27T13:29:49Z</time>
      </trkpt>
      <trkpt lat="42.7410390" lon="-0.2022750">
        <ele>2640.6</ele>
        <time>2021-02-27T13:29:50Z</time>
      </trkpt>
      <trkpt lat="42.7410410" lon="-0.2022700">
        <ele>2640.6</ele>
        <time>2021-02-27T13:29:51Z</time>
      </trkpt>
      <trkpt lat="42.7410460" lon="-0.2022630">
        <ele>2640.6</ele>
        <time>2021-02-27T13:29:52Z</time>
      </trkpt>
      <trkpt lat="42.7410510" lon="-0.2022400">
        <ele>2640.6</ele>
        <time>2021-02-27T13:29:55Z</time>
      </trkpt>
      <trkpt lat="42.7410390" lon="-0.2021960">
        <ele>2641.0</ele>
        <time>2021-02-27T13:30:01Z</time>
      </trkpt>
      <trkpt lat="42.7410380" lon="-0.2021590">
        <ele>2641.4</ele>
        <time>2021-02-27T13:30:05Z</time>
      </trkpt>
      <trkpt lat="42.7410400" lon="-0.2021440">
        <ele>2641.6</ele>
        <time>2021-02-27T13:30:07Z</time>
      </trkpt>
      <trkpt lat="42.7410440" lon="-0.2021050">
        <ele>2642.2</ele>
        <time>2021-02-27T13:30:13Z</time>
      </trkpt>
      <trkpt lat="42.7410440" lon="-0.2020730">
        <ele>2642.4</ele>
        <time>2021-02-27T13:30:17Z</time>
      </trkpt>
      <trkpt lat="42.7410400" lon="-0.2020480">
        <ele>2642.6</ele>
        <time>2021-02-27T13:30:20Z</time>
      </trkpt>
      <trkpt lat="42.7410350" lon="-0.2020250">
        <ele>2643.4</ele>
        <time>2021-02-27T13:30:24Z</time>
      </trkpt>
      <trkpt lat="42.7410350" lon="-0.2020160">
        <ele>2643.6</ele>
        <time>2021-02-27T13:30:25Z</time>
      </trkpt>
      <trkpt lat="42.7410340" lon="-0.2020040">
        <ele>2643.8</ele>
        <time>2021-02-27T13:30:27Z</time>
      </trkpt>
      <trkpt lat="42.7410340" lon="-0.2019840">
        <ele>2644.6</ele>
        <time>2021-02-27T13:30:31Z</time>
      </trkpt>
      <trkpt lat="42.7410370" lon="-0.2019690">
        <ele>2645.2</ele>
        <time>2021-02-27T13:30:34Z</time>
      </trkpt>
      <trkpt lat="42.7410450" lon="-0.2019380">
        <ele>2645.6</ele>
        <time>2021-02-27T13:30:38Z</time>
      </trkpt>
      <trkpt lat="42.7410490" lon="-0.2019260">
        <ele>2645.8</ele>
        <time>2021-02-27T13:30:40Z</time>
      </trkpt>
      <trkpt lat="42.7410650" lon="-0.2018910">
        <ele>2646.2</ele>
        <time>2021-02-27T13:30:45Z</time>
      </trkpt>
      <trkpt lat="42.7410710" lon="-0.2018380">
        <ele>2646.8</ele>
        <time>2021-02-27T13:30:49Z</time>
      </trkpt>
      <trkpt lat="42.7410620" lon="-0.2018290">
        <ele>2647.2</ele>
        <time>2021-02-27T13:30:51Z</time>
      </trkpt>
      <trkpt lat="42.7410740" lon="-0.2018120">
        <ele>2647.4</ele>
        <time>2021-02-27T13:30:54Z</time>
      </trkpt>
      <trkpt lat="42.7410750" lon="-0.2018070">
        <ele>2647.6</ele>
        <time>2021-02-27T13:30:55Z</time>
      </trkpt>
      <trkpt lat="42.7410730" lon="-0.2018050">
        <ele>2647.8</ele>
        <time>2021-02-27T13:30:56Z</time>
      </trkpt>
      <trkpt lat="42.7410700" lon="-0.2017960">
        <ele>2648.0</ele>
        <time>2021-02-27T13:30:58Z</time>
      </trkpt>
      <trkpt lat="42.7410750" lon="-0.2017740">
        <ele>2648.2</ele>
        <time>2021-02-27T13:31:01Z</time>
      </trkpt>
      <trkpt lat="42.7410790" lon="-0.2017650">
        <ele>2648.4</ele>
        <time>2021-02-27T13:31:02Z</time>
      </trkpt>
      <trkpt lat="42.7410820" lon="-0.2017580">
        <ele>2648.6</ele>
        <time>2021-02-27T13:31:03Z</time>
      </trkpt>
      <trkpt lat="42.7410850" lon="-0.2017410">
        <ele>2648.8</ele>
        <time>2021-02-27T13:31:05Z</time>
      </trkpt>
      <trkpt lat="42.7410970" lon="-0.2017230">
        <ele>2649.4</ele>
        <time>2021-02-27T13:31:09Z</time>
      </trkpt>
      <trkpt lat="42.7411070" lon="-0.2017110">
        <ele>2649.8</ele>
        <time>2021-02-27T13:31:11Z</time>
      </trkpt>
      <trkpt lat="42.7411300" lon="-0.2016560">
        <ele>2651.0</ele>
        <time>2021-02-27T13:31:18Z</time>
      </trkpt>
      <trkpt lat="42.7411320" lon="-0.2016430">
        <ele>2651.4</ele>
        <time>2021-02-27T13:31:20Z</time>
      </trkpt>
      <trkpt lat="42.7411510" lon="-0.2016120">
        <ele>2652.2</ele>
        <time>2021-02-27T13:31:25Z</time>
      </trkpt>
      <trkpt lat="42.7411630" lon="-0.2015970">
        <ele>2652.6</ele>
        <time>2021-02-27T13:31:28Z</time>
      </trkpt>
      <trkpt lat="42.7411680" lon="-0.2015370">
        <ele>2653.2</ele>
        <time>2021-02-27T13:31:35Z</time>
      </trkpt>
      <trkpt lat="42.7411730" lon="-0.2015210">
        <ele>2653.6</ele>
        <time>2021-02-27T13:31:37Z</time>
      </trkpt>
      <trkpt lat="42.7411700" lon="-0.2015010">
        <ele>2654.0</ele>
        <time>2021-02-27T13:31:39Z</time>
      </trkpt>
      <trkpt lat="42.7411700" lon="-0.2014890">
        <ele>2654.2</ele>
        <time>2021-02-27T13:31:41Z</time>
      </trkpt>
      <trkpt lat="42.7411770" lon="-0.2014750">
        <ele>2654.6</ele>
        <time>2021-02-27T13:31:43Z</time>
      </trkpt>
      <trkpt lat="42.7411790" lon="-0.2014400">
        <ele>2655.4</ele>
        <time>2021-02-27T13:31:48Z</time>
      </trkpt>
      <trkpt lat="42.7411770" lon="-0.2014230">
        <ele>2655.6</ele>
        <time>2021-02-27T13:31:50Z</time>
      </trkpt>
      <trkpt lat="42.7411630" lon="-0.2013840">
        <ele>2656.4</ele>
        <time>2021-02-27T13:31:55Z</time>
      </trkpt>
      <trkpt lat="42.7411380" lon="-0.2013190">
        <ele>2657.6</ele>
        <time>2021-02-27T13:32:03Z</time>
      </trkpt>
      <trkpt lat="42.7411320" lon="-0.2013010">
        <ele>2658.2</ele>
        <time>2021-02-27T13:32:06Z</time>
      </trkpt>
      <trkpt lat="42.7411260" lon="-0.2012910">
        <ele>2658.6</ele>
        <time>2021-02-27T13:32:08Z</time>
      </trkpt>
      <trkpt lat="42.7411050" lon="-0.2012410">
        <ele>2659.8</ele>
        <time>2021-02-27T13:32:15Z</time>
      </trkpt>
      <trkpt lat="42.7410930" lon="-0.2012280">
        <ele>2660.0</ele>
        <time>2021-02-27T13:32:17Z</time>
      </trkpt>
      <trkpt lat="42.7410880" lon="-0.2012070">
        <ele>2660.8</ele>
        <time>2021-02-27T13:32:21Z</time>
      </trkpt>
      <trkpt lat="42.7410840" lon="-0.2011830">
        <ele>2661.4</ele>
        <time>2021-02-27T13:32:25Z</time>
      </trkpt>
      <trkpt lat="42.7410760" lon="-0.2011540">
        <ele>2661.8</ele>
        <time>2021-02-27T13:32:29Z</time>
      </trkpt>
      <trkpt lat="42.7410610" lon="-0.2011040">
        <ele>2663.0</ele>
        <time>2021-02-27T13:32:35Z</time>
      </trkpt>
      <trkpt lat="42.7410700" lon="-0.2010970">
        <ele>2663.4</ele>
        <time>2021-02-27T13:32:38Z</time>
      </trkpt>
      <trkpt lat="42.7410590" lon="-0.2010890">
        <ele>2664.2</ele>
        <time>2021-02-27T13:32:41Z</time>
      </trkpt>
      <trkpt lat="42.7410550" lon="-0.2010650">
        <ele>2665.0</ele>
        <time>2021-02-27T13:32:46Z</time>
      </trkpt>
      <trkpt lat="42.7410530" lon="-0.2010570">
        <ele>2665.2</ele>
        <time>2021-02-27T13:32:47Z</time>
      </trkpt>
      <trkpt lat="42.7410530" lon="-0.2010490">
        <ele>2665.4</ele>
        <time>2021-02-27T13:32:48Z</time>
      </trkpt>
      <trkpt lat="42.7410510" lon="-0.2010400">
        <ele>2665.6</ele>
        <time>2021-02-27T13:32:50Z</time>
      </trkpt>
      <trkpt lat="42.7410190" lon="-0.2011560">
        <ele>2665.8</ele>
        <time>2021-02-27T13:33:42Z</time>
      </trkpt>
      <trkpt lat="42.7410190" lon="-0.2011560">
        <ele>2665.8</ele>
        <time>2021-02-27T13:33:43Z</time>
      </trkpt>
      <trkpt lat="42.7410170" lon="-0.2011560">
        <ele>2666.0</ele>
        <time>2021-02-27T13:33:46Z</time>
      </trkpt>
      <trkpt lat="42.7410170" lon="-0.2011410">
        <ele>2666.4</ele>
        <time>2021-02-27T13:33:49Z</time>
      </trkpt>
      <trkpt lat="42.7410170" lon="-0.2011220">
        <ele>2666.8</ele>
        <time>2021-02-27T13:33:51Z</time>
      </trkpt>
      <trkpt lat="42.7410170" lon="-0.2011060">
        <ele>2667.4</ele>
        <time>2021-02-27T13:33:55Z</time>
      </trkpt>
      <trkpt lat="42.7410160" lon="-0.2011050">
        <ele>2667.6</ele>
        <time>2021-02-27T13:33:56Z</time>
      </trkpt>
      <trkpt lat="42.7410130" lon="-0.2010930">
        <ele>2668.8</ele>
        <time>2021-02-27T13:34:00Z</time>
      </trkpt>
      <trkpt lat="42.7410050" lon="-0.2010780">
        <ele>2669.2</ele>
        <time>2021-02-27T13:34:03Z</time>
      </trkpt>
      <trkpt lat="42.7410030" lon="-0.2010710">
        <ele>2669.6</ele>
        <time>2021-02-27T13:34:04Z</time>
      </trkpt>
      <trkpt lat="42.7410000" lon="-0.2010650">
        <ele>2669.8</ele>
        <time>2021-02-27T13:34:05Z</time>
      </trkpt>
      <trkpt lat="42.7409890" lon="-0.2010440">
        <ele>2671.0</ele>
        <time>2021-02-27T13:34:12Z</time>
      </trkpt>
      <trkpt lat="42.7409890" lon="-0.2010330">
        <ele>2672.0</ele>
        <time>2021-02-27T13:34:18Z</time>
      </trkpt>
      <trkpt lat="42.7409860" lon="-0.2010170">
        <ele>2672.8</ele>
        <time>2021-02-27T13:34:22Z</time>
      </trkpt>
      <trkpt lat="42.7409840" lon="-0.2010130">
        <ele>2673.0</ele>
        <time>2021-02-27T13:34:23Z</time>
      </trkpt>
      <trkpt lat="42.7409790" lon="-0.2009970">
        <ele>2673.4</ele>
        <time>2021-02-27T13:34:26Z</time>
      </trkpt>
      <trkpt lat="42.7409720" lon="-0.2009690">
        <ele>2674.0</ele>
        <time>2021-02-27T13:34:36Z</time>
      </trkpt>
      <trkpt lat="42.7409710" lon="-0.2009680">
        <ele>2673.8</ele>
        <time>2021-02-27T13:34:37Z</time>
      </trkpt>
      <trkpt lat="42.7409650" lon="-0.2009650">
        <ele>2674.0</ele>
        <time>2021-02-27T13:34:43Z</time>
      </trkpt>
      <trkpt lat="42.7409650" lon="-0.2009660">
        <ele>2674.0</ele>
        <time>2021-02-27T13:34:47Z</time>
      </trkpt>
      <trkpt lat="42.7409660" lon="-0.2009690">
        <ele>2673.8</ele>
        <time>2021-02-27T13:34:54Z</time>
      </trkpt>
      <trkpt lat="42.7409780" lon="-0.2009850">
        <ele>2673.8</ele>
        <time>2021-02-27T13:35:02Z</time>
      </trkpt>
      <trkpt lat="42.7409830" lon="-0.2009950">
        <ele>2673.8</ele>
        <time>2021-02-27T13:35:09Z</time>
      </trkpt>
      <trkpt lat="42.7409850" lon="-0.2009950">
        <ele>2674.6</ele>
        <time>2021-02-27T13:35:15Z</time>
      </trkpt>
      <trkpt lat="42.7409860" lon="-0.2009950">
        <ele>2675.2</ele>
        <time>2021-02-27T13:35:19Z</time>
      </trkpt>
      <trkpt lat="42.7409850" lon="-0.2009930">
        <ele>2675.8</ele>
        <time>2021-02-27T13:35:22Z</time>
      </trkpt>
      <trkpt lat="42.7409850" lon="-0.2009890">
        <ele>2676.2</ele>
        <time>2021-02-27T13:35:24Z</time>
      </trkpt>
      <trkpt lat="42.7409850" lon="-0.2009760">
        <ele>2677.0</ele>
        <time>2021-02-27T13:35:27Z</time>
      </trkpt>
      <trkpt lat="42.7409840" lon="-0.2009560">
        <ele>2677.4</ele>
        <time>2021-02-27T13:35:30Z</time>
      </trkpt>
      <trkpt lat="42.7409870" lon="-0.2008970">
        <ele>2678.4</ele>
        <time>2021-02-27T13:35:39Z</time>
      </trkpt>
      <trkpt lat="42.7409880" lon="-0.2008800">
        <ele>2678.8</ele>
        <time>2021-02-27T13:35:42Z</time>
      </trkpt>
      <trkpt lat="42.7409880" lon="-0.2008530">
        <ele>2679.6</ele>
        <time>2021-02-27T13:35:47Z</time>
      </trkpt>
      <trkpt lat="42.7409910" lon="-0.2008340">
        <ele>2680.4</ele>
        <time>2021-02-27T13:35:53Z</time>
      </trkpt>
      <trkpt lat="42.7409920" lon="-0.2008320">
        <ele>2680.6</ele>
        <time>2021-02-27T13:35:54Z</time>
      </trkpt>
      <trkpt lat="42.7409920" lon="-0.2008260">
        <ele>2681.0</ele>
        <time>2021-02-27T13:35:57Z</time>
      </trkpt>
      <trkpt lat="42.7409920" lon="-0.2008200">
        <ele>2681.2</ele>
        <time>2021-02-27T13:36:00Z</time>
      </trkpt>
      <trkpt lat="42.7409910" lon="-0.2008130">
        <ele>2681.8</ele>
        <time>2021-02-27T13:36:04Z</time>
      </trkpt>
      <trkpt lat="42.7409750" lon="-0.2008010">
        <ele>2682.8</ele>
        <time>2021-02-27T13:36:16Z</time>
      </trkpt>
      <trkpt lat="42.7409730" lon="-0.2008000">
        <ele>2683.6</ele>
        <time>2021-02-27T13:36:20Z</time>
      </trkpt>
      <trkpt lat="42.7409730" lon="-0.2008000">
        <ele>2683.8</ele>
        <time>2021-02-27T13:36:21Z</time>
      </trkpt>
      <trkpt lat="42.7409720" lon="-0.2007990">
        <ele>2684.8</ele>
        <time>2021-02-27T13:36:35Z</time>
      </trkpt>
      <trkpt lat="42.7409710" lon="-0.2007970">
        <ele>2685.8</ele>
        <time>2021-02-27T13:36:47Z</time>
      </trkpt>
      <trkpt lat="42.7409710" lon="-0.2007970">
        <ele>2686.0</ele>
        <time>2021-02-27T13:36:52Z</time>
      </trkpt>
      <trkpt lat="42.7409710" lon="-0.2007960">
        <ele>2686.2</ele>
        <time>2021-02-27T13:36:55Z</time>
      </trkpt>
      <trkpt lat="42.7409710" lon="-0.2007950">
        <ele>2687.0</ele>
        <time>2021-02-27T13:37:02Z</time>
      </trkpt>
      <trkpt lat="42.7409710" lon="-0.2007940">
        <ele>2687.2</ele>
        <time>2021-02-27T13:37:05Z</time>
      </trkpt>
      <trkpt lat="42.7409700" lon="-0.2007920">
        <ele>2688.0</ele>
        <time>2021-02-27T13:37:16Z</time>
      </trkpt>
      <trkpt lat="42.7409700" lon="-0.2007920">
        <ele>2688.2</ele>
        <time>2021-02-27T13:37:17Z</time>
      </trkpt>
      <trkpt lat="42.7409700" lon="-0.2007920">
        <ele>2688.4</ele>
        <time>2021-02-27T13:37:18Z</time>
      </trkpt>
      <trkpt lat="42.7409700" lon="-0.2007910">
        <ele>2688.4</ele>
        <time>2021-02-27T13:37:19Z</time>
      </trkpt>
      <trkpt lat="42.7409700" lon="-0.2007910">
        <ele>2688.6</ele>
        <time>2021-02-27T13:37:20Z</time>
      </trkpt>
      <trkpt lat="42.7409700" lon="-0.2007890">
        <ele>2689.2</ele>
        <time>2021-02-27T13:37:29Z</time>
      </trkpt>
      <trkpt lat="42.7409700" lon="-0.2007870">
        <ele>2690.2</ele>
        <time>2021-02-27T13:37:34Z</time>
      </trkpt>
      <trkpt lat="42.7409700" lon="-0.2007870">
        <ele>2690.2</ele>
        <time>2021-02-27T13:37:35Z</time>
      </trkpt>
      <trkpt lat="42.7409700" lon="-0.2007860">
        <ele>2690.8</ele>
        <time>2021-02-27T13:37:39Z</time>
      </trkpt>
      <trkpt lat="42.7409700" lon="-0.2007820">
        <ele>2691.0</ele>
        <time>2021-02-27T13:37:49Z</time>
      </trkpt>
      <trkpt lat="42.7409700" lon="-0.2007810">
        <ele>2690.8</ele>
        <time>2021-02-27T13:37:52Z</time>
      </trkpt>
      <trkpt lat="42.7409700" lon="-0.2007810">
        <ele>2690.8</ele>
        <time>2021-02-27T13:37:54Z</time>
      </trkpt>
      <trkpt lat="42.7409700" lon="-0.2007800">
        <ele>2691.4</ele>
        <time>2021-02-27T13:37:57Z</time>
      </trkpt>
      <trkpt lat="42.7409700" lon="-0.2007780">
        <ele>2692.6</ele>
        <time>2021-02-27T13:38:01Z</time>
      </trkpt>
      <trkpt lat="42.7409700" lon="-0.2007770">
        <ele>2693.0</ele>
        <time>2021-02-27T13:38:06Z</time>
      </trkpt>
      <trkpt lat="42.7409700" lon="-0.2007750">
        <ele>2693.4</ele>
        <time>2021-02-27T13:38:12Z</time>
      </trkpt>
      <trkpt lat="42.7409700" lon="-0.2007740">
        <ele>2693.6</ele>
        <time>2021-02-27T13:38:13Z</time>
      </trkpt>
      <trkpt lat="42.7409690" lon="-0.2007720">
        <ele>2694.2</ele>
        <time>2021-02-27T13:38:19Z</time>
      </trkpt>
      <trkpt lat="42.7409690" lon="-0.2007710">
        <ele>2694.8</ele>
        <time>2021-02-27T13:38:23Z</time>
      </trkpt>
      <trkpt lat="42.7409690" lon="-0.2007690">
        <ele>2695.4</ele>
        <time>2021-02-27T13:38:26Z</time>
      </trkpt>
      <trkpt lat="42.7409690" lon="-0.2007680">
        <ele>2695.8</ele>
        <time>2021-02-27T13:38:29Z</time>
      </trkpt>
      <trkpt lat="42.7409690" lon="-0.2007660">
        <ele>2696.0</ele>
        <time>2021-02-27T13:38:33Z</time>
      </trkpt>
      <trkpt lat="42.7409690" lon="-0.2007580">
        <ele>2696.8</ele>
        <time>2021-02-27T13:38:52Z</time>
      </trkpt>
      <trkpt lat="42.7409690" lon="-0.2007540">
        <ele>2698.0</ele>
        <time>2021-02-27T13:38:59Z</time>
      </trkpt>
      <trkpt lat="42.7409680" lon="-0.2007510">
        <ele>2698.8</ele>
        <time>2021-02-27T13:39:06Z</time>
      </trkpt>
      <trkpt lat="42.7409680" lon="-0.2007500">
        <ele>2699.0</ele>
        <time>2021-02-27T13:39:08Z</time>
      </trkpt>
      <trkpt lat="42.7409680" lon="-0.2007420">
        <ele>2700.0</ele>
        <time>2021-02-27T13:39:23Z</time>
      </trkpt>
      <trkpt lat="42.7409670" lon="-0.2007400">
        <ele>2700.6</ele>
        <time>2021-02-27T13:39:27Z</time>
      </trkpt>
      <trkpt lat="42.7409670" lon="-0.2007360">
        <ele>2701.2</ele>
        <time>2021-02-27T13:39:34Z</time>
      </trkpt>
      <trkpt lat="42.7409670" lon="-0.2007350">
        <ele>2701.6</ele>
        <time>2021-02-27T13:39:37Z</time>
      </trkpt>
      <trkpt lat="42.7409660" lon="-0.2007340">
        <ele>2702.2</ele>
        <time>2021-02-27T13:39:39Z</time>
      </trkpt>
      <trkpt lat="42.7409660" lon="-0.2007300">
        <ele>2703.2</ele>
        <time>2021-02-27T13:39:46Z</time>
      </trkpt>
      <trkpt lat="42.7409650" lon="-0.2007280">
        <ele>2704.2</ele>
        <time>2021-02-27T13:39:49Z</time>
      </trkpt>
      <trkpt lat="42.7409650" lon="-0.2007280">
        <ele>2704.6</ele>
        <time>2021-02-27T13:39:50Z</time>
      </trkpt>
      <trkpt lat="42.7409650" lon="-0.2007250">
        <ele>2705.0</ele>
        <time>2021-02-27T13:39:56Z</time>
      </trkpt>
      <trkpt lat="42.7409640" lon="-0.2007240">
        <ele>2705.0</ele>
        <time>2021-02-27T13:39:57Z</time>
      </trkpt>
      <trkpt lat="42.7409640" lon="-0.2007220">
        <ele>2705.6</ele>
        <time>2021-02-27T13:40:01Z</time>
      </trkpt>
      <trkpt lat="42.7409630" lon="-0.2007160">
        <ele>2706.8</ele>
        <time>2021-02-27T13:40:11Z</time>
      </trkpt>
      <trkpt lat="42.7409620" lon="-0.2007120">
        <ele>2708.0</ele>
        <time>2021-02-27T13:40:18Z</time>
      </trkpt>
      <trkpt lat="42.7409600" lon="-0.2007070">
        <ele>2709.0</ele>
        <time>2021-02-27T13:40:27Z</time>
      </trkpt>
      <trkpt lat="42.7409590" lon="-0.2007000">
        <ele>2710.0</ele>
        <time>2021-02-27T13:40:37Z</time>
      </trkpt>
      <trkpt lat="42.7409580" lon="-0.2006990">
        <ele>2710.4</ele>
        <time>2021-02-27T13:40:39Z</time>
      </trkpt>
      <trkpt lat="42.7409580" lon="-0.2006980">
        <ele>2710.6</ele>
        <time>2021-02-27T13:40:41Z</time>
      </trkpt>
      <trkpt lat="42.7409570" lon="-0.2006940">
        <ele>2710.8</ele>
        <time>2021-02-27T13:40:47Z</time>
      </trkpt>
      <trkpt lat="42.7409570" lon="-0.2006920">
        <ele>2711.2</ele>
        <time>2021-02-27T13:40:50Z</time>
      </trkpt>
      <trkpt lat="42.7409560" lon="-0.2006880">
        <ele>2712.2</ele>
        <time>2021-02-27T13:40:55Z</time>
      </trkpt>
      <trkpt lat="42.7409550" lon="-0.2006870">
        <ele>2712.2</ele>
        <time>2021-02-27T13:40:57Z</time>
      </trkpt>
      <trkpt lat="42.7409550" lon="-0.2006850">
        <ele>2712.4</ele>
        <time>2021-02-27T13:41:00Z</time>
      </trkpt>
      <trkpt lat="42.7409550" lon="-0.2006840">
        <ele>2712.4</ele>
        <time>2021-02-27T13:41:01Z</time>
      </trkpt>
      <trkpt lat="42.7409540" lon="-0.2006810">
        <ele>2712.4</ele>
        <time>2021-02-27T13:41:06Z</time>
      </trkpt>
      <trkpt lat="42.7409530" lon="-0.2006760">
        <ele>2713.6</ele>
        <time>2021-02-27T13:41:13Z</time>
      </trkpt>
      <trkpt lat="42.7409520" lon="-0.2006720">
        <ele>2714.8</ele>
        <time>2021-02-27T13:41:18Z</time>
      </trkpt>
      <trkpt lat="42.7409520" lon="-0.2006690">
        <ele>2715.8</ele>
        <time>2021-02-27T13:41:22Z</time>
      </trkpt>
      <trkpt lat="42.7409510" lon="-0.2006640">
        <ele>2717.0</ele>
        <time>2021-02-27T13:41:28Z</time>
      </trkpt>
      <trkpt lat="42.7409500" lon="-0.2006590">
        <ele>2718.0</ele>
        <time>2021-02-27T13:41:34Z</time>
      </trkpt>
      <trkpt lat="42.7409480" lon="-0.2006490">
        <ele>2718.6</ele>
        <time>2021-02-27T13:41:47Z</time>
      </trkpt>
      <trkpt lat="42.7409460" lon="-0.2006400">
        <ele>2718.6</ele>
        <time>2021-02-27T13:41:57Z</time>
      </trkpt>
      <trkpt lat="42.7409450" lon="-0.2006340">
        <ele>2719.2</ele>
        <time>2021-02-27T13:42:04Z</time>
      </trkpt>
      <trkpt lat="42.7409440" lon="-0.2006300">
        <ele>2720.2</ele>
        <time>2021-02-27T13:42:09Z</time>
      </trkpt>
      <trkpt lat="42.7409410" lon="-0.2006140">
        <ele>2721.4</ele>
        <time>2021-02-27T13:42:27Z</time>
      </trkpt>
      <trkpt lat="42.7409400" lon="-0.2006090">
        <ele>2722.4</ele>
        <time>2021-02-27T13:42:32Z</time>
      </trkpt>
      <trkpt lat="42.7409390" lon="-0.2006090">
        <ele>2722.6</ele>
        <time>2021-02-27T13:42:33Z</time>
      </trkpt>
      <trkpt lat="42.7409390" lon="-0.2006060">
        <ele>2723.2</ele>
        <time>2021-02-27T13:42:36Z</time>
      </trkpt>
      <trkpt lat="42.7409380" lon="-0.2006040">
        <ele>2723.6</ele>
        <time>2021-02-27T13:42:38Z</time>
      </trkpt>
      <trkpt lat="42.7409370" lon="-0.2005970">
        <ele>2724.6</ele>
        <time>2021-02-27T13:42:46Z</time>
      </trkpt>
      <trkpt lat="42.7409340" lon="-0.2005910">
        <ele>2725.2</ele>
        <time>2021-02-27T13:42:54Z</time>
      </trkpt>
      <trkpt lat="42.7409320" lon="-0.2005860">
        <ele>2726.0</ele>
        <time>2021-02-27T13:42:59Z</time>
      </trkpt>
      <trkpt lat="42.7409320" lon="-0.2005860">
        <ele>2726.2</ele>
        <time>2021-02-27T13:43:00Z</time>
      </trkpt>
      <trkpt lat="42.7409240" lon="-0.2005690">
        <ele>2726.6</ele>
        <time>2021-02-27T13:43:20Z</time>
      </trkpt>
      <trkpt lat="42.7409220" lon="-0.2005640">
        <ele>2726.8</ele>
        <time>2021-02-27T13:43:25Z</time>
      </trkpt>
      <trkpt lat="42.7409200" lon="-0.2005580">
        <ele>2727.0</ele>
        <time>2021-02-27T13:43:32Z</time>
      </trkpt>
      <trkpt lat="42.7409180" lon="-0.2005530">
        <ele>2728.0</ele>
        <time>2021-02-27T13:43:38Z</time>
      </trkpt>
      <trkpt lat="42.7409150" lon="-0.2005450">
        <ele>2729.0</ele>
        <time>2021-02-27T13:43:46Z</time>
      </trkpt>
      <trkpt lat="42.7409140" lon="-0.2005430">
        <ele>2729.4</ele>
        <time>2021-02-27T13:43:48Z</time>
      </trkpt>
      <trkpt lat="42.7409130" lon="-0.2005380">
        <ele>2730.2</ele>
        <time>2021-02-27T13:43:54Z</time>
      </trkpt>
      <trkpt lat="42.7409100" lon="-0.2005270">
        <ele>2730.6</ele>
        <time>2021-02-27T13:44:04Z</time>
      </trkpt>
      <trkpt lat="42.7409070" lon="-0.2003140">
        <ele>2730.8</ele>
        <time>2021-02-27T13:44:07Z</time>
      </trkpt>
      <trkpt lat="42.7409050" lon="-0.2001740">
        <ele>2731.0</ele>
        <time>2021-02-27T13:44:09Z</time>
      </trkpt>
      <trkpt lat="42.7409030" lon="-0.2001050">
        <ele>2731.0</ele>
        <time>2021-02-27T13:44:10Z</time>
      </trkpt>
      <trkpt lat="42.7409000" lon="-0.2000390">
        <ele>2731.2</ele>
        <time>2021-02-27T13:44:11Z</time>
      </trkpt>
      <trkpt lat="42.7408950" lon="-0.1998390">
        <ele>2731.4</ele>
        <time>2021-02-27T13:44:16Z</time>
      </trkpt>
      <trkpt lat="42.7409010" lon="-0.1998350">
        <ele>2731.4</ele>
        <time>2021-02-27T13:44:18Z</time>
      </trkpt>
    </trkseg>
  </trk>
</gpx>
